<?xml version="1.0" encoding="UTF-8" standalone="no" ?>
<gpx xmlns="http://www.topografix.com/GPX/1/1" xmlns:xsi="http://www.w3.org/2001/XMLSchema-instance" xsi:schemaLocation="http://www.topografix.com/GPX/1/1 http://www.topografix.com/GPX/1/1/gpx.xsd" version="1.1" creator="VisuGPX - https://www.visugpx.com">
  <metadata>
    <name>2021-09-19 11:32:00 [Suunto App]</name>
  </metadata>
  <trk>
    <name><![CDATA[2021-09-19 11:32:00 [Suunto App]_1]]></name>
    <trkseg>
      <trkpt lat="43.61328" lon="1.30949">
        <ele>181</ele>
        <time>2021-09-19T09:32:00Z</time>
      </trkpt>
      <trkpt lat="43.61316" lon="1.30943">
        <ele>180</ele>
        <time>2021-09-19T09:32:01Z</time>
      </trkpt>
      <trkpt lat="43.61313" lon="1.30941">
        <ele>179</ele>
        <time>2021-09-19T09:32:02Z</time>
      </trkpt>
      <trkpt lat="43.61309" lon="1.30938">
        <ele>179</ele>
        <time>2021-09-19T09:32:03Z</time>
      </trkpt>
      <trkpt lat="43.61305" lon="1.30937">
        <ele>180</ele>
        <time>2021-09-19T09:32:04Z</time>
      </trkpt>
      <trkpt lat="43.61301" lon="1.30935">
        <ele>180</ele>
        <time>2021-09-19T09:32:05Z</time>
      </trkpt>
      <trkpt lat="43.61296" lon="1.30936">
        <ele>180</ele>
        <time>2021-09-19T09:32:06Z</time>
      </trkpt>
      <trkpt lat="43.61292" lon="1.30938">
        <ele>180</ele>
        <time>2021-09-19T09:32:07Z</time>
      </trkpt>
      <trkpt lat="43.61289" lon="1.30942">
        <ele>180</ele>
        <time>2021-09-19T09:32:08Z</time>
      </trkpt>
      <trkpt lat="43.61286" lon="1.30947">
        <ele>180</ele>
        <time>2021-09-19T09:32:09Z</time>
      </trkpt>
      <trkpt lat="43.61283" lon="1.30953">
        <ele>180</ele>
        <time>2021-09-19T09:32:10Z</time>
      </trkpt>
      <trkpt lat="43.61281" lon="1.30959">
        <ele>179</ele>
        <time>2021-09-19T09:32:11Z</time>
      </trkpt>
      <trkpt lat="43.61278" lon="1.30966">
        <ele>179</ele>
        <time>2021-09-19T09:32:12Z</time>
      </trkpt>
      <trkpt lat="43.61275" lon="1.30973">
        <ele>179</ele>
        <time>2021-09-19T09:32:13Z</time>
      </trkpt>
      <trkpt lat="43.61273" lon="1.3098">
        <ele>179</ele>
        <time>2021-09-19T09:32:14Z</time>
      </trkpt>
      <trkpt lat="43.6127" lon="1.30987">
        <ele>178</ele>
        <time>2021-09-19T09:32:15Z</time>
      </trkpt>
      <trkpt lat="43.61267" lon="1.30995">
        <ele>178</ele>
        <time>2021-09-19T09:32:16Z</time>
      </trkpt>
      <trkpt lat="43.61264" lon="1.31002">
        <ele>178</ele>
        <time>2021-09-19T09:32:17Z</time>
      </trkpt>
      <trkpt lat="43.61262" lon="1.3101">
        <ele>178</ele>
        <time>2021-09-19T09:32:18Z</time>
      </trkpt>
      <trkpt lat="43.61259" lon="1.31018">
        <ele>177</ele>
        <time>2021-09-19T09:32:19Z</time>
      </trkpt>
      <trkpt lat="43.61256" lon="1.31026">
        <ele>177</ele>
        <time>2021-09-19T09:32:20Z</time>
      </trkpt>
      <trkpt lat="43.61253" lon="1.31034">
        <ele>177</ele>
        <time>2021-09-19T09:32:21Z</time>
      </trkpt>
      <trkpt lat="43.61251" lon="1.31042">
        <ele>177</ele>
        <time>2021-09-19T09:32:22Z</time>
      </trkpt>
      <trkpt lat="43.61248" lon="1.31049">
        <ele>177</ele>
        <time>2021-09-19T09:32:23Z</time>
      </trkpt>
      <trkpt lat="43.61246" lon="1.31057">
        <ele>177</ele>
        <time>2021-09-19T09:32:24Z</time>
      </trkpt>
      <trkpt lat="43.61243" lon="1.31064">
        <ele>177</ele>
        <time>2021-09-19T09:32:25Z</time>
      </trkpt>
      <trkpt lat="43.61241" lon="1.31072">
        <ele>177</ele>
        <time>2021-09-19T09:32:26Z</time>
      </trkpt>
      <trkpt lat="43.6124" lon="1.31079">
        <ele>177</ele>
        <time>2021-09-19T09:32:27Z</time>
      </trkpt>
      <trkpt lat="43.61239" lon="1.31087">
        <ele>177</ele>
        <time>2021-09-19T09:32:28Z</time>
      </trkpt>
      <trkpt lat="43.61238" lon="1.31094">
        <ele>177</ele>
        <time>2021-09-19T09:32:29Z</time>
      </trkpt>
      <trkpt lat="43.61238" lon="1.31102">
        <ele>177</ele>
        <time>2021-09-19T09:32:30Z</time>
      </trkpt>
      <trkpt lat="43.61238" lon="1.3111">
        <ele>177</ele>
        <time>2021-09-19T09:32:31Z</time>
      </trkpt>
      <trkpt lat="43.61238" lon="1.31118">
        <ele>177</ele>
        <time>2021-09-19T09:32:32Z</time>
      </trkpt>
      <trkpt lat="43.61238" lon="1.31125">
        <ele>177</ele>
        <time>2021-09-19T09:32:33Z</time>
      </trkpt>
      <trkpt lat="43.61238" lon="1.31132">
        <ele>177</ele>
        <time>2021-09-19T09:32:34Z</time>
      </trkpt>
      <trkpt lat="43.61238" lon="1.3114">
        <ele>176</ele>
        <time>2021-09-19T09:32:35Z</time>
      </trkpt>
      <trkpt lat="43.61238" lon="1.31147">
        <ele>176</ele>
        <time>2021-09-19T09:32:36Z</time>
      </trkpt>
      <trkpt lat="43.61239" lon="1.31155">
        <ele>176</ele>
        <time>2021-09-19T09:32:37Z</time>
      </trkpt>
      <trkpt lat="43.61239" lon="1.31162">
        <ele>176</ele>
        <time>2021-09-19T09:32:38Z</time>
      </trkpt>
      <trkpt lat="43.61239" lon="1.3117">
        <ele>176</ele>
        <time>2021-09-19T09:32:39Z</time>
      </trkpt>
      <trkpt lat="43.61239" lon="1.31177">
        <ele>176</ele>
        <time>2021-09-19T09:32:40Z</time>
      </trkpt>
      <trkpt lat="43.61239" lon="1.31184">
        <ele>176</ele>
        <time>2021-09-19T09:32:41Z</time>
      </trkpt>
      <trkpt lat="43.61239" lon="1.31192">
        <ele>176</ele>
        <time>2021-09-19T09:32:42Z</time>
      </trkpt>
      <trkpt lat="43.61239" lon="1.31199">
        <ele>176</ele>
        <time>2021-09-19T09:32:43Z</time>
      </trkpt>
      <trkpt lat="43.61239" lon="1.31207">
        <ele>176</ele>
        <time>2021-09-19T09:32:44Z</time>
      </trkpt>
      <trkpt lat="43.61239" lon="1.31214">
        <ele>176</ele>
        <time>2021-09-19T09:32:45Z</time>
      </trkpt>
      <trkpt lat="43.61239" lon="1.31221">
        <ele>176</ele>
        <time>2021-09-19T09:32:46Z</time>
      </trkpt>
      <trkpt lat="43.61239" lon="1.31228">
        <ele>176</ele>
        <time>2021-09-19T09:32:47Z</time>
      </trkpt>
      <trkpt lat="43.61238" lon="1.31235">
        <ele>176</ele>
        <time>2021-09-19T09:32:48Z</time>
      </trkpt>
      <trkpt lat="43.61238" lon="1.31242">
        <ele>177</ele>
        <time>2021-09-19T09:32:49Z</time>
      </trkpt>
      <trkpt lat="43.61237" lon="1.31249">
        <ele>177</ele>
        <time>2021-09-19T09:32:50Z</time>
      </trkpt>
      <trkpt lat="43.61237" lon="1.31255">
        <ele>177</ele>
        <time>2021-09-19T09:32:51Z</time>
      </trkpt>
      <trkpt lat="43.61236" lon="1.31262">
        <ele>177</ele>
        <time>2021-09-19T09:32:52Z</time>
      </trkpt>
      <trkpt lat="43.61236" lon="1.31268">
        <ele>177</ele>
        <time>2021-09-19T09:32:53Z</time>
      </trkpt>
      <trkpt lat="43.61235" lon="1.31275">
        <ele>178</ele>
        <time>2021-09-19T09:32:54Z</time>
      </trkpt>
      <trkpt lat="43.61235" lon="1.31281">
        <ele>178</ele>
        <time>2021-09-19T09:32:55Z</time>
      </trkpt>
      <trkpt lat="43.61234" lon="1.31287">
        <ele>178</ele>
        <time>2021-09-19T09:32:56Z</time>
      </trkpt>
      <trkpt lat="43.61234" lon="1.31293">
        <ele>178</ele>
        <time>2021-09-19T09:32:57Z</time>
      </trkpt>
      <trkpt lat="43.61234" lon="1.31299">
        <ele>179</ele>
        <time>2021-09-19T09:32:58Z</time>
      </trkpt>
      <trkpt lat="43.61233" lon="1.31305">
        <ele>179</ele>
        <time>2021-09-19T09:32:59Z</time>
      </trkpt>
      <trkpt lat="43.61233" lon="1.31312">
        <ele>179</ele>
        <time>2021-09-19T09:33:00Z</time>
      </trkpt>
      <trkpt lat="43.61232" lon="1.31318">
        <ele>179</ele>
        <time>2021-09-19T09:33:01Z</time>
      </trkpt>
      <trkpt lat="43.61232" lon="1.31325">
        <ele>179</ele>
        <time>2021-09-19T09:33:02Z</time>
      </trkpt>
      <trkpt lat="43.61232" lon="1.31331">
        <ele>179</ele>
        <time>2021-09-19T09:33:03Z</time>
      </trkpt>
      <trkpt lat="43.61231" lon="1.31337">
        <ele>179</ele>
        <time>2021-09-19T09:33:04Z</time>
      </trkpt>
      <trkpt lat="43.61231" lon="1.31343">
        <ele>179</ele>
        <time>2021-09-19T09:33:05Z</time>
      </trkpt>
      <trkpt lat="43.61231" lon="1.31349">
        <ele>179</ele>
        <time>2021-09-19T09:33:06Z</time>
      </trkpt>
      <trkpt lat="43.6123" lon="1.31355">
        <ele>179</ele>
        <time>2021-09-19T09:33:07Z</time>
      </trkpt>
      <trkpt lat="43.6123" lon="1.31362">
        <ele>179</ele>
        <time>2021-09-19T09:33:08Z</time>
      </trkpt>
      <trkpt lat="43.6123" lon="1.31368">
        <ele>179</ele>
        <time>2021-09-19T09:33:09Z</time>
      </trkpt>
      <trkpt lat="43.61229" lon="1.31374">
        <ele>179</ele>
        <time>2021-09-19T09:33:10Z</time>
      </trkpt>
      <trkpt lat="43.61229" lon="1.31381">
        <ele>179</ele>
        <time>2021-09-19T09:33:11Z</time>
      </trkpt>
      <trkpt lat="43.61229" lon="1.31387">
        <ele>179</ele>
        <time>2021-09-19T09:33:12Z</time>
      </trkpt>
      <trkpt lat="43.61229" lon="1.31393">
        <ele>180</ele>
        <time>2021-09-19T09:33:13Z</time>
      </trkpt>
      <trkpt lat="43.61228" lon="1.314">
        <ele>180</ele>
        <time>2021-09-19T09:33:14Z</time>
      </trkpt>
      <trkpt lat="43.61228" lon="1.31406">
        <ele>180</ele>
        <time>2021-09-19T09:33:15Z</time>
      </trkpt>
      <trkpt lat="43.61228" lon="1.31412">
        <ele>180</ele>
        <time>2021-09-19T09:33:16Z</time>
      </trkpt>
      <trkpt lat="43.61228" lon="1.31418">
        <ele>180</ele>
        <time>2021-09-19T09:33:17Z</time>
      </trkpt>
      <trkpt lat="43.61228" lon="1.31424">
        <ele>180</ele>
        <time>2021-09-19T09:33:18Z</time>
      </trkpt>
      <trkpt lat="43.61228" lon="1.31431">
        <ele>180</ele>
        <time>2021-09-19T09:33:19Z</time>
      </trkpt>
      <trkpt lat="43.61228" lon="1.31437">
        <ele>180</ele>
        <time>2021-09-19T09:33:20Z</time>
      </trkpt>
      <trkpt lat="43.61229" lon="1.31444">
        <ele>180</ele>
        <time>2021-09-19T09:33:21Z</time>
      </trkpt>
      <trkpt lat="43.61229" lon="1.31451">
        <ele>180</ele>
        <time>2021-09-19T09:33:22Z</time>
      </trkpt>
      <trkpt lat="43.6123" lon="1.31457">
        <ele>180</ele>
        <time>2021-09-19T09:33:23Z</time>
      </trkpt>
      <trkpt lat="43.6123" lon="1.31465">
        <ele>180</ele>
        <time>2021-09-19T09:33:24Z</time>
      </trkpt>
      <trkpt lat="43.61231" lon="1.31471">
        <ele>180</ele>
        <time>2021-09-19T09:33:25Z</time>
      </trkpt>
      <trkpt lat="43.61232" lon="1.31478">
        <ele>180</ele>
        <time>2021-09-19T09:33:26Z</time>
      </trkpt>
      <trkpt lat="43.61233" lon="1.31486">
        <ele>180</ele>
        <time>2021-09-19T09:33:27Z</time>
      </trkpt>
      <trkpt lat="43.61234" lon="1.31493">
        <ele>180</ele>
        <time>2021-09-19T09:33:28Z</time>
      </trkpt>
      <trkpt lat="43.61235" lon="1.315">
        <ele>180</ele>
        <time>2021-09-19T09:33:29Z</time>
      </trkpt>
      <trkpt lat="43.61237" lon="1.31507">
        <ele>180</ele>
        <time>2021-09-19T09:33:30Z</time>
      </trkpt>
      <trkpt lat="43.61238" lon="1.31514">
        <ele>180</ele>
        <time>2021-09-19T09:33:31Z</time>
      </trkpt>
      <trkpt lat="43.6124" lon="1.31522">
        <ele>180</ele>
        <time>2021-09-19T09:33:32Z</time>
      </trkpt>
      <trkpt lat="43.61241" lon="1.31529">
        <ele>180</ele>
        <time>2021-09-19T09:33:33Z</time>
      </trkpt>
      <trkpt lat="43.61243" lon="1.31536">
        <ele>180</ele>
        <time>2021-09-19T09:33:34Z</time>
      </trkpt>
      <trkpt lat="43.61245" lon="1.31544">
        <ele>180</ele>
        <time>2021-09-19T09:33:35Z</time>
      </trkpt>
      <trkpt lat="43.61246" lon="1.31551">
        <ele>180</ele>
        <time>2021-09-19T09:33:36Z</time>
      </trkpt>
      <trkpt lat="43.61248" lon="1.31559">
        <ele>179</ele>
        <time>2021-09-19T09:33:37Z</time>
      </trkpt>
      <trkpt lat="43.6125" lon="1.31567">
        <ele>179</ele>
        <time>2021-09-19T09:33:38Z</time>
      </trkpt>
      <trkpt lat="43.61251" lon="1.31576">
        <ele>179</ele>
        <time>2021-09-19T09:33:39Z</time>
      </trkpt>
      <trkpt lat="43.61253" lon="1.31584">
        <ele>179</ele>
        <time>2021-09-19T09:33:40Z</time>
      </trkpt>
      <trkpt lat="43.61254" lon="1.31591">
        <ele>178</ele>
        <time>2021-09-19T09:33:41Z</time>
      </trkpt>
      <trkpt lat="43.61255" lon="1.31599">
        <ele>177</ele>
        <time>2021-09-19T09:33:42Z</time>
      </trkpt>
      <trkpt lat="43.61255" lon="1.31606">
        <ele>177</ele>
        <time>2021-09-19T09:33:43Z</time>
      </trkpt>
      <trkpt lat="43.61256" lon="1.31613">
        <ele>177</ele>
        <time>2021-09-19T09:33:44Z</time>
      </trkpt>
      <trkpt lat="43.61257" lon="1.31621">
        <ele>176</ele>
        <time>2021-09-19T09:33:45Z</time>
      </trkpt>
      <trkpt lat="43.61257" lon="1.31629">
        <ele>175</ele>
        <time>2021-09-19T09:33:46Z</time>
      </trkpt>
      <trkpt lat="43.61258" lon="1.31637">
        <ele>175</ele>
        <time>2021-09-19T09:33:47Z</time>
      </trkpt>
      <trkpt lat="43.61258" lon="1.31645">
        <ele>175</ele>
        <time>2021-09-19T09:33:48Z</time>
      </trkpt>
      <trkpt lat="43.61259" lon="1.31654">
        <ele>175</ele>
        <time>2021-09-19T09:33:49Z</time>
      </trkpt>
      <trkpt lat="43.61259" lon="1.31663">
        <ele>175</ele>
        <time>2021-09-19T09:33:50Z</time>
      </trkpt>
      <trkpt lat="43.61259" lon="1.31672">
        <ele>175</ele>
        <time>2021-09-19T09:33:51Z</time>
      </trkpt>
      <trkpt lat="43.61258" lon="1.31681">
        <ele>175</ele>
        <time>2021-09-19T09:33:52Z</time>
      </trkpt>
      <trkpt lat="43.61257" lon="1.3169">
        <ele>175</ele>
        <time>2021-09-19T09:33:53Z</time>
      </trkpt>
      <trkpt lat="43.61257" lon="1.31699">
        <ele>175</ele>
        <time>2021-09-19T09:33:54Z</time>
      </trkpt>
      <trkpt lat="43.61256" lon="1.31707">
        <ele>175</ele>
        <time>2021-09-19T09:33:55Z</time>
      </trkpt>
      <trkpt lat="43.61255" lon="1.31715">
        <ele>175</ele>
        <time>2021-09-19T09:33:56Z</time>
      </trkpt>
      <trkpt lat="43.61254" lon="1.31724">
        <ele>175</ele>
        <time>2021-09-19T09:33:57Z</time>
      </trkpt>
      <trkpt lat="43.61253" lon="1.31731">
        <ele>175</ele>
        <time>2021-09-19T09:33:58Z</time>
      </trkpt>
      <trkpt lat="43.61253" lon="1.31739">
        <ele>174</ele>
        <time>2021-09-19T09:33:59Z</time>
      </trkpt>
      <trkpt lat="43.61252" lon="1.31747">
        <ele>174</ele>
        <time>2021-09-19T09:34:00Z</time>
      </trkpt>
      <trkpt lat="43.61251" lon="1.31755">
        <ele>173</ele>
        <time>2021-09-19T09:34:01Z</time>
      </trkpt>
      <trkpt lat="43.6125" lon="1.31763">
        <ele>173</ele>
        <time>2021-09-19T09:34:02Z</time>
      </trkpt>
      <trkpt lat="43.61249" lon="1.31771">
        <ele>173</ele>
        <time>2021-09-19T09:34:03Z</time>
      </trkpt>
      <trkpt lat="43.61249" lon="1.31778">
        <ele>173</ele>
        <time>2021-09-19T09:34:04Z</time>
      </trkpt>
      <trkpt lat="43.61249" lon="1.31786">
        <ele>173</ele>
        <time>2021-09-19T09:34:05Z</time>
      </trkpt>
      <trkpt lat="43.61249" lon="1.31793">
        <ele>173</ele>
        <time>2021-09-19T09:34:06Z</time>
      </trkpt>
      <trkpt lat="43.61248" lon="1.318">
        <ele>173</ele>
        <time>2021-09-19T09:34:07Z</time>
      </trkpt>
      <trkpt lat="43.61248" lon="1.31806">
        <ele>173</ele>
        <time>2021-09-19T09:34:08Z</time>
      </trkpt>
      <trkpt lat="43.61247" lon="1.31811">
        <ele>173</ele>
        <time>2021-09-19T09:34:09Z</time>
      </trkpt>
      <trkpt lat="43.61246" lon="1.31816">
        <ele>173</ele>
        <time>2021-09-19T09:34:10Z</time>
      </trkpt>
      <trkpt lat="43.61245" lon="1.31822">
        <ele>173</ele>
        <time>2021-09-19T09:34:11Z</time>
      </trkpt>
      <trkpt lat="43.61244" lon="1.31827">
        <ele>173</ele>
        <time>2021-09-19T09:34:12Z</time>
      </trkpt>
      <trkpt lat="43.61244" lon="1.31832">
        <ele>173</ele>
        <time>2021-09-19T09:34:13Z</time>
      </trkpt>
      <trkpt lat="43.61242" lon="1.31838">
        <ele>173</ele>
        <time>2021-09-19T09:34:14Z</time>
      </trkpt>
      <trkpt lat="43.61241" lon="1.31845">
        <ele>173</ele>
        <time>2021-09-19T09:34:15Z</time>
      </trkpt>
      <trkpt lat="43.61239" lon="1.31852">
        <ele>173</ele>
        <time>2021-09-19T09:34:16Z</time>
      </trkpt>
      <trkpt lat="43.61239" lon="1.31859">
        <ele>173</ele>
        <time>2021-09-19T09:34:17Z</time>
      </trkpt>
      <trkpt lat="43.61239" lon="1.31866">
        <ele>173</ele>
        <time>2021-09-19T09:34:18Z</time>
      </trkpt>
      <trkpt lat="43.61238" lon="1.31873">
        <ele>174</ele>
        <time>2021-09-19T09:34:19Z</time>
      </trkpt>
      <trkpt lat="43.61238" lon="1.3188">
        <ele>174</ele>
        <time>2021-09-19T09:34:20Z</time>
      </trkpt>
      <trkpt lat="43.61238" lon="1.31887">
        <ele>174</ele>
        <time>2021-09-19T09:34:21Z</time>
      </trkpt>
      <trkpt lat="43.61238" lon="1.31893">
        <ele>174</ele>
        <time>2021-09-19T09:34:22Z</time>
      </trkpt>
      <trkpt lat="43.61238" lon="1.31899">
        <ele>174</ele>
        <time>2021-09-19T09:34:23Z</time>
      </trkpt>
      <trkpt lat="43.61239" lon="1.31905">
        <ele>174</ele>
        <time>2021-09-19T09:34:24Z</time>
      </trkpt>
      <trkpt lat="43.61239" lon="1.31911">
        <ele>174</ele>
        <time>2021-09-19T09:34:25Z</time>
      </trkpt>
      <trkpt lat="43.61239" lon="1.31917">
        <ele>174</ele>
        <time>2021-09-19T09:34:26Z</time>
      </trkpt>
      <trkpt lat="43.61238" lon="1.31921">
        <ele>175</ele>
        <time>2021-09-19T09:34:27Z</time>
      </trkpt>
      <trkpt lat="43.61236" lon="1.31924">
        <ele>175</ele>
        <time>2021-09-19T09:34:28Z</time>
      </trkpt>
      <trkpt lat="43.61233" lon="1.31925">
        <ele>175</ele>
        <time>2021-09-19T09:34:29Z</time>
      </trkpt>
      <trkpt lat="43.6123" lon="1.31925">
        <ele>175</ele>
        <time>2021-09-19T09:34:30Z</time>
      </trkpt>
      <trkpt lat="43.61227" lon="1.31927">
        <ele>175</ele>
        <time>2021-09-19T09:34:31Z</time>
      </trkpt>
      <trkpt lat="43.61226" lon="1.31931">
        <ele>175</ele>
        <time>2021-09-19T09:34:32Z</time>
      </trkpt>
      <trkpt lat="43.61226" lon="1.31935">
        <ele>175</ele>
        <time>2021-09-19T09:34:33Z</time>
      </trkpt>
      <trkpt lat="43.61226" lon="1.3194">
        <ele>175</ele>
        <time>2021-09-19T09:34:34Z</time>
      </trkpt>
      <trkpt lat="43.61227" lon="1.31945">
        <ele>175</ele>
        <time>2021-09-19T09:34:35Z</time>
      </trkpt>
      <trkpt lat="43.61227" lon="1.31951">
        <ele>175</ele>
        <time>2021-09-19T09:34:36Z</time>
      </trkpt>
      <trkpt lat="43.61228" lon="1.31956">
        <ele>175</ele>
        <time>2021-09-19T09:34:37Z</time>
      </trkpt>
      <trkpt lat="43.61229" lon="1.3196">
        <ele>175</ele>
        <time>2021-09-19T09:34:38Z</time>
      </trkpt>
      <trkpt lat="43.61229" lon="1.31965">
        <ele>175</ele>
        <time>2021-09-19T09:34:39Z</time>
      </trkpt>
      <trkpt lat="43.6123" lon="1.3197">
        <ele>175</ele>
        <time>2021-09-19T09:34:40Z</time>
      </trkpt>
      <trkpt lat="43.61231" lon="1.31976">
        <ele>175</ele>
        <time>2021-09-19T09:34:41Z</time>
      </trkpt>
      <trkpt lat="43.61232" lon="1.31982">
        <ele>175</ele>
        <time>2021-09-19T09:34:42Z</time>
      </trkpt>
      <trkpt lat="43.61233" lon="1.31988">
        <ele>175</ele>
        <time>2021-09-19T09:34:43Z</time>
      </trkpt>
      <trkpt lat="43.61233" lon="1.31994">
        <ele>175</ele>
        <time>2021-09-19T09:34:44Z</time>
      </trkpt>
      <trkpt lat="43.61234" lon="1.32">
        <ele>175</ele>
        <time>2021-09-19T09:34:45Z</time>
      </trkpt>
      <trkpt lat="43.61235" lon="1.32006">
        <ele>175</ele>
        <time>2021-09-19T09:34:46Z</time>
      </trkpt>
      <trkpt lat="43.61236" lon="1.32012">
        <ele>175</ele>
        <time>2021-09-19T09:34:47Z</time>
      </trkpt>
      <trkpt lat="43.61238" lon="1.32018">
        <ele>175</ele>
        <time>2021-09-19T09:34:48Z</time>
      </trkpt>
      <trkpt lat="43.61238" lon="1.32024">
        <ele>175</ele>
        <time>2021-09-19T09:34:49Z</time>
      </trkpt>
      <trkpt lat="43.61239" lon="1.32031">
        <ele>175</ele>
        <time>2021-09-19T09:34:50Z</time>
      </trkpt>
      <trkpt lat="43.6124" lon="1.32037">
        <ele>175</ele>
        <time>2021-09-19T09:34:51Z</time>
      </trkpt>
      <trkpt lat="43.61241" lon="1.32044">
        <ele>175</ele>
        <time>2021-09-19T09:34:52Z</time>
      </trkpt>
      <trkpt lat="43.61241" lon="1.3205">
        <ele>175</ele>
        <time>2021-09-19T09:34:53Z</time>
      </trkpt>
      <trkpt lat="43.61241" lon="1.32057">
        <ele>175</ele>
        <time>2021-09-19T09:34:54Z</time>
      </trkpt>
      <trkpt lat="43.61242" lon="1.32064">
        <ele>175</ele>
        <time>2021-09-19T09:34:55Z</time>
      </trkpt>
      <trkpt lat="43.61242" lon="1.32071">
        <ele>175</ele>
        <time>2021-09-19T09:34:56Z</time>
      </trkpt>
      <trkpt lat="43.61243" lon="1.32078">
        <ele>175</ele>
        <time>2021-09-19T09:34:57Z</time>
      </trkpt>
      <trkpt lat="43.61243" lon="1.32085">
        <ele>175</ele>
        <time>2021-09-19T09:34:58Z</time>
      </trkpt>
      <trkpt lat="43.61243" lon="1.32092">
        <ele>175</ele>
        <time>2021-09-19T09:34:59Z</time>
      </trkpt>
      <trkpt lat="43.61243" lon="1.32098">
        <ele>175</ele>
        <time>2021-09-19T09:35:00Z</time>
      </trkpt>
      <trkpt lat="43.61243" lon="1.32103">
        <ele>175</ele>
        <time>2021-09-19T09:35:01Z</time>
      </trkpt>
      <trkpt lat="43.61243" lon="1.32108">
        <ele>175</ele>
        <time>2021-09-19T09:35:02Z</time>
      </trkpt>
      <trkpt lat="43.61243" lon="1.32113">
        <ele>175</ele>
        <time>2021-09-19T09:35:03Z</time>
      </trkpt>
      <trkpt lat="43.61243" lon="1.32119">
        <ele>175</ele>
        <time>2021-09-19T09:35:04Z</time>
      </trkpt>
      <trkpt lat="43.61242" lon="1.32124">
        <ele>175</ele>
        <time>2021-09-19T09:35:05Z</time>
      </trkpt>
      <trkpt lat="43.61242" lon="1.3213">
        <ele>175</ele>
        <time>2021-09-19T09:35:06Z</time>
      </trkpt>
      <trkpt lat="43.61242" lon="1.32137">
        <ele>175</ele>
        <time>2021-09-19T09:35:07Z</time>
      </trkpt>
      <trkpt lat="43.61241" lon="1.32143">
        <ele>175</ele>
        <time>2021-09-19T09:35:08Z</time>
      </trkpt>
      <trkpt lat="43.61241" lon="1.32149">
        <ele>175</ele>
        <time>2021-09-19T09:35:09Z</time>
      </trkpt>
      <trkpt lat="43.6124" lon="1.32155">
        <ele>175</ele>
        <time>2021-09-19T09:35:10Z</time>
      </trkpt>
      <trkpt lat="43.6124" lon="1.32161">
        <ele>175</ele>
        <time>2021-09-19T09:35:11Z</time>
      </trkpt>
      <trkpt lat="43.61239" lon="1.32166">
        <ele>175</ele>
        <time>2021-09-19T09:35:12Z</time>
      </trkpt>
      <trkpt lat="43.61239" lon="1.32171">
        <ele>176</ele>
        <time>2021-09-19T09:35:13Z</time>
      </trkpt>
      <trkpt lat="43.61239" lon="1.32175">
        <ele>177</ele>
        <time>2021-09-19T09:35:14Z</time>
      </trkpt>
      <trkpt lat="43.61238" lon="1.32179">
        <ele>177</ele>
        <time>2021-09-19T09:35:15Z</time>
      </trkpt>
      <trkpt lat="43.61237" lon="1.32184">
        <ele>178</ele>
        <time>2021-09-19T09:35:16Z</time>
      </trkpt>
      <trkpt lat="43.61236" lon="1.32188">
        <ele>178</ele>
        <time>2021-09-19T09:35:17Z</time>
      </trkpt>
      <trkpt lat="43.61235" lon="1.32193">
        <ele>178</ele>
        <time>2021-09-19T09:35:18Z</time>
      </trkpt>
      <trkpt lat="43.61234" lon="1.32199">
        <ele>178</ele>
        <time>2021-09-19T09:35:19Z</time>
      </trkpt>
      <trkpt lat="43.61233" lon="1.32204">
        <ele>178</ele>
        <time>2021-09-19T09:35:20Z</time>
      </trkpt>
      <trkpt lat="43.61232" lon="1.3221">
        <ele>178</ele>
        <time>2021-09-19T09:35:21Z</time>
      </trkpt>
      <trkpt lat="43.61231" lon="1.32215">
        <ele>178</ele>
        <time>2021-09-19T09:35:22Z</time>
      </trkpt>
      <trkpt lat="43.6123" lon="1.3222">
        <ele>178</ele>
        <time>2021-09-19T09:35:23Z</time>
      </trkpt>
      <trkpt lat="43.61229" lon="1.32225">
        <ele>178</ele>
        <time>2021-09-19T09:35:24Z</time>
      </trkpt>
      <trkpt lat="43.61229" lon="1.32229">
        <ele>178</ele>
        <time>2021-09-19T09:35:25Z</time>
      </trkpt>
      <trkpt lat="43.61229" lon="1.32234">
        <ele>178</ele>
        <time>2021-09-19T09:35:26Z</time>
      </trkpt>
      <trkpt lat="43.6123" lon="1.32238">
        <ele>178</ele>
        <time>2021-09-19T09:35:27Z</time>
      </trkpt>
      <trkpt lat="43.61229" lon="1.32241">
        <ele>178</ele>
        <time>2021-09-19T09:35:28Z</time>
      </trkpt>
      <trkpt lat="43.61228" lon="1.32245">
        <ele>178</ele>
        <time>2021-09-19T09:35:29Z</time>
      </trkpt>
      <trkpt lat="43.61227" lon="1.32248">
        <ele>178</ele>
        <time>2021-09-19T09:35:30Z</time>
      </trkpt>
      <trkpt lat="43.61226" lon="1.32252">
        <ele>178</ele>
        <time>2021-09-19T09:35:31Z</time>
      </trkpt>
      <trkpt lat="43.61225" lon="1.32256">
        <ele>178</ele>
        <time>2021-09-19T09:35:32Z</time>
      </trkpt>
      <trkpt lat="43.61224" lon="1.32261">
        <ele>178</ele>
        <time>2021-09-19T09:35:33Z</time>
      </trkpt>
      <trkpt lat="43.61224" lon="1.32266">
        <ele>178</ele>
        <time>2021-09-19T09:35:34Z</time>
      </trkpt>
      <trkpt lat="43.61223" lon="1.32271">
        <ele>178</ele>
        <time>2021-09-19T09:35:35Z</time>
      </trkpt>
      <trkpt lat="43.61221" lon="1.32276">
        <ele>178</ele>
        <time>2021-09-19T09:35:36Z</time>
      </trkpt>
      <trkpt lat="43.6122" lon="1.32281">
        <ele>178</ele>
        <time>2021-09-19T09:35:37Z</time>
      </trkpt>
      <trkpt lat="43.61218" lon="1.32287">
        <ele>178</ele>
        <time>2021-09-19T09:35:38Z</time>
      </trkpt>
      <trkpt lat="43.61216" lon="1.32293">
        <ele>178</ele>
        <time>2021-09-19T09:35:39Z</time>
      </trkpt>
      <trkpt lat="43.61215" lon="1.32298">
        <ele>178</ele>
        <time>2021-09-19T09:35:40Z</time>
      </trkpt>
      <trkpt lat="43.61213" lon="1.32304">
        <ele>178</ele>
        <time>2021-09-19T09:35:41Z</time>
      </trkpt>
      <trkpt lat="43.61212" lon="1.3231">
        <ele>178</ele>
        <time>2021-09-19T09:35:42Z</time>
      </trkpt>
      <trkpt lat="43.6121" lon="1.32315">
        <ele>178</ele>
        <time>2021-09-19T09:35:43Z</time>
      </trkpt>
      <trkpt lat="43.61208" lon="1.32321">
        <ele>178</ele>
        <time>2021-09-19T09:35:44Z</time>
      </trkpt>
      <trkpt lat="43.61206" lon="1.32326">
        <ele>178</ele>
        <time>2021-09-19T09:35:45Z</time>
      </trkpt>
      <trkpt lat="43.61204" lon="1.32332">
        <ele>178</ele>
        <time>2021-09-19T09:35:46Z</time>
      </trkpt>
      <trkpt lat="43.61203" lon="1.32338">
        <ele>179</ele>
        <time>2021-09-19T09:35:47Z</time>
      </trkpt>
      <trkpt lat="43.61201" lon="1.32344">
        <ele>179</ele>
        <time>2021-09-19T09:35:48Z</time>
      </trkpt>
      <trkpt lat="43.61199" lon="1.3235">
        <ele>179</ele>
        <time>2021-09-19T09:35:49Z</time>
      </trkpt>
      <trkpt lat="43.61198" lon="1.32356">
        <ele>179</ele>
        <time>2021-09-19T09:35:50Z</time>
      </trkpt>
      <trkpt lat="43.61196" lon="1.32361">
        <ele>179</ele>
        <time>2021-09-19T09:35:51Z</time>
      </trkpt>
      <trkpt lat="43.61194" lon="1.32367">
        <ele>179</ele>
        <time>2021-09-19T09:35:52Z</time>
      </trkpt>
      <trkpt lat="43.61192" lon="1.32373">
        <ele>179</ele>
        <time>2021-09-19T09:35:53Z</time>
      </trkpt>
      <trkpt lat="43.6119" lon="1.32379">
        <ele>179</ele>
        <time>2021-09-19T09:35:54Z</time>
      </trkpt>
      <trkpt lat="43.61189" lon="1.32385">
        <ele>179</ele>
        <time>2021-09-19T09:35:55Z</time>
      </trkpt>
      <trkpt lat="43.61187" lon="1.32391">
        <ele>179</ele>
        <time>2021-09-19T09:35:56Z</time>
      </trkpt>
      <trkpt lat="43.61185" lon="1.32397">
        <ele>179</ele>
        <time>2021-09-19T09:35:57Z</time>
      </trkpt>
      <trkpt lat="43.61183" lon="1.32403">
        <ele>178</ele>
        <time>2021-09-19T09:35:58Z</time>
      </trkpt>
      <trkpt lat="43.61181" lon="1.32409">
        <ele>178</ele>
        <time>2021-09-19T09:35:59Z</time>
      </trkpt>
      <trkpt lat="43.61179" lon="1.32415">
        <ele>178</ele>
        <time>2021-09-19T09:36:00Z</time>
      </trkpt>
      <trkpt lat="43.61176" lon="1.32421">
        <ele>178</ele>
        <time>2021-09-19T09:36:01Z</time>
      </trkpt>
      <trkpt lat="43.61174" lon="1.32427">
        <ele>178</ele>
        <time>2021-09-19T09:36:02Z</time>
      </trkpt>
      <trkpt lat="43.61172" lon="1.32432">
        <ele>179</ele>
        <time>2021-09-19T09:36:03Z</time>
      </trkpt>
      <trkpt lat="43.6117" lon="1.32438">
        <ele>179</ele>
        <time>2021-09-19T09:36:04Z</time>
      </trkpt>
      <trkpt lat="43.61168" lon="1.32444">
        <ele>179</ele>
        <time>2021-09-19T09:36:05Z</time>
      </trkpt>
      <trkpt lat="43.61166" lon="1.3245">
        <ele>179</ele>
        <time>2021-09-19T09:36:06Z</time>
      </trkpt>
      <trkpt lat="43.61164" lon="1.32456">
        <ele>179</ele>
        <time>2021-09-19T09:36:07Z</time>
      </trkpt>
      <trkpt lat="43.61162" lon="1.32461">
        <ele>179</ele>
        <time>2021-09-19T09:36:08Z</time>
      </trkpt>
      <trkpt lat="43.61159" lon="1.32467">
        <ele>179</ele>
        <time>2021-09-19T09:36:09Z</time>
      </trkpt>
      <trkpt lat="43.61157" lon="1.32472">
        <ele>179</ele>
        <time>2021-09-19T09:36:10Z</time>
      </trkpt>
      <trkpt lat="43.61155" lon="1.32477">
        <ele>179</ele>
        <time>2021-09-19T09:36:11Z</time>
      </trkpt>
      <trkpt lat="43.61152" lon="1.32483">
        <ele>179</ele>
        <time>2021-09-19T09:36:12Z</time>
      </trkpt>
      <trkpt lat="43.61149" lon="1.32488">
        <ele>179</ele>
        <time>2021-09-19T09:36:13Z</time>
      </trkpt>
      <trkpt lat="43.61146" lon="1.32493">
        <ele>179</ele>
        <time>2021-09-19T09:36:14Z</time>
      </trkpt>
      <trkpt lat="43.61144" lon="1.32498">
        <ele>179</ele>
        <time>2021-09-19T09:36:15Z</time>
      </trkpt>
      <trkpt lat="43.61141" lon="1.32503">
        <ele>179</ele>
        <time>2021-09-19T09:36:16Z</time>
      </trkpt>
      <trkpt lat="43.61138" lon="1.32509">
        <ele>179</ele>
        <time>2021-09-19T09:36:17Z</time>
      </trkpt>
      <trkpt lat="43.61136" lon="1.32514">
        <ele>179</ele>
        <time>2021-09-19T09:36:18Z</time>
      </trkpt>
      <trkpt lat="43.61133" lon="1.3252">
        <ele>179</ele>
        <time>2021-09-19T09:36:19Z</time>
      </trkpt>
      <trkpt lat="43.61131" lon="1.32525">
        <ele>179</ele>
        <time>2021-09-19T09:36:20Z</time>
      </trkpt>
      <trkpt lat="43.61128" lon="1.32531">
        <ele>179</ele>
        <time>2021-09-19T09:36:21Z</time>
      </trkpt>
      <trkpt lat="43.61126" lon="1.32536">
        <ele>178</ele>
        <time>2021-09-19T09:36:22Z</time>
      </trkpt>
      <trkpt lat="43.61123" lon="1.32542">
        <ele>178</ele>
        <time>2021-09-19T09:36:23Z</time>
      </trkpt>
      <trkpt lat="43.61121" lon="1.32547">
        <ele>179</ele>
        <time>2021-09-19T09:36:24Z</time>
      </trkpt>
      <trkpt lat="43.61119" lon="1.32552">
        <ele>179</ele>
        <time>2021-09-19T09:36:25Z</time>
      </trkpt>
      <trkpt lat="43.61116" lon="1.32558">
        <ele>179</ele>
        <time>2021-09-19T09:36:26Z</time>
      </trkpt>
      <trkpt lat="43.61114" lon="1.32563">
        <ele>179</ele>
        <time>2021-09-19T09:36:27Z</time>
      </trkpt>
      <trkpt lat="43.61111" lon="1.32568">
        <ele>179</ele>
        <time>2021-09-19T09:36:28Z</time>
      </trkpt>
      <trkpt lat="43.61109" lon="1.32574">
        <ele>179</ele>
        <time>2021-09-19T09:36:29Z</time>
      </trkpt>
      <trkpt lat="43.61107" lon="1.3258">
        <ele>179</ele>
        <time>2021-09-19T09:36:30Z</time>
      </trkpt>
      <trkpt lat="43.61104" lon="1.32585">
        <ele>179</ele>
        <time>2021-09-19T09:36:31Z</time>
      </trkpt>
      <trkpt lat="43.61102" lon="1.32591">
        <ele>178</ele>
        <time>2021-09-19T09:36:32Z</time>
      </trkpt>
      <trkpt lat="43.611" lon="1.32596">
        <ele>178</ele>
        <time>2021-09-19T09:36:33Z</time>
      </trkpt>
      <trkpt lat="43.61098" lon="1.32601">
        <ele>178</ele>
        <time>2021-09-19T09:36:34Z</time>
      </trkpt>
      <trkpt lat="43.61096" lon="1.32607">
        <ele>178</ele>
        <time>2021-09-19T09:36:35Z</time>
      </trkpt>
      <trkpt lat="43.61093" lon="1.32612">
        <ele>178</ele>
        <time>2021-09-19T09:36:36Z</time>
      </trkpt>
      <trkpt lat="43.6109" lon="1.32615">
        <ele>178</ele>
        <time>2021-09-19T09:36:37Z</time>
      </trkpt>
      <trkpt lat="43.61086" lon="1.32618">
        <ele>178</ele>
        <time>2021-09-19T09:36:38Z</time>
      </trkpt>
      <trkpt lat="43.61082" lon="1.32618">
        <ele>178</ele>
        <time>2021-09-19T09:36:39Z</time>
      </trkpt>
      <trkpt lat="43.61077" lon="1.32617">
        <ele>178</ele>
        <time>2021-09-19T09:36:40Z</time>
      </trkpt>
      <trkpt lat="43.61072" lon="1.32615">
        <ele>178</ele>
        <time>2021-09-19T09:36:41Z</time>
      </trkpt>
      <trkpt lat="43.61068" lon="1.32611">
        <ele>178</ele>
        <time>2021-09-19T09:36:42Z</time>
      </trkpt>
      <trkpt lat="43.61064" lon="1.32608">
        <ele>178</ele>
        <time>2021-09-19T09:36:43Z</time>
      </trkpt>
      <trkpt lat="43.61059" lon="1.32605">
        <ele>178</ele>
        <time>2021-09-19T09:36:44Z</time>
      </trkpt>
      <trkpt lat="43.61055" lon="1.32601">
        <ele>179</ele>
        <time>2021-09-19T09:36:45Z</time>
      </trkpt>
      <trkpt lat="43.61051" lon="1.32598">
        <ele>179</ele>
        <time>2021-09-19T09:36:46Z</time>
      </trkpt>
      <trkpt lat="43.61048" lon="1.32594">
        <ele>179</ele>
        <time>2021-09-19T09:36:47Z</time>
      </trkpt>
      <trkpt lat="43.61044" lon="1.32591">
        <ele>179</ele>
        <time>2021-09-19T09:36:48Z</time>
      </trkpt>
      <trkpt lat="43.61039" lon="1.32587">
        <ele>179</ele>
        <time>2021-09-19T09:36:49Z</time>
      </trkpt>
      <trkpt lat="43.61035" lon="1.32584">
        <ele>179</ele>
        <time>2021-09-19T09:36:50Z</time>
      </trkpt>
      <trkpt lat="43.61031" lon="1.32581">
        <ele>179</ele>
        <time>2021-09-19T09:36:51Z</time>
      </trkpt>
      <trkpt lat="43.61027" lon="1.32577">
        <ele>178</ele>
        <time>2021-09-19T09:36:52Z</time>
      </trkpt>
      <trkpt lat="43.61023" lon="1.32574">
        <ele>178</ele>
        <time>2021-09-19T09:36:53Z</time>
      </trkpt>
      <trkpt lat="43.61019" lon="1.3257">
        <ele>179</ele>
        <time>2021-09-19T09:36:54Z</time>
      </trkpt>
      <trkpt lat="43.61015" lon="1.32567">
        <ele>179</ele>
        <time>2021-09-19T09:36:55Z</time>
      </trkpt>
      <trkpt lat="43.61012" lon="1.32563">
        <ele>179</ele>
        <time>2021-09-19T09:36:56Z</time>
      </trkpt>
      <trkpt lat="43.61008" lon="1.3256">
        <ele>179</ele>
        <time>2021-09-19T09:36:57Z</time>
      </trkpt>
      <trkpt lat="43.61004" lon="1.32557">
        <ele>179</ele>
        <time>2021-09-19T09:36:58Z</time>
      </trkpt>
      <trkpt lat="43.61" lon="1.32555">
        <ele>180</ele>
        <time>2021-09-19T09:36:59Z</time>
      </trkpt>
      <trkpt lat="43.60995" lon="1.32554">
        <ele>180</ele>
        <time>2021-09-19T09:37:00Z</time>
      </trkpt>
      <trkpt lat="43.6099" lon="1.32556">
        <ele>180</ele>
        <time>2021-09-19T09:37:01Z</time>
      </trkpt>
      <trkpt lat="43.60985" lon="1.32559">
        <ele>180</ele>
        <time>2021-09-19T09:37:02Z</time>
      </trkpt>
      <trkpt lat="43.6098" lon="1.32561">
        <ele>179</ele>
        <time>2021-09-19T09:37:03Z</time>
      </trkpt>
      <trkpt lat="43.60976" lon="1.32564">
        <ele>179</ele>
        <time>2021-09-19T09:37:04Z</time>
      </trkpt>
      <trkpt lat="43.60971" lon="1.32566">
        <ele>179</ele>
        <time>2021-09-19T09:37:05Z</time>
      </trkpt>
      <trkpt lat="43.60967" lon="1.32569">
        <ele>179</ele>
        <time>2021-09-19T09:37:06Z</time>
      </trkpt>
      <trkpt lat="43.60963" lon="1.32572">
        <ele>179</ele>
        <time>2021-09-19T09:37:07Z</time>
      </trkpt>
      <trkpt lat="43.60961" lon="1.32574">
        <ele>179</ele>
        <time>2021-09-19T09:37:08Z</time>
      </trkpt>
      <trkpt lat="43.60959" lon="1.32576">
        <ele>178</ele>
        <time>2021-09-19T09:37:09Z</time>
      </trkpt>
      <trkpt lat="43.60957" lon="1.32577">
        <ele>178</ele>
        <time>2021-09-19T09:37:10Z</time>
      </trkpt>
      <trkpt lat="43.60955" lon="1.32575">
        <ele>178</ele>
        <time>2021-09-19T09:37:12Z</time>
      </trkpt>
      <trkpt lat="43.60953" lon="1.32572">
        <ele>179</ele>
        <time>2021-09-19T09:37:14Z</time>
      </trkpt>
      <trkpt lat="43.6095" lon="1.32571">
        <ele>179</ele>
        <time>2021-09-19T09:37:16Z</time>
      </trkpt>
      <trkpt lat="43.60946" lon="1.3257">
        <ele>179</ele>
        <time>2021-09-19T09:37:18Z</time>
      </trkpt>
      <trkpt lat="43.60944" lon="1.32572">
        <ele>178</ele>
        <time>2021-09-19T09:37:19Z</time>
      </trkpt>
      <trkpt lat="43.60943" lon="1.32575">
        <ele>178</ele>
        <time>2021-09-19T09:37:20Z</time>
      </trkpt>
      <trkpt lat="43.60941" lon="1.32579">
        <ele>178</ele>
        <time>2021-09-19T09:37:21Z</time>
      </trkpt>
      <trkpt lat="43.6094" lon="1.32583">
        <ele>178</ele>
        <time>2021-09-19T09:37:22Z</time>
      </trkpt>
      <trkpt lat="43.60938" lon="1.32588">
        <ele>179</ele>
        <time>2021-09-19T09:37:23Z</time>
      </trkpt>
      <trkpt lat="43.60936" lon="1.32592">
        <ele>179</ele>
        <time>2021-09-19T09:37:24Z</time>
      </trkpt>
      <trkpt lat="43.60934" lon="1.32597">
        <ele>179</ele>
        <time>2021-09-19T09:37:25Z</time>
      </trkpt>
      <trkpt lat="43.60932" lon="1.32601">
        <ele>179</ele>
        <time>2021-09-19T09:37:26Z</time>
      </trkpt>
      <trkpt lat="43.60929" lon="1.32605">
        <ele>179</ele>
        <time>2021-09-19T09:37:27Z</time>
      </trkpt>
      <trkpt lat="43.60927" lon="1.32609">
        <ele>179</ele>
        <time>2021-09-19T09:37:28Z</time>
      </trkpt>
      <trkpt lat="43.60925" lon="1.32612">
        <ele>179</ele>
        <time>2021-09-19T09:37:29Z</time>
      </trkpt>
      <trkpt lat="43.60922" lon="1.32616">
        <ele>179</ele>
        <time>2021-09-19T09:37:30Z</time>
      </trkpt>
      <trkpt lat="43.6092" lon="1.32619">
        <ele>180</ele>
        <time>2021-09-19T09:37:31Z</time>
      </trkpt>
      <trkpt lat="43.60917" lon="1.32623">
        <ele>180</ele>
        <time>2021-09-19T09:37:32Z</time>
      </trkpt>
      <trkpt lat="43.60915" lon="1.32626">
        <ele>180</ele>
        <time>2021-09-19T09:37:33Z</time>
      </trkpt>
      <trkpt lat="43.60911" lon="1.32629">
        <ele>180</ele>
        <time>2021-09-19T09:37:34Z</time>
      </trkpt>
      <trkpt lat="43.60907" lon="1.32631">
        <ele>180</ele>
        <time>2021-09-19T09:37:35Z</time>
      </trkpt>
      <trkpt lat="43.60902" lon="1.32632">
        <ele>180</ele>
        <time>2021-09-19T09:37:36Z</time>
      </trkpt>
      <trkpt lat="43.60897" lon="1.32634">
        <ele>180</ele>
        <time>2021-09-19T09:37:37Z</time>
      </trkpt>
      <trkpt lat="43.60893" lon="1.32636">
        <ele>180</ele>
        <time>2021-09-19T09:37:38Z</time>
      </trkpt>
      <trkpt lat="43.60888" lon="1.32639">
        <ele>180</ele>
        <time>2021-09-19T09:37:39Z</time>
      </trkpt>
      <trkpt lat="43.60883" lon="1.32642">
        <ele>180</ele>
        <time>2021-09-19T09:37:40Z</time>
      </trkpt>
      <trkpt lat="43.60878" lon="1.32646">
        <ele>180</ele>
        <time>2021-09-19T09:37:41Z</time>
      </trkpt>
      <trkpt lat="43.60874" lon="1.32651">
        <ele>181</ele>
        <time>2021-09-19T09:37:42Z</time>
      </trkpt>
      <trkpt lat="43.6087" lon="1.32656">
        <ele>181</ele>
        <time>2021-09-19T09:37:43Z</time>
      </trkpt>
      <trkpt lat="43.60866" lon="1.32662">
        <ele>181</ele>
        <time>2021-09-19T09:37:44Z</time>
      </trkpt>
      <trkpt lat="43.60863" lon="1.32668">
        <ele>181</ele>
        <time>2021-09-19T09:37:45Z</time>
      </trkpt>
      <trkpt lat="43.6086" lon="1.32674">
        <ele>181</ele>
        <time>2021-09-19T09:37:46Z</time>
      </trkpt>
      <trkpt lat="43.60858" lon="1.32681">
        <ele>180</ele>
        <time>2021-09-19T09:37:47Z</time>
      </trkpt>
      <trkpt lat="43.60857" lon="1.32688">
        <ele>180</ele>
        <time>2021-09-19T09:37:48Z</time>
      </trkpt>
      <trkpt lat="43.60856" lon="1.32696">
        <ele>180</ele>
        <time>2021-09-19T09:37:49Z</time>
      </trkpt>
      <trkpt lat="43.60856" lon="1.32704">
        <ele>180</ele>
        <time>2021-09-19T09:37:50Z</time>
      </trkpt>
      <trkpt lat="43.60857" lon="1.3271">
        <ele>180</ele>
        <time>2021-09-19T09:37:51Z</time>
      </trkpt>
      <trkpt lat="43.60858" lon="1.32716">
        <ele>180</ele>
        <time>2021-09-19T09:37:52Z</time>
      </trkpt>
      <trkpt lat="43.60858" lon="1.32721">
        <ele>180</ele>
        <time>2021-09-19T09:37:53Z</time>
      </trkpt>
      <trkpt lat="43.60859" lon="1.32726">
        <ele>180</ele>
        <time>2021-09-19T09:37:54Z</time>
      </trkpt>
      <trkpt lat="43.60859" lon="1.3273">
        <ele>180</ele>
        <time>2021-09-19T09:37:55Z</time>
      </trkpt>
      <trkpt lat="43.60861" lon="1.32735">
        <ele>180</ele>
        <time>2021-09-19T09:37:56Z</time>
      </trkpt>
      <trkpt lat="43.60863" lon="1.3274">
        <ele>180</ele>
        <time>2021-09-19T09:37:57Z</time>
      </trkpt>
      <trkpt lat="43.60866" lon="1.32744">
        <ele>180</ele>
        <time>2021-09-19T09:37:58Z</time>
      </trkpt>
      <trkpt lat="43.60868" lon="1.32749">
        <ele>180</ele>
        <time>2021-09-19T09:37:59Z</time>
      </trkpt>
      <trkpt lat="43.60871" lon="1.32754">
        <ele>180</ele>
        <time>2021-09-19T09:38:00Z</time>
      </trkpt>
      <trkpt lat="43.60874" lon="1.32759">
        <ele>180</ele>
        <time>2021-09-19T09:38:01Z</time>
      </trkpt>
      <trkpt lat="43.60876" lon="1.32764">
        <ele>180</ele>
        <time>2021-09-19T09:38:02Z</time>
      </trkpt>
      <trkpt lat="43.60878" lon="1.3277">
        <ele>180</ele>
        <time>2021-09-19T09:38:03Z</time>
      </trkpt>
      <trkpt lat="43.60879" lon="1.32776">
        <ele>180</ele>
        <time>2021-09-19T09:38:04Z</time>
      </trkpt>
      <trkpt lat="43.60878" lon="1.32783">
        <ele>180</ele>
        <time>2021-09-19T09:38:05Z</time>
      </trkpt>
      <trkpt lat="43.60879" lon="1.3279">
        <ele>180</ele>
        <time>2021-09-19T09:38:06Z</time>
      </trkpt>
      <trkpt lat="43.6088" lon="1.32797">
        <ele>180</ele>
        <time>2021-09-19T09:38:07Z</time>
      </trkpt>
      <trkpt lat="43.60884" lon="1.32803">
        <ele>179</ele>
        <time>2021-09-19T09:38:08Z</time>
      </trkpt>
      <trkpt lat="43.60888" lon="1.32809">
        <ele>179</ele>
        <time>2021-09-19T09:38:09Z</time>
      </trkpt>
      <trkpt lat="43.60891" lon="1.32815">
        <ele>180</ele>
        <time>2021-09-19T09:38:10Z</time>
      </trkpt>
      <trkpt lat="43.60895" lon="1.32821">
        <ele>180</ele>
        <time>2021-09-19T09:38:11Z</time>
      </trkpt>
      <trkpt lat="43.60899" lon="1.32827">
        <ele>180</ele>
        <time>2021-09-19T09:38:12Z</time>
      </trkpt>
      <trkpt lat="43.60903" lon="1.32833">
        <ele>180</ele>
        <time>2021-09-19T09:38:13Z</time>
      </trkpt>
      <trkpt lat="43.60907" lon="1.32839">
        <ele>180</ele>
        <time>2021-09-19T09:38:14Z</time>
      </trkpt>
      <trkpt lat="43.6091" lon="1.32845">
        <ele>180</ele>
        <time>2021-09-19T09:38:15Z</time>
      </trkpt>
      <trkpt lat="43.60914" lon="1.32852">
        <ele>180</ele>
        <time>2021-09-19T09:38:16Z</time>
      </trkpt>
      <trkpt lat="43.60917" lon="1.32858">
        <ele>181</ele>
        <time>2021-09-19T09:38:17Z</time>
      </trkpt>
      <trkpt lat="43.6092" lon="1.32865">
        <ele>181</ele>
        <time>2021-09-19T09:38:18Z</time>
      </trkpt>
      <trkpt lat="43.60923" lon="1.32871">
        <ele>181</ele>
        <time>2021-09-19T09:38:19Z</time>
      </trkpt>
      <trkpt lat="43.60928" lon="1.32876">
        <ele>180</ele>
        <time>2021-09-19T09:38:20Z</time>
      </trkpt>
      <trkpt lat="43.60932" lon="1.32881">
        <ele>180</ele>
        <time>2021-09-19T09:38:21Z</time>
      </trkpt>
      <trkpt lat="43.60936" lon="1.32886">
        <ele>180</ele>
        <time>2021-09-19T09:38:22Z</time>
      </trkpt>
      <trkpt lat="43.6094" lon="1.32891">
        <ele>180</ele>
        <time>2021-09-19T09:38:23Z</time>
      </trkpt>
      <trkpt lat="43.60943" lon="1.32896">
        <ele>180</ele>
        <time>2021-09-19T09:38:24Z</time>
      </trkpt>
      <trkpt lat="43.60947" lon="1.32901">
        <ele>180</ele>
        <time>2021-09-19T09:38:25Z</time>
      </trkpt>
      <trkpt lat="43.60949" lon="1.32907">
        <ele>180</ele>
        <time>2021-09-19T09:38:26Z</time>
      </trkpt>
      <trkpt lat="43.60952" lon="1.32912">
        <ele>180</ele>
        <time>2021-09-19T09:38:27Z</time>
      </trkpt>
      <trkpt lat="43.60956" lon="1.32915">
        <ele>180</ele>
        <time>2021-09-19T09:38:28Z</time>
      </trkpt>
      <trkpt lat="43.6096" lon="1.32915">
        <ele>180</ele>
        <time>2021-09-19T09:38:29Z</time>
      </trkpt>
      <trkpt lat="43.60965" lon="1.32913">
        <ele>180</ele>
        <time>2021-09-19T09:38:30Z</time>
      </trkpt>
      <trkpt lat="43.60968" lon="1.3291">
        <ele>180</ele>
        <time>2021-09-19T09:38:31Z</time>
      </trkpt>
      <trkpt lat="43.60969" lon="1.32906">
        <ele>179</ele>
        <time>2021-09-19T09:38:32Z</time>
      </trkpt>
      <trkpt lat="43.60969" lon="1.32903">
        <ele>179</ele>
        <time>2021-09-19T09:38:33Z</time>
      </trkpt>
      <trkpt lat="43.60969" lon="1.32899">
        <ele>179</ele>
        <time>2021-09-19T09:38:34Z</time>
      </trkpt>
      <trkpt lat="43.6097" lon="1.32897">
        <ele>179</ele>
        <time>2021-09-19T09:38:35Z</time>
      </trkpt>
      <trkpt lat="43.60971" lon="1.32894">
        <ele>179</ele>
        <time>2021-09-19T09:38:36Z</time>
      </trkpt>
      <trkpt lat="43.60971" lon="1.32891">
        <ele>178</ele>
        <time>2021-09-19T09:38:37Z</time>
      </trkpt>
      <trkpt lat="43.60971" lon="1.32889">
        <ele>178</ele>
        <time>2021-09-19T09:38:38Z</time>
      </trkpt>
      <trkpt lat="43.60971" lon="1.32885">
        <ele>179</ele>
        <time>2021-09-19T09:38:39Z</time>
      </trkpt>
      <trkpt lat="43.60972" lon="1.32882">
        <ele>179</ele>
        <time>2021-09-19T09:38:40Z</time>
      </trkpt>
      <trkpt lat="43.60972" lon="1.32879">
        <ele>179</ele>
        <time>2021-09-19T09:38:41Z</time>
      </trkpt>
      <trkpt lat="43.60972" lon="1.32876">
        <ele>179</ele>
        <time>2021-09-19T09:38:42Z</time>
      </trkpt>
      <trkpt lat="43.60971" lon="1.32873">
        <ele>180</ele>
        <time>2021-09-19T09:38:44Z</time>
      </trkpt>
      <trkpt lat="43.60968" lon="1.32874">
        <ele>180</ele>
        <time>2021-09-19T09:38:46Z</time>
      </trkpt>
      <trkpt lat="43.60967" lon="1.32876">
        <ele>180</ele>
        <time>2021-09-19T09:38:47Z</time>
      </trkpt>
      <trkpt lat="43.60965" lon="1.32879">
        <ele>180</ele>
        <time>2021-09-19T09:38:48Z</time>
      </trkpt>
      <trkpt lat="43.60965" lon="1.32882">
        <ele>180</ele>
        <time>2021-09-19T09:38:49Z</time>
      </trkpt>
      <trkpt lat="43.60966" lon="1.32885">
        <ele>180</ele>
        <time>2021-09-19T09:38:50Z</time>
      </trkpt>
      <trkpt lat="43.60967" lon="1.32887">
        <ele>180</ele>
        <time>2021-09-19T09:38:51Z</time>
      </trkpt>
      <trkpt lat="43.60968" lon="1.3289">
        <ele>180</ele>
        <time>2021-09-19T09:38:52Z</time>
      </trkpt>
      <trkpt lat="43.6097" lon="1.32892">
        <ele>180</ele>
        <time>2021-09-19T09:38:53Z</time>
      </trkpt>
      <trkpt lat="43.60971" lon="1.32895">
        <ele>180</ele>
        <time>2021-09-19T09:38:55Z</time>
      </trkpt>
      <trkpt lat="43.6097" lon="1.32892">
        <ele>179</ele>
        <time>2021-09-19T09:41:41Z</time>
      </trkpt>
      <trkpt lat="43.60968" lon="1.32893">
        <ele>179</ele>
        <time>2021-09-19T09:44:48Z</time>
      </trkpt>
      <trkpt lat="43.60965" lon="1.32893">
        <ele>179</ele>
        <time>2021-09-19T09:44:50Z</time>
      </trkpt>
      <trkpt lat="43.60962" lon="1.32892">
        <ele>179</ele>
        <time>2021-09-19T09:44:51Z</time>
      </trkpt>
      <trkpt lat="43.6096" lon="1.32891">
        <ele>179</ele>
        <time>2021-09-19T09:44:52Z</time>
      </trkpt>
      <trkpt lat="43.60958" lon="1.32891">
        <ele>179</ele>
        <time>2021-09-19T09:44:53Z</time>
      </trkpt>
      <trkpt lat="43.60956" lon="1.32892">
        <ele>179</ele>
        <time>2021-09-19T09:44:54Z</time>
      </trkpt>
      <trkpt lat="43.60953" lon="1.32893">
        <ele>180</ele>
        <time>2021-09-19T09:44:55Z</time>
      </trkpt>
      <trkpt lat="43.60952" lon="1.32897">
        <ele>180</ele>
        <time>2021-09-19T09:44:56Z</time>
      </trkpt>
      <trkpt lat="43.60951" lon="1.32901">
        <ele>180</ele>
        <time>2021-09-19T09:44:57Z</time>
      </trkpt>
      <trkpt lat="43.60951" lon="1.32907">
        <ele>180</ele>
        <time>2021-09-19T09:44:58Z</time>
      </trkpt>
      <trkpt lat="43.60951" lon="1.32912">
        <ele>180</ele>
        <time>2021-09-19T09:44:59Z</time>
      </trkpt>
      <trkpt lat="43.60952" lon="1.32919">
        <ele>180</ele>
        <time>2021-09-19T09:45:00Z</time>
      </trkpt>
      <trkpt lat="43.60952" lon="1.32925">
        <ele>180</ele>
        <time>2021-09-19T09:45:01Z</time>
      </trkpt>
      <trkpt lat="43.60952" lon="1.32932">
        <ele>179</ele>
        <time>2021-09-19T09:45:02Z</time>
      </trkpt>
      <trkpt lat="43.60951" lon="1.32938">
        <ele>179</ele>
        <time>2021-09-19T09:45:03Z</time>
      </trkpt>
      <trkpt lat="43.6095" lon="1.32945">
        <ele>180</ele>
        <time>2021-09-19T09:45:04Z</time>
      </trkpt>
      <trkpt lat="43.60948" lon="1.3295">
        <ele>180</ele>
        <time>2021-09-19T09:45:05Z</time>
      </trkpt>
      <trkpt lat="43.60947" lon="1.32956">
        <ele>180</ele>
        <time>2021-09-19T09:45:06Z</time>
      </trkpt>
      <trkpt lat="43.60946" lon="1.32961">
        <ele>180</ele>
        <time>2021-09-19T09:45:07Z</time>
      </trkpt>
      <trkpt lat="43.60945" lon="1.32967">
        <ele>180</ele>
        <time>2021-09-19T09:45:08Z</time>
      </trkpt>
      <trkpt lat="43.60944" lon="1.32973">
        <ele>180</ele>
        <time>2021-09-19T09:45:09Z</time>
      </trkpt>
      <trkpt lat="43.60944" lon="1.32979">
        <ele>180</ele>
        <time>2021-09-19T09:45:10Z</time>
      </trkpt>
      <trkpt lat="43.60943" lon="1.32985">
        <ele>180</ele>
        <time>2021-09-19T09:45:11Z</time>
      </trkpt>
      <trkpt lat="43.60942" lon="1.32991">
        <ele>180</ele>
        <time>2021-09-19T09:45:12Z</time>
      </trkpt>
      <trkpt lat="43.6094" lon="1.32997">
        <ele>180</ele>
        <time>2021-09-19T09:45:13Z</time>
      </trkpt>
      <trkpt lat="43.60939" lon="1.33004">
        <ele>180</ele>
        <time>2021-09-19T09:45:14Z</time>
      </trkpt>
      <trkpt lat="43.60938" lon="1.3301">
        <ele>180</ele>
        <time>2021-09-19T09:45:15Z</time>
      </trkpt>
      <trkpt lat="43.60937" lon="1.33017">
        <ele>180</ele>
        <time>2021-09-19T09:45:16Z</time>
      </trkpt>
      <trkpt lat="43.60936" lon="1.33024">
        <ele>180</ele>
        <time>2021-09-19T09:45:17Z</time>
      </trkpt>
      <trkpt lat="43.60935" lon="1.33031">
        <ele>180</ele>
        <time>2021-09-19T09:45:18Z</time>
      </trkpt>
      <trkpt lat="43.60934" lon="1.33038">
        <ele>180</ele>
        <time>2021-09-19T09:45:19Z</time>
      </trkpt>
      <trkpt lat="43.60933" lon="1.33045">
        <ele>180</ele>
        <time>2021-09-19T09:45:20Z</time>
      </trkpt>
      <trkpt lat="43.60932" lon="1.33052">
        <ele>180</ele>
        <time>2021-09-19T09:45:21Z</time>
      </trkpt>
      <trkpt lat="43.60931" lon="1.33059">
        <ele>180</ele>
        <time>2021-09-19T09:45:22Z</time>
      </trkpt>
      <trkpt lat="43.6093" lon="1.33066">
        <ele>180</ele>
        <time>2021-09-19T09:45:23Z</time>
      </trkpt>
      <trkpt lat="43.60929" lon="1.33073">
        <ele>180</ele>
        <time>2021-09-19T09:45:24Z</time>
      </trkpt>
      <trkpt lat="43.60927" lon="1.3308">
        <ele>180</ele>
        <time>2021-09-19T09:45:25Z</time>
      </trkpt>
      <trkpt lat="43.60926" lon="1.33086">
        <ele>180</ele>
        <time>2021-09-19T09:45:26Z</time>
      </trkpt>
      <trkpt lat="43.60925" lon="1.33093">
        <ele>180</ele>
        <time>2021-09-19T09:45:27Z</time>
      </trkpt>
      <trkpt lat="43.60924" lon="1.33099">
        <ele>179</ele>
        <time>2021-09-19T09:45:28Z</time>
      </trkpt>
      <trkpt lat="43.60922" lon="1.33106">
        <ele>179</ele>
        <time>2021-09-19T09:45:29Z</time>
      </trkpt>
      <trkpt lat="43.60921" lon="1.33113">
        <ele>179</ele>
        <time>2021-09-19T09:45:30Z</time>
      </trkpt>
      <trkpt lat="43.6092" lon="1.3312">
        <ele>179</ele>
        <time>2021-09-19T09:45:31Z</time>
      </trkpt>
      <trkpt lat="43.60919" lon="1.33126">
        <ele>180</ele>
        <time>2021-09-19T09:45:32Z</time>
      </trkpt>
      <trkpt lat="43.60918" lon="1.33133">
        <ele>180</ele>
        <time>2021-09-19T09:45:33Z</time>
      </trkpt>
      <trkpt lat="43.60918" lon="1.33139">
        <ele>180</ele>
        <time>2021-09-19T09:45:34Z</time>
      </trkpt>
      <trkpt lat="43.60919" lon="1.33145">
        <ele>180</ele>
        <time>2021-09-19T09:45:35Z</time>
      </trkpt>
      <trkpt lat="43.60918" lon="1.33152">
        <ele>180</ele>
        <time>2021-09-19T09:45:36Z</time>
      </trkpt>
      <trkpt lat="43.60918" lon="1.33159">
        <ele>180</ele>
        <time>2021-09-19T09:45:37Z</time>
      </trkpt>
      <trkpt lat="43.60916" lon="1.33166">
        <ele>180</ele>
        <time>2021-09-19T09:45:38Z</time>
      </trkpt>
      <trkpt lat="43.60915" lon="1.33173">
        <ele>180</ele>
        <time>2021-09-19T09:45:39Z</time>
      </trkpt>
      <trkpt lat="43.60912" lon="1.3318">
        <ele>180</ele>
        <time>2021-09-19T09:45:40Z</time>
      </trkpt>
      <trkpt lat="43.60908" lon="1.33185">
        <ele>180</ele>
        <time>2021-09-19T09:45:41Z</time>
      </trkpt>
      <trkpt lat="43.60904" lon="1.3319">
        <ele>180</ele>
        <time>2021-09-19T09:45:42Z</time>
      </trkpt>
      <trkpt lat="43.60901" lon="1.33195">
        <ele>180</ele>
        <time>2021-09-19T09:45:43Z</time>
      </trkpt>
      <trkpt lat="43.60899" lon="1.332">
        <ele>180</ele>
        <time>2021-09-19T09:45:44Z</time>
      </trkpt>
      <trkpt lat="43.60898" lon="1.33206">
        <ele>180</ele>
        <time>2021-09-19T09:45:45Z</time>
      </trkpt>
      <trkpt lat="43.60896" lon="1.33213">
        <ele>180</ele>
        <time>2021-09-19T09:45:46Z</time>
      </trkpt>
      <trkpt lat="43.60895" lon="1.33219">
        <ele>180</ele>
        <time>2021-09-19T09:45:47Z</time>
      </trkpt>
      <trkpt lat="43.60895" lon="1.33226">
        <ele>180</ele>
        <time>2021-09-19T09:45:48Z</time>
      </trkpt>
      <trkpt lat="43.60895" lon="1.33234">
        <ele>180</ele>
        <time>2021-09-19T09:45:49Z</time>
      </trkpt>
      <trkpt lat="43.60896" lon="1.3324">
        <ele>179</ele>
        <time>2021-09-19T09:45:50Z</time>
      </trkpt>
      <trkpt lat="43.60896" lon="1.33245">
        <ele>179</ele>
        <time>2021-09-19T09:45:51Z</time>
      </trkpt>
      <trkpt lat="43.60898" lon="1.33248">
        <ele>179</ele>
        <time>2021-09-19T09:45:52Z</time>
      </trkpt>
      <trkpt lat="43.60901" lon="1.33251">
        <ele>179</ele>
        <time>2021-09-19T09:45:53Z</time>
      </trkpt>
      <trkpt lat="43.60903" lon="1.33254">
        <ele>179</ele>
        <time>2021-09-19T09:45:54Z</time>
      </trkpt>
      <trkpt lat="43.60905" lon="1.33257">
        <ele>179</ele>
        <time>2021-09-19T09:45:55Z</time>
      </trkpt>
      <trkpt lat="43.60908" lon="1.33261">
        <ele>178</ele>
        <time>2021-09-19T09:45:56Z</time>
      </trkpt>
      <trkpt lat="43.6091" lon="1.33265">
        <ele>178</ele>
        <time>2021-09-19T09:45:57Z</time>
      </trkpt>
      <trkpt lat="43.60912" lon="1.33269">
        <ele>178</ele>
        <time>2021-09-19T09:45:58Z</time>
      </trkpt>
      <trkpt lat="43.60914" lon="1.33273">
        <ele>178</ele>
        <time>2021-09-19T09:45:59Z</time>
      </trkpt>
      <trkpt lat="43.60916" lon="1.33276">
        <ele>178</ele>
        <time>2021-09-19T09:46:00Z</time>
      </trkpt>
      <trkpt lat="43.60918" lon="1.3328">
        <ele>178</ele>
        <time>2021-09-19T09:46:01Z</time>
      </trkpt>
      <trkpt lat="43.6092" lon="1.33284">
        <ele>178</ele>
        <time>2021-09-19T09:46:02Z</time>
      </trkpt>
      <trkpt lat="43.60922" lon="1.33287">
        <ele>179</ele>
        <time>2021-09-19T09:46:03Z</time>
      </trkpt>
      <trkpt lat="43.60924" lon="1.3329">
        <ele>179</ele>
        <time>2021-09-19T09:46:04Z</time>
      </trkpt>
      <trkpt lat="43.60925" lon="1.33294">
        <ele>179</ele>
        <time>2021-09-19T09:46:05Z</time>
      </trkpt>
      <trkpt lat="43.60926" lon="1.33296">
        <ele>179</ele>
        <time>2021-09-19T09:46:06Z</time>
      </trkpt>
      <trkpt lat="43.60927" lon="1.33299">
        <ele>179</ele>
        <time>2021-09-19T09:46:07Z</time>
      </trkpt>
      <trkpt lat="43.60929" lon="1.33302">
        <ele>179</ele>
        <time>2021-09-19T09:46:08Z</time>
      </trkpt>
      <trkpt lat="43.6093" lon="1.33305">
        <ele>179</ele>
        <time>2021-09-19T09:46:09Z</time>
      </trkpt>
      <trkpt lat="43.60932" lon="1.33308">
        <ele>179</ele>
        <time>2021-09-19T09:46:10Z</time>
      </trkpt>
      <trkpt lat="43.60934" lon="1.33311">
        <ele>179</ele>
        <time>2021-09-19T09:46:11Z</time>
      </trkpt>
      <trkpt lat="43.60936" lon="1.33314">
        <ele>179</ele>
        <time>2021-09-19T09:46:12Z</time>
      </trkpt>
      <trkpt lat="43.60938" lon="1.33318">
        <ele>179</ele>
        <time>2021-09-19T09:46:13Z</time>
      </trkpt>
      <trkpt lat="43.6094" lon="1.33321">
        <ele>179</ele>
        <time>2021-09-19T09:46:14Z</time>
      </trkpt>
      <trkpt lat="43.60942" lon="1.33325">
        <ele>179</ele>
        <time>2021-09-19T09:46:15Z</time>
      </trkpt>
      <trkpt lat="43.60945" lon="1.33329">
        <ele>179</ele>
        <time>2021-09-19T09:46:16Z</time>
      </trkpt>
      <trkpt lat="43.60947" lon="1.33332">
        <ele>179</ele>
        <time>2021-09-19T09:46:17Z</time>
      </trkpt>
      <trkpt lat="43.60949" lon="1.33336">
        <ele>180</ele>
        <time>2021-09-19T09:46:18Z</time>
      </trkpt>
      <trkpt lat="43.60951" lon="1.3334">
        <ele>180</ele>
        <time>2021-09-19T09:46:19Z</time>
      </trkpt>
      <trkpt lat="43.60953" lon="1.33345">
        <ele>180</ele>
        <time>2021-09-19T09:46:20Z</time>
      </trkpt>
      <trkpt lat="43.60954" lon="1.3335">
        <ele>180</ele>
        <time>2021-09-19T09:46:21Z</time>
      </trkpt>
      <trkpt lat="43.60954" lon="1.33356">
        <ele>180</ele>
        <time>2021-09-19T09:46:22Z</time>
      </trkpt>
      <trkpt lat="43.60954" lon="1.33362">
        <ele>180</ele>
        <time>2021-09-19T09:46:23Z</time>
      </trkpt>
      <trkpt lat="43.60953" lon="1.33368">
        <ele>180</ele>
        <time>2021-09-19T09:46:24Z</time>
      </trkpt>
      <trkpt lat="43.60951" lon="1.33373">
        <ele>180</ele>
        <time>2021-09-19T09:46:25Z</time>
      </trkpt>
      <trkpt lat="43.60949" lon="1.33378">
        <ele>180</ele>
        <time>2021-09-19T09:46:26Z</time>
      </trkpt>
      <trkpt lat="43.60946" lon="1.33382">
        <ele>180</ele>
        <time>2021-09-19T09:46:27Z</time>
      </trkpt>
      <trkpt lat="43.60945" lon="1.33387">
        <ele>180</ele>
        <time>2021-09-19T09:46:28Z</time>
      </trkpt>
      <trkpt lat="43.60943" lon="1.3339">
        <ele>180</ele>
        <time>2021-09-19T09:46:29Z</time>
      </trkpt>
      <trkpt lat="43.60942" lon="1.33394">
        <ele>180</ele>
        <time>2021-09-19T09:46:30Z</time>
      </trkpt>
      <trkpt lat="43.6094" lon="1.33398">
        <ele>180</ele>
        <time>2021-09-19T09:46:31Z</time>
      </trkpt>
      <trkpt lat="43.60938" lon="1.33402">
        <ele>180</ele>
        <time>2021-09-19T09:46:32Z</time>
      </trkpt>
      <trkpt lat="43.60935" lon="1.33406">
        <ele>180</ele>
        <time>2021-09-19T09:46:33Z</time>
      </trkpt>
      <trkpt lat="43.60933" lon="1.33409">
        <ele>181</ele>
        <time>2021-09-19T09:46:34Z</time>
      </trkpt>
      <trkpt lat="43.6093" lon="1.33413">
        <ele>181</ele>
        <time>2021-09-19T09:46:35Z</time>
      </trkpt>
      <trkpt lat="43.60928" lon="1.33418">
        <ele>181</ele>
        <time>2021-09-19T09:46:36Z</time>
      </trkpt>
      <trkpt lat="43.60922" lon="1.33429">
        <ele>180</ele>
        <time>2021-09-19T09:46:38Z</time>
      </trkpt>
      <trkpt lat="43.6092" lon="1.33433">
        <ele>180</ele>
        <time>2021-09-19T09:46:39Z</time>
      </trkpt>
      <trkpt lat="43.60917" lon="1.33438">
        <ele>180</ele>
        <time>2021-09-19T09:46:40Z</time>
      </trkpt>
      <trkpt lat="43.60914" lon="1.33445">
        <ele>180</ele>
        <time>2021-09-19T09:46:41Z</time>
      </trkpt>
      <trkpt lat="43.60912" lon="1.33451">
        <ele>180</ele>
        <time>2021-09-19T09:46:42Z</time>
      </trkpt>
      <trkpt lat="43.60907" lon="1.33463">
        <ele>180</ele>
        <time>2021-09-19T09:46:44Z</time>
      </trkpt>
      <trkpt lat="43.60904" lon="1.33468">
        <ele>180</ele>
        <time>2021-09-19T09:46:45Z</time>
      </trkpt>
      <trkpt lat="43.60902" lon="1.33474">
        <ele>180</ele>
        <time>2021-09-19T09:46:46Z</time>
      </trkpt>
      <trkpt lat="43.609" lon="1.33481">
        <ele>180</ele>
        <time>2021-09-19T09:46:47Z</time>
      </trkpt>
      <trkpt lat="43.60895" lon="1.33496">
        <ele>179</ele>
        <time>2021-09-19T09:46:50Z</time>
      </trkpt>
      <trkpt lat="43.60893" lon="1.335">
        <ele>179</ele>
        <time>2021-09-19T09:46:52Z</time>
      </trkpt>
      <trkpt lat="43.60892" lon="1.33504">
        <ele>179</ele>
        <time>2021-09-19T09:46:53Z</time>
      </trkpt>
      <trkpt lat="43.60891" lon="1.33507">
        <ele>179</ele>
        <time>2021-09-19T09:46:54Z</time>
      </trkpt>
      <trkpt lat="43.6089" lon="1.3351">
        <ele>179</ele>
        <time>2021-09-19T09:46:55Z</time>
      </trkpt>
      <trkpt lat="43.60889" lon="1.33515">
        <ele>179</ele>
        <time>2021-09-19T09:46:56Z</time>
      </trkpt>
      <trkpt lat="43.60887" lon="1.33519">
        <ele>179</ele>
        <time>2021-09-19T09:46:57Z</time>
      </trkpt>
      <trkpt lat="43.60886" lon="1.33523">
        <ele>179</ele>
        <time>2021-09-19T09:46:58Z</time>
      </trkpt>
      <trkpt lat="43.60884" lon="1.33528">
        <ele>180</ele>
        <time>2021-09-19T09:46:59Z</time>
      </trkpt>
      <trkpt lat="43.60883" lon="1.33532">
        <ele>180</ele>
        <time>2021-09-19T09:47:00Z</time>
      </trkpt>
      <trkpt lat="43.60881" lon="1.33536">
        <ele>180</ele>
        <time>2021-09-19T09:47:01Z</time>
      </trkpt>
      <trkpt lat="43.6088" lon="1.3354">
        <ele>180</ele>
        <time>2021-09-19T09:47:02Z</time>
      </trkpt>
      <trkpt lat="43.60878" lon="1.33544">
        <ele>179</ele>
        <time>2021-09-19T09:47:03Z</time>
      </trkpt>
      <trkpt lat="43.60877" lon="1.33547">
        <ele>179</ele>
        <time>2021-09-19T09:47:04Z</time>
      </trkpt>
      <trkpt lat="43.60875" lon="1.3355">
        <ele>179</ele>
        <time>2021-09-19T09:47:05Z</time>
      </trkpt>
      <trkpt lat="43.60874" lon="1.33553">
        <ele>179</ele>
        <time>2021-09-19T09:47:06Z</time>
      </trkpt>
      <trkpt lat="43.60873" lon="1.33555">
        <ele>179</ele>
        <time>2021-09-19T09:47:07Z</time>
      </trkpt>
      <trkpt lat="43.60873" lon="1.33559">
        <ele>179</ele>
        <time>2021-09-19T09:47:09Z</time>
      </trkpt>
      <trkpt lat="43.60872" lon="1.33563">
        <ele>179</ele>
        <time>2021-09-19T09:47:11Z</time>
      </trkpt>
      <trkpt lat="43.6087" lon="1.33567">
        <ele>179</ele>
        <time>2021-09-19T09:47:12Z</time>
      </trkpt>
      <trkpt lat="43.60868" lon="1.33571">
        <ele>178</ele>
        <time>2021-09-19T09:47:13Z</time>
      </trkpt>
      <trkpt lat="43.60866" lon="1.33576">
        <ele>177</ele>
        <time>2021-09-19T09:47:14Z</time>
      </trkpt>
      <trkpt lat="43.60864" lon="1.33581">
        <ele>178</ele>
        <time>2021-09-19T09:47:15Z</time>
      </trkpt>
      <trkpt lat="43.60862" lon="1.33586">
        <ele>178</ele>
        <time>2021-09-19T09:47:16Z</time>
      </trkpt>
      <trkpt lat="43.60861" lon="1.33591">
        <ele>178</ele>
        <time>2021-09-19T09:47:17Z</time>
      </trkpt>
      <trkpt lat="43.6086" lon="1.33596">
        <ele>177</ele>
        <time>2021-09-19T09:47:18Z</time>
      </trkpt>
      <trkpt lat="43.60858" lon="1.3361">
        <ele>176</ele>
        <time>2021-09-19T09:47:20Z</time>
      </trkpt>
      <trkpt lat="43.60854" lon="1.33627">
        <ele>176</ele>
        <time>2021-09-19T09:47:23Z</time>
      </trkpt>
      <trkpt lat="43.6085" lon="1.33642">
        <ele>176</ele>
        <time>2021-09-19T09:47:26Z</time>
      </trkpt>
      <trkpt lat="43.60841" lon="1.33648">
        <ele>176</ele>
        <time>2021-09-19T09:47:29Z</time>
      </trkpt>
      <trkpt lat="43.60837" lon="1.33652">
        <ele>177</ele>
        <time>2021-09-19T09:47:31Z</time>
      </trkpt>
      <trkpt lat="43.60834" lon="1.33652">
        <ele>178</ele>
        <time>2021-09-19T09:47:33Z</time>
      </trkpt>
      <trkpt lat="43.60832" lon="1.33652">
        <ele>179</ele>
        <time>2021-09-19T09:47:35Z</time>
      </trkpt>
      <trkpt lat="43.6083" lon="1.33653">
        <ele>179</ele>
        <time>2021-09-19T09:47:36Z</time>
      </trkpt>
      <trkpt lat="43.60829" lon="1.33656">
        <ele>179</ele>
        <time>2021-09-19T09:47:37Z</time>
      </trkpt>
      <trkpt lat="43.60828" lon="1.33658">
        <ele>179</ele>
        <time>2021-09-19T09:47:38Z</time>
      </trkpt>
      <trkpt lat="43.60826" lon="1.3366">
        <ele>179</ele>
        <time>2021-09-19T09:47:39Z</time>
      </trkpt>
      <trkpt lat="43.60824" lon="1.33659">
        <ele>179</ele>
        <time>2021-09-19T09:47:40Z</time>
      </trkpt>
      <trkpt lat="43.60822" lon="1.33659">
        <ele>179</ele>
        <time>2021-09-19T09:47:42Z</time>
      </trkpt>
      <trkpt lat="43.6082" lon="1.33658">
        <ele>179</ele>
        <time>2021-09-19T09:47:44Z</time>
      </trkpt>
      <trkpt lat="43.60818" lon="1.33656">
        <ele>179</ele>
        <time>2021-09-19T09:47:45Z</time>
      </trkpt>
      <trkpt lat="43.60815" lon="1.33654">
        <ele>179</ele>
        <time>2021-09-19T09:47:46Z</time>
      </trkpt>
      <trkpt lat="43.60812" lon="1.33652">
        <ele>179</ele>
        <time>2021-09-19T09:47:47Z</time>
      </trkpt>
      <trkpt lat="43.6081" lon="1.33649">
        <ele>179</ele>
        <time>2021-09-19T09:47:48Z</time>
      </trkpt>
      <trkpt lat="43.60807" lon="1.33646">
        <ele>179</ele>
        <time>2021-09-19T09:47:49Z</time>
      </trkpt>
      <trkpt lat="43.60804" lon="1.33644">
        <ele>180</ele>
        <time>2021-09-19T09:47:50Z</time>
      </trkpt>
      <trkpt lat="43.60801" lon="1.33643">
        <ele>180</ele>
        <time>2021-09-19T09:47:51Z</time>
      </trkpt>
      <trkpt lat="43.60798" lon="1.33642">
        <ele>180</ele>
        <time>2021-09-19T09:47:52Z</time>
      </trkpt>
      <trkpt lat="43.60796" lon="1.33644">
        <ele>180</ele>
        <time>2021-09-19T09:47:53Z</time>
      </trkpt>
      <trkpt lat="43.60794" lon="1.33646">
        <ele>179</ele>
        <time>2021-09-19T09:47:54Z</time>
      </trkpt>
      <trkpt lat="43.60793" lon="1.3365">
        <ele>179</ele>
        <time>2021-09-19T09:47:55Z</time>
      </trkpt>
      <trkpt lat="43.60793" lon="1.33654">
        <ele>179</ele>
        <time>2021-09-19T09:47:56Z</time>
      </trkpt>
      <trkpt lat="43.60792" lon="1.33658">
        <ele>179</ele>
        <time>2021-09-19T09:47:57Z</time>
      </trkpt>
      <trkpt lat="43.60791" lon="1.33662">
        <ele>179</ele>
        <time>2021-09-19T09:47:58Z</time>
      </trkpt>
      <trkpt lat="43.6079" lon="1.33665">
        <ele>179</ele>
        <time>2021-09-19T09:47:59Z</time>
      </trkpt>
      <trkpt lat="43.60789" lon="1.33668">
        <ele>179</ele>
        <time>2021-09-19T09:48:00Z</time>
      </trkpt>
      <trkpt lat="43.60789" lon="1.33672">
        <ele>179</ele>
        <time>2021-09-19T09:48:02Z</time>
      </trkpt>
      <trkpt lat="43.60789" lon="1.33675">
        <ele>179</ele>
        <time>2021-09-19T09:48:03Z</time>
      </trkpt>
      <trkpt lat="43.60789" lon="1.33678">
        <ele>179</ele>
        <time>2021-09-19T09:48:04Z</time>
      </trkpt>
      <trkpt lat="43.60789" lon="1.33681">
        <ele>179</ele>
        <time>2021-09-19T09:48:05Z</time>
      </trkpt>
      <trkpt lat="43.60789" lon="1.33685">
        <ele>179</ele>
        <time>2021-09-19T09:48:07Z</time>
      </trkpt>
      <trkpt lat="43.60789" lon="1.33688">
        <ele>179</ele>
        <time>2021-09-19T09:48:10Z</time>
      </trkpt>
      <trkpt lat="43.60787" lon="1.33691">
        <ele>179</ele>
        <time>2021-09-19T09:48:12Z</time>
      </trkpt>
      <trkpt lat="43.60786" lon="1.33693">
        <ele>179</ele>
        <time>2021-09-19T09:48:13Z</time>
      </trkpt>
      <trkpt lat="43.60784" lon="1.33696">
        <ele>179</ele>
        <time>2021-09-19T09:48:14Z</time>
      </trkpt>
      <trkpt lat="43.60783" lon="1.33701">
        <ele>179</ele>
        <time>2021-09-19T09:48:15Z</time>
      </trkpt>
      <trkpt lat="43.60782" lon="1.33705">
        <ele>179</ele>
        <time>2021-09-19T09:48:16Z</time>
      </trkpt>
      <trkpt lat="43.6078" lon="1.3371">
        <ele>179</ele>
        <time>2021-09-19T09:48:17Z</time>
      </trkpt>
      <trkpt lat="43.60777" lon="1.33715">
        <ele>179</ele>
        <time>2021-09-19T09:48:18Z</time>
      </trkpt>
      <trkpt lat="43.60774" lon="1.33719">
        <ele>179</ele>
        <time>2021-09-19T09:48:19Z</time>
      </trkpt>
      <trkpt lat="43.60771" lon="1.33723">
        <ele>179</ele>
        <time>2021-09-19T09:48:20Z</time>
      </trkpt>
      <trkpt lat="43.60768" lon="1.33726">
        <ele>179</ele>
        <time>2021-09-19T09:48:21Z</time>
      </trkpt>
      <trkpt lat="43.60765" lon="1.33729">
        <ele>179</ele>
        <time>2021-09-19T09:48:22Z</time>
      </trkpt>
      <trkpt lat="43.60761" lon="1.33732">
        <ele>179</ele>
        <time>2021-09-19T09:48:23Z</time>
      </trkpt>
      <trkpt lat="43.60758" lon="1.33735">
        <ele>179</ele>
        <time>2021-09-19T09:48:24Z</time>
      </trkpt>
      <trkpt lat="43.60754" lon="1.33739">
        <ele>179</ele>
        <time>2021-09-19T09:48:25Z</time>
      </trkpt>
      <trkpt lat="43.60751" lon="1.33742">
        <ele>179</ele>
        <time>2021-09-19T09:48:26Z</time>
      </trkpt>
      <trkpt lat="43.60747" lon="1.33745">
        <ele>178</ele>
        <time>2021-09-19T09:48:27Z</time>
      </trkpt>
      <trkpt lat="43.60743" lon="1.33749">
        <ele>178</ele>
        <time>2021-09-19T09:48:28Z</time>
      </trkpt>
      <trkpt lat="43.60739" lon="1.33753">
        <ele>179</ele>
        <time>2021-09-19T09:48:29Z</time>
      </trkpt>
      <trkpt lat="43.60736" lon="1.33756">
        <ele>179</ele>
        <time>2021-09-19T09:48:30Z</time>
      </trkpt>
      <trkpt lat="43.60732" lon="1.33759">
        <ele>179</ele>
        <time>2021-09-19T09:48:31Z</time>
      </trkpt>
      <trkpt lat="43.60728" lon="1.33762">
        <ele>179</ele>
        <time>2021-09-19T09:48:32Z</time>
      </trkpt>
      <trkpt lat="43.60724" lon="1.33765">
        <ele>179</ele>
        <time>2021-09-19T09:48:33Z</time>
      </trkpt>
      <trkpt lat="43.6072" lon="1.33768">
        <ele>179</ele>
        <time>2021-09-19T09:48:34Z</time>
      </trkpt>
      <trkpt lat="43.60715" lon="1.33771">
        <ele>179</ele>
        <time>2021-09-19T09:48:35Z</time>
      </trkpt>
      <trkpt lat="43.60711" lon="1.33773">
        <ele>179</ele>
        <time>2021-09-19T09:48:36Z</time>
      </trkpt>
      <trkpt lat="43.60707" lon="1.33776">
        <ele>179</ele>
        <time>2021-09-19T09:48:37Z</time>
      </trkpt>
      <trkpt lat="43.60703" lon="1.33777">
        <ele>179</ele>
        <time>2021-09-19T09:48:38Z</time>
      </trkpt>
      <trkpt lat="43.60698" lon="1.33779">
        <ele>179</ele>
        <time>2021-09-19T09:48:39Z</time>
      </trkpt>
      <trkpt lat="43.60694" lon="1.33781">
        <ele>179</ele>
        <time>2021-09-19T09:48:40Z</time>
      </trkpt>
      <trkpt lat="43.6069" lon="1.33783">
        <ele>179</ele>
        <time>2021-09-19T09:48:41Z</time>
      </trkpt>
      <trkpt lat="43.60685" lon="1.33784">
        <ele>179</ele>
        <time>2021-09-19T09:48:42Z</time>
      </trkpt>
      <trkpt lat="43.60681" lon="1.33786">
        <ele>179</ele>
        <time>2021-09-19T09:48:43Z</time>
      </trkpt>
      <trkpt lat="43.60677" lon="1.33787">
        <ele>179</ele>
        <time>2021-09-19T09:48:44Z</time>
      </trkpt>
      <trkpt lat="43.60673" lon="1.33789">
        <ele>179</ele>
        <time>2021-09-19T09:48:45Z</time>
      </trkpt>
      <trkpt lat="43.6067" lon="1.33792">
        <ele>179</ele>
        <time>2021-09-19T09:48:46Z</time>
      </trkpt>
      <trkpt lat="43.60667" lon="1.33796">
        <ele>179</ele>
        <time>2021-09-19T09:48:47Z</time>
      </trkpt>
      <trkpt lat="43.60664" lon="1.33799">
        <ele>179</ele>
        <time>2021-09-19T09:48:48Z</time>
      </trkpt>
      <trkpt lat="43.60661" lon="1.33802">
        <ele>179</ele>
        <time>2021-09-19T09:48:49Z</time>
      </trkpt>
      <trkpt lat="43.60658" lon="1.33804">
        <ele>179</ele>
        <time>2021-09-19T09:48:50Z</time>
      </trkpt>
      <trkpt lat="43.60654" lon="1.33806">
        <ele>179</ele>
        <time>2021-09-19T09:48:51Z</time>
      </trkpt>
      <trkpt lat="43.60651" lon="1.33808">
        <ele>179</ele>
        <time>2021-09-19T09:48:52Z</time>
      </trkpt>
      <trkpt lat="43.60648" lon="1.3381">
        <ele>179</ele>
        <time>2021-09-19T09:48:53Z</time>
      </trkpt>
      <trkpt lat="43.60645" lon="1.33812">
        <ele>179</ele>
        <time>2021-09-19T09:48:54Z</time>
      </trkpt>
      <trkpt lat="43.60643" lon="1.33814">
        <ele>179</ele>
        <time>2021-09-19T09:48:55Z</time>
      </trkpt>
      <trkpt lat="43.60641" lon="1.33815">
        <ele>179</ele>
        <time>2021-09-19T09:48:56Z</time>
      </trkpt>
      <trkpt lat="43.60639" lon="1.33817">
        <ele>179</ele>
        <time>2021-09-19T09:48:57Z</time>
      </trkpt>
      <trkpt lat="43.60637" lon="1.33819">
        <ele>179</ele>
        <time>2021-09-19T09:48:59Z</time>
      </trkpt>
      <trkpt lat="43.60635" lon="1.33822">
        <ele>179</ele>
        <time>2021-09-19T09:49:01Z</time>
      </trkpt>
      <trkpt lat="43.60633" lon="1.33824">
        <ele>179</ele>
        <time>2021-09-19T09:49:02Z</time>
      </trkpt>
      <trkpt lat="43.60631" lon="1.33827">
        <ele>178</ele>
        <time>2021-09-19T09:49:03Z</time>
      </trkpt>
      <trkpt lat="43.6063" lon="1.3383">
        <ele>177</ele>
        <time>2021-09-19T09:49:04Z</time>
      </trkpt>
      <trkpt lat="43.60628" lon="1.33833">
        <ele>177</ele>
        <time>2021-09-19T09:49:05Z</time>
      </trkpt>
      <trkpt lat="43.60626" lon="1.33835">
        <ele>177</ele>
        <time>2021-09-19T09:49:06Z</time>
      </trkpt>
      <trkpt lat="43.60625" lon="1.33837">
        <ele>176</ele>
        <time>2021-09-19T09:49:07Z</time>
      </trkpt>
      <trkpt lat="43.60623" lon="1.3384">
        <ele>175</ele>
        <time>2021-09-19T09:49:09Z</time>
      </trkpt>
      <trkpt lat="43.60614" lon="1.33836">
        <ele>176</ele>
        <time>2021-09-19T09:49:14Z</time>
      </trkpt>
      <trkpt lat="43.60597" lon="1.33835">
        <ele>176</ele>
        <time>2021-09-19T09:49:20Z</time>
      </trkpt>
      <trkpt lat="43.60587" lon="1.33829">
        <ele>175</ele>
        <time>2021-09-19T09:49:23Z</time>
      </trkpt>
      <trkpt lat="43.60578" lon="1.33824">
        <ele>175</ele>
        <time>2021-09-19T09:49:26Z</time>
      </trkpt>
      <trkpt lat="43.60577" lon="1.33808">
        <ele>175</ele>
        <time>2021-09-19T09:49:29Z</time>
      </trkpt>
      <trkpt lat="43.60575" lon="1.33802">
        <ele>175</ele>
        <time>2021-09-19T09:49:31Z</time>
      </trkpt>
      <trkpt lat="43.60574" lon="1.33803">
        <ele>176</ele>
        <time>2021-09-19T09:49:33Z</time>
      </trkpt>
      <trkpt lat="43.60572" lon="1.33808">
        <ele>176</ele>
        <time>2021-09-19T09:49:35Z</time>
      </trkpt>
      <trkpt lat="43.6057" lon="1.33809">
        <ele>176</ele>
        <time>2021-09-19T09:49:36Z</time>
      </trkpt>
      <trkpt lat="43.60568" lon="1.3381">
        <ele>177</ele>
        <time>2021-09-19T09:49:37Z</time>
      </trkpt>
      <trkpt lat="43.60566" lon="1.3381">
        <ele>178</ele>
        <time>2021-09-19T09:49:38Z</time>
      </trkpt>
      <trkpt lat="43.60564" lon="1.3381">
        <ele>178</ele>
        <time>2021-09-19T09:49:39Z</time>
      </trkpt>
      <trkpt lat="43.60561" lon="1.3381">
        <ele>178</ele>
        <time>2021-09-19T09:49:40Z</time>
      </trkpt>
      <trkpt lat="43.60559" lon="1.3381">
        <ele>178</ele>
        <time>2021-09-19T09:49:41Z</time>
      </trkpt>
      <trkpt lat="43.60556" lon="1.3381">
        <ele>178</ele>
        <time>2021-09-19T09:49:42Z</time>
      </trkpt>
      <trkpt lat="43.60553" lon="1.33811">
        <ele>178</ele>
        <time>2021-09-19T09:49:43Z</time>
      </trkpt>
      <trkpt lat="43.6055" lon="1.33811">
        <ele>178</ele>
        <time>2021-09-19T09:49:44Z</time>
      </trkpt>
      <trkpt lat="43.60547" lon="1.33812">
        <ele>177</ele>
        <time>2021-09-19T09:49:45Z</time>
      </trkpt>
      <trkpt lat="43.60545" lon="1.33813">
        <ele>177</ele>
        <time>2021-09-19T09:49:46Z</time>
      </trkpt>
      <trkpt lat="43.60542" lon="1.33813">
        <ele>177</ele>
        <time>2021-09-19T09:49:47Z</time>
      </trkpt>
      <trkpt lat="43.60539" lon="1.33814">
        <ele>177</ele>
        <time>2021-09-19T09:49:48Z</time>
      </trkpt>
      <trkpt lat="43.60537" lon="1.33814">
        <ele>177</ele>
        <time>2021-09-19T09:49:49Z</time>
      </trkpt>
      <trkpt lat="43.60535" lon="1.33815">
        <ele>178</ele>
        <time>2021-09-19T09:49:50Z</time>
      </trkpt>
      <trkpt lat="43.60533" lon="1.33816">
        <ele>178</ele>
        <time>2021-09-19T09:49:51Z</time>
      </trkpt>
      <trkpt lat="43.60531" lon="1.33817">
        <ele>178</ele>
        <time>2021-09-19T09:49:52Z</time>
      </trkpt>
      <trkpt lat="43.60529" lon="1.33817">
        <ele>178</ele>
        <time>2021-09-19T09:49:53Z</time>
      </trkpt>
      <trkpt lat="43.60526" lon="1.33818">
        <ele>178</ele>
        <time>2021-09-19T09:49:54Z</time>
      </trkpt>
      <trkpt lat="43.60524" lon="1.33818">
        <ele>178</ele>
        <time>2021-09-19T09:49:55Z</time>
      </trkpt>
      <trkpt lat="43.60522" lon="1.33819">
        <ele>178</ele>
        <time>2021-09-19T09:49:56Z</time>
      </trkpt>
      <trkpt lat="43.60519" lon="1.33819">
        <ele>178</ele>
        <time>2021-09-19T09:49:57Z</time>
      </trkpt>
      <trkpt lat="43.60516" lon="1.3382">
        <ele>178</ele>
        <time>2021-09-19T09:49:58Z</time>
      </trkpt>
      <trkpt lat="43.60512" lon="1.33821">
        <ele>179</ele>
        <time>2021-09-19T09:49:59Z</time>
      </trkpt>
      <trkpt lat="43.60509" lon="1.33822">
        <ele>179</ele>
        <time>2021-09-19T09:50:00Z</time>
      </trkpt>
      <trkpt lat="43.60505" lon="1.33823">
        <ele>179</ele>
        <time>2021-09-19T09:50:01Z</time>
      </trkpt>
      <trkpt lat="43.60501" lon="1.33824">
        <ele>179</ele>
        <time>2021-09-19T09:50:02Z</time>
      </trkpt>
      <trkpt lat="43.60498" lon="1.33824">
        <ele>179</ele>
        <time>2021-09-19T09:50:03Z</time>
      </trkpt>
      <trkpt lat="43.60494" lon="1.33825">
        <ele>179</ele>
        <time>2021-09-19T09:50:04Z</time>
      </trkpt>
      <trkpt lat="43.60491" lon="1.33826">
        <ele>178</ele>
        <time>2021-09-19T09:50:05Z</time>
      </trkpt>
      <trkpt lat="43.60487" lon="1.33828">
        <ele>178</ele>
        <time>2021-09-19T09:50:06Z</time>
      </trkpt>
      <trkpt lat="43.60483" lon="1.33829">
        <ele>178</ele>
        <time>2021-09-19T09:50:07Z</time>
      </trkpt>
      <trkpt lat="43.60479" lon="1.3383">
        <ele>179</ele>
        <time>2021-09-19T09:50:08Z</time>
      </trkpt>
      <trkpt lat="43.60476" lon="1.33831">
        <ele>179</ele>
        <time>2021-09-19T09:50:09Z</time>
      </trkpt>
      <trkpt lat="43.60472" lon="1.33832">
        <ele>179</ele>
        <time>2021-09-19T09:50:10Z</time>
      </trkpt>
      <trkpt lat="43.60468" lon="1.33833">
        <ele>179</ele>
        <time>2021-09-19T09:50:11Z</time>
      </trkpt>
      <trkpt lat="43.60464" lon="1.33835">
        <ele>179</ele>
        <time>2021-09-19T09:50:12Z</time>
      </trkpt>
      <trkpt lat="43.6046" lon="1.33837">
        <ele>179</ele>
        <time>2021-09-19T09:50:13Z</time>
      </trkpt>
      <trkpt lat="43.60455" lon="1.33838">
        <ele>179</ele>
        <time>2021-09-19T09:50:14Z</time>
      </trkpt>
      <trkpt lat="43.60451" lon="1.33839">
        <ele>179</ele>
        <time>2021-09-19T09:50:15Z</time>
      </trkpt>
      <trkpt lat="43.60447" lon="1.33841">
        <ele>179</ele>
        <time>2021-09-19T09:50:16Z</time>
      </trkpt>
      <trkpt lat="43.60443" lon="1.33843">
        <ele>179</ele>
        <time>2021-09-19T09:50:17Z</time>
      </trkpt>
      <trkpt lat="43.60439" lon="1.33845">
        <ele>179</ele>
        <time>2021-09-19T09:50:18Z</time>
      </trkpt>
      <trkpt lat="43.60435" lon="1.33848">
        <ele>179</ele>
        <time>2021-09-19T09:50:19Z</time>
      </trkpt>
      <trkpt lat="43.6043" lon="1.3385">
        <ele>179</ele>
        <time>2021-09-19T09:50:20Z</time>
      </trkpt>
      <trkpt lat="43.60426" lon="1.33851">
        <ele>179</ele>
        <time>2021-09-19T09:50:21Z</time>
      </trkpt>
      <trkpt lat="43.60422" lon="1.33853">
        <ele>179</ele>
        <time>2021-09-19T09:50:22Z</time>
      </trkpt>
      <trkpt lat="43.60418" lon="1.33855">
        <ele>179</ele>
        <time>2021-09-19T09:50:23Z</time>
      </trkpt>
      <trkpt lat="43.60413" lon="1.33857">
        <ele>179</ele>
        <time>2021-09-19T09:50:24Z</time>
      </trkpt>
      <trkpt lat="43.60409" lon="1.33859">
        <ele>179</ele>
        <time>2021-09-19T09:50:25Z</time>
      </trkpt>
      <trkpt lat="43.60404" lon="1.33862">
        <ele>179</ele>
        <time>2021-09-19T09:50:26Z</time>
      </trkpt>
      <trkpt lat="43.604" lon="1.33865">
        <ele>179</ele>
        <time>2021-09-19T09:50:27Z</time>
      </trkpt>
      <trkpt lat="43.60396" lon="1.33868">
        <ele>179</ele>
        <time>2021-09-19T09:50:28Z</time>
      </trkpt>
      <trkpt lat="43.60391" lon="1.33871">
        <ele>179</ele>
        <time>2021-09-19T09:50:29Z</time>
      </trkpt>
      <trkpt lat="43.60387" lon="1.33875">
        <ele>179</ele>
        <time>2021-09-19T09:50:30Z</time>
      </trkpt>
      <trkpt lat="43.60383" lon="1.33878">
        <ele>179</ele>
        <time>2021-09-19T09:50:31Z</time>
      </trkpt>
      <trkpt lat="43.6038" lon="1.33882">
        <ele>179</ele>
        <time>2021-09-19T09:50:32Z</time>
      </trkpt>
      <trkpt lat="43.60376" lon="1.33886">
        <ele>179</ele>
        <time>2021-09-19T09:50:33Z</time>
      </trkpt>
      <trkpt lat="43.60372" lon="1.33891">
        <ele>179</ele>
        <time>2021-09-19T09:50:34Z</time>
      </trkpt>
      <trkpt lat="43.60368" lon="1.33895">
        <ele>179</ele>
        <time>2021-09-19T09:50:35Z</time>
      </trkpt>
      <trkpt lat="43.60365" lon="1.33899">
        <ele>179</ele>
        <time>2021-09-19T09:50:36Z</time>
      </trkpt>
      <trkpt lat="43.60361" lon="1.33904">
        <ele>179</ele>
        <time>2021-09-19T09:50:37Z</time>
      </trkpt>
      <trkpt lat="43.60357" lon="1.33908">
        <ele>179</ele>
        <time>2021-09-19T09:50:38Z</time>
      </trkpt>
      <trkpt lat="43.60353" lon="1.33912">
        <ele>179</ele>
        <time>2021-09-19T09:50:39Z</time>
      </trkpt>
      <trkpt lat="43.6035" lon="1.33916">
        <ele>179</ele>
        <time>2021-09-19T09:50:40Z</time>
      </trkpt>
      <trkpt lat="43.60346" lon="1.3392">
        <ele>179</ele>
        <time>2021-09-19T09:50:41Z</time>
      </trkpt>
      <trkpt lat="43.60342" lon="1.33923">
        <ele>179</ele>
        <time>2021-09-19T09:50:42Z</time>
      </trkpt>
      <trkpt lat="43.60338" lon="1.33927">
        <ele>179</ele>
        <time>2021-09-19T09:50:43Z</time>
      </trkpt>
      <trkpt lat="43.60335" lon="1.3393">
        <ele>179</ele>
        <time>2021-09-19T09:50:44Z</time>
      </trkpt>
      <trkpt lat="43.60331" lon="1.33934">
        <ele>179</ele>
        <time>2021-09-19T09:50:45Z</time>
      </trkpt>
      <trkpt lat="43.60328" lon="1.33938">
        <ele>179</ele>
        <time>2021-09-19T09:50:46Z</time>
      </trkpt>
      <trkpt lat="43.60324" lon="1.33942">
        <ele>179</ele>
        <time>2021-09-19T09:50:47Z</time>
      </trkpt>
      <trkpt lat="43.60322" lon="1.33947">
        <ele>179</ele>
        <time>2021-09-19T09:50:48Z</time>
      </trkpt>
      <trkpt lat="43.60319" lon="1.33952">
        <ele>179</ele>
        <time>2021-09-19T09:50:49Z</time>
      </trkpt>
      <trkpt lat="43.60316" lon="1.33957">
        <ele>179</ele>
        <time>2021-09-19T09:50:50Z</time>
      </trkpt>
      <trkpt lat="43.60313" lon="1.33962">
        <ele>179</ele>
        <time>2021-09-19T09:50:51Z</time>
      </trkpt>
      <trkpt lat="43.60311" lon="1.33966">
        <ele>179</ele>
        <time>2021-09-19T09:50:52Z</time>
      </trkpt>
      <trkpt lat="43.60309" lon="1.3397">
        <ele>178</ele>
        <time>2021-09-19T09:50:53Z</time>
      </trkpt>
      <trkpt lat="43.60308" lon="1.33973">
        <ele>178</ele>
        <time>2021-09-19T09:50:54Z</time>
      </trkpt>
      <trkpt lat="43.60307" lon="1.33976">
        <ele>178</ele>
        <time>2021-09-19T09:50:55Z</time>
      </trkpt>
      <trkpt lat="43.60306" lon="1.33981">
        <ele>178</ele>
        <time>2021-09-19T09:50:57Z</time>
      </trkpt>
      <trkpt lat="43.60303" lon="1.33982">
        <ele>178</ele>
        <time>2021-09-19T09:50:59Z</time>
      </trkpt>
      <trkpt lat="43.603" lon="1.3398">
        <ele>178</ele>
        <time>2021-09-19T09:51:00Z</time>
      </trkpt>
      <trkpt lat="43.60298" lon="1.33978">
        <ele>178</ele>
        <time>2021-09-19T09:51:01Z</time>
      </trkpt>
      <trkpt lat="43.60296" lon="1.33975">
        <ele>178</ele>
        <time>2021-09-19T09:51:02Z</time>
      </trkpt>
      <trkpt lat="43.60293" lon="1.33971">
        <ele>178</ele>
        <time>2021-09-19T09:51:03Z</time>
      </trkpt>
      <trkpt lat="43.60291" lon="1.33968">
        <ele>178</ele>
        <time>2021-09-19T09:51:04Z</time>
      </trkpt>
      <trkpt lat="43.60289" lon="1.33965">
        <ele>178</ele>
        <time>2021-09-19T09:51:05Z</time>
      </trkpt>
      <trkpt lat="43.60286" lon="1.33962">
        <ele>178</ele>
        <time>2021-09-19T09:51:06Z</time>
      </trkpt>
      <trkpt lat="43.60283" lon="1.3396">
        <ele>178</ele>
        <time>2021-09-19T09:51:07Z</time>
      </trkpt>
      <trkpt lat="43.60279" lon="1.33959">
        <ele>178</ele>
        <time>2021-09-19T09:51:08Z</time>
      </trkpt>
      <trkpt lat="43.60276" lon="1.3396">
        <ele>178</ele>
        <time>2021-09-19T09:51:09Z</time>
      </trkpt>
      <trkpt lat="43.60273" lon="1.33961">
        <ele>179</ele>
        <time>2021-09-19T09:51:10Z</time>
      </trkpt>
      <trkpt lat="43.6027" lon="1.33962">
        <ele>179</ele>
        <time>2021-09-19T09:51:11Z</time>
      </trkpt>
      <trkpt lat="43.60267" lon="1.33962">
        <ele>179</ele>
        <time>2021-09-19T09:51:12Z</time>
      </trkpt>
      <trkpt lat="43.60264" lon="1.33963">
        <ele>179</ele>
        <time>2021-09-19T09:51:13Z</time>
      </trkpt>
      <trkpt lat="43.60261" lon="1.33963">
        <ele>179</ele>
        <time>2021-09-19T09:51:14Z</time>
      </trkpt>
      <trkpt lat="43.60258" lon="1.33963">
        <ele>179</ele>
        <time>2021-09-19T09:51:15Z</time>
      </trkpt>
      <trkpt lat="43.60256" lon="1.33964">
        <ele>179</ele>
        <time>2021-09-19T09:51:16Z</time>
      </trkpt>
      <trkpt lat="43.60253" lon="1.33964">
        <ele>179</ele>
        <time>2021-09-19T09:51:17Z</time>
      </trkpt>
      <trkpt lat="43.60251" lon="1.33965">
        <ele>179</ele>
        <time>2021-09-19T09:51:18Z</time>
      </trkpt>
      <trkpt lat="43.60248" lon="1.33966">
        <ele>179</ele>
        <time>2021-09-19T09:51:19Z</time>
      </trkpt>
      <trkpt lat="43.60246" lon="1.33966">
        <ele>179</ele>
        <time>2021-09-19T09:51:20Z</time>
      </trkpt>
      <trkpt lat="43.60244" lon="1.33967">
        <ele>179</ele>
        <time>2021-09-19T09:51:21Z</time>
      </trkpt>
      <trkpt lat="43.60242" lon="1.33966">
        <ele>179</ele>
        <time>2021-09-19T09:51:22Z</time>
      </trkpt>
      <trkpt lat="43.60241" lon="1.33962">
        <ele>179</ele>
        <time>2021-09-19T09:51:24Z</time>
      </trkpt>
      <trkpt lat="43.60242" lon="1.33959">
        <ele>179</ele>
        <time>2021-09-19T09:51:25Z</time>
      </trkpt>
      <trkpt lat="43.60243" lon="1.33955">
        <ele>179</ele>
        <time>2021-09-19T09:51:26Z</time>
      </trkpt>
      <trkpt lat="43.60245" lon="1.3395">
        <ele>179</ele>
        <time>2021-09-19T09:51:27Z</time>
      </trkpt>
      <trkpt lat="43.60246" lon="1.33945">
        <ele>178</ele>
        <time>2021-09-19T09:51:28Z</time>
      </trkpt>
      <trkpt lat="43.60247" lon="1.3394">
        <ele>178</ele>
        <time>2021-09-19T09:51:29Z</time>
      </trkpt>
      <trkpt lat="43.60247" lon="1.33936">
        <ele>178</ele>
        <time>2021-09-19T09:51:30Z</time>
      </trkpt>
      <trkpt lat="43.60248" lon="1.33931">
        <ele>178</ele>
        <time>2021-09-19T09:51:31Z</time>
      </trkpt>
      <trkpt lat="43.60249" lon="1.33928">
        <ele>178</ele>
        <time>2021-09-19T09:51:32Z</time>
      </trkpt>
      <trkpt lat="43.6025" lon="1.33924">
        <ele>177</ele>
        <time>2021-09-19T09:51:33Z</time>
      </trkpt>
      <trkpt lat="43.6025" lon="1.33921">
        <ele>177</ele>
        <time>2021-09-19T09:51:34Z</time>
      </trkpt>
      <trkpt lat="43.60251" lon="1.33918">
        <ele>177</ele>
        <time>2021-09-19T09:51:35Z</time>
      </trkpt>
      <trkpt lat="43.60251" lon="1.33915">
        <ele>177</ele>
        <time>2021-09-19T09:51:36Z</time>
      </trkpt>
      <trkpt lat="43.60251" lon="1.33912">
        <ele>177</ele>
        <time>2021-09-19T09:51:37Z</time>
      </trkpt>
      <trkpt lat="43.6025" lon="1.33911">
        <ele>177</ele>
        <time>2021-09-19T09:51:38Z</time>
      </trkpt>
      <trkpt lat="43.60248" lon="1.33911">
        <ele>177</ele>
        <time>2021-09-19T09:51:39Z</time>
      </trkpt>
      <trkpt lat="43.60246" lon="1.33913">
        <ele>177</ele>
        <time>2021-09-19T09:51:40Z</time>
      </trkpt>
      <trkpt lat="43.60244" lon="1.33915">
        <ele>177</ele>
        <time>2021-09-19T09:51:41Z</time>
      </trkpt>
      <trkpt lat="43.6024" lon="1.33917">
        <ele>177</ele>
        <time>2021-09-19T09:51:42Z</time>
      </trkpt>
      <trkpt lat="43.60237" lon="1.33916">
        <ele>177</ele>
        <time>2021-09-19T09:51:43Z</time>
      </trkpt>
      <trkpt lat="43.60234" lon="1.33914">
        <ele>177</ele>
        <time>2021-09-19T09:51:44Z</time>
      </trkpt>
      <trkpt lat="43.6023" lon="1.33912">
        <ele>177</ele>
        <time>2021-09-19T09:51:45Z</time>
      </trkpt>
      <trkpt lat="43.60227" lon="1.33909">
        <ele>178</ele>
        <time>2021-09-19T09:51:46Z</time>
      </trkpt>
      <trkpt lat="43.60224" lon="1.33906">
        <ele>178</ele>
        <time>2021-09-19T09:51:47Z</time>
      </trkpt>
      <trkpt lat="43.60221" lon="1.33904">
        <ele>178</ele>
        <time>2021-09-19T09:51:48Z</time>
      </trkpt>
      <trkpt lat="43.60219" lon="1.33901">
        <ele>178</ele>
        <time>2021-09-19T09:51:49Z</time>
      </trkpt>
      <trkpt lat="43.60216" lon="1.33899">
        <ele>178</ele>
        <time>2021-09-19T09:51:50Z</time>
      </trkpt>
      <trkpt lat="43.60213" lon="1.33897">
        <ele>179</ele>
        <time>2021-09-19T09:51:51Z</time>
      </trkpt>
      <trkpt lat="43.60211" lon="1.33894">
        <ele>179</ele>
        <time>2021-09-19T09:51:52Z</time>
      </trkpt>
      <trkpt lat="43.60208" lon="1.33892">
        <ele>179</ele>
        <time>2021-09-19T09:51:53Z</time>
      </trkpt>
      <trkpt lat="43.60205" lon="1.3389">
        <ele>179</ele>
        <time>2021-09-19T09:51:54Z</time>
      </trkpt>
      <trkpt lat="43.60203" lon="1.33887">
        <ele>179</ele>
        <time>2021-09-19T09:51:55Z</time>
      </trkpt>
      <trkpt lat="43.602" lon="1.33885">
        <ele>180</ele>
        <time>2021-09-19T09:51:56Z</time>
      </trkpt>
      <trkpt lat="43.60198" lon="1.33883">
        <ele>180</ele>
        <time>2021-09-19T09:51:57Z</time>
      </trkpt>
      <trkpt lat="43.60195" lon="1.3388">
        <ele>180</ele>
        <time>2021-09-19T09:51:58Z</time>
      </trkpt>
      <trkpt lat="43.60193" lon="1.33878">
        <ele>180</ele>
        <time>2021-09-19T09:51:59Z</time>
      </trkpt>
      <trkpt lat="43.6019" lon="1.33876">
        <ele>180</ele>
        <time>2021-09-19T09:52:00Z</time>
      </trkpt>
      <trkpt lat="43.60187" lon="1.33873">
        <ele>180</ele>
        <time>2021-09-19T09:52:01Z</time>
      </trkpt>
      <trkpt lat="43.60185" lon="1.33871">
        <ele>180</ele>
        <time>2021-09-19T09:52:02Z</time>
      </trkpt>
      <trkpt lat="43.60182" lon="1.33869">
        <ele>180</ele>
        <time>2021-09-19T09:52:03Z</time>
      </trkpt>
      <trkpt lat="43.60179" lon="1.33866">
        <ele>181</ele>
        <time>2021-09-19T09:52:04Z</time>
      </trkpt>
      <trkpt lat="43.60176" lon="1.33864">
        <ele>181</ele>
        <time>2021-09-19T09:52:05Z</time>
      </trkpt>
      <trkpt lat="43.60173" lon="1.33861">
        <ele>181</ele>
        <time>2021-09-19T09:52:06Z</time>
      </trkpt>
      <trkpt lat="43.6017" lon="1.33859">
        <ele>181</ele>
        <time>2021-09-19T09:52:07Z</time>
      </trkpt>
      <trkpt lat="43.60168" lon="1.33856">
        <ele>181</ele>
        <time>2021-09-19T09:52:08Z</time>
      </trkpt>
      <trkpt lat="43.60165" lon="1.33854">
        <ele>181</ele>
        <time>2021-09-19T09:52:09Z</time>
      </trkpt>
      <trkpt lat="43.60162" lon="1.33851">
        <ele>181</ele>
        <time>2021-09-19T09:52:10Z</time>
      </trkpt>
      <trkpt lat="43.60159" lon="1.33848">
        <ele>181</ele>
        <time>2021-09-19T09:52:11Z</time>
      </trkpt>
      <trkpt lat="43.60157" lon="1.33845">
        <ele>181</ele>
        <time>2021-09-19T09:52:12Z</time>
      </trkpt>
      <trkpt lat="43.60154" lon="1.33842">
        <ele>181</ele>
        <time>2021-09-19T09:52:13Z</time>
      </trkpt>
      <trkpt lat="43.60152" lon="1.33838">
        <ele>181</ele>
        <time>2021-09-19T09:52:14Z</time>
      </trkpt>
      <trkpt lat="43.6015" lon="1.33834">
        <ele>181</ele>
        <time>2021-09-19T09:52:15Z</time>
      </trkpt>
      <trkpt lat="43.60147" lon="1.3383">
        <ele>181</ele>
        <time>2021-09-19T09:52:16Z</time>
      </trkpt>
      <trkpt lat="43.60145" lon="1.33826">
        <ele>181</ele>
        <time>2021-09-19T09:52:17Z</time>
      </trkpt>
      <trkpt lat="43.60142" lon="1.33822">
        <ele>180</ele>
        <time>2021-09-19T09:52:18Z</time>
      </trkpt>
      <trkpt lat="43.60139" lon="1.33817">
        <ele>180</ele>
        <time>2021-09-19T09:52:19Z</time>
      </trkpt>
      <trkpt lat="43.60137" lon="1.33813">
        <ele>180</ele>
        <time>2021-09-19T09:52:20Z</time>
      </trkpt>
      <trkpt lat="43.60134" lon="1.33809">
        <ele>180</ele>
        <time>2021-09-19T09:52:21Z</time>
      </trkpt>
      <trkpt lat="43.60131" lon="1.33805">
        <ele>180</ele>
        <time>2021-09-19T09:52:22Z</time>
      </trkpt>
      <trkpt lat="43.60129" lon="1.33801">
        <ele>180</ele>
        <time>2021-09-19T09:52:23Z</time>
      </trkpt>
      <trkpt lat="43.60126" lon="1.33797">
        <ele>180</ele>
        <time>2021-09-19T09:52:24Z</time>
      </trkpt>
      <trkpt lat="43.60123" lon="1.33793">
        <ele>180</ele>
        <time>2021-09-19T09:52:25Z</time>
      </trkpt>
      <trkpt lat="43.60121" lon="1.33789">
        <ele>180</ele>
        <time>2021-09-19T09:52:26Z</time>
      </trkpt>
      <trkpt lat="43.60119" lon="1.33786">
        <ele>180</ele>
        <time>2021-09-19T09:52:27Z</time>
      </trkpt>
      <trkpt lat="43.60117" lon="1.33783">
        <ele>179</ele>
        <time>2021-09-19T09:52:28Z</time>
      </trkpt>
      <trkpt lat="43.60116" lon="1.3378">
        <ele>179</ele>
        <time>2021-09-19T09:52:29Z</time>
      </trkpt>
      <trkpt lat="43.60114" lon="1.33777">
        <ele>179</ele>
        <time>2021-09-19T09:52:30Z</time>
      </trkpt>
      <trkpt lat="43.60112" lon="1.33773">
        <ele>179</ele>
        <time>2021-09-19T09:52:31Z</time>
      </trkpt>
      <trkpt lat="43.6011" lon="1.33769">
        <ele>179</ele>
        <time>2021-09-19T09:52:32Z</time>
      </trkpt>
      <trkpt lat="43.60107" lon="1.33765">
        <ele>179</ele>
        <time>2021-09-19T09:52:33Z</time>
      </trkpt>
      <trkpt lat="43.60105" lon="1.33761">
        <ele>178</ele>
        <time>2021-09-19T09:52:34Z</time>
      </trkpt>
      <trkpt lat="43.60102" lon="1.33756">
        <ele>178</ele>
        <time>2021-09-19T09:52:35Z</time>
      </trkpt>
      <trkpt lat="43.60099" lon="1.33751">
        <ele>177</ele>
        <time>2021-09-19T09:52:36Z</time>
      </trkpt>
      <trkpt lat="43.60096" lon="1.33747">
        <ele>177</ele>
        <time>2021-09-19T09:52:37Z</time>
      </trkpt>
      <trkpt lat="43.60093" lon="1.33743">
        <ele>178</ele>
        <time>2021-09-19T09:52:38Z</time>
      </trkpt>
      <trkpt lat="43.6009" lon="1.33738">
        <ele>178</ele>
        <time>2021-09-19T09:52:39Z</time>
      </trkpt>
      <trkpt lat="43.60087" lon="1.33734">
        <ele>178</ele>
        <time>2021-09-19T09:52:40Z</time>
      </trkpt>
      <trkpt lat="43.60084" lon="1.33729">
        <ele>178</ele>
        <time>2021-09-19T09:52:41Z</time>
      </trkpt>
      <trkpt lat="43.60081" lon="1.33725">
        <ele>178</ele>
        <time>2021-09-19T09:52:42Z</time>
      </trkpt>
      <trkpt lat="43.60078" lon="1.3372">
        <ele>178</ele>
        <time>2021-09-19T09:52:43Z</time>
      </trkpt>
      <trkpt lat="43.60075" lon="1.33714">
        <ele>177</ele>
        <time>2021-09-19T09:52:44Z</time>
      </trkpt>
      <trkpt lat="43.60072" lon="1.33708">
        <ele>177</ele>
        <time>2021-09-19T09:52:45Z</time>
      </trkpt>
      <trkpt lat="43.60069" lon="1.33702">
        <ele>177</ele>
        <time>2021-09-19T09:52:46Z</time>
      </trkpt>
      <trkpt lat="43.60065" lon="1.33695">
        <ele>176</ele>
        <time>2021-09-19T09:52:47Z</time>
      </trkpt>
      <trkpt lat="43.60061" lon="1.33688">
        <ele>175</ele>
        <time>2021-09-19T09:52:48Z</time>
      </trkpt>
      <trkpt lat="43.60057" lon="1.33681">
        <ele>175</ele>
        <time>2021-09-19T09:52:49Z</time>
      </trkpt>
      <trkpt lat="43.60053" lon="1.33675">
        <ele>176</ele>
        <time>2021-09-19T09:52:50Z</time>
      </trkpt>
      <trkpt lat="43.60049" lon="1.33669">
        <ele>176</ele>
        <time>2021-09-19T09:52:51Z</time>
      </trkpt>
      <trkpt lat="43.60044" lon="1.33664">
        <ele>175</ele>
        <time>2021-09-19T09:52:52Z</time>
      </trkpt>
      <trkpt lat="43.6004" lon="1.33661">
        <ele>176</ele>
        <time>2021-09-19T09:52:53Z</time>
      </trkpt>
      <trkpt lat="43.60036" lon="1.33658">
        <ele>176</ele>
        <time>2021-09-19T09:52:54Z</time>
      </trkpt>
      <trkpt lat="43.60031" lon="1.33657">
        <ele>176</ele>
        <time>2021-09-19T09:52:55Z</time>
      </trkpt>
      <trkpt lat="43.60027" lon="1.33656">
        <ele>177</ele>
        <time>2021-09-19T09:52:56Z</time>
      </trkpt>
      <trkpt lat="43.60022" lon="1.33655">
        <ele>177</ele>
        <time>2021-09-19T09:52:57Z</time>
      </trkpt>
      <trkpt lat="43.60018" lon="1.33654">
        <ele>177</ele>
        <time>2021-09-19T09:52:58Z</time>
      </trkpt>
      <trkpt lat="43.60013" lon="1.33652">
        <ele>177</ele>
        <time>2021-09-19T09:52:59Z</time>
      </trkpt>
      <trkpt lat="43.60009" lon="1.33649">
        <ele>177</ele>
        <time>2021-09-19T09:53:00Z</time>
      </trkpt>
      <trkpt lat="43.60005" lon="1.33645">
        <ele>177</ele>
        <time>2021-09-19T09:53:01Z</time>
      </trkpt>
      <trkpt lat="43.60002" lon="1.33639">
        <ele>177</ele>
        <time>2021-09-19T09:53:02Z</time>
      </trkpt>
      <trkpt lat="43.6" lon="1.33632">
        <ele>177</ele>
        <time>2021-09-19T09:53:03Z</time>
      </trkpt>
      <trkpt lat="43.59999" lon="1.33625">
        <ele>176</ele>
        <time>2021-09-19T09:53:04Z</time>
      </trkpt>
      <trkpt lat="43.59998" lon="1.33617">
        <ele>176</ele>
        <time>2021-09-19T09:53:05Z</time>
      </trkpt>
      <trkpt lat="43.59997" lon="1.3361">
        <ele>176</ele>
        <time>2021-09-19T09:53:06Z</time>
      </trkpt>
      <trkpt lat="43.59996" lon="1.33603">
        <ele>176</ele>
        <time>2021-09-19T09:53:07Z</time>
      </trkpt>
      <trkpt lat="43.59994" lon="1.33597">
        <ele>176</ele>
        <time>2021-09-19T09:53:08Z</time>
      </trkpt>
      <trkpt lat="43.59993" lon="1.3359">
        <ele>176</ele>
        <time>2021-09-19T09:53:09Z</time>
      </trkpt>
      <trkpt lat="43.5999" lon="1.33585">
        <ele>176</ele>
        <time>2021-09-19T09:53:10Z</time>
      </trkpt>
      <trkpt lat="43.59987" lon="1.3358">
        <ele>176</ele>
        <time>2021-09-19T09:53:11Z</time>
      </trkpt>
      <trkpt lat="43.59982" lon="1.33577">
        <ele>175</ele>
        <time>2021-09-19T09:53:12Z</time>
      </trkpt>
      <trkpt lat="43.59978" lon="1.33575">
        <ele>175</ele>
        <time>2021-09-19T09:53:13Z</time>
      </trkpt>
      <trkpt lat="43.59974" lon="1.33575">
        <ele>175</ele>
        <time>2021-09-19T09:53:14Z</time>
      </trkpt>
      <trkpt lat="43.59969" lon="1.33576">
        <ele>175</ele>
        <time>2021-09-19T09:53:15Z</time>
      </trkpt>
      <trkpt lat="43.59965" lon="1.33577">
        <ele>174</ele>
        <time>2021-09-19T09:53:16Z</time>
      </trkpt>
      <trkpt lat="43.59961" lon="1.33576">
        <ele>174</ele>
        <time>2021-09-19T09:53:17Z</time>
      </trkpt>
      <trkpt lat="43.59958" lon="1.33574">
        <ele>174</ele>
        <time>2021-09-19T09:53:18Z</time>
      </trkpt>
      <trkpt lat="43.59954" lon="1.3357">
        <ele>173</ele>
        <time>2021-09-19T09:53:19Z</time>
      </trkpt>
      <trkpt lat="43.59952" lon="1.33565">
        <ele>172</ele>
        <time>2021-09-19T09:53:20Z</time>
      </trkpt>
      <trkpt lat="43.59951" lon="1.33559">
        <ele>172</ele>
        <time>2021-09-19T09:53:21Z</time>
      </trkpt>
      <trkpt lat="43.5995" lon="1.33553">
        <ele>172</ele>
        <time>2021-09-19T09:53:22Z</time>
      </trkpt>
      <trkpt lat="43.59949" lon="1.33547">
        <ele>172</ele>
        <time>2021-09-19T09:53:23Z</time>
      </trkpt>
      <trkpt lat="43.59948" lon="1.33541">
        <ele>172</ele>
        <time>2021-09-19T09:53:24Z</time>
      </trkpt>
      <trkpt lat="43.59948" lon="1.33535">
        <ele>172</ele>
        <time>2021-09-19T09:53:25Z</time>
      </trkpt>
      <trkpt lat="43.59947" lon="1.33529">
        <ele>172</ele>
        <time>2021-09-19T09:53:26Z</time>
      </trkpt>
      <trkpt lat="43.59945" lon="1.33523">
        <ele>172</ele>
        <time>2021-09-19T09:53:27Z</time>
      </trkpt>
      <trkpt lat="43.59944" lon="1.33518">
        <ele>172</ele>
        <time>2021-09-19T09:53:28Z</time>
      </trkpt>
      <trkpt lat="43.59943" lon="1.33512">
        <ele>172</ele>
        <time>2021-09-19T09:53:29Z</time>
      </trkpt>
      <trkpt lat="43.59941" lon="1.33507">
        <ele>172</ele>
        <time>2021-09-19T09:53:30Z</time>
      </trkpt>
      <trkpt lat="43.59939" lon="1.33503">
        <ele>172</ele>
        <time>2021-09-19T09:53:31Z</time>
      </trkpt>
      <trkpt lat="43.59936" lon="1.33501">
        <ele>172</ele>
        <time>2021-09-19T09:53:32Z</time>
      </trkpt>
      <trkpt lat="43.59933" lon="1.33501">
        <ele>172</ele>
        <time>2021-09-19T09:53:33Z</time>
      </trkpt>
      <trkpt lat="43.5993" lon="1.335">
        <ele>172</ele>
        <time>2021-09-19T09:53:34Z</time>
      </trkpt>
      <trkpt lat="43.59928" lon="1.33499">
        <ele>172</ele>
        <time>2021-09-19T09:53:35Z</time>
      </trkpt>
      <trkpt lat="43.59926" lon="1.33497">
        <ele>172</ele>
        <time>2021-09-19T09:53:36Z</time>
      </trkpt>
      <trkpt lat="43.59924" lon="1.33495">
        <ele>172</ele>
        <time>2021-09-19T09:53:37Z</time>
      </trkpt>
      <trkpt lat="43.59921" lon="1.33492">
        <ele>172</ele>
        <time>2021-09-19T09:53:38Z</time>
      </trkpt>
      <trkpt lat="43.5992" lon="1.33487">
        <ele>172</ele>
        <time>2021-09-19T09:53:39Z</time>
      </trkpt>
      <trkpt lat="43.59918" lon="1.33483">
        <ele>172</ele>
        <time>2021-09-19T09:53:40Z</time>
      </trkpt>
      <trkpt lat="43.59916" lon="1.33477">
        <ele>172</ele>
        <time>2021-09-19T09:53:41Z</time>
      </trkpt>
      <trkpt lat="43.59916" lon="1.33472">
        <ele>172</ele>
        <time>2021-09-19T09:53:42Z</time>
      </trkpt>
      <trkpt lat="43.59914" lon="1.33467">
        <ele>172</ele>
        <time>2021-09-19T09:53:43Z</time>
      </trkpt>
      <trkpt lat="43.59913" lon="1.33462">
        <ele>172</ele>
        <time>2021-09-19T09:53:44Z</time>
      </trkpt>
      <trkpt lat="43.5991" lon="1.33459">
        <ele>172</ele>
        <time>2021-09-19T09:53:45Z</time>
      </trkpt>
      <trkpt lat="43.59908" lon="1.33456">
        <ele>172</ele>
        <time>2021-09-19T09:53:46Z</time>
      </trkpt>
      <trkpt lat="43.59905" lon="1.33451">
        <ele>172</ele>
        <time>2021-09-19T09:53:47Z</time>
      </trkpt>
      <trkpt lat="43.59902" lon="1.33448">
        <ele>172</ele>
        <time>2021-09-19T09:53:48Z</time>
      </trkpt>
      <trkpt lat="43.59899" lon="1.33444">
        <ele>172</ele>
        <time>2021-09-19T09:53:49Z</time>
      </trkpt>
      <trkpt lat="43.59895" lon="1.33439">
        <ele>172</ele>
        <time>2021-09-19T09:53:50Z</time>
      </trkpt>
      <trkpt lat="43.59891" lon="1.33435">
        <ele>172</ele>
        <time>2021-09-19T09:53:51Z</time>
      </trkpt>
      <trkpt lat="43.59887" lon="1.33432">
        <ele>172</ele>
        <time>2021-09-19T09:53:52Z</time>
      </trkpt>
      <trkpt lat="43.59884" lon="1.33428">
        <ele>172</ele>
        <time>2021-09-19T09:53:53Z</time>
      </trkpt>
      <trkpt lat="43.59881" lon="1.33423">
        <ele>172</ele>
        <time>2021-09-19T09:53:54Z</time>
      </trkpt>
      <trkpt lat="43.59879" lon="1.3342">
        <ele>172</ele>
        <time>2021-09-19T09:53:55Z</time>
      </trkpt>
      <trkpt lat="43.59876" lon="1.33419">
        <ele>172</ele>
        <time>2021-09-19T09:53:56Z</time>
      </trkpt>
      <trkpt lat="43.59874" lon="1.33418">
        <ele>172</ele>
        <time>2021-09-19T09:53:57Z</time>
      </trkpt>
      <trkpt lat="43.5987" lon="1.33418">
        <ele>172</ele>
        <time>2021-09-19T09:53:58Z</time>
      </trkpt>
      <trkpt lat="43.59866" lon="1.33419">
        <ele>172</ele>
        <time>2021-09-19T09:53:59Z</time>
      </trkpt>
      <trkpt lat="43.59862" lon="1.33419">
        <ele>172</ele>
        <time>2021-09-19T09:54:00Z</time>
      </trkpt>
      <trkpt lat="43.59859" lon="1.3342">
        <ele>172</ele>
        <time>2021-09-19T09:54:01Z</time>
      </trkpt>
      <trkpt lat="43.59856" lon="1.3342">
        <ele>172</ele>
        <time>2021-09-19T09:54:02Z</time>
      </trkpt>
      <trkpt lat="43.59853" lon="1.33421">
        <ele>172</ele>
        <time>2021-09-19T09:54:03Z</time>
      </trkpt>
      <trkpt lat="43.5985" lon="1.33421">
        <ele>172</ele>
        <time>2021-09-19T09:54:04Z</time>
      </trkpt>
      <trkpt lat="43.59848" lon="1.3342">
        <ele>173</ele>
        <time>2021-09-19T09:54:05Z</time>
      </trkpt>
      <trkpt lat="43.59845" lon="1.3342">
        <ele>174</ele>
        <time>2021-09-19T09:54:06Z</time>
      </trkpt>
      <trkpt lat="43.59843" lon="1.33418">
        <ele>174</ele>
        <time>2021-09-19T09:54:07Z</time>
      </trkpt>
      <trkpt lat="43.59841" lon="1.33415">
        <ele>175</ele>
        <time>2021-09-19T09:54:08Z</time>
      </trkpt>
      <trkpt lat="43.59839" lon="1.33412">
        <ele>175</ele>
        <time>2021-09-19T09:54:09Z</time>
      </trkpt>
      <trkpt lat="43.59837" lon="1.33408">
        <ele>175</ele>
        <time>2021-09-19T09:54:10Z</time>
      </trkpt>
      <trkpt lat="43.59836" lon="1.33405">
        <ele>175</ele>
        <time>2021-09-19T09:54:11Z</time>
      </trkpt>
      <trkpt lat="43.59835" lon="1.33401">
        <ele>176</ele>
        <time>2021-09-19T09:54:12Z</time>
      </trkpt>
      <trkpt lat="43.59835" lon="1.33398">
        <ele>176</ele>
        <time>2021-09-19T09:54:13Z</time>
      </trkpt>
      <trkpt lat="43.59834" lon="1.33394">
        <ele>176</ele>
        <time>2021-09-19T09:54:14Z</time>
      </trkpt>
      <trkpt lat="43.59834" lon="1.3339">
        <ele>176</ele>
        <time>2021-09-19T09:54:15Z</time>
      </trkpt>
      <trkpt lat="43.59833" lon="1.33386">
        <ele>176</ele>
        <time>2021-09-19T09:54:16Z</time>
      </trkpt>
      <trkpt lat="43.59833" lon="1.33382">
        <ele>176</ele>
        <time>2021-09-19T09:54:17Z</time>
      </trkpt>
      <trkpt lat="43.59832" lon="1.33378">
        <ele>177</ele>
        <time>2021-09-19T09:54:18Z</time>
      </trkpt>
      <trkpt lat="43.59832" lon="1.33374">
        <ele>177</ele>
        <time>2021-09-19T09:54:19Z</time>
      </trkpt>
      <trkpt lat="43.59831" lon="1.33369">
        <ele>177</ele>
        <time>2021-09-19T09:54:20Z</time>
      </trkpt>
      <trkpt lat="43.59831" lon="1.33364">
        <ele>177</ele>
        <time>2021-09-19T09:54:21Z</time>
      </trkpt>
      <trkpt lat="43.5983" lon="1.3336">
        <ele>177</ele>
        <time>2021-09-19T09:54:22Z</time>
      </trkpt>
      <trkpt lat="43.5983" lon="1.33355">
        <ele>176</ele>
        <time>2021-09-19T09:54:23Z</time>
      </trkpt>
      <trkpt lat="43.59829" lon="1.33351">
        <ele>176</ele>
        <time>2021-09-19T09:54:24Z</time>
      </trkpt>
      <trkpt lat="43.59828" lon="1.33348">
        <ele>176</ele>
        <time>2021-09-19T09:54:25Z</time>
      </trkpt>
      <trkpt lat="43.59826" lon="1.33347">
        <ele>176</ele>
        <time>2021-09-19T09:54:26Z</time>
      </trkpt>
      <trkpt lat="43.59823" lon="1.33348">
        <ele>176</ele>
        <time>2021-09-19T09:54:27Z</time>
      </trkpt>
      <trkpt lat="43.5982" lon="1.33349">
        <ele>176</ele>
        <time>2021-09-19T09:54:28Z</time>
      </trkpt>
      <trkpt lat="43.59818" lon="1.33351">
        <ele>176</ele>
        <time>2021-09-19T09:54:29Z</time>
      </trkpt>
      <trkpt lat="43.59815" lon="1.33353">
        <ele>177</ele>
        <time>2021-09-19T09:54:30Z</time>
      </trkpt>
      <trkpt lat="43.59813" lon="1.33355">
        <ele>177</ele>
        <time>2021-09-19T09:54:31Z</time>
      </trkpt>
      <trkpt lat="43.5981" lon="1.33357">
        <ele>177</ele>
        <time>2021-09-19T09:54:32Z</time>
      </trkpt>
      <trkpt lat="43.59808" lon="1.33359">
        <ele>178</ele>
        <time>2021-09-19T09:54:33Z</time>
      </trkpt>
      <trkpt lat="43.59805" lon="1.3336">
        <ele>178</ele>
        <time>2021-09-19T09:54:34Z</time>
      </trkpt>
      <trkpt lat="43.59803" lon="1.33362">
        <ele>178</ele>
        <time>2021-09-19T09:54:35Z</time>
      </trkpt>
      <trkpt lat="43.59801" lon="1.33364">
        <ele>178</ele>
        <time>2021-09-19T09:54:36Z</time>
      </trkpt>
      <trkpt lat="43.59798" lon="1.33366">
        <ele>178</ele>
        <time>2021-09-19T09:54:37Z</time>
      </trkpt>
      <trkpt lat="43.59796" lon="1.33368">
        <ele>178</ele>
        <time>2021-09-19T09:54:38Z</time>
      </trkpt>
      <trkpt lat="43.59794" lon="1.33369">
        <ele>178</ele>
        <time>2021-09-19T09:54:39Z</time>
      </trkpt>
      <trkpt lat="43.59792" lon="1.33371">
        <ele>179</ele>
        <time>2021-09-19T09:54:40Z</time>
      </trkpt>
      <trkpt lat="43.59789" lon="1.33372">
        <ele>179</ele>
        <time>2021-09-19T09:54:41Z</time>
      </trkpt>
      <trkpt lat="43.59787" lon="1.33374">
        <ele>179</ele>
        <time>2021-09-19T09:54:42Z</time>
      </trkpt>
      <trkpt lat="43.59786" lon="1.33376">
        <ele>179</ele>
        <time>2021-09-19T09:54:43Z</time>
      </trkpt>
      <trkpt lat="43.59784" lon="1.33378">
        <ele>179</ele>
        <time>2021-09-19T09:54:44Z</time>
      </trkpt>
      <trkpt lat="43.59783" lon="1.33381">
        <ele>179</ele>
        <time>2021-09-19T09:54:45Z</time>
      </trkpt>
      <trkpt lat="43.59782" lon="1.33383">
        <ele>179</ele>
        <time>2021-09-19T09:54:46Z</time>
      </trkpt>
      <trkpt lat="43.59781" lon="1.33385">
        <ele>180</ele>
        <time>2021-09-19T09:54:47Z</time>
      </trkpt>
      <trkpt lat="43.5978" lon="1.33388">
        <ele>180</ele>
        <time>2021-09-19T09:54:48Z</time>
      </trkpt>
      <trkpt lat="43.59779" lon="1.3339">
        <ele>180</ele>
        <time>2021-09-19T09:54:49Z</time>
      </trkpt>
      <trkpt lat="43.59778" lon="1.33393">
        <ele>180</ele>
        <time>2021-09-19T09:54:50Z</time>
      </trkpt>
      <trkpt lat="43.59777" lon="1.33395">
        <ele>180</ele>
        <time>2021-09-19T09:54:51Z</time>
      </trkpt>
      <trkpt lat="43.59776" lon="1.33398">
        <ele>180</ele>
        <time>2021-09-19T09:54:52Z</time>
      </trkpt>
      <trkpt lat="43.59775" lon="1.33401">
        <ele>180</ele>
        <time>2021-09-19T09:54:53Z</time>
      </trkpt>
      <trkpt lat="43.59774" lon="1.33404">
        <ele>180</ele>
        <time>2021-09-19T09:54:54Z</time>
      </trkpt>
      <trkpt lat="43.59773" lon="1.33406">
        <ele>180</ele>
        <time>2021-09-19T09:54:55Z</time>
      </trkpt>
      <trkpt lat="43.59772" lon="1.33409">
        <ele>180</ele>
        <time>2021-09-19T09:54:56Z</time>
      </trkpt>
      <trkpt lat="43.5977" lon="1.33412">
        <ele>180</ele>
        <time>2021-09-19T09:54:57Z</time>
      </trkpt>
      <trkpt lat="43.59769" lon="1.33415">
        <ele>180</ele>
        <time>2021-09-19T09:54:58Z</time>
      </trkpt>
      <trkpt lat="43.59768" lon="1.33419">
        <ele>180</ele>
        <time>2021-09-19T09:54:59Z</time>
      </trkpt>
      <trkpt lat="43.59767" lon="1.33422">
        <ele>181</ele>
        <time>2021-09-19T09:55:00Z</time>
      </trkpt>
      <trkpt lat="43.59766" lon="1.33425">
        <ele>181</ele>
        <time>2021-09-19T09:55:01Z</time>
      </trkpt>
      <trkpt lat="43.59765" lon="1.33428">
        <ele>181</ele>
        <time>2021-09-19T09:55:02Z</time>
      </trkpt>
      <trkpt lat="43.59764" lon="1.33431">
        <ele>180</ele>
        <time>2021-09-19T09:55:03Z</time>
      </trkpt>
      <trkpt lat="43.59763" lon="1.33434">
        <ele>180</ele>
        <time>2021-09-19T09:55:04Z</time>
      </trkpt>
      <trkpt lat="43.59762" lon="1.33437">
        <ele>180</ele>
        <time>2021-09-19T09:55:05Z</time>
      </trkpt>
      <trkpt lat="43.59762" lon="1.3344">
        <ele>180</ele>
        <time>2021-09-19T09:55:06Z</time>
      </trkpt>
      <trkpt lat="43.59761" lon="1.33443">
        <ele>180</ele>
        <time>2021-09-19T09:55:07Z</time>
      </trkpt>
      <trkpt lat="43.59761" lon="1.33447">
        <ele>180</ele>
        <time>2021-09-19T09:55:08Z</time>
      </trkpt>
      <trkpt lat="43.5976" lon="1.3345">
        <ele>180</ele>
        <time>2021-09-19T09:55:09Z</time>
      </trkpt>
      <trkpt lat="43.5976" lon="1.33454">
        <ele>180</ele>
        <time>2021-09-19T09:55:10Z</time>
      </trkpt>
      <trkpt lat="43.5976" lon="1.33458">
        <ele>180</ele>
        <time>2021-09-19T09:55:11Z</time>
      </trkpt>
      <trkpt lat="43.5976" lon="1.33462">
        <ele>180</ele>
        <time>2021-09-19T09:55:12Z</time>
      </trkpt>
      <trkpt lat="43.5976" lon="1.33466">
        <ele>180</ele>
        <time>2021-09-19T09:55:13Z</time>
      </trkpt>
      <trkpt lat="43.59761" lon="1.33471">
        <ele>180</ele>
        <time>2021-09-19T09:55:14Z</time>
      </trkpt>
      <trkpt lat="43.59762" lon="1.33475">
        <ele>179</ele>
        <time>2021-09-19T09:55:15Z</time>
      </trkpt>
      <trkpt lat="43.59763" lon="1.33479">
        <ele>179</ele>
        <time>2021-09-19T09:55:16Z</time>
      </trkpt>
      <trkpt lat="43.59763" lon="1.33484">
        <ele>179</ele>
        <time>2021-09-19T09:55:17Z</time>
      </trkpt>
      <trkpt lat="43.59764" lon="1.33489">
        <ele>179</ele>
        <time>2021-09-19T09:55:18Z</time>
      </trkpt>
      <trkpt lat="43.59765" lon="1.33494">
        <ele>179</ele>
        <time>2021-09-19T09:55:19Z</time>
      </trkpt>
      <trkpt lat="43.59765" lon="1.33499">
        <ele>179</ele>
        <time>2021-09-19T09:55:20Z</time>
      </trkpt>
      <trkpt lat="43.59766" lon="1.33504">
        <ele>179</ele>
        <time>2021-09-19T09:55:21Z</time>
      </trkpt>
      <trkpt lat="43.59767" lon="1.33509">
        <ele>179</ele>
        <time>2021-09-19T09:55:22Z</time>
      </trkpt>
      <trkpt lat="43.59768" lon="1.33514">
        <ele>179</ele>
        <time>2021-09-19T09:55:23Z</time>
      </trkpt>
      <trkpt lat="43.59769" lon="1.33519">
        <ele>179</ele>
        <time>2021-09-19T09:55:24Z</time>
      </trkpt>
      <trkpt lat="43.59771" lon="1.33524">
        <ele>179</ele>
        <time>2021-09-19T09:55:25Z</time>
      </trkpt>
      <trkpt lat="43.59772" lon="1.33529">
        <ele>179</ele>
        <time>2021-09-19T09:55:26Z</time>
      </trkpt>
      <trkpt lat="43.59774" lon="1.33534">
        <ele>179</ele>
        <time>2021-09-19T09:55:27Z</time>
      </trkpt>
      <trkpt lat="43.59775" lon="1.33539">
        <ele>179</ele>
        <time>2021-09-19T09:55:28Z</time>
      </trkpt>
      <trkpt lat="43.59776" lon="1.33544">
        <ele>179</ele>
        <time>2021-09-19T09:55:29Z</time>
      </trkpt>
      <trkpt lat="43.59777" lon="1.33549">
        <ele>179</ele>
        <time>2021-09-19T09:55:30Z</time>
      </trkpt>
      <trkpt lat="43.59778" lon="1.33554">
        <ele>179</ele>
        <time>2021-09-19T09:55:31Z</time>
      </trkpt>
      <trkpt lat="43.59779" lon="1.33559">
        <ele>179</ele>
        <time>2021-09-19T09:55:32Z</time>
      </trkpt>
      <trkpt lat="43.5978" lon="1.33564">
        <ele>179</ele>
        <time>2021-09-19T09:55:33Z</time>
      </trkpt>
      <trkpt lat="43.59782" lon="1.33568">
        <ele>179</ele>
        <time>2021-09-19T09:55:34Z</time>
      </trkpt>
      <trkpt lat="43.59783" lon="1.33573">
        <ele>179</ele>
        <time>2021-09-19T09:55:35Z</time>
      </trkpt>
      <trkpt lat="43.59784" lon="1.33578">
        <ele>179</ele>
        <time>2021-09-19T09:55:36Z</time>
      </trkpt>
      <trkpt lat="43.59784" lon="1.33583">
        <ele>179</ele>
        <time>2021-09-19T09:55:37Z</time>
      </trkpt>
      <trkpt lat="43.59783" lon="1.33589">
        <ele>180</ele>
        <time>2021-09-19T09:55:38Z</time>
      </trkpt>
      <trkpt lat="43.59782" lon="1.33594">
        <ele>180</ele>
        <time>2021-09-19T09:55:39Z</time>
      </trkpt>
      <trkpt lat="43.59781" lon="1.336">
        <ele>180</ele>
        <time>2021-09-19T09:55:40Z</time>
      </trkpt>
      <trkpt lat="43.5978" lon="1.33606">
        <ele>180</ele>
        <time>2021-09-19T09:55:41Z</time>
      </trkpt>
      <trkpt lat="43.59779" lon="1.33611">
        <ele>180</ele>
        <time>2021-09-19T09:55:42Z</time>
      </trkpt>
      <trkpt lat="43.59778" lon="1.33617">
        <ele>180</ele>
        <time>2021-09-19T09:55:43Z</time>
      </trkpt>
      <trkpt lat="43.59777" lon="1.33623">
        <ele>180</ele>
        <time>2021-09-19T09:55:44Z</time>
      </trkpt>
      <trkpt lat="43.59776" lon="1.33629">
        <ele>180</ele>
        <time>2021-09-19T09:55:45Z</time>
      </trkpt>
      <trkpt lat="43.59775" lon="1.33635">
        <ele>180</ele>
        <time>2021-09-19T09:55:46Z</time>
      </trkpt>
      <trkpt lat="43.59774" lon="1.33641">
        <ele>180</ele>
        <time>2021-09-19T09:55:47Z</time>
      </trkpt>
      <trkpt lat="43.59774" lon="1.33647">
        <ele>180</ele>
        <time>2021-09-19T09:55:48Z</time>
      </trkpt>
      <trkpt lat="43.59773" lon="1.33653">
        <ele>180</ele>
        <time>2021-09-19T09:55:49Z</time>
      </trkpt>
      <trkpt lat="43.59772" lon="1.33659">
        <ele>180</ele>
        <time>2021-09-19T09:55:50Z</time>
      </trkpt>
      <trkpt lat="43.59772" lon="1.33664">
        <ele>180</ele>
        <time>2021-09-19T09:55:51Z</time>
      </trkpt>
      <trkpt lat="43.59771" lon="1.3367">
        <ele>180</ele>
        <time>2021-09-19T09:55:52Z</time>
      </trkpt>
      <trkpt lat="43.59771" lon="1.33675">
        <ele>180</ele>
        <time>2021-09-19T09:55:53Z</time>
      </trkpt>
      <trkpt lat="43.59771" lon="1.33681">
        <ele>180</ele>
        <time>2021-09-19T09:55:54Z</time>
      </trkpt>
      <trkpt lat="43.59771" lon="1.33686">
        <ele>180</ele>
        <time>2021-09-19T09:55:55Z</time>
      </trkpt>
      <trkpt lat="43.5977" lon="1.33692">
        <ele>180</ele>
        <time>2021-09-19T09:55:56Z</time>
      </trkpt>
      <trkpt lat="43.5977" lon="1.33697">
        <ele>180</ele>
        <time>2021-09-19T09:55:57Z</time>
      </trkpt>
      <trkpt lat="43.59769" lon="1.33703">
        <ele>180</ele>
        <time>2021-09-19T09:55:58Z</time>
      </trkpt>
      <trkpt lat="43.59769" lon="1.33708">
        <ele>180</ele>
        <time>2021-09-19T09:55:59Z</time>
      </trkpt>
      <trkpt lat="43.59768" lon="1.33714">
        <ele>180</ele>
        <time>2021-09-19T09:56:00Z</time>
      </trkpt>
      <trkpt lat="43.59768" lon="1.33719">
        <ele>180</ele>
        <time>2021-09-19T09:56:01Z</time>
      </trkpt>
      <trkpt lat="43.59767" lon="1.33724">
        <ele>180</ele>
        <time>2021-09-19T09:56:02Z</time>
      </trkpt>
      <trkpt lat="43.59767" lon="1.33729">
        <ele>180</ele>
        <time>2021-09-19T09:56:03Z</time>
      </trkpt>
      <trkpt lat="43.59767" lon="1.33735">
        <ele>180</ele>
        <time>2021-09-19T09:56:04Z</time>
      </trkpt>
      <trkpt lat="43.59766" lon="1.3374">
        <ele>180</ele>
        <time>2021-09-19T09:56:05Z</time>
      </trkpt>
      <trkpt lat="43.59766" lon="1.33746">
        <ele>180</ele>
        <time>2021-09-19T09:56:06Z</time>
      </trkpt>
      <trkpt lat="43.59766" lon="1.33751">
        <ele>180</ele>
        <time>2021-09-19T09:56:07Z</time>
      </trkpt>
      <trkpt lat="43.59766" lon="1.33757">
        <ele>180</ele>
        <time>2021-09-19T09:56:08Z</time>
      </trkpt>
      <trkpt lat="43.59766" lon="1.33762">
        <ele>180</ele>
        <time>2021-09-19T09:56:09Z</time>
      </trkpt>
      <trkpt lat="43.59766" lon="1.33768">
        <ele>180</ele>
        <time>2021-09-19T09:56:10Z</time>
      </trkpt>
      <trkpt lat="43.59766" lon="1.33773">
        <ele>180</ele>
        <time>2021-09-19T09:56:11Z</time>
      </trkpt>
      <trkpt lat="43.59767" lon="1.33779">
        <ele>180</ele>
        <time>2021-09-19T09:56:12Z</time>
      </trkpt>
      <trkpt lat="43.59767" lon="1.33784">
        <ele>180</ele>
        <time>2021-09-19T09:56:13Z</time>
      </trkpt>
      <trkpt lat="43.59768" lon="1.3379">
        <ele>180</ele>
        <time>2021-09-19T09:56:14Z</time>
      </trkpt>
      <trkpt lat="43.59768" lon="1.33795">
        <ele>180</ele>
        <time>2021-09-19T09:56:15Z</time>
      </trkpt>
      <trkpt lat="43.59769" lon="1.338">
        <ele>180</ele>
        <time>2021-09-19T09:56:16Z</time>
      </trkpt>
      <trkpt lat="43.59769" lon="1.33806">
        <ele>180</ele>
        <time>2021-09-19T09:56:17Z</time>
      </trkpt>
      <trkpt lat="43.5977" lon="1.33811">
        <ele>180</ele>
        <time>2021-09-19T09:56:18Z</time>
      </trkpt>
      <trkpt lat="43.5977" lon="1.33816">
        <ele>180</ele>
        <time>2021-09-19T09:56:19Z</time>
      </trkpt>
      <trkpt lat="43.5977" lon="1.33822">
        <ele>180</ele>
        <time>2021-09-19T09:56:20Z</time>
      </trkpt>
      <trkpt lat="43.5977" lon="1.33826">
        <ele>180</ele>
        <time>2021-09-19T09:56:21Z</time>
      </trkpt>
      <trkpt lat="43.5977" lon="1.33831">
        <ele>180</ele>
        <time>2021-09-19T09:56:22Z</time>
      </trkpt>
      <trkpt lat="43.59771" lon="1.33836">
        <ele>180</ele>
        <time>2021-09-19T09:56:23Z</time>
      </trkpt>
      <trkpt lat="43.5977" lon="1.3384">
        <ele>180</ele>
        <time>2021-09-19T09:56:24Z</time>
      </trkpt>
      <trkpt lat="43.5977" lon="1.33844">
        <ele>180</ele>
        <time>2021-09-19T09:56:25Z</time>
      </trkpt>
      <trkpt lat="43.5977" lon="1.33848">
        <ele>180</ele>
        <time>2021-09-19T09:56:26Z</time>
      </trkpt>
      <trkpt lat="43.5977" lon="1.33852">
        <ele>180</ele>
        <time>2021-09-19T09:56:27Z</time>
      </trkpt>
      <trkpt lat="43.5977" lon="1.33856">
        <ele>180</ele>
        <time>2021-09-19T09:56:28Z</time>
      </trkpt>
      <trkpt lat="43.5977" lon="1.3386">
        <ele>180</ele>
        <time>2021-09-19T09:56:29Z</time>
      </trkpt>
      <trkpt lat="43.5977" lon="1.33864">
        <ele>180</ele>
        <time>2021-09-19T09:56:30Z</time>
      </trkpt>
      <trkpt lat="43.59769" lon="1.33868">
        <ele>180</ele>
        <time>2021-09-19T09:56:31Z</time>
      </trkpt>
      <trkpt lat="43.59769" lon="1.33872">
        <ele>180</ele>
        <time>2021-09-19T09:56:32Z</time>
      </trkpt>
      <trkpt lat="43.59769" lon="1.33876">
        <ele>180</ele>
        <time>2021-09-19T09:56:33Z</time>
      </trkpt>
      <trkpt lat="43.59769" lon="1.3388">
        <ele>180</ele>
        <time>2021-09-19T09:56:34Z</time>
      </trkpt>
      <trkpt lat="43.5977" lon="1.33884">
        <ele>180</ele>
        <time>2021-09-19T09:56:35Z</time>
      </trkpt>
      <trkpt lat="43.59769" lon="1.33888">
        <ele>180</ele>
        <time>2021-09-19T09:56:36Z</time>
      </trkpt>
      <trkpt lat="43.59769" lon="1.33893">
        <ele>180</ele>
        <time>2021-09-19T09:56:37Z</time>
      </trkpt>
      <trkpt lat="43.59769" lon="1.33897">
        <ele>180</ele>
        <time>2021-09-19T09:56:38Z</time>
      </trkpt>
      <trkpt lat="43.59768" lon="1.339">
        <ele>180</ele>
        <time>2021-09-19T09:56:39Z</time>
      </trkpt>
      <trkpt lat="43.59765" lon="1.33903">
        <ele>181</ele>
        <time>2021-09-19T09:56:40Z</time>
      </trkpt>
      <trkpt lat="43.59761" lon="1.33905">
        <ele>181</ele>
        <time>2021-09-19T09:56:41Z</time>
      </trkpt>
      <trkpt lat="43.59758" lon="1.33905">
        <ele>181</ele>
        <time>2021-09-19T09:56:42Z</time>
      </trkpt>
      <trkpt lat="43.59755" lon="1.33906">
        <ele>181</ele>
        <time>2021-09-19T09:56:43Z</time>
      </trkpt>
      <trkpt lat="43.59751" lon="1.33906">
        <ele>181</ele>
        <time>2021-09-19T09:56:44Z</time>
      </trkpt>
      <trkpt lat="43.59748" lon="1.33907">
        <ele>181</ele>
        <time>2021-09-19T09:56:45Z</time>
      </trkpt>
      <trkpt lat="43.59745" lon="1.33908">
        <ele>181</ele>
        <time>2021-09-19T09:56:46Z</time>
      </trkpt>
      <trkpt lat="43.59742" lon="1.3391">
        <ele>181</ele>
        <time>2021-09-19T09:56:47Z</time>
      </trkpt>
      <trkpt lat="43.5974" lon="1.33912">
        <ele>181</ele>
        <time>2021-09-19T09:56:48Z</time>
      </trkpt>
      <trkpt lat="43.59739" lon="1.33914">
        <ele>181</ele>
        <time>2021-09-19T09:56:49Z</time>
      </trkpt>
      <trkpt lat="43.59739" lon="1.33918">
        <ele>181</ele>
        <time>2021-09-19T09:56:50Z</time>
      </trkpt>
      <trkpt lat="43.5974" lon="1.33922">
        <ele>181</ele>
        <time>2021-09-19T09:56:51Z</time>
      </trkpt>
      <trkpt lat="43.59741" lon="1.33927">
        <ele>181</ele>
        <time>2021-09-19T09:56:52Z</time>
      </trkpt>
      <trkpt lat="43.59743" lon="1.33931">
        <ele>182</ele>
        <time>2021-09-19T09:56:53Z</time>
      </trkpt>
      <trkpt lat="43.59744" lon="1.33936">
        <ele>182</ele>
        <time>2021-09-19T09:56:54Z</time>
      </trkpt>
      <trkpt lat="43.59745" lon="1.33941">
        <ele>182</ele>
        <time>2021-09-19T09:56:55Z</time>
      </trkpt>
      <trkpt lat="43.59746" lon="1.33945">
        <ele>182</ele>
        <time>2021-09-19T09:56:56Z</time>
      </trkpt>
      <trkpt lat="43.59746" lon="1.33951">
        <ele>182</ele>
        <time>2021-09-19T09:56:57Z</time>
      </trkpt>
      <trkpt lat="43.59745" lon="1.33955">
        <ele>182</ele>
        <time>2021-09-19T09:56:58Z</time>
      </trkpt>
      <trkpt lat="43.59743" lon="1.3396">
        <ele>182</ele>
        <time>2021-09-19T09:56:59Z</time>
      </trkpt>
      <trkpt lat="43.5974" lon="1.33963">
        <ele>182</ele>
        <time>2021-09-19T09:57:00Z</time>
      </trkpt>
      <trkpt lat="43.59736" lon="1.33966">
        <ele>182</ele>
        <time>2021-09-19T09:57:01Z</time>
      </trkpt>
      <trkpt lat="43.59733" lon="1.33968">
        <ele>182</ele>
        <time>2021-09-19T09:57:02Z</time>
      </trkpt>
      <trkpt lat="43.59729" lon="1.33971">
        <ele>182</ele>
        <time>2021-09-19T09:57:03Z</time>
      </trkpt>
      <trkpt lat="43.59725" lon="1.33975">
        <ele>182</ele>
        <time>2021-09-19T09:57:04Z</time>
      </trkpt>
      <trkpt lat="43.59723" lon="1.33979">
        <ele>182</ele>
        <time>2021-09-19T09:57:05Z</time>
      </trkpt>
      <trkpt lat="43.59721" lon="1.33984">
        <ele>182</ele>
        <time>2021-09-19T09:57:06Z</time>
      </trkpt>
      <trkpt lat="43.5972" lon="1.3399">
        <ele>181</ele>
        <time>2021-09-19T09:57:07Z</time>
      </trkpt>
      <trkpt lat="43.59721" lon="1.33996">
        <ele>181</ele>
        <time>2021-09-19T09:57:08Z</time>
      </trkpt>
      <trkpt lat="43.59723" lon="1.34002">
        <ele>181</ele>
        <time>2021-09-19T09:57:09Z</time>
      </trkpt>
      <trkpt lat="43.59726" lon="1.34007">
        <ele>181</ele>
        <time>2021-09-19T09:57:10Z</time>
      </trkpt>
      <trkpt lat="43.59729" lon="1.34011">
        <ele>181</ele>
        <time>2021-09-19T09:57:11Z</time>
      </trkpt>
      <trkpt lat="43.59733" lon="1.34014">
        <ele>181</ele>
        <time>2021-09-19T09:57:12Z</time>
      </trkpt>
      <trkpt lat="43.59737" lon="1.34017">
        <ele>181</ele>
        <time>2021-09-19T09:57:13Z</time>
      </trkpt>
      <trkpt lat="43.59741" lon="1.34019">
        <ele>181</ele>
        <time>2021-09-19T09:57:14Z</time>
      </trkpt>
      <trkpt lat="43.59746" lon="1.34021">
        <ele>181</ele>
        <time>2021-09-19T09:57:15Z</time>
      </trkpt>
      <trkpt lat="43.5975" lon="1.34023">
        <ele>181</ele>
        <time>2021-09-19T09:57:16Z</time>
      </trkpt>
      <trkpt lat="43.59754" lon="1.34025">
        <ele>181</ele>
        <time>2021-09-19T09:57:17Z</time>
      </trkpt>
      <trkpt lat="43.59758" lon="1.34028">
        <ele>181</ele>
        <time>2021-09-19T09:57:18Z</time>
      </trkpt>
      <trkpt lat="43.59762" lon="1.34032">
        <ele>181</ele>
        <time>2021-09-19T09:57:19Z</time>
      </trkpt>
      <trkpt lat="43.59763" lon="1.34037">
        <ele>181</ele>
        <time>2021-09-19T09:57:20Z</time>
      </trkpt>
      <trkpt lat="43.59763" lon="1.34044">
        <ele>181</ele>
        <time>2021-09-19T09:57:21Z</time>
      </trkpt>
      <trkpt lat="43.59763" lon="1.3405">
        <ele>181</ele>
        <time>2021-09-19T09:57:22Z</time>
      </trkpt>
      <trkpt lat="43.59763" lon="1.34057">
        <ele>181</ele>
        <time>2021-09-19T09:57:23Z</time>
      </trkpt>
      <trkpt lat="43.59762" lon="1.34063">
        <ele>181</ele>
        <time>2021-09-19T09:57:24Z</time>
      </trkpt>
      <trkpt lat="43.59761" lon="1.3407">
        <ele>181</ele>
        <time>2021-09-19T09:57:25Z</time>
      </trkpt>
      <trkpt lat="43.5976" lon="1.34077">
        <ele>181</ele>
        <time>2021-09-19T09:57:26Z</time>
      </trkpt>
      <trkpt lat="43.59759" lon="1.34084">
        <ele>181</ele>
        <time>2021-09-19T09:57:27Z</time>
      </trkpt>
      <trkpt lat="43.59758" lon="1.34091">
        <ele>182</ele>
        <time>2021-09-19T09:57:28Z</time>
      </trkpt>
      <trkpt lat="43.59757" lon="1.34098">
        <ele>182</ele>
        <time>2021-09-19T09:57:29Z</time>
      </trkpt>
      <trkpt lat="43.59755" lon="1.34105">
        <ele>182</ele>
        <time>2021-09-19T09:57:30Z</time>
      </trkpt>
      <trkpt lat="43.59754" lon="1.34111">
        <ele>182</ele>
        <time>2021-09-19T09:57:31Z</time>
      </trkpt>
      <trkpt lat="43.59752" lon="1.34118">
        <ele>182</ele>
        <time>2021-09-19T09:57:32Z</time>
      </trkpt>
      <trkpt lat="43.5975" lon="1.34124">
        <ele>181</ele>
        <time>2021-09-19T09:57:33Z</time>
      </trkpt>
      <trkpt lat="43.59748" lon="1.3413">
        <ele>181</ele>
        <time>2021-09-19T09:57:34Z</time>
      </trkpt>
      <trkpt lat="43.59746" lon="1.34137">
        <ele>181</ele>
        <time>2021-09-19T09:57:35Z</time>
      </trkpt>
      <trkpt lat="43.59745" lon="1.34143">
        <ele>181</ele>
        <time>2021-09-19T09:57:36Z</time>
      </trkpt>
      <trkpt lat="43.59743" lon="1.34149">
        <ele>181</ele>
        <time>2021-09-19T09:57:37Z</time>
      </trkpt>
      <trkpt lat="43.59741" lon="1.34155">
        <ele>181</ele>
        <time>2021-09-19T09:57:38Z</time>
      </trkpt>
      <trkpt lat="43.59739" lon="1.34161">
        <ele>182</ele>
        <time>2021-09-19T09:57:39Z</time>
      </trkpt>
      <trkpt lat="43.59737" lon="1.34167">
        <ele>182</ele>
        <time>2021-09-19T09:57:40Z</time>
      </trkpt>
      <trkpt lat="43.59735" lon="1.34174">
        <ele>182</ele>
        <time>2021-09-19T09:57:41Z</time>
      </trkpt>
      <trkpt lat="43.59733" lon="1.3418">
        <ele>182</ele>
        <time>2021-09-19T09:57:42Z</time>
      </trkpt>
      <trkpt lat="43.59731" lon="1.34186">
        <ele>182</ele>
        <time>2021-09-19T09:57:43Z</time>
      </trkpt>
      <trkpt lat="43.59728" lon="1.34192">
        <ele>182</ele>
        <time>2021-09-19T09:57:44Z</time>
      </trkpt>
      <trkpt lat="43.59726" lon="1.34198">
        <ele>182</ele>
        <time>2021-09-19T09:57:45Z</time>
      </trkpt>
      <trkpt lat="43.59723" lon="1.34203">
        <ele>182</ele>
        <time>2021-09-19T09:57:46Z</time>
      </trkpt>
      <trkpt lat="43.59721" lon="1.3421">
        <ele>181</ele>
        <time>2021-09-19T09:57:47Z</time>
      </trkpt>
      <trkpt lat="43.59718" lon="1.34217">
        <ele>181</ele>
        <time>2021-09-19T09:57:48Z</time>
      </trkpt>
      <trkpt lat="43.59715" lon="1.34224">
        <ele>181</ele>
        <time>2021-09-19T09:57:49Z</time>
      </trkpt>
      <trkpt lat="43.59712" lon="1.34231">
        <ele>181</ele>
        <time>2021-09-19T09:57:50Z</time>
      </trkpt>
      <trkpt lat="43.59709" lon="1.34239">
        <ele>181</ele>
        <time>2021-09-19T09:57:51Z</time>
      </trkpt>
      <trkpt lat="43.59706" lon="1.34247">
        <ele>180</ele>
        <time>2021-09-19T09:57:52Z</time>
      </trkpt>
      <trkpt lat="43.59702" lon="1.34255">
        <ele>180</ele>
        <time>2021-09-19T09:57:53Z</time>
      </trkpt>
      <trkpt lat="43.59698" lon="1.34263">
        <ele>180</ele>
        <time>2021-09-19T09:57:54Z</time>
      </trkpt>
      <trkpt lat="43.59694" lon="1.34272">
        <ele>180</ele>
        <time>2021-09-19T09:57:55Z</time>
      </trkpt>
      <trkpt lat="43.59689" lon="1.34281">
        <ele>179</ele>
        <time>2021-09-19T09:57:56Z</time>
      </trkpt>
      <trkpt lat="43.59684" lon="1.3429">
        <ele>178</ele>
        <time>2021-09-19T09:57:57Z</time>
      </trkpt>
      <trkpt lat="43.59678" lon="1.34301">
        <ele>178</ele>
        <time>2021-09-19T09:57:58Z</time>
      </trkpt>
      <trkpt lat="43.59672" lon="1.34312">
        <ele>176</ele>
        <time>2021-09-19T09:57:59Z</time>
      </trkpt>
      <trkpt lat="43.59666" lon="1.34323">
        <ele>173</ele>
        <time>2021-09-19T09:58:00Z</time>
      </trkpt>
      <trkpt lat="43.5966" lon="1.34334">
        <ele>173</ele>
        <time>2021-09-19T09:58:01Z</time>
      </trkpt>
      <trkpt lat="43.59655" lon="1.34345">
        <ele>172</ele>
        <time>2021-09-19T09:58:02Z</time>
      </trkpt>
      <trkpt lat="43.5965" lon="1.34355">
        <ele>170</ele>
        <time>2021-09-19T09:58:03Z</time>
      </trkpt>
      <trkpt lat="43.59647" lon="1.34365">
        <ele>169</ele>
        <time>2021-09-19T09:58:04Z</time>
      </trkpt>
      <trkpt lat="43.59643" lon="1.34376">
        <ele>168</ele>
        <time>2021-09-19T09:58:05Z</time>
      </trkpt>
      <trkpt lat="43.5964" lon="1.34387">
        <ele>167</ele>
        <time>2021-09-19T09:58:06Z</time>
      </trkpt>
      <trkpt lat="43.59638" lon="1.34397">
        <ele>166</ele>
        <time>2021-09-19T09:58:07Z</time>
      </trkpt>
      <trkpt lat="43.59637" lon="1.34407">
        <ele>166</ele>
        <time>2021-09-19T09:58:08Z</time>
      </trkpt>
      <trkpt lat="43.59638" lon="1.34418">
        <ele>165</ele>
        <time>2021-09-19T09:58:09Z</time>
      </trkpt>
      <trkpt lat="43.5964" lon="1.34427">
        <ele>164</ele>
        <time>2021-09-19T09:58:10Z</time>
      </trkpt>
      <trkpt lat="43.59642" lon="1.34436">
        <ele>163</ele>
        <time>2021-09-19T09:58:11Z</time>
      </trkpt>
      <trkpt lat="43.59643" lon="1.34444">
        <ele>162</ele>
        <time>2021-09-19T09:58:12Z</time>
      </trkpt>
      <trkpt lat="43.59644" lon="1.34452">
        <ele>162</ele>
        <time>2021-09-19T09:58:13Z</time>
      </trkpt>
      <trkpt lat="43.59643" lon="1.34459">
        <ele>161</ele>
        <time>2021-09-19T09:58:14Z</time>
      </trkpt>
      <trkpt lat="43.59642" lon="1.34466">
        <ele>161</ele>
        <time>2021-09-19T09:58:15Z</time>
      </trkpt>
      <trkpt lat="43.5964" lon="1.3447">
        <ele>161</ele>
        <time>2021-09-19T09:58:16Z</time>
      </trkpt>
      <trkpt lat="43.59637" lon="1.34474">
        <ele>160</ele>
        <time>2021-09-19T09:58:17Z</time>
      </trkpt>
      <trkpt lat="43.59634" lon="1.34478">
        <ele>160</ele>
        <time>2021-09-19T09:58:18Z</time>
      </trkpt>
      <trkpt lat="43.59632" lon="1.3448">
        <ele>160</ele>
        <time>2021-09-19T09:58:19Z</time>
      </trkpt>
      <trkpt lat="43.59629" lon="1.34483">
        <ele>160</ele>
        <time>2021-09-19T09:58:20Z</time>
      </trkpt>
      <trkpt lat="43.59627" lon="1.34487">
        <ele>160</ele>
        <time>2021-09-19T09:58:21Z</time>
      </trkpt>
      <trkpt lat="43.59625" lon="1.34491">
        <ele>159</ele>
        <time>2021-09-19T09:58:22Z</time>
      </trkpt>
      <trkpt lat="43.59623" lon="1.34496">
        <ele>160</ele>
        <time>2021-09-19T09:58:23Z</time>
      </trkpt>
      <trkpt lat="43.5962" lon="1.34501">
        <ele>160</ele>
        <time>2021-09-19T09:58:24Z</time>
      </trkpt>
      <trkpt lat="43.59618" lon="1.34507">
        <ele>159</ele>
        <time>2021-09-19T09:58:25Z</time>
      </trkpt>
      <trkpt lat="43.59615" lon="1.34513">
        <ele>159</ele>
        <time>2021-09-19T09:58:26Z</time>
      </trkpt>
      <trkpt lat="43.59612" lon="1.34519">
        <ele>159</ele>
        <time>2021-09-19T09:58:27Z</time>
      </trkpt>
      <trkpt lat="43.59609" lon="1.34526">
        <ele>158</ele>
        <time>2021-09-19T09:58:28Z</time>
      </trkpt>
      <trkpt lat="43.59606" lon="1.34533">
        <ele>157</ele>
        <time>2021-09-19T09:58:29Z</time>
      </trkpt>
      <trkpt lat="43.59604" lon="1.3454">
        <ele>157</ele>
        <time>2021-09-19T09:58:30Z</time>
      </trkpt>
      <trkpt lat="43.59601" lon="1.34547">
        <ele>157</ele>
        <time>2021-09-19T09:58:31Z</time>
      </trkpt>
      <trkpt lat="43.59599" lon="1.34555">
        <ele>157</ele>
        <time>2021-09-19T09:58:32Z</time>
      </trkpt>
      <trkpt lat="43.59596" lon="1.34562">
        <ele>157</ele>
        <time>2021-09-19T09:58:33Z</time>
      </trkpt>
      <trkpt lat="43.59594" lon="1.3457">
        <ele>157</ele>
        <time>2021-09-19T09:58:34Z</time>
      </trkpt>
      <trkpt lat="43.59589" lon="1.34585">
        <ele>156</ele>
        <time>2021-09-19T09:58:36Z</time>
      </trkpt>
      <trkpt lat="43.59586" lon="1.34592">
        <ele>156</ele>
        <time>2021-09-19T09:58:37Z</time>
      </trkpt>
      <trkpt lat="43.59583" lon="1.34599">
        <ele>156</ele>
        <time>2021-09-19T09:58:38Z</time>
      </trkpt>
      <trkpt lat="43.5958" lon="1.34606">
        <ele>156</ele>
        <time>2021-09-19T09:58:39Z</time>
      </trkpt>
      <trkpt lat="43.59578" lon="1.34614">
        <ele>155</ele>
        <time>2021-09-19T09:58:40Z</time>
      </trkpt>
      <trkpt lat="43.59576" lon="1.34621">
        <ele>155</ele>
        <time>2021-09-19T09:58:41Z</time>
      </trkpt>
      <trkpt lat="43.59573" lon="1.34628">
        <ele>155</ele>
        <time>2021-09-19T09:58:42Z</time>
      </trkpt>
      <trkpt lat="43.59571" lon="1.34636">
        <ele>155</ele>
        <time>2021-09-19T09:58:43Z</time>
      </trkpt>
      <trkpt lat="43.59568" lon="1.34643">
        <ele>155</ele>
        <time>2021-09-19T09:58:44Z</time>
      </trkpt>
      <trkpt lat="43.59566" lon="1.34651">
        <ele>155</ele>
        <time>2021-09-19T09:58:45Z</time>
      </trkpt>
      <trkpt lat="43.59564" lon="1.34658">
        <ele>155</ele>
        <time>2021-09-19T09:58:46Z</time>
      </trkpt>
      <trkpt lat="43.59561" lon="1.34665">
        <ele>155</ele>
        <time>2021-09-19T09:58:47Z</time>
      </trkpt>
      <trkpt lat="43.59559" lon="1.34673">
        <ele>155</ele>
        <time>2021-09-19T09:58:48Z</time>
      </trkpt>
      <trkpt lat="43.59557" lon="1.3468">
        <ele>155</ele>
        <time>2021-09-19T09:58:49Z</time>
      </trkpt>
      <trkpt lat="43.59555" lon="1.34688">
        <ele>155</ele>
        <time>2021-09-19T09:58:50Z</time>
      </trkpt>
      <trkpt lat="43.59553" lon="1.34695">
        <ele>155</ele>
        <time>2021-09-19T09:58:51Z</time>
      </trkpt>
      <trkpt lat="43.59551" lon="1.34703">
        <ele>155</ele>
        <time>2021-09-19T09:58:52Z</time>
      </trkpt>
      <trkpt lat="43.59549" lon="1.34711">
        <ele>155</ele>
        <time>2021-09-19T09:58:53Z</time>
      </trkpt>
      <trkpt lat="43.59547" lon="1.34718">
        <ele>155</ele>
        <time>2021-09-19T09:58:54Z</time>
      </trkpt>
      <trkpt lat="43.59545" lon="1.34726">
        <ele>155</ele>
        <time>2021-09-19T09:58:55Z</time>
      </trkpt>
      <trkpt lat="43.59543" lon="1.34733">
        <ele>155</ele>
        <time>2021-09-19T09:58:56Z</time>
      </trkpt>
      <trkpt lat="43.59541" lon="1.3474">
        <ele>155</ele>
        <time>2021-09-19T09:58:57Z</time>
      </trkpt>
      <trkpt lat="43.59539" lon="1.34747">
        <ele>155</ele>
        <time>2021-09-19T09:58:58Z</time>
      </trkpt>
      <trkpt lat="43.59536" lon="1.34754">
        <ele>155</ele>
        <time>2021-09-19T09:58:59Z</time>
      </trkpt>
      <trkpt lat="43.59533" lon="1.34761">
        <ele>155</ele>
        <time>2021-09-19T09:59:00Z</time>
      </trkpt>
      <trkpt lat="43.5953" lon="1.34767">
        <ele>155</ele>
        <time>2021-09-19T09:59:01Z</time>
      </trkpt>
      <trkpt lat="43.59526" lon="1.34773">
        <ele>155</ele>
        <time>2021-09-19T09:59:02Z</time>
      </trkpt>
      <trkpt lat="43.59523" lon="1.34779">
        <ele>155</ele>
        <time>2021-09-19T09:59:03Z</time>
      </trkpt>
      <trkpt lat="43.5952" lon="1.34784">
        <ele>155</ele>
        <time>2021-09-19T09:59:04Z</time>
      </trkpt>
      <trkpt lat="43.59517" lon="1.3479">
        <ele>155</ele>
        <time>2021-09-19T09:59:05Z</time>
      </trkpt>
      <trkpt lat="43.59515" lon="1.34794">
        <ele>154</ele>
        <time>2021-09-19T09:59:06Z</time>
      </trkpt>
      <trkpt lat="43.59514" lon="1.34798">
        <ele>154</ele>
        <time>2021-09-19T09:59:07Z</time>
      </trkpt>
      <trkpt lat="43.59512" lon="1.348">
        <ele>154</ele>
        <time>2021-09-19T09:59:08Z</time>
      </trkpt>
      <trkpt lat="43.5951" lon="1.34801">
        <ele>154</ele>
        <time>2021-09-19T09:59:09Z</time>
      </trkpt>
      <trkpt lat="43.59507" lon="1.34801">
        <ele>154</ele>
        <time>2021-09-19T09:59:10Z</time>
      </trkpt>
      <trkpt lat="43.59504" lon="1.34799">
        <ele>154</ele>
        <time>2021-09-19T09:59:11Z</time>
      </trkpt>
      <trkpt lat="43.595" lon="1.34797">
        <ele>154</ele>
        <time>2021-09-19T09:59:12Z</time>
      </trkpt>
      <trkpt lat="43.59496" lon="1.34794">
        <ele>154</ele>
        <time>2021-09-19T09:59:13Z</time>
      </trkpt>
      <trkpt lat="43.59492" lon="1.34791">
        <ele>154</ele>
        <time>2021-09-19T09:59:14Z</time>
      </trkpt>
      <trkpt lat="43.59487" lon="1.34788">
        <ele>154</ele>
        <time>2021-09-19T09:59:15Z</time>
      </trkpt>
      <trkpt lat="43.59483" lon="1.34785">
        <ele>154</ele>
        <time>2021-09-19T09:59:16Z</time>
      </trkpt>
      <trkpt lat="43.59478" lon="1.34783">
        <ele>154</ele>
        <time>2021-09-19T09:59:17Z</time>
      </trkpt>
      <trkpt lat="43.59473" lon="1.3478">
        <ele>154</ele>
        <time>2021-09-19T09:59:18Z</time>
      </trkpt>
      <trkpt lat="43.59469" lon="1.34777">
        <ele>154</ele>
        <time>2021-09-19T09:59:19Z</time>
      </trkpt>
      <trkpt lat="43.59464" lon="1.34774">
        <ele>154</ele>
        <time>2021-09-19T09:59:20Z</time>
      </trkpt>
      <trkpt lat="43.5946" lon="1.34772">
        <ele>154</ele>
        <time>2021-09-19T09:59:21Z</time>
      </trkpt>
      <trkpt lat="43.59456" lon="1.34769">
        <ele>154</ele>
        <time>2021-09-19T09:59:22Z</time>
      </trkpt>
      <trkpt lat="43.59452" lon="1.34766">
        <ele>154</ele>
        <time>2021-09-19T09:59:23Z</time>
      </trkpt>
      <trkpt lat="43.59447" lon="1.34763">
        <ele>154</ele>
        <time>2021-09-19T09:59:24Z</time>
      </trkpt>
      <trkpt lat="43.59443" lon="1.34761">
        <ele>154</ele>
        <time>2021-09-19T09:59:25Z</time>
      </trkpt>
      <trkpt lat="43.59438" lon="1.34758">
        <ele>154</ele>
        <time>2021-09-19T09:59:26Z</time>
      </trkpt>
      <trkpt lat="43.59434" lon="1.34756">
        <ele>155</ele>
        <time>2021-09-19T09:59:27Z</time>
      </trkpt>
      <trkpt lat="43.5943" lon="1.34754">
        <ele>155</ele>
        <time>2021-09-19T09:59:28Z</time>
      </trkpt>
      <trkpt lat="43.59426" lon="1.34751">
        <ele>154</ele>
        <time>2021-09-19T09:59:29Z</time>
      </trkpt>
      <trkpt lat="43.59422" lon="1.34749">
        <ele>155</ele>
        <time>2021-09-19T09:59:30Z</time>
      </trkpt>
      <trkpt lat="43.59418" lon="1.34748">
        <ele>155</ele>
        <time>2021-09-19T09:59:31Z</time>
      </trkpt>
      <trkpt lat="43.59414" lon="1.34746">
        <ele>155</ele>
        <time>2021-09-19T09:59:32Z</time>
      </trkpt>
      <trkpt lat="43.59409" lon="1.34744">
        <ele>155</ele>
        <time>2021-09-19T09:59:33Z</time>
      </trkpt>
      <trkpt lat="43.59405" lon="1.34742">
        <ele>155</ele>
        <time>2021-09-19T09:59:34Z</time>
      </trkpt>
      <trkpt lat="43.59401" lon="1.3474">
        <ele>155</ele>
        <time>2021-09-19T09:59:35Z</time>
      </trkpt>
      <trkpt lat="43.59397" lon="1.34739">
        <ele>155</ele>
        <time>2021-09-19T09:59:36Z</time>
      </trkpt>
      <trkpt lat="43.59394" lon="1.34737">
        <ele>155</ele>
        <time>2021-09-19T09:59:37Z</time>
      </trkpt>
      <trkpt lat="43.5939" lon="1.34735">
        <ele>155</ele>
        <time>2021-09-19T09:59:38Z</time>
      </trkpt>
      <trkpt lat="43.59386" lon="1.34733">
        <ele>155</ele>
        <time>2021-09-19T09:59:39Z</time>
      </trkpt>
      <trkpt lat="43.59382" lon="1.34729">
        <ele>155</ele>
        <time>2021-09-19T09:59:40Z</time>
      </trkpt>
      <trkpt lat="43.59379" lon="1.34725">
        <ele>155</ele>
        <time>2021-09-19T09:59:41Z</time>
      </trkpt>
      <trkpt lat="43.59376" lon="1.3472">
        <ele>155</ele>
        <time>2021-09-19T09:59:42Z</time>
      </trkpt>
      <trkpt lat="43.59372" lon="1.34716">
        <ele>155</ele>
        <time>2021-09-19T09:59:43Z</time>
      </trkpt>
      <trkpt lat="43.59368" lon="1.34712">
        <ele>155</ele>
        <time>2021-09-19T09:59:44Z</time>
      </trkpt>
      <trkpt lat="43.59364" lon="1.34708">
        <ele>155</ele>
        <time>2021-09-19T09:59:45Z</time>
      </trkpt>
      <trkpt lat="43.5936" lon="1.34705">
        <ele>155</ele>
        <time>2021-09-19T09:59:46Z</time>
      </trkpt>
      <trkpt lat="43.59356" lon="1.34703">
        <ele>155</ele>
        <time>2021-09-19T09:59:47Z</time>
      </trkpt>
      <trkpt lat="43.59352" lon="1.34701">
        <ele>155</ele>
        <time>2021-09-19T09:59:48Z</time>
      </trkpt>
      <trkpt lat="43.59347" lon="1.34701">
        <ele>154</ele>
        <time>2021-09-19T09:59:49Z</time>
      </trkpt>
      <trkpt lat="43.59343" lon="1.34701">
        <ele>155</ele>
        <time>2021-09-19T09:59:50Z</time>
      </trkpt>
      <trkpt lat="43.59339" lon="1.34702">
        <ele>155</ele>
        <time>2021-09-19T09:59:51Z</time>
      </trkpt>
      <trkpt lat="43.59335" lon="1.34703">
        <ele>155</ele>
        <time>2021-09-19T09:59:52Z</time>
      </trkpt>
      <trkpt lat="43.59331" lon="1.34704">
        <ele>155</ele>
        <time>2021-09-19T09:59:53Z</time>
      </trkpt>
      <trkpt lat="43.59327" lon="1.34705">
        <ele>155</ele>
        <time>2021-09-19T09:59:54Z</time>
      </trkpt>
      <trkpt lat="43.59323" lon="1.34705">
        <ele>155</ele>
        <time>2021-09-19T09:59:55Z</time>
      </trkpt>
      <trkpt lat="43.59319" lon="1.34705">
        <ele>155</ele>
        <time>2021-09-19T09:59:56Z</time>
      </trkpt>
      <trkpt lat="43.59315" lon="1.34706">
        <ele>155</ele>
        <time>2021-09-19T09:59:57Z</time>
      </trkpt>
      <trkpt lat="43.59311" lon="1.34707">
        <ele>155</ele>
        <time>2021-09-19T09:59:58Z</time>
      </trkpt>
      <trkpt lat="43.59306" lon="1.34708">
        <ele>155</ele>
        <time>2021-09-19T09:59:59Z</time>
      </trkpt>
      <trkpt lat="43.59301" lon="1.34709">
        <ele>155</ele>
        <time>2021-09-19T10:00:00Z</time>
      </trkpt>
      <trkpt lat="43.59296" lon="1.3471">
        <ele>155</ele>
        <time>2021-09-19T10:00:01Z</time>
      </trkpt>
      <trkpt lat="43.59291" lon="1.34711">
        <ele>155</ele>
        <time>2021-09-19T10:00:02Z</time>
      </trkpt>
      <trkpt lat="43.59286" lon="1.34712">
        <ele>155</ele>
        <time>2021-09-19T10:00:03Z</time>
      </trkpt>
      <trkpt lat="43.59281" lon="1.34713">
        <ele>155</ele>
        <time>2021-09-19T10:00:04Z</time>
      </trkpt>
      <trkpt lat="43.59276" lon="1.34714">
        <ele>155</ele>
        <time>2021-09-19T10:00:05Z</time>
      </trkpt>
      <trkpt lat="43.59271" lon="1.34714">
        <ele>155</ele>
        <time>2021-09-19T10:00:06Z</time>
      </trkpt>
      <trkpt lat="43.59266" lon="1.34714">
        <ele>155</ele>
        <time>2021-09-19T10:00:07Z</time>
      </trkpt>
      <trkpt lat="43.59261" lon="1.34714">
        <ele>155</ele>
        <time>2021-09-19T10:00:08Z</time>
      </trkpt>
      <trkpt lat="43.59255" lon="1.34713">
        <ele>155</ele>
        <time>2021-09-19T10:00:09Z</time>
      </trkpt>
      <trkpt lat="43.5925" lon="1.34712">
        <ele>155</ele>
        <time>2021-09-19T10:00:10Z</time>
      </trkpt>
      <trkpt lat="43.59245" lon="1.34711">
        <ele>155</ele>
        <time>2021-09-19T10:00:11Z</time>
      </trkpt>
      <trkpt lat="43.5924" lon="1.3471">
        <ele>155</ele>
        <time>2021-09-19T10:00:12Z</time>
      </trkpt>
      <trkpt lat="43.59235" lon="1.3471">
        <ele>155</ele>
        <time>2021-09-19T10:00:13Z</time>
      </trkpt>
      <trkpt lat="43.59231" lon="1.34709">
        <ele>155</ele>
        <time>2021-09-19T10:00:14Z</time>
      </trkpt>
      <trkpt lat="43.59226" lon="1.34709">
        <ele>155</ele>
        <time>2021-09-19T10:00:15Z</time>
      </trkpt>
      <trkpt lat="43.59221" lon="1.34708">
        <ele>155</ele>
        <time>2021-09-19T10:00:16Z</time>
      </trkpt>
      <trkpt lat="43.59216" lon="1.34708">
        <ele>155</ele>
        <time>2021-09-19T10:00:17Z</time>
      </trkpt>
      <trkpt lat="43.59212" lon="1.34707">
        <ele>155</ele>
        <time>2021-09-19T10:00:18Z</time>
      </trkpt>
      <trkpt lat="43.59207" lon="1.34707">
        <ele>155</ele>
        <time>2021-09-19T10:00:19Z</time>
      </trkpt>
      <trkpt lat="43.59202" lon="1.34707">
        <ele>155</ele>
        <time>2021-09-19T10:00:20Z</time>
      </trkpt>
      <trkpt lat="43.59197" lon="1.34706">
        <ele>155</ele>
        <time>2021-09-19T10:00:21Z</time>
      </trkpt>
      <trkpt lat="43.59193" lon="1.34706">
        <ele>155</ele>
        <time>2021-09-19T10:00:22Z</time>
      </trkpt>
      <trkpt lat="43.59188" lon="1.34706">
        <ele>155</ele>
        <time>2021-09-19T10:00:23Z</time>
      </trkpt>
      <trkpt lat="43.59183" lon="1.34706">
        <ele>155</ele>
        <time>2021-09-19T10:00:24Z</time>
      </trkpt>
      <trkpt lat="43.59179" lon="1.34706">
        <ele>155</ele>
        <time>2021-09-19T10:00:25Z</time>
      </trkpt>
      <trkpt lat="43.59174" lon="1.34706">
        <ele>155</ele>
        <time>2021-09-19T10:00:26Z</time>
      </trkpt>
      <trkpt lat="43.5917" lon="1.34706">
        <ele>155</ele>
        <time>2021-09-19T10:00:27Z</time>
      </trkpt>
      <trkpt lat="43.59166" lon="1.34706">
        <ele>155</ele>
        <time>2021-09-19T10:00:28Z</time>
      </trkpt>
      <trkpt lat="43.59161" lon="1.34706">
        <ele>155</ele>
        <time>2021-09-19T10:00:29Z</time>
      </trkpt>
      <trkpt lat="43.59156" lon="1.34706">
        <ele>155</ele>
        <time>2021-09-19T10:00:30Z</time>
      </trkpt>
      <trkpt lat="43.59152" lon="1.34707">
        <ele>155</ele>
        <time>2021-09-19T10:00:31Z</time>
      </trkpt>
      <trkpt lat="43.59147" lon="1.34708">
        <ele>155</ele>
        <time>2021-09-19T10:00:32Z</time>
      </trkpt>
      <trkpt lat="43.59143" lon="1.34708">
        <ele>155</ele>
        <time>2021-09-19T10:00:33Z</time>
      </trkpt>
      <trkpt lat="43.59139" lon="1.34708">
        <ele>155</ele>
        <time>2021-09-19T10:00:34Z</time>
      </trkpt>
      <trkpt lat="43.59134" lon="1.34708">
        <ele>155</ele>
        <time>2021-09-19T10:00:35Z</time>
      </trkpt>
      <trkpt lat="43.5913" lon="1.34707">
        <ele>155</ele>
        <time>2021-09-19T10:00:36Z</time>
      </trkpt>
      <trkpt lat="43.59125" lon="1.34707">
        <ele>155</ele>
        <time>2021-09-19T10:00:37Z</time>
      </trkpt>
      <trkpt lat="43.59121" lon="1.34706">
        <ele>155</ele>
        <time>2021-09-19T10:00:38Z</time>
      </trkpt>
      <trkpt lat="43.59116" lon="1.34706">
        <ele>155</ele>
        <time>2021-09-19T10:00:39Z</time>
      </trkpt>
      <trkpt lat="43.59111" lon="1.34705">
        <ele>155</ele>
        <time>2021-09-19T10:00:40Z</time>
      </trkpt>
      <trkpt lat="43.59107" lon="1.34704">
        <ele>155</ele>
        <time>2021-09-19T10:00:41Z</time>
      </trkpt>
      <trkpt lat="43.59102" lon="1.34704">
        <ele>155</ele>
        <time>2021-09-19T10:00:42Z</time>
      </trkpt>
      <trkpt lat="43.59098" lon="1.34703">
        <ele>155</ele>
        <time>2021-09-19T10:00:43Z</time>
      </trkpt>
      <trkpt lat="43.59094" lon="1.34703">
        <ele>155</ele>
        <time>2021-09-19T10:00:44Z</time>
      </trkpt>
      <trkpt lat="43.59089" lon="1.34702">
        <ele>155</ele>
        <time>2021-09-19T10:00:45Z</time>
      </trkpt>
      <trkpt lat="43.59085" lon="1.34702">
        <ele>155</ele>
        <time>2021-09-19T10:00:46Z</time>
      </trkpt>
      <trkpt lat="43.5908" lon="1.34702">
        <ele>155</ele>
        <time>2021-09-19T10:00:47Z</time>
      </trkpt>
      <trkpt lat="43.59076" lon="1.34701">
        <ele>155</ele>
        <time>2021-09-19T10:00:48Z</time>
      </trkpt>
      <trkpt lat="43.59072" lon="1.34701">
        <ele>155</ele>
        <time>2021-09-19T10:00:49Z</time>
      </trkpt>
      <trkpt lat="43.59067" lon="1.347">
        <ele>155</ele>
        <time>2021-09-19T10:00:50Z</time>
      </trkpt>
      <trkpt lat="43.59063" lon="1.347">
        <ele>155</ele>
        <time>2021-09-19T10:00:51Z</time>
      </trkpt>
      <trkpt lat="43.59059" lon="1.347">
        <ele>155</ele>
        <time>2021-09-19T10:00:52Z</time>
      </trkpt>
      <trkpt lat="43.59055" lon="1.34699">
        <ele>155</ele>
        <time>2021-09-19T10:00:53Z</time>
      </trkpt>
      <trkpt lat="43.5905" lon="1.34699">
        <ele>155</ele>
        <time>2021-09-19T10:00:54Z</time>
      </trkpt>
      <trkpt lat="43.59046" lon="1.34699">
        <ele>155</ele>
        <time>2021-09-19T10:00:55Z</time>
      </trkpt>
      <trkpt lat="43.59042" lon="1.34699">
        <ele>155</ele>
        <time>2021-09-19T10:00:56Z</time>
      </trkpt>
      <trkpt lat="43.59038" lon="1.34699">
        <ele>155</ele>
        <time>2021-09-19T10:00:57Z</time>
      </trkpt>
      <trkpt lat="43.59034" lon="1.34699">
        <ele>155</ele>
        <time>2021-09-19T10:00:58Z</time>
      </trkpt>
      <trkpt lat="43.59031" lon="1.34699">
        <ele>155</ele>
        <time>2021-09-19T10:00:59Z</time>
      </trkpt>
      <trkpt lat="43.59028" lon="1.34698">
        <ele>155</ele>
        <time>2021-09-19T10:01:00Z</time>
      </trkpt>
      <trkpt lat="43.59025" lon="1.34697">
        <ele>155</ele>
        <time>2021-09-19T10:01:01Z</time>
      </trkpt>
      <trkpt lat="43.59023" lon="1.34695">
        <ele>155</ele>
        <time>2021-09-19T10:01:02Z</time>
      </trkpt>
      <trkpt lat="43.5902" lon="1.34694">
        <ele>155</ele>
        <time>2021-09-19T10:01:03Z</time>
      </trkpt>
      <trkpt lat="43.59018" lon="1.34693">
        <ele>155</ele>
        <time>2021-09-19T10:01:04Z</time>
      </trkpt>
      <trkpt lat="43.59015" lon="1.34692">
        <ele>155</ele>
        <time>2021-09-19T10:01:05Z</time>
      </trkpt>
      <trkpt lat="43.59013" lon="1.34692">
        <ele>155</ele>
        <time>2021-09-19T10:01:06Z</time>
      </trkpt>
      <trkpt lat="43.5901" lon="1.34691">
        <ele>155</ele>
        <time>2021-09-19T10:01:07Z</time>
      </trkpt>
      <trkpt lat="43.59007" lon="1.34691">
        <ele>155</ele>
        <time>2021-09-19T10:01:08Z</time>
      </trkpt>
      <trkpt lat="43.59004" lon="1.34692">
        <ele>155</ele>
        <time>2021-09-19T10:01:09Z</time>
      </trkpt>
      <trkpt lat="43.59001" lon="1.34693">
        <ele>155</ele>
        <time>2021-09-19T10:01:10Z</time>
      </trkpt>
      <trkpt lat="43.58997" lon="1.34693">
        <ele>155</ele>
        <time>2021-09-19T10:01:11Z</time>
      </trkpt>
      <trkpt lat="43.58993" lon="1.34693">
        <ele>155</ele>
        <time>2021-09-19T10:01:12Z</time>
      </trkpt>
      <trkpt lat="43.58988" lon="1.34693">
        <ele>155</ele>
        <time>2021-09-19T10:01:13Z</time>
      </trkpt>
      <trkpt lat="43.58984" lon="1.34692">
        <ele>155</ele>
        <time>2021-09-19T10:01:14Z</time>
      </trkpt>
      <trkpt lat="43.58979" lon="1.34692">
        <ele>155</ele>
        <time>2021-09-19T10:01:15Z</time>
      </trkpt>
      <trkpt lat="43.58975" lon="1.34691">
        <ele>155</ele>
        <time>2021-09-19T10:01:16Z</time>
      </trkpt>
      <trkpt lat="43.5897" lon="1.34691">
        <ele>155</ele>
        <time>2021-09-19T10:01:17Z</time>
      </trkpt>
      <trkpt lat="43.58965" lon="1.3469">
        <ele>155</ele>
        <time>2021-09-19T10:01:18Z</time>
      </trkpt>
      <trkpt lat="43.5896" lon="1.3469">
        <ele>155</ele>
        <time>2021-09-19T10:01:19Z</time>
      </trkpt>
      <trkpt lat="43.58955" lon="1.34689">
        <ele>155</ele>
        <time>2021-09-19T10:01:20Z</time>
      </trkpt>
      <trkpt lat="43.5895" lon="1.34688">
        <ele>155</ele>
        <time>2021-09-19T10:01:21Z</time>
      </trkpt>
      <trkpt lat="43.58945" lon="1.34688">
        <ele>155</ele>
        <time>2021-09-19T10:01:22Z</time>
      </trkpt>
      <trkpt lat="43.58939" lon="1.34687">
        <ele>155</ele>
        <time>2021-09-19T10:01:23Z</time>
      </trkpt>
      <trkpt lat="43.58934" lon="1.34687">
        <ele>154</ele>
        <time>2021-09-19T10:01:24Z</time>
      </trkpt>
      <trkpt lat="43.58929" lon="1.34687">
        <ele>154</ele>
        <time>2021-09-19T10:01:25Z</time>
      </trkpt>
      <trkpt lat="43.58924" lon="1.34687">
        <ele>154</ele>
        <time>2021-09-19T10:01:26Z</time>
      </trkpt>
      <trkpt lat="43.58919" lon="1.34687">
        <ele>154</ele>
        <time>2021-09-19T10:01:27Z</time>
      </trkpt>
      <trkpt lat="43.58913" lon="1.34687">
        <ele>154</ele>
        <time>2021-09-19T10:01:28Z</time>
      </trkpt>
      <trkpt lat="43.58908" lon="1.34688">
        <ele>154</ele>
        <time>2021-09-19T10:01:29Z</time>
      </trkpt>
      <trkpt lat="43.58903" lon="1.34688">
        <ele>155</ele>
        <time>2021-09-19T10:01:30Z</time>
      </trkpt>
      <trkpt lat="43.58898" lon="1.34689">
        <ele>155</ele>
        <time>2021-09-19T10:01:31Z</time>
      </trkpt>
      <trkpt lat="43.58893" lon="1.3469">
        <ele>155</ele>
        <time>2021-09-19T10:01:32Z</time>
      </trkpt>
      <trkpt lat="43.58887" lon="1.3469">
        <ele>155</ele>
        <time>2021-09-19T10:01:33Z</time>
      </trkpt>
      <trkpt lat="43.58883" lon="1.34691">
        <ele>155</ele>
        <time>2021-09-19T10:01:34Z</time>
      </trkpt>
      <trkpt lat="43.58877" lon="1.34691">
        <ele>155</ele>
        <time>2021-09-19T10:01:35Z</time>
      </trkpt>
      <trkpt lat="43.58873" lon="1.34692">
        <ele>155</ele>
        <time>2021-09-19T10:01:36Z</time>
      </trkpt>
      <trkpt lat="43.58867" lon="1.34693">
        <ele>155</ele>
        <time>2021-09-19T10:01:37Z</time>
      </trkpt>
      <trkpt lat="43.58862" lon="1.34694">
        <ele>155</ele>
        <time>2021-09-19T10:01:38Z</time>
      </trkpt>
      <trkpt lat="43.58857" lon="1.34694">
        <ele>155</ele>
        <time>2021-09-19T10:01:39Z</time>
      </trkpt>
      <trkpt lat="43.58852" lon="1.34695">
        <ele>155</ele>
        <time>2021-09-19T10:01:40Z</time>
      </trkpt>
      <trkpt lat="43.58847" lon="1.34696">
        <ele>155</ele>
        <time>2021-09-19T10:01:41Z</time>
      </trkpt>
      <trkpt lat="43.58842" lon="1.34696">
        <ele>155</ele>
        <time>2021-09-19T10:01:42Z</time>
      </trkpt>
      <trkpt lat="43.58837" lon="1.34697">
        <ele>155</ele>
        <time>2021-09-19T10:01:43Z</time>
      </trkpt>
      <trkpt lat="43.58832" lon="1.34698">
        <ele>155</ele>
        <time>2021-09-19T10:01:44Z</time>
      </trkpt>
      <trkpt lat="43.58827" lon="1.34699">
        <ele>155</ele>
        <time>2021-09-19T10:01:45Z</time>
      </trkpt>
      <trkpt lat="43.58823" lon="1.34699">
        <ele>155</ele>
        <time>2021-09-19T10:01:46Z</time>
      </trkpt>
      <trkpt lat="43.58818" lon="1.347">
        <ele>155</ele>
        <time>2021-09-19T10:01:47Z</time>
      </trkpt>
      <trkpt lat="43.58814" lon="1.34699">
        <ele>155</ele>
        <time>2021-09-19T10:01:48Z</time>
      </trkpt>
      <trkpt lat="43.5881" lon="1.34697">
        <ele>155</ele>
        <time>2021-09-19T10:01:49Z</time>
      </trkpt>
      <trkpt lat="43.58806" lon="1.34695">
        <ele>155</ele>
        <time>2021-09-19T10:01:50Z</time>
      </trkpt>
      <trkpt lat="43.58802" lon="1.34693">
        <ele>155</ele>
        <time>2021-09-19T10:01:51Z</time>
      </trkpt>
      <trkpt lat="43.58798" lon="1.34692">
        <ele>155</ele>
        <time>2021-09-19T10:01:52Z</time>
      </trkpt>
      <trkpt lat="43.58794" lon="1.34692">
        <ele>155</ele>
        <time>2021-09-19T10:01:53Z</time>
      </trkpt>
      <trkpt lat="43.58789" lon="1.34692">
        <ele>155</ele>
        <time>2021-09-19T10:01:54Z</time>
      </trkpt>
      <trkpt lat="43.58785" lon="1.34692">
        <ele>155</ele>
        <time>2021-09-19T10:01:55Z</time>
      </trkpt>
      <trkpt lat="43.58781" lon="1.34692">
        <ele>155</ele>
        <time>2021-09-19T10:01:56Z</time>
      </trkpt>
      <trkpt lat="43.58777" lon="1.34691">
        <ele>155</ele>
        <time>2021-09-19T10:01:57Z</time>
      </trkpt>
      <trkpt lat="43.58772" lon="1.34691">
        <ele>155</ele>
        <time>2021-09-19T10:01:58Z</time>
      </trkpt>
      <trkpt lat="43.58768" lon="1.34689">
        <ele>155</ele>
        <time>2021-09-19T10:01:59Z</time>
      </trkpt>
      <trkpt lat="43.58764" lon="1.34688">
        <ele>155</ele>
        <time>2021-09-19T10:02:00Z</time>
      </trkpt>
      <trkpt lat="43.58759" lon="1.34687">
        <ele>155</ele>
        <time>2021-09-19T10:02:01Z</time>
      </trkpt>
      <trkpt lat="43.58755" lon="1.34686">
        <ele>155</ele>
        <time>2021-09-19T10:02:02Z</time>
      </trkpt>
      <trkpt lat="43.5875" lon="1.34686">
        <ele>155</ele>
        <time>2021-09-19T10:02:03Z</time>
      </trkpt>
      <trkpt lat="43.58746" lon="1.34685">
        <ele>155</ele>
        <time>2021-09-19T10:02:04Z</time>
      </trkpt>
      <trkpt lat="43.58741" lon="1.34684">
        <ele>155</ele>
        <time>2021-09-19T10:02:05Z</time>
      </trkpt>
      <trkpt lat="43.58737" lon="1.34682">
        <ele>155</ele>
        <time>2021-09-19T10:02:06Z</time>
      </trkpt>
      <trkpt lat="43.58732" lon="1.34681">
        <ele>155</ele>
        <time>2021-09-19T10:02:07Z</time>
      </trkpt>
      <trkpt lat="43.58727" lon="1.34679">
        <ele>155</ele>
        <time>2021-09-19T10:02:08Z</time>
      </trkpt>
      <trkpt lat="43.58723" lon="1.34678">
        <ele>155</ele>
        <time>2021-09-19T10:02:09Z</time>
      </trkpt>
      <trkpt lat="43.58718" lon="1.34677">
        <ele>155</ele>
        <time>2021-09-19T10:02:10Z</time>
      </trkpt>
      <trkpt lat="43.58713" lon="1.34675">
        <ele>154</ele>
        <time>2021-09-19T10:02:11Z</time>
      </trkpt>
      <trkpt lat="43.58708" lon="1.34674">
        <ele>154</ele>
        <time>2021-09-19T10:02:12Z</time>
      </trkpt>
      <trkpt lat="43.58703" lon="1.34673">
        <ele>155</ele>
        <time>2021-09-19T10:02:13Z</time>
      </trkpt>
      <trkpt lat="43.58699" lon="1.34671">
        <ele>155</ele>
        <time>2021-09-19T10:02:14Z</time>
      </trkpt>
      <trkpt lat="43.58694" lon="1.3467">
        <ele>155</ele>
        <time>2021-09-19T10:02:15Z</time>
      </trkpt>
      <trkpt lat="43.58689" lon="1.34668">
        <ele>155</ele>
        <time>2021-09-19T10:02:16Z</time>
      </trkpt>
      <trkpt lat="43.58685" lon="1.34667">
        <ele>155</ele>
        <time>2021-09-19T10:02:17Z</time>
      </trkpt>
      <trkpt lat="43.5868" lon="1.34666">
        <ele>155</ele>
        <time>2021-09-19T10:02:18Z</time>
      </trkpt>
      <trkpt lat="43.58675" lon="1.34664">
        <ele>155</ele>
        <time>2021-09-19T10:02:19Z</time>
      </trkpt>
      <trkpt lat="43.5867" lon="1.34664">
        <ele>155</ele>
        <time>2021-09-19T10:02:20Z</time>
      </trkpt>
      <trkpt lat="43.58665" lon="1.34663">
        <ele>155</ele>
        <time>2021-09-19T10:02:21Z</time>
      </trkpt>
      <trkpt lat="43.5866" lon="1.34662">
        <ele>155</ele>
        <time>2021-09-19T10:02:22Z</time>
      </trkpt>
      <trkpt lat="43.58656" lon="1.34661">
        <ele>155</ele>
        <time>2021-09-19T10:02:23Z</time>
      </trkpt>
      <trkpt lat="43.58651" lon="1.34659">
        <ele>155</ele>
        <time>2021-09-19T10:02:24Z</time>
      </trkpt>
      <trkpt lat="43.58646" lon="1.34658">
        <ele>155</ele>
        <time>2021-09-19T10:02:25Z</time>
      </trkpt>
      <trkpt lat="43.58641" lon="1.34657">
        <ele>155</ele>
        <time>2021-09-19T10:02:26Z</time>
      </trkpt>
      <trkpt lat="43.58636" lon="1.34656">
        <ele>155</ele>
        <time>2021-09-19T10:02:27Z</time>
      </trkpt>
      <trkpt lat="43.58632" lon="1.34656">
        <ele>155</ele>
        <time>2021-09-19T10:02:28Z</time>
      </trkpt>
      <trkpt lat="43.58627" lon="1.34655">
        <ele>155</ele>
        <time>2021-09-19T10:02:29Z</time>
      </trkpt>
      <trkpt lat="43.58622" lon="1.34654">
        <ele>155</ele>
        <time>2021-09-19T10:02:30Z</time>
      </trkpt>
      <trkpt lat="43.58617" lon="1.34653">
        <ele>155</ele>
        <time>2021-09-19T10:02:31Z</time>
      </trkpt>
      <trkpt lat="43.58613" lon="1.34651">
        <ele>155</ele>
        <time>2021-09-19T10:02:32Z</time>
      </trkpt>
      <trkpt lat="43.58608" lon="1.34649">
        <ele>155</ele>
        <time>2021-09-19T10:02:33Z</time>
      </trkpt>
      <trkpt lat="43.58603" lon="1.34648">
        <ele>155</ele>
        <time>2021-09-19T10:02:34Z</time>
      </trkpt>
      <trkpt lat="43.58599" lon="1.34647">
        <ele>155</ele>
        <time>2021-09-19T10:02:35Z</time>
      </trkpt>
      <trkpt lat="43.58594" lon="1.34647">
        <ele>155</ele>
        <time>2021-09-19T10:02:36Z</time>
      </trkpt>
      <trkpt lat="43.58589" lon="1.34646">
        <ele>155</ele>
        <time>2021-09-19T10:02:37Z</time>
      </trkpt>
      <trkpt lat="43.58584" lon="1.34644">
        <ele>155</ele>
        <time>2021-09-19T10:02:38Z</time>
      </trkpt>
      <trkpt lat="43.58579" lon="1.3464">
        <ele>155</ele>
        <time>2021-09-19T10:02:39Z</time>
      </trkpt>
      <trkpt lat="43.58576" lon="1.34635">
        <ele>155</ele>
        <time>2021-09-19T10:02:40Z</time>
      </trkpt>
      <trkpt lat="43.58573" lon="1.3463">
        <ele>155</ele>
        <time>2021-09-19T10:02:41Z</time>
      </trkpt>
      <trkpt lat="43.5857" lon="1.34624">
        <ele>155</ele>
        <time>2021-09-19T10:02:42Z</time>
      </trkpt>
      <trkpt lat="43.58568" lon="1.34618">
        <ele>155</ele>
        <time>2021-09-19T10:02:43Z</time>
      </trkpt>
      <trkpt lat="43.58565" lon="1.34613">
        <ele>155</ele>
        <time>2021-09-19T10:02:44Z</time>
      </trkpt>
      <trkpt lat="43.58562" lon="1.3461">
        <ele>155</ele>
        <time>2021-09-19T10:02:45Z</time>
      </trkpt>
      <trkpt lat="43.58558" lon="1.34608">
        <ele>155</ele>
        <time>2021-09-19T10:02:46Z</time>
      </trkpt>
      <trkpt lat="43.58554" lon="1.34609">
        <ele>155</ele>
        <time>2021-09-19T10:02:47Z</time>
      </trkpt>
      <trkpt lat="43.58551" lon="1.34612">
        <ele>155</ele>
        <time>2021-09-19T10:02:48Z</time>
      </trkpt>
      <trkpt lat="43.58548" lon="1.34616">
        <ele>155</ele>
        <time>2021-09-19T10:02:49Z</time>
      </trkpt>
      <trkpt lat="43.58546" lon="1.3462">
        <ele>155</ele>
        <time>2021-09-19T10:02:50Z</time>
      </trkpt>
      <trkpt lat="43.58542" lon="1.34622">
        <ele>155</ele>
        <time>2021-09-19T10:02:51Z</time>
      </trkpt>
      <trkpt lat="43.58539" lon="1.34623">
        <ele>155</ele>
        <time>2021-09-19T10:02:52Z</time>
      </trkpt>
      <trkpt lat="43.58535" lon="1.34625">
        <ele>155</ele>
        <time>2021-09-19T10:02:53Z</time>
      </trkpt>
      <trkpt lat="43.58532" lon="1.34628">
        <ele>155</ele>
        <time>2021-09-19T10:02:54Z</time>
      </trkpt>
      <trkpt lat="43.58529" lon="1.34631">
        <ele>155</ele>
        <time>2021-09-19T10:02:55Z</time>
      </trkpt>
      <trkpt lat="43.58526" lon="1.34635">
        <ele>155</ele>
        <time>2021-09-19T10:02:56Z</time>
      </trkpt>
      <trkpt lat="43.58524" lon="1.34639">
        <ele>155</ele>
        <time>2021-09-19T10:02:57Z</time>
      </trkpt>
      <trkpt lat="43.5852" lon="1.34642">
        <ele>155</ele>
        <time>2021-09-19T10:02:58Z</time>
      </trkpt>
      <trkpt lat="43.58518" lon="1.34646">
        <ele>155</ele>
        <time>2021-09-19T10:02:59Z</time>
      </trkpt>
      <trkpt lat="43.58515" lon="1.34649">
        <ele>155</ele>
        <time>2021-09-19T10:03:00Z</time>
      </trkpt>
      <trkpt lat="43.58512" lon="1.34653">
        <ele>155</ele>
        <time>2021-09-19T10:03:01Z</time>
      </trkpt>
      <trkpt lat="43.5851" lon="1.34656">
        <ele>155</ele>
        <time>2021-09-19T10:03:02Z</time>
      </trkpt>
      <trkpt lat="43.58506" lon="1.34659">
        <ele>155</ele>
        <time>2021-09-19T10:03:03Z</time>
      </trkpt>
      <trkpt lat="43.58503" lon="1.34663">
        <ele>155</ele>
        <time>2021-09-19T10:03:04Z</time>
      </trkpt>
      <trkpt lat="43.58499" lon="1.34666">
        <ele>155</ele>
        <time>2021-09-19T10:03:05Z</time>
      </trkpt>
      <trkpt lat="43.58496" lon="1.3467">
        <ele>155</ele>
        <time>2021-09-19T10:03:06Z</time>
      </trkpt>
      <trkpt lat="43.58493" lon="1.34673">
        <ele>155</ele>
        <time>2021-09-19T10:03:07Z</time>
      </trkpt>
      <trkpt lat="43.5849" lon="1.34676">
        <ele>155</ele>
        <time>2021-09-19T10:03:08Z</time>
      </trkpt>
      <trkpt lat="43.58486" lon="1.34679">
        <ele>155</ele>
        <time>2021-09-19T10:03:09Z</time>
      </trkpt>
      <trkpt lat="43.58483" lon="1.34683">
        <ele>155</ele>
        <time>2021-09-19T10:03:10Z</time>
      </trkpt>
      <trkpt lat="43.58479" lon="1.34687">
        <ele>155</ele>
        <time>2021-09-19T10:03:11Z</time>
      </trkpt>
      <trkpt lat="43.58475" lon="1.3469">
        <ele>155</ele>
        <time>2021-09-19T10:03:12Z</time>
      </trkpt>
      <trkpt lat="43.58471" lon="1.34694">
        <ele>155</ele>
        <time>2021-09-19T10:03:13Z</time>
      </trkpt>
      <trkpt lat="43.58467" lon="1.34697">
        <ele>155</ele>
        <time>2021-09-19T10:03:14Z</time>
      </trkpt>
      <trkpt lat="43.58463" lon="1.34701">
        <ele>155</ele>
        <time>2021-09-19T10:03:15Z</time>
      </trkpt>
      <trkpt lat="43.58461" lon="1.34704">
        <ele>155</ele>
        <time>2021-09-19T10:03:16Z</time>
      </trkpt>
      <trkpt lat="43.58459" lon="1.34708">
        <ele>155</ele>
        <time>2021-09-19T10:03:17Z</time>
      </trkpt>
      <trkpt lat="43.58456" lon="1.34711">
        <ele>155</ele>
        <time>2021-09-19T10:03:18Z</time>
      </trkpt>
      <trkpt lat="43.58454" lon="1.34713">
        <ele>155</ele>
        <time>2021-09-19T10:03:19Z</time>
      </trkpt>
      <trkpt lat="43.58452" lon="1.34715">
        <ele>155</ele>
        <time>2021-09-19T10:03:20Z</time>
      </trkpt>
      <trkpt lat="43.5845" lon="1.34718">
        <ele>155</ele>
        <time>2021-09-19T10:03:21Z</time>
      </trkpt>
      <trkpt lat="43.58449" lon="1.3472">
        <ele>155</ele>
        <time>2021-09-19T10:03:22Z</time>
      </trkpt>
      <trkpt lat="43.58448" lon="1.34723">
        <ele>154</ele>
        <time>2021-09-19T10:03:23Z</time>
      </trkpt>
      <trkpt lat="43.58446" lon="1.34725">
        <ele>154</ele>
        <time>2021-09-19T10:03:24Z</time>
      </trkpt>
      <trkpt lat="43.58443" lon="1.34724">
        <ele>154</ele>
        <time>2021-09-19T10:03:26Z</time>
      </trkpt>
      <trkpt lat="43.58441" lon="1.34722">
        <ele>154</ele>
        <time>2021-09-19T10:03:27Z</time>
      </trkpt>
      <trkpt lat="43.5844" lon="1.3472">
        <ele>154</ele>
        <time>2021-09-19T10:03:28Z</time>
      </trkpt>
      <trkpt lat="43.58439" lon="1.34718">
        <ele>154</ele>
        <time>2021-09-19T10:03:29Z</time>
      </trkpt>
      <trkpt lat="43.58437" lon="1.34716">
        <ele>154</ele>
        <time>2021-09-19T10:03:30Z</time>
      </trkpt>
      <trkpt lat="43.58435" lon="1.34714">
        <ele>154</ele>
        <time>2021-09-19T10:03:31Z</time>
      </trkpt>
      <trkpt lat="43.58434" lon="1.34712">
        <ele>154</ele>
        <time>2021-09-19T10:03:32Z</time>
      </trkpt>
      <trkpt lat="43.58432" lon="1.3471">
        <ele>154</ele>
        <time>2021-09-19T10:03:33Z</time>
      </trkpt>
      <trkpt lat="43.5843" lon="1.34708">
        <ele>154</ele>
        <time>2021-09-19T10:03:34Z</time>
      </trkpt>
      <trkpt lat="43.58429" lon="1.34706">
        <ele>154</ele>
        <time>2021-09-19T10:03:35Z</time>
      </trkpt>
      <trkpt lat="43.58426" lon="1.34703">
        <ele>154</ele>
        <time>2021-09-19T10:03:37Z</time>
      </trkpt>
      <trkpt lat="43.58424" lon="1.34699">
        <ele>154</ele>
        <time>2021-09-19T10:03:39Z</time>
      </trkpt>
      <trkpt lat="43.58422" lon="1.34696">
        <ele>154</ele>
        <time>2021-09-19T10:03:41Z</time>
      </trkpt>
      <trkpt lat="43.5842" lon="1.34692">
        <ele>154</ele>
        <time>2021-09-19T10:03:43Z</time>
      </trkpt>
      <trkpt lat="43.58419" lon="1.34689">
        <ele>154</ele>
        <time>2021-09-19T10:03:45Z</time>
      </trkpt>
      <trkpt lat="43.58417" lon="1.34689">
        <ele>154</ele>
        <time>2021-09-19T10:03:48Z</time>
      </trkpt>
      <trkpt lat="43.58416" lon="1.34691">
        <ele>154</ele>
        <time>2021-09-19T10:04:00Z</time>
      </trkpt>
      <trkpt lat="43.58416" lon="1.34696">
        <ele>154</ele>
        <time>2021-09-19T10:04:02Z</time>
      </trkpt>
      <trkpt lat="43.58416" lon="1.34698">
        <ele>154</ele>
        <time>2021-09-19T10:04:03Z</time>
      </trkpt>
      <trkpt lat="43.58415" lon="1.34702">
        <ele>154</ele>
        <time>2021-09-19T10:04:04Z</time>
      </trkpt>
      <trkpt lat="43.58413" lon="1.34705">
        <ele>154</ele>
        <time>2021-09-19T10:04:05Z</time>
      </trkpt>
      <trkpt lat="43.5841" lon="1.34708">
        <ele>154</ele>
        <time>2021-09-19T10:04:06Z</time>
      </trkpt>
      <trkpt lat="43.58407" lon="1.34712">
        <ele>154</ele>
        <time>2021-09-19T10:04:07Z</time>
      </trkpt>
      <trkpt lat="43.58403" lon="1.34715">
        <ele>154</ele>
        <time>2021-09-19T10:04:08Z</time>
      </trkpt>
      <trkpt lat="43.584" lon="1.34719">
        <ele>154</ele>
        <time>2021-09-19T10:04:09Z</time>
      </trkpt>
      <trkpt lat="43.58397" lon="1.34722">
        <ele>154</ele>
        <time>2021-09-19T10:04:10Z</time>
      </trkpt>
      <trkpt lat="43.58394" lon="1.34726">
        <ele>154</ele>
        <time>2021-09-19T10:04:11Z</time>
      </trkpt>
      <trkpt lat="43.58391" lon="1.3473">
        <ele>154</ele>
        <time>2021-09-19T10:04:12Z</time>
      </trkpt>
      <trkpt lat="43.58388" lon="1.34734">
        <ele>154</ele>
        <time>2021-09-19T10:04:13Z</time>
      </trkpt>
      <trkpt lat="43.58385" lon="1.34738">
        <ele>154</ele>
        <time>2021-09-19T10:04:14Z</time>
      </trkpt>
      <trkpt lat="43.58382" lon="1.34742">
        <ele>154</ele>
        <time>2021-09-19T10:04:15Z</time>
      </trkpt>
      <trkpt lat="43.58379" lon="1.34746">
        <ele>154</ele>
        <time>2021-09-19T10:04:16Z</time>
      </trkpt>
      <trkpt lat="43.58376" lon="1.3475">
        <ele>154</ele>
        <time>2021-09-19T10:04:17Z</time>
      </trkpt>
      <trkpt lat="43.58372" lon="1.34754">
        <ele>155</ele>
        <time>2021-09-19T10:04:18Z</time>
      </trkpt>
      <trkpt lat="43.58369" lon="1.34758">
        <ele>155</ele>
        <time>2021-09-19T10:04:19Z</time>
      </trkpt>
      <trkpt lat="43.58365" lon="1.34763">
        <ele>155</ele>
        <time>2021-09-19T10:04:20Z</time>
      </trkpt>
      <trkpt lat="43.58361" lon="1.34767">
        <ele>155</ele>
        <time>2021-09-19T10:04:21Z</time>
      </trkpt>
      <trkpt lat="43.58357" lon="1.34771">
        <ele>155</ele>
        <time>2021-09-19T10:04:22Z</time>
      </trkpt>
      <trkpt lat="43.58353" lon="1.34775">
        <ele>155</ele>
        <time>2021-09-19T10:04:23Z</time>
      </trkpt>
      <trkpt lat="43.58349" lon="1.34779">
        <ele>155</ele>
        <time>2021-09-19T10:04:24Z</time>
      </trkpt>
      <trkpt lat="43.58345" lon="1.34783">
        <ele>155</ele>
        <time>2021-09-19T10:04:25Z</time>
      </trkpt>
      <trkpt lat="43.58341" lon="1.34787">
        <ele>155</ele>
        <time>2021-09-19T10:04:26Z</time>
      </trkpt>
      <trkpt lat="43.58337" lon="1.34792">
        <ele>155</ele>
        <time>2021-09-19T10:04:27Z</time>
      </trkpt>
      <trkpt lat="43.58333" lon="1.34796">
        <ele>155</ele>
        <time>2021-09-19T10:04:28Z</time>
      </trkpt>
      <trkpt lat="43.58329" lon="1.34802">
        <ele>155</ele>
        <time>2021-09-19T10:04:29Z</time>
      </trkpt>
      <trkpt lat="43.58326" lon="1.34807">
        <ele>154</ele>
        <time>2021-09-19T10:04:30Z</time>
      </trkpt>
      <trkpt lat="43.58322" lon="1.34814">
        <ele>154</ele>
        <time>2021-09-19T10:04:31Z</time>
      </trkpt>
      <trkpt lat="43.58319" lon="1.34821">
        <ele>154</ele>
        <time>2021-09-19T10:04:32Z</time>
      </trkpt>
      <trkpt lat="43.58316" lon="1.34828">
        <ele>154</ele>
        <time>2021-09-19T10:04:33Z</time>
      </trkpt>
      <trkpt lat="43.58313" lon="1.34834">
        <ele>153</ele>
        <time>2021-09-19T10:04:34Z</time>
      </trkpt>
      <trkpt lat="43.5831" lon="1.3484">
        <ele>153</ele>
        <time>2021-09-19T10:04:35Z</time>
      </trkpt>
      <trkpt lat="43.58308" lon="1.34844">
        <ele>152</ele>
        <time>2021-09-19T10:04:36Z</time>
      </trkpt>
      <trkpt lat="43.58306" lon="1.34848">
        <ele>152</ele>
        <time>2021-09-19T10:04:37Z</time>
      </trkpt>
      <trkpt lat="43.58304" lon="1.34851">
        <ele>152</ele>
        <time>2021-09-19T10:04:38Z</time>
      </trkpt>
      <trkpt lat="43.58302" lon="1.34856">
        <ele>152</ele>
        <time>2021-09-19T10:04:39Z</time>
      </trkpt>
      <trkpt lat="43.583" lon="1.34861">
        <ele>152</ele>
        <time>2021-09-19T10:04:40Z</time>
      </trkpt>
      <trkpt lat="43.58298" lon="1.34867">
        <ele>152</ele>
        <time>2021-09-19T10:04:41Z</time>
      </trkpt>
      <trkpt lat="43.58296" lon="1.34874">
        <ele>151</ele>
        <time>2021-09-19T10:04:42Z</time>
      </trkpt>
      <trkpt lat="43.58294" lon="1.34881">
        <ele>151</ele>
        <time>2021-09-19T10:04:43Z</time>
      </trkpt>
      <trkpt lat="43.58291" lon="1.34888">
        <ele>150</ele>
        <time>2021-09-19T10:04:44Z</time>
      </trkpt>
      <trkpt lat="43.58289" lon="1.34894">
        <ele>150</ele>
        <time>2021-09-19T10:04:45Z</time>
      </trkpt>
      <trkpt lat="43.58286" lon="1.349">
        <ele>150</ele>
        <time>2021-09-19T10:04:46Z</time>
      </trkpt>
      <trkpt lat="43.58283" lon="1.34906">
        <ele>150</ele>
        <time>2021-09-19T10:04:47Z</time>
      </trkpt>
      <trkpt lat="43.5828" lon="1.34911">
        <ele>149</ele>
        <time>2021-09-19T10:04:48Z</time>
      </trkpt>
      <trkpt lat="43.58276" lon="1.34917">
        <ele>149</ele>
        <time>2021-09-19T10:04:49Z</time>
      </trkpt>
      <trkpt lat="43.58273" lon="1.34921">
        <ele>149</ele>
        <time>2021-09-19T10:04:50Z</time>
      </trkpt>
      <trkpt lat="43.58269" lon="1.34926">
        <ele>149</ele>
        <time>2021-09-19T10:04:51Z</time>
      </trkpt>
      <trkpt lat="43.58263" lon="1.3493">
        <ele>149</ele>
        <time>2021-09-19T10:04:52Z</time>
      </trkpt>
      <trkpt lat="43.58258" lon="1.34934">
        <ele>149</ele>
        <time>2021-09-19T10:04:53Z</time>
      </trkpt>
      <trkpt lat="43.58253" lon="1.34938">
        <ele>149</ele>
        <time>2021-09-19T10:04:54Z</time>
      </trkpt>
      <trkpt lat="43.58248" lon="1.34942">
        <ele>149</ele>
        <time>2021-09-19T10:04:55Z</time>
      </trkpt>
      <trkpt lat="43.58243" lon="1.34947">
        <ele>149</ele>
        <time>2021-09-19T10:04:56Z</time>
      </trkpt>
      <trkpt lat="43.58239" lon="1.34951">
        <ele>149</ele>
        <time>2021-09-19T10:04:57Z</time>
      </trkpt>
      <trkpt lat="43.58234" lon="1.34955">
        <ele>149</ele>
        <time>2021-09-19T10:04:58Z</time>
      </trkpt>
      <trkpt lat="43.58229" lon="1.34959">
        <ele>149</ele>
        <time>2021-09-19T10:04:59Z</time>
      </trkpt>
      <trkpt lat="43.58224" lon="1.34963">
        <ele>149</ele>
        <time>2021-09-19T10:05:00Z</time>
      </trkpt>
      <trkpt lat="43.5822" lon="1.34967">
        <ele>149</ele>
        <time>2021-09-19T10:05:01Z</time>
      </trkpt>
      <trkpt lat="43.58216" lon="1.34971">
        <ele>150</ele>
        <time>2021-09-19T10:05:02Z</time>
      </trkpt>
      <trkpt lat="43.58212" lon="1.34976">
        <ele>150</ele>
        <time>2021-09-19T10:05:03Z</time>
      </trkpt>
      <trkpt lat="43.58209" lon="1.34981">
        <ele>150</ele>
        <time>2021-09-19T10:05:04Z</time>
      </trkpt>
      <trkpt lat="43.58206" lon="1.34985">
        <ele>150</ele>
        <time>2021-09-19T10:05:05Z</time>
      </trkpt>
      <trkpt lat="43.58203" lon="1.3499">
        <ele>150</ele>
        <time>2021-09-19T10:05:06Z</time>
      </trkpt>
      <trkpt lat="43.582" lon="1.34994">
        <ele>150</ele>
        <time>2021-09-19T10:05:07Z</time>
      </trkpt>
      <trkpt lat="43.58198" lon="1.34997">
        <ele>150</ele>
        <time>2021-09-19T10:05:08Z</time>
      </trkpt>
      <trkpt lat="43.58195" lon="1.35001">
        <ele>150</ele>
        <time>2021-09-19T10:05:09Z</time>
      </trkpt>
      <trkpt lat="43.58193" lon="1.35005">
        <ele>150</ele>
        <time>2021-09-19T10:05:10Z</time>
      </trkpt>
      <trkpt lat="43.5819" lon="1.35007">
        <ele>150</ele>
        <time>2021-09-19T10:05:11Z</time>
      </trkpt>
      <trkpt lat="43.58186" lon="1.35009">
        <ele>150</ele>
        <time>2021-09-19T10:05:12Z</time>
      </trkpt>
      <trkpt lat="43.58183" lon="1.3501">
        <ele>150</ele>
        <time>2021-09-19T10:05:13Z</time>
      </trkpt>
      <trkpt lat="43.58181" lon="1.35011">
        <ele>150</ele>
        <time>2021-09-19T10:05:14Z</time>
      </trkpt>
      <trkpt lat="43.58179" lon="1.35012">
        <ele>150</ele>
        <time>2021-09-19T10:05:15Z</time>
      </trkpt>
      <trkpt lat="43.58176" lon="1.35014">
        <ele>150</ele>
        <time>2021-09-19T10:05:16Z</time>
      </trkpt>
      <trkpt lat="43.58174" lon="1.35015">
        <ele>150</ele>
        <time>2021-09-19T10:05:17Z</time>
      </trkpt>
      <trkpt lat="43.58171" lon="1.35018">
        <ele>150</ele>
        <time>2021-09-19T10:05:19Z</time>
      </trkpt>
      <trkpt lat="43.5817" lon="1.35019">
        <ele>150</ele>
        <time>2021-09-19T10:05:20Z</time>
      </trkpt>
      <trkpt lat="43.58167" lon="1.35021">
        <ele>150</ele>
        <time>2021-09-19T10:05:21Z</time>
      </trkpt>
      <trkpt lat="43.58165" lon="1.35022">
        <ele>150</ele>
        <time>2021-09-19T10:05:22Z</time>
      </trkpt>
      <trkpt lat="43.58164" lon="1.35023">
        <ele>149</ele>
        <time>2021-09-19T10:05:23Z</time>
      </trkpt>
      <trkpt lat="43.58161" lon="1.35024">
        <ele>149</ele>
        <time>2021-09-19T10:05:25Z</time>
      </trkpt>
      <trkpt lat="43.58158" lon="1.35026">
        <ele>148</ele>
        <time>2021-09-19T10:05:27Z</time>
      </trkpt>
      <trkpt lat="43.58155" lon="1.35026">
        <ele>149</ele>
        <time>2021-09-19T10:05:29Z</time>
      </trkpt>
      <trkpt lat="43.58152" lon="1.35027">
        <ele>149</ele>
        <time>2021-09-19T10:05:31Z</time>
      </trkpt>
      <trkpt lat="43.58149" lon="1.35029">
        <ele>149</ele>
        <time>2021-09-19T10:05:33Z</time>
      </trkpt>
      <trkpt lat="43.58146" lon="1.3503">
        <ele>149</ele>
        <time>2021-09-19T10:05:35Z</time>
      </trkpt>
      <trkpt lat="43.58143" lon="1.35031">
        <ele>149</ele>
        <time>2021-09-19T10:05:37Z</time>
      </trkpt>
      <trkpt lat="43.58141" lon="1.35032">
        <ele>149</ele>
        <time>2021-09-19T10:05:38Z</time>
      </trkpt>
      <trkpt lat="43.58139" lon="1.35033">
        <ele>149</ele>
        <time>2021-09-19T10:05:39Z</time>
      </trkpt>
      <trkpt lat="43.58136" lon="1.35034">
        <ele>149</ele>
        <time>2021-09-19T10:05:40Z</time>
      </trkpt>
      <trkpt lat="43.58134" lon="1.35035">
        <ele>149</ele>
        <time>2021-09-19T10:05:41Z</time>
      </trkpt>
      <trkpt lat="43.58131" lon="1.35036">
        <ele>149</ele>
        <time>2021-09-19T10:05:42Z</time>
      </trkpt>
      <trkpt lat="43.58129" lon="1.35038">
        <ele>149</ele>
        <time>2021-09-19T10:05:43Z</time>
      </trkpt>
      <trkpt lat="43.58126" lon="1.35039">
        <ele>149</ele>
        <time>2021-09-19T10:05:44Z</time>
      </trkpt>
      <trkpt lat="43.58124" lon="1.3504">
        <ele>149</ele>
        <time>2021-09-19T10:05:45Z</time>
      </trkpt>
      <trkpt lat="43.58121" lon="1.35041">
        <ele>149</ele>
        <time>2021-09-19T10:05:46Z</time>
      </trkpt>
      <trkpt lat="43.58119" lon="1.35043">
        <ele>149</ele>
        <time>2021-09-19T10:05:47Z</time>
      </trkpt>
      <trkpt lat="43.58117" lon="1.35044">
        <ele>149</ele>
        <time>2021-09-19T10:05:48Z</time>
      </trkpt>
      <trkpt lat="43.58114" lon="1.35046">
        <ele>149</ele>
        <time>2021-09-19T10:05:49Z</time>
      </trkpt>
      <trkpt lat="43.58112" lon="1.35047">
        <ele>149</ele>
        <time>2021-09-19T10:05:50Z</time>
      </trkpt>
      <trkpt lat="43.5811" lon="1.35049">
        <ele>149</ele>
        <time>2021-09-19T10:05:51Z</time>
      </trkpt>
      <trkpt lat="43.58108" lon="1.35051">
        <ele>149</ele>
        <time>2021-09-19T10:05:52Z</time>
      </trkpt>
      <trkpt lat="43.58106" lon="1.35052">
        <ele>150</ele>
        <time>2021-09-19T10:05:53Z</time>
      </trkpt>
      <trkpt lat="43.58104" lon="1.35054">
        <ele>150</ele>
        <time>2021-09-19T10:05:54Z</time>
      </trkpt>
      <trkpt lat="43.58102" lon="1.35055">
        <ele>150</ele>
        <time>2021-09-19T10:05:55Z</time>
      </trkpt>
      <trkpt lat="43.581" lon="1.35057">
        <ele>150</ele>
        <time>2021-09-19T10:05:56Z</time>
      </trkpt>
      <trkpt lat="43.58098" lon="1.35058">
        <ele>150</ele>
        <time>2021-09-19T10:05:57Z</time>
      </trkpt>
      <trkpt lat="43.58096" lon="1.35061">
        <ele>150</ele>
        <time>2021-09-19T10:05:58Z</time>
      </trkpt>
      <trkpt lat="43.58093" lon="1.35063">
        <ele>150</ele>
        <time>2021-09-19T10:05:59Z</time>
      </trkpt>
      <trkpt lat="43.58091" lon="1.35066">
        <ele>151</ele>
        <time>2021-09-19T10:06:00Z</time>
      </trkpt>
      <trkpt lat="43.58088" lon="1.35069">
        <ele>151</ele>
        <time>2021-09-19T10:06:01Z</time>
      </trkpt>
      <trkpt lat="43.58085" lon="1.35072">
        <ele>150</ele>
        <time>2021-09-19T10:06:02Z</time>
      </trkpt>
      <trkpt lat="43.58082" lon="1.35075">
        <ele>149</ele>
        <time>2021-09-19T10:06:03Z</time>
      </trkpt>
      <trkpt lat="43.58079" lon="1.35078">
        <ele>149</ele>
        <time>2021-09-19T10:06:04Z</time>
      </trkpt>
      <trkpt lat="43.58075" lon="1.35082">
        <ele>149</ele>
        <time>2021-09-19T10:06:05Z</time>
      </trkpt>
      <trkpt lat="43.58072" lon="1.35085">
        <ele>149</ele>
        <time>2021-09-19T10:06:06Z</time>
      </trkpt>
      <trkpt lat="43.58069" lon="1.35088">
        <ele>149</ele>
        <time>2021-09-19T10:06:07Z</time>
      </trkpt>
      <trkpt lat="43.58066" lon="1.35091">
        <ele>149</ele>
        <time>2021-09-19T10:06:08Z</time>
      </trkpt>
      <trkpt lat="43.58063" lon="1.35094">
        <ele>149</ele>
        <time>2021-09-19T10:06:09Z</time>
      </trkpt>
      <trkpt lat="43.58059" lon="1.35098">
        <ele>149</ele>
        <time>2021-09-19T10:06:10Z</time>
      </trkpt>
      <trkpt lat="43.58056" lon="1.35101">
        <ele>149</ele>
        <time>2021-09-19T10:06:11Z</time>
      </trkpt>
      <trkpt lat="43.58053" lon="1.35105">
        <ele>149</ele>
        <time>2021-09-19T10:06:12Z</time>
      </trkpt>
      <trkpt lat="43.5805" lon="1.35109">
        <ele>149</ele>
        <time>2021-09-19T10:06:13Z</time>
      </trkpt>
      <trkpt lat="43.58047" lon="1.35112">
        <ele>149</ele>
        <time>2021-09-19T10:06:14Z</time>
      </trkpt>
      <trkpt lat="43.58044" lon="1.35116">
        <ele>149</ele>
        <time>2021-09-19T10:06:15Z</time>
      </trkpt>
      <trkpt lat="43.58041" lon="1.35119">
        <ele>149</ele>
        <time>2021-09-19T10:06:16Z</time>
      </trkpt>
      <trkpt lat="43.58038" lon="1.35122">
        <ele>149</ele>
        <time>2021-09-19T10:06:17Z</time>
      </trkpt>
      <trkpt lat="43.58035" lon="1.35126">
        <ele>149</ele>
        <time>2021-09-19T10:06:18Z</time>
      </trkpt>
      <trkpt lat="43.58033" lon="1.3513">
        <ele>149</ele>
        <time>2021-09-19T10:06:19Z</time>
      </trkpt>
      <trkpt lat="43.58031" lon="1.35135">
        <ele>149</ele>
        <time>2021-09-19T10:06:20Z</time>
      </trkpt>
      <trkpt lat="43.58029" lon="1.35139">
        <ele>149</ele>
        <time>2021-09-19T10:06:21Z</time>
      </trkpt>
      <trkpt lat="43.58027" lon="1.35142">
        <ele>149</ele>
        <time>2021-09-19T10:06:22Z</time>
      </trkpt>
      <trkpt lat="43.58025" lon="1.35145">
        <ele>149</ele>
        <time>2021-09-19T10:06:23Z</time>
      </trkpt>
      <trkpt lat="43.58022" lon="1.35148">
        <ele>149</ele>
        <time>2021-09-19T10:06:24Z</time>
      </trkpt>
      <trkpt lat="43.58018" lon="1.35151">
        <ele>150</ele>
        <time>2021-09-19T10:06:25Z</time>
      </trkpt>
      <trkpt lat="43.58015" lon="1.35155">
        <ele>150</ele>
        <time>2021-09-19T10:06:26Z</time>
      </trkpt>
      <trkpt lat="43.58011" lon="1.35158">
        <ele>150</ele>
        <time>2021-09-19T10:06:27Z</time>
      </trkpt>
      <trkpt lat="43.58008" lon="1.35161">
        <ele>150</ele>
        <time>2021-09-19T10:06:28Z</time>
      </trkpt>
      <trkpt lat="43.58004" lon="1.35163">
        <ele>150</ele>
        <time>2021-09-19T10:06:29Z</time>
      </trkpt>
      <trkpt lat="43.58" lon="1.35165">
        <ele>150</ele>
        <time>2021-09-19T10:06:30Z</time>
      </trkpt>
      <trkpt lat="43.57995" lon="1.35166">
        <ele>150</ele>
        <time>2021-09-19T10:06:31Z</time>
      </trkpt>
      <trkpt lat="43.57991" lon="1.35165">
        <ele>150</ele>
        <time>2021-09-19T10:06:32Z</time>
      </trkpt>
      <trkpt lat="43.57988" lon="1.35165">
        <ele>150</ele>
        <time>2021-09-19T10:06:33Z</time>
      </trkpt>
      <trkpt lat="43.57985" lon="1.35166">
        <ele>150</ele>
        <time>2021-09-19T10:06:34Z</time>
      </trkpt>
      <trkpt lat="43.57981" lon="1.35167">
        <ele>150</ele>
        <time>2021-09-19T10:06:35Z</time>
      </trkpt>
      <trkpt lat="43.57978" lon="1.35169">
        <ele>150</ele>
        <time>2021-09-19T10:06:36Z</time>
      </trkpt>
      <trkpt lat="43.57975" lon="1.35172">
        <ele>150</ele>
        <time>2021-09-19T10:06:37Z</time>
      </trkpt>
      <trkpt lat="43.57973" lon="1.35176">
        <ele>150</ele>
        <time>2021-09-19T10:06:38Z</time>
      </trkpt>
      <trkpt lat="43.5797" lon="1.3518">
        <ele>150</ele>
        <time>2021-09-19T10:06:39Z</time>
      </trkpt>
      <trkpt lat="43.57967" lon="1.35183">
        <ele>150</ele>
        <time>2021-09-19T10:06:40Z</time>
      </trkpt>
      <trkpt lat="43.57964" lon="1.35184">
        <ele>150</ele>
        <time>2021-09-19T10:06:41Z</time>
      </trkpt>
      <trkpt lat="43.5796" lon="1.35185">
        <ele>150</ele>
        <time>2021-09-19T10:06:42Z</time>
      </trkpt>
      <trkpt lat="43.57956" lon="1.35187">
        <ele>150</ele>
        <time>2021-09-19T10:06:43Z</time>
      </trkpt>
      <trkpt lat="43.57952" lon="1.35188">
        <ele>150</ele>
        <time>2021-09-19T10:06:44Z</time>
      </trkpt>
      <trkpt lat="43.57947" lon="1.35189">
        <ele>150</ele>
        <time>2021-09-19T10:06:45Z</time>
      </trkpt>
      <trkpt lat="43.57943" lon="1.3519">
        <ele>150</ele>
        <time>2021-09-19T10:06:46Z</time>
      </trkpt>
      <trkpt lat="43.57939" lon="1.35191">
        <ele>150</ele>
        <time>2021-09-19T10:06:47Z</time>
      </trkpt>
      <trkpt lat="43.57935" lon="1.35193">
        <ele>150</ele>
        <time>2021-09-19T10:06:48Z</time>
      </trkpt>
      <trkpt lat="43.57931" lon="1.35194">
        <ele>150</ele>
        <time>2021-09-19T10:06:49Z</time>
      </trkpt>
      <trkpt lat="43.57928" lon="1.35195">
        <ele>150</ele>
        <time>2021-09-19T10:06:50Z</time>
      </trkpt>
      <trkpt lat="43.57924" lon="1.35195">
        <ele>150</ele>
        <time>2021-09-19T10:06:51Z</time>
      </trkpt>
      <trkpt lat="43.5792" lon="1.35196">
        <ele>150</ele>
        <time>2021-09-19T10:06:52Z</time>
      </trkpt>
      <trkpt lat="43.57917" lon="1.35196">
        <ele>150</ele>
        <time>2021-09-19T10:06:53Z</time>
      </trkpt>
      <trkpt lat="43.57913" lon="1.35197">
        <ele>151</ele>
        <time>2021-09-19T10:06:54Z</time>
      </trkpt>
      <trkpt lat="43.5791" lon="1.35197">
        <ele>151</ele>
        <time>2021-09-19T10:06:55Z</time>
      </trkpt>
      <trkpt lat="43.57906" lon="1.35197">
        <ele>151</ele>
        <time>2021-09-19T10:06:56Z</time>
      </trkpt>
      <trkpt lat="43.57903" lon="1.35197">
        <ele>151</ele>
        <time>2021-09-19T10:06:57Z</time>
      </trkpt>
      <trkpt lat="43.579" lon="1.35197">
        <ele>151</ele>
        <time>2021-09-19T10:06:58Z</time>
      </trkpt>
      <trkpt lat="43.57897" lon="1.35198">
        <ele>152</ele>
        <time>2021-09-19T10:06:59Z</time>
      </trkpt>
      <trkpt lat="43.57894" lon="1.35198">
        <ele>152</ele>
        <time>2021-09-19T10:07:00Z</time>
      </trkpt>
      <trkpt lat="43.57892" lon="1.35199">
        <ele>152</ele>
        <time>2021-09-19T10:07:01Z</time>
      </trkpt>
      <trkpt lat="43.5789" lon="1.35199">
        <ele>152</ele>
        <time>2021-09-19T10:07:02Z</time>
      </trkpt>
      <trkpt lat="43.57888" lon="1.35201">
        <ele>152</ele>
        <time>2021-09-19T10:07:03Z</time>
      </trkpt>
      <trkpt lat="43.57888" lon="1.35204">
        <ele>152</ele>
        <time>2021-09-19T10:07:04Z</time>
      </trkpt>
      <trkpt lat="43.57888" lon="1.35208">
        <ele>152</ele>
        <time>2021-09-19T10:07:05Z</time>
      </trkpt>
      <trkpt lat="43.57888" lon="1.35211">
        <ele>152</ele>
        <time>2021-09-19T10:07:06Z</time>
      </trkpt>
      <trkpt lat="43.57888" lon="1.35215">
        <ele>152</ele>
        <time>2021-09-19T10:07:07Z</time>
      </trkpt>
      <trkpt lat="43.57885" lon="1.35221">
        <ele>152</ele>
        <time>2021-09-19T10:07:09Z</time>
      </trkpt>
      <trkpt lat="43.57882" lon="1.35222">
        <ele>152</ele>
        <time>2021-09-19T10:07:10Z</time>
      </trkpt>
      <trkpt lat="43.57878" lon="1.35223">
        <ele>152</ele>
        <time>2021-09-19T10:07:11Z</time>
      </trkpt>
      <trkpt lat="43.57875" lon="1.35223">
        <ele>152</ele>
        <time>2021-09-19T10:07:12Z</time>
      </trkpt>
      <trkpt lat="43.57871" lon="1.35223">
        <ele>152</ele>
        <time>2021-09-19T10:07:13Z</time>
      </trkpt>
      <trkpt lat="43.57868" lon="1.35225">
        <ele>152</ele>
        <time>2021-09-19T10:07:14Z</time>
      </trkpt>
      <trkpt lat="43.57865" lon="1.35227">
        <ele>152</ele>
        <time>2021-09-19T10:07:15Z</time>
      </trkpt>
      <trkpt lat="43.57862" lon="1.35231">
        <ele>152</ele>
        <time>2021-09-19T10:07:16Z</time>
      </trkpt>
      <trkpt lat="43.57859" lon="1.35234">
        <ele>152</ele>
        <time>2021-09-19T10:07:17Z</time>
      </trkpt>
      <trkpt lat="43.57856" lon="1.35238">
        <ele>152</ele>
        <time>2021-09-19T10:07:18Z</time>
      </trkpt>
      <trkpt lat="43.57853" lon="1.35241">
        <ele>152</ele>
        <time>2021-09-19T10:07:19Z</time>
      </trkpt>
      <trkpt lat="43.57851" lon="1.35244">
        <ele>152</ele>
        <time>2021-09-19T10:07:20Z</time>
      </trkpt>
      <trkpt lat="43.57848" lon="1.35247">
        <ele>152</ele>
        <time>2021-09-19T10:07:21Z</time>
      </trkpt>
      <trkpt lat="43.57846" lon="1.35249">
        <ele>152</ele>
        <time>2021-09-19T10:07:22Z</time>
      </trkpt>
      <trkpt lat="43.57844" lon="1.35251">
        <ele>152</ele>
        <time>2021-09-19T10:07:23Z</time>
      </trkpt>
      <trkpt lat="43.57841" lon="1.35252">
        <ele>152</ele>
        <time>2021-09-19T10:07:24Z</time>
      </trkpt>
      <trkpt lat="43.57839" lon="1.35254">
        <ele>152</ele>
        <time>2021-09-19T10:07:25Z</time>
      </trkpt>
      <trkpt lat="43.57836" lon="1.35254">
        <ele>152</ele>
        <time>2021-09-19T10:07:26Z</time>
      </trkpt>
      <trkpt lat="43.57834" lon="1.35254">
        <ele>152</ele>
        <time>2021-09-19T10:07:27Z</time>
      </trkpt>
      <trkpt lat="43.57831" lon="1.35254">
        <ele>152</ele>
        <time>2021-09-19T10:07:28Z</time>
      </trkpt>
      <trkpt lat="43.57828" lon="1.35253">
        <ele>152</ele>
        <time>2021-09-19T10:07:29Z</time>
      </trkpt>
      <trkpt lat="43.57825" lon="1.35254">
        <ele>152</ele>
        <time>2021-09-19T10:07:30Z</time>
      </trkpt>
      <trkpt lat="43.57823" lon="1.35255">
        <ele>152</ele>
        <time>2021-09-19T10:07:31Z</time>
      </trkpt>
      <trkpt lat="43.57822" lon="1.35258">
        <ele>152</ele>
        <time>2021-09-19T10:07:32Z</time>
      </trkpt>
      <trkpt lat="43.57822" lon="1.35262">
        <ele>152</ele>
        <time>2021-09-19T10:07:33Z</time>
      </trkpt>
      <trkpt lat="43.57822" lon="1.35267">
        <ele>152</ele>
        <time>2021-09-19T10:07:34Z</time>
      </trkpt>
      <trkpt lat="43.57822" lon="1.35273">
        <ele>152</ele>
        <time>2021-09-19T10:07:35Z</time>
      </trkpt>
      <trkpt lat="43.57823" lon="1.35278">
        <ele>152</ele>
        <time>2021-09-19T10:07:36Z</time>
      </trkpt>
      <trkpt lat="43.57823" lon="1.35283">
        <ele>152</ele>
        <time>2021-09-19T10:07:37Z</time>
      </trkpt>
      <trkpt lat="43.57824" lon="1.35287">
        <ele>152</ele>
        <time>2021-09-19T10:07:38Z</time>
      </trkpt>
      <trkpt lat="43.57825" lon="1.35291">
        <ele>152</ele>
        <time>2021-09-19T10:07:39Z</time>
      </trkpt>
      <trkpt lat="43.57826" lon="1.35295">
        <ele>152</ele>
        <time>2021-09-19T10:07:40Z</time>
      </trkpt>
      <trkpt lat="43.57828" lon="1.353">
        <ele>152</ele>
        <time>2021-09-19T10:07:41Z</time>
      </trkpt>
      <trkpt lat="43.5783" lon="1.35305">
        <ele>152</ele>
        <time>2021-09-19T10:07:42Z</time>
      </trkpt>
      <trkpt lat="43.57832" lon="1.35309">
        <ele>153</ele>
        <time>2021-09-19T10:07:43Z</time>
      </trkpt>
      <trkpt lat="43.57834" lon="1.35314">
        <ele>153</ele>
        <time>2021-09-19T10:07:44Z</time>
      </trkpt>
      <trkpt lat="43.57836" lon="1.35319">
        <ele>153</ele>
        <time>2021-09-19T10:07:45Z</time>
      </trkpt>
      <trkpt lat="43.57838" lon="1.35324">
        <ele>154</ele>
        <time>2021-09-19T10:07:46Z</time>
      </trkpt>
      <trkpt lat="43.5784" lon="1.35329">
        <ele>154</ele>
        <time>2021-09-19T10:07:47Z</time>
      </trkpt>
      <trkpt lat="43.57842" lon="1.35334">
        <ele>154</ele>
        <time>2021-09-19T10:07:48Z</time>
      </trkpt>
      <trkpt lat="43.57844" lon="1.35339">
        <ele>154</ele>
        <time>2021-09-19T10:07:49Z</time>
      </trkpt>
      <trkpt lat="43.57846" lon="1.35344">
        <ele>154</ele>
        <time>2021-09-19T10:07:50Z</time>
      </trkpt>
      <trkpt lat="43.57848" lon="1.35349">
        <ele>154</ele>
        <time>2021-09-19T10:07:51Z</time>
      </trkpt>
      <trkpt lat="43.5785" lon="1.35354">
        <ele>154</ele>
        <time>2021-09-19T10:07:52Z</time>
      </trkpt>
      <trkpt lat="43.57852" lon="1.35359">
        <ele>154</ele>
        <time>2021-09-19T10:07:53Z</time>
      </trkpt>
      <trkpt lat="43.57854" lon="1.35364">
        <ele>154</ele>
        <time>2021-09-19T10:07:54Z</time>
      </trkpt>
      <trkpt lat="43.57856" lon="1.35369">
        <ele>154</ele>
        <time>2021-09-19T10:07:55Z</time>
      </trkpt>
      <trkpt lat="43.57858" lon="1.35374">
        <ele>154</ele>
        <time>2021-09-19T10:07:56Z</time>
      </trkpt>
      <trkpt lat="43.57861" lon="1.35379">
        <ele>154</ele>
        <time>2021-09-19T10:07:57Z</time>
      </trkpt>
      <trkpt lat="43.57863" lon="1.35384">
        <ele>154</ele>
        <time>2021-09-19T10:07:58Z</time>
      </trkpt>
      <trkpt lat="43.57865" lon="1.35389">
        <ele>154</ele>
        <time>2021-09-19T10:07:59Z</time>
      </trkpt>
      <trkpt lat="43.57867" lon="1.35394">
        <ele>154</ele>
        <time>2021-09-19T10:08:00Z</time>
      </trkpt>
      <trkpt lat="43.57868" lon="1.354">
        <ele>154</ele>
        <time>2021-09-19T10:08:01Z</time>
      </trkpt>
      <trkpt lat="43.5787" lon="1.35405">
        <ele>154</ele>
        <time>2021-09-19T10:08:02Z</time>
      </trkpt>
      <trkpt lat="43.57872" lon="1.3541">
        <ele>154</ele>
        <time>2021-09-19T10:08:03Z</time>
      </trkpt>
      <trkpt lat="43.57873" lon="1.35416">
        <ele>154</ele>
        <time>2021-09-19T10:08:04Z</time>
      </trkpt>
      <trkpt lat="43.57873" lon="1.35422">
        <ele>154</ele>
        <time>2021-09-19T10:08:05Z</time>
      </trkpt>
      <trkpt lat="43.57874" lon="1.35428">
        <ele>154</ele>
        <time>2021-09-19T10:08:06Z</time>
      </trkpt>
      <trkpt lat="43.57875" lon="1.35434">
        <ele>154</ele>
        <time>2021-09-19T10:08:07Z</time>
      </trkpt>
      <trkpt lat="43.57876" lon="1.3544">
        <ele>154</ele>
        <time>2021-09-19T10:08:08Z</time>
      </trkpt>
      <trkpt lat="43.57876" lon="1.35446">
        <ele>154</ele>
        <time>2021-09-19T10:08:09Z</time>
      </trkpt>
      <trkpt lat="43.57876" lon="1.35452">
        <ele>154</ele>
        <time>2021-09-19T10:08:10Z</time>
      </trkpt>
      <trkpt lat="43.57877" lon="1.35459">
        <ele>154</ele>
        <time>2021-09-19T10:08:11Z</time>
      </trkpt>
      <trkpt lat="43.57877" lon="1.35465">
        <ele>155</ele>
        <time>2021-09-19T10:08:12Z</time>
      </trkpt>
      <trkpt lat="43.57877" lon="1.35471">
        <ele>155</ele>
        <time>2021-09-19T10:08:13Z</time>
      </trkpt>
      <trkpt lat="43.57877" lon="1.35477">
        <ele>155</ele>
        <time>2021-09-19T10:08:14Z</time>
      </trkpt>
      <trkpt lat="43.57877" lon="1.35483">
        <ele>155</ele>
        <time>2021-09-19T10:08:15Z</time>
      </trkpt>
      <trkpt lat="43.57877" lon="1.35489">
        <ele>155</ele>
        <time>2021-09-19T10:08:16Z</time>
      </trkpt>
      <trkpt lat="43.57876" lon="1.35495">
        <ele>155</ele>
        <time>2021-09-19T10:08:17Z</time>
      </trkpt>
      <trkpt lat="43.57876" lon="1.35501">
        <ele>155</ele>
        <time>2021-09-19T10:08:18Z</time>
      </trkpt>
      <trkpt lat="43.57876" lon="1.35507">
        <ele>155</ele>
        <time>2021-09-19T10:08:19Z</time>
      </trkpt>
      <trkpt lat="43.57876" lon="1.35512">
        <ele>155</ele>
        <time>2021-09-19T10:08:20Z</time>
      </trkpt>
      <trkpt lat="43.57875" lon="1.35518">
        <ele>155</ele>
        <time>2021-09-19T10:08:21Z</time>
      </trkpt>
      <trkpt lat="43.57875" lon="1.35524">
        <ele>155</ele>
        <time>2021-09-19T10:08:22Z</time>
      </trkpt>
      <trkpt lat="43.57874" lon="1.3553">
        <ele>155</ele>
        <time>2021-09-19T10:08:23Z</time>
      </trkpt>
      <trkpt lat="43.57874" lon="1.35536">
        <ele>155</ele>
        <time>2021-09-19T10:08:24Z</time>
      </trkpt>
      <trkpt lat="43.57873" lon="1.35541">
        <ele>155</ele>
        <time>2021-09-19T10:08:25Z</time>
      </trkpt>
      <trkpt lat="43.57873" lon="1.35547">
        <ele>156</ele>
        <time>2021-09-19T10:08:26Z</time>
      </trkpt>
      <trkpt lat="43.57873" lon="1.35552">
        <ele>156</ele>
        <time>2021-09-19T10:08:27Z</time>
      </trkpt>
      <trkpt lat="43.57872" lon="1.35558">
        <ele>156</ele>
        <time>2021-09-19T10:08:28Z</time>
      </trkpt>
      <trkpt lat="43.57871" lon="1.35563">
        <ele>156</ele>
        <time>2021-09-19T10:08:29Z</time>
      </trkpt>
      <trkpt lat="43.5787" lon="1.35568">
        <ele>156</ele>
        <time>2021-09-19T10:08:30Z</time>
      </trkpt>
      <trkpt lat="43.57868" lon="1.35574">
        <ele>156</ele>
        <time>2021-09-19T10:08:31Z</time>
      </trkpt>
      <trkpt lat="43.57867" lon="1.35579">
        <ele>156</ele>
        <time>2021-09-19T10:08:32Z</time>
      </trkpt>
      <trkpt lat="43.57867" lon="1.35584">
        <ele>156</ele>
        <time>2021-09-19T10:08:33Z</time>
      </trkpt>
      <trkpt lat="43.57868" lon="1.3559">
        <ele>156</ele>
        <time>2021-09-19T10:08:34Z</time>
      </trkpt>
      <trkpt lat="43.57869" lon="1.35596">
        <ele>156</ele>
        <time>2021-09-19T10:08:35Z</time>
      </trkpt>
      <trkpt lat="43.5787" lon="1.35602">
        <ele>156</ele>
        <time>2021-09-19T10:08:36Z</time>
      </trkpt>
      <trkpt lat="43.5787" lon="1.35608">
        <ele>156</ele>
        <time>2021-09-19T10:08:37Z</time>
      </trkpt>
      <trkpt lat="43.57871" lon="1.35614">
        <ele>156</ele>
        <time>2021-09-19T10:08:38Z</time>
      </trkpt>
      <trkpt lat="43.57871" lon="1.35621">
        <ele>156</ele>
        <time>2021-09-19T10:08:39Z</time>
      </trkpt>
      <trkpt lat="43.57871" lon="1.35627">
        <ele>156</ele>
        <time>2021-09-19T10:08:40Z</time>
      </trkpt>
      <trkpt lat="43.57872" lon="1.35633">
        <ele>156</ele>
        <time>2021-09-19T10:08:41Z</time>
      </trkpt>
      <trkpt lat="43.57873" lon="1.35639">
        <ele>156</ele>
        <time>2021-09-19T10:08:42Z</time>
      </trkpt>
      <trkpt lat="43.57873" lon="1.35646">
        <ele>156</ele>
        <time>2021-09-19T10:08:43Z</time>
      </trkpt>
      <trkpt lat="43.57874" lon="1.35652">
        <ele>156</ele>
        <time>2021-09-19T10:08:44Z</time>
      </trkpt>
      <trkpt lat="43.57875" lon="1.35659">
        <ele>156</ele>
        <time>2021-09-19T10:08:45Z</time>
      </trkpt>
      <trkpt lat="43.57875" lon="1.35666">
        <ele>156</ele>
        <time>2021-09-19T10:08:46Z</time>
      </trkpt>
      <trkpt lat="43.57875" lon="1.35673">
        <ele>156</ele>
        <time>2021-09-19T10:08:47Z</time>
      </trkpt>
      <trkpt lat="43.57876" lon="1.35679">
        <ele>156</ele>
        <time>2021-09-19T10:08:48Z</time>
      </trkpt>
      <trkpt lat="43.57877" lon="1.35686">
        <ele>156</ele>
        <time>2021-09-19T10:08:49Z</time>
      </trkpt>
      <trkpt lat="43.57878" lon="1.35693">
        <ele>156</ele>
        <time>2021-09-19T10:08:50Z</time>
      </trkpt>
      <trkpt lat="43.57879" lon="1.357">
        <ele>156</ele>
        <time>2021-09-19T10:08:51Z</time>
      </trkpt>
      <trkpt lat="43.5788" lon="1.35707">
        <ele>156</ele>
        <time>2021-09-19T10:08:52Z</time>
      </trkpt>
      <trkpt lat="43.57881" lon="1.35714">
        <ele>156</ele>
        <time>2021-09-19T10:08:53Z</time>
      </trkpt>
      <trkpt lat="43.57882" lon="1.35721">
        <ele>156</ele>
        <time>2021-09-19T10:08:54Z</time>
      </trkpt>
      <trkpt lat="43.57883" lon="1.35727">
        <ele>156</ele>
        <time>2021-09-19T10:08:55Z</time>
      </trkpt>
      <trkpt lat="43.57883" lon="1.35734">
        <ele>156</ele>
        <time>2021-09-19T10:08:56Z</time>
      </trkpt>
      <trkpt lat="43.57884" lon="1.35741">
        <ele>156</ele>
        <time>2021-09-19T10:08:57Z</time>
      </trkpt>
      <trkpt lat="43.57885" lon="1.35747">
        <ele>156</ele>
        <time>2021-09-19T10:08:58Z</time>
      </trkpt>
      <trkpt lat="43.57886" lon="1.35753">
        <ele>156</ele>
        <time>2021-09-19T10:08:59Z</time>
      </trkpt>
      <trkpt lat="43.57887" lon="1.35759">
        <ele>156</ele>
        <time>2021-09-19T10:09:00Z</time>
      </trkpt>
      <trkpt lat="43.57888" lon="1.35765">
        <ele>156</ele>
        <time>2021-09-19T10:09:01Z</time>
      </trkpt>
      <trkpt lat="43.57888" lon="1.35771">
        <ele>156</ele>
        <time>2021-09-19T10:09:02Z</time>
      </trkpt>
      <trkpt lat="43.57889" lon="1.35778">
        <ele>156</ele>
        <time>2021-09-19T10:09:03Z</time>
      </trkpt>
      <trkpt lat="43.5789" lon="1.35784">
        <ele>156</ele>
        <time>2021-09-19T10:09:04Z</time>
      </trkpt>
      <trkpt lat="43.57891" lon="1.3579">
        <ele>156</ele>
        <time>2021-09-19T10:09:05Z</time>
      </trkpt>
      <trkpt lat="43.57892" lon="1.35796">
        <ele>156</ele>
        <time>2021-09-19T10:09:06Z</time>
      </trkpt>
      <trkpt lat="43.57893" lon="1.35802">
        <ele>156</ele>
        <time>2021-09-19T10:09:07Z</time>
      </trkpt>
      <trkpt lat="43.57894" lon="1.35809">
        <ele>156</ele>
        <time>2021-09-19T10:09:08Z</time>
      </trkpt>
      <trkpt lat="43.57895" lon="1.35815">
        <ele>156</ele>
        <time>2021-09-19T10:09:09Z</time>
      </trkpt>
      <trkpt lat="43.57896" lon="1.35821">
        <ele>156</ele>
        <time>2021-09-19T10:09:10Z</time>
      </trkpt>
      <trkpt lat="43.57897" lon="1.35827">
        <ele>156</ele>
        <time>2021-09-19T10:09:11Z</time>
      </trkpt>
      <trkpt lat="43.57897" lon="1.35833">
        <ele>156</ele>
        <time>2021-09-19T10:09:12Z</time>
      </trkpt>
      <trkpt lat="43.57898" lon="1.35839">
        <ele>156</ele>
        <time>2021-09-19T10:09:13Z</time>
      </trkpt>
      <trkpt lat="43.57898" lon="1.35846">
        <ele>156</ele>
        <time>2021-09-19T10:09:14Z</time>
      </trkpt>
      <trkpt lat="43.57899" lon="1.35852">
        <ele>157</ele>
        <time>2021-09-19T10:09:15Z</time>
      </trkpt>
      <trkpt lat="43.57899" lon="1.35858">
        <ele>157</ele>
        <time>2021-09-19T10:09:16Z</time>
      </trkpt>
      <trkpt lat="43.579" lon="1.35863">
        <ele>157</ele>
        <time>2021-09-19T10:09:17Z</time>
      </trkpt>
      <trkpt lat="43.579" lon="1.35868">
        <ele>157</ele>
        <time>2021-09-19T10:09:18Z</time>
      </trkpt>
      <trkpt lat="43.57901" lon="1.35874">
        <ele>157</ele>
        <time>2021-09-19T10:09:19Z</time>
      </trkpt>
      <trkpt lat="43.57901" lon="1.35879">
        <ele>157</ele>
        <time>2021-09-19T10:09:20Z</time>
      </trkpt>
      <trkpt lat="43.57901" lon="1.35883">
        <ele>157</ele>
        <time>2021-09-19T10:09:21Z</time>
      </trkpt>
      <trkpt lat="43.579" lon="1.35888">
        <ele>157</ele>
        <time>2021-09-19T10:09:22Z</time>
      </trkpt>
      <trkpt lat="43.57898" lon="1.35891">
        <ele>157</ele>
        <time>2021-09-19T10:09:23Z</time>
      </trkpt>
      <trkpt lat="43.57896" lon="1.35893">
        <ele>157</ele>
        <time>2021-09-19T10:09:24Z</time>
      </trkpt>
      <trkpt lat="43.57894" lon="1.35895">
        <ele>157</ele>
        <time>2021-09-19T10:09:25Z</time>
      </trkpt>
      <trkpt lat="43.57893" lon="1.35897">
        <ele>157</ele>
        <time>2021-09-19T10:09:26Z</time>
      </trkpt>
      <trkpt lat="43.57891" lon="1.35899">
        <ele>157</ele>
        <time>2021-09-19T10:09:27Z</time>
      </trkpt>
      <trkpt lat="43.5789" lon="1.35901">
        <ele>157</ele>
        <time>2021-09-19T10:09:28Z</time>
      </trkpt>
      <trkpt lat="43.57889" lon="1.35903">
        <ele>157</ele>
        <time>2021-09-19T10:09:29Z</time>
      </trkpt>
      <trkpt lat="43.57887" lon="1.35905">
        <ele>157</ele>
        <time>2021-09-19T10:09:30Z</time>
      </trkpt>
      <trkpt lat="43.57885" lon="1.35907">
        <ele>157</ele>
        <time>2021-09-19T10:09:31Z</time>
      </trkpt>
      <trkpt lat="43.57883" lon="1.35909">
        <ele>157</ele>
        <time>2021-09-19T10:09:32Z</time>
      </trkpt>
      <trkpt lat="43.57883" lon="1.35912">
        <ele>157</ele>
        <time>2021-09-19T10:09:33Z</time>
      </trkpt>
      <trkpt lat="43.57884" lon="1.35916">
        <ele>157</ele>
        <time>2021-09-19T10:09:34Z</time>
      </trkpt>
      <trkpt lat="43.57885" lon="1.35919">
        <ele>156</ele>
        <time>2021-09-19T10:09:35Z</time>
      </trkpt>
      <trkpt lat="43.57885" lon="1.35923">
        <ele>156</ele>
        <time>2021-09-19T10:09:36Z</time>
      </trkpt>
      <trkpt lat="43.57885" lon="1.35927">
        <ele>156</ele>
        <time>2021-09-19T10:09:37Z</time>
      </trkpt>
      <trkpt lat="43.57885" lon="1.35931">
        <ele>156</ele>
        <time>2021-09-19T10:09:38Z</time>
      </trkpt>
      <trkpt lat="43.57883" lon="1.35934">
        <ele>156</ele>
        <time>2021-09-19T10:09:39Z</time>
      </trkpt>
      <trkpt lat="43.57881" lon="1.35937">
        <ele>156</ele>
        <time>2021-09-19T10:09:40Z</time>
      </trkpt>
      <trkpt lat="43.57879" lon="1.35941">
        <ele>156</ele>
        <time>2021-09-19T10:09:41Z</time>
      </trkpt>
      <trkpt lat="43.57876" lon="1.35945">
        <ele>156</ele>
        <time>2021-09-19T10:09:42Z</time>
      </trkpt>
      <trkpt lat="43.57873" lon="1.3595">
        <ele>156</ele>
        <time>2021-09-19T10:09:43Z</time>
      </trkpt>
      <trkpt lat="43.5787" lon="1.35954">
        <ele>156</ele>
        <time>2021-09-19T10:09:44Z</time>
      </trkpt>
      <trkpt lat="43.57867" lon="1.35959">
        <ele>156</ele>
        <time>2021-09-19T10:09:45Z</time>
      </trkpt>
      <trkpt lat="43.57864" lon="1.35963">
        <ele>157</ele>
        <time>2021-09-19T10:09:46Z</time>
      </trkpt>
      <trkpt lat="43.57861" lon="1.35968">
        <ele>157</ele>
        <time>2021-09-19T10:09:47Z</time>
      </trkpt>
      <trkpt lat="43.57858" lon="1.35973">
        <ele>156</ele>
        <time>2021-09-19T10:09:48Z</time>
      </trkpt>
      <trkpt lat="43.57855" lon="1.35977">
        <ele>156</ele>
        <time>2021-09-19T10:09:49Z</time>
      </trkpt>
      <trkpt lat="43.57853" lon="1.35982">
        <ele>156</ele>
        <time>2021-09-19T10:09:50Z</time>
      </trkpt>
      <trkpt lat="43.5785" lon="1.35987">
        <ele>156</ele>
        <time>2021-09-19T10:09:51Z</time>
      </trkpt>
      <trkpt lat="43.57847" lon="1.35992">
        <ele>156</ele>
        <time>2021-09-19T10:09:52Z</time>
      </trkpt>
      <trkpt lat="43.57845" lon="1.35996">
        <ele>156</ele>
        <time>2021-09-19T10:09:53Z</time>
      </trkpt>
      <trkpt lat="43.57844" lon="1.35999">
        <ele>156</ele>
        <time>2021-09-19T10:09:54Z</time>
      </trkpt>
      <trkpt lat="43.57841" lon="1.36002">
        <ele>157</ele>
        <time>2021-09-19T10:09:56Z</time>
      </trkpt>
      <trkpt lat="43.57838" lon="1.36001">
        <ele>157</ele>
        <time>2021-09-19T10:09:58Z</time>
      </trkpt>
      <trkpt lat="43.57837" lon="1.35997">
        <ele>157</ele>
        <time>2021-09-19T10:10:00Z</time>
      </trkpt>
      <trkpt lat="43.57837" lon="1.35994">
        <ele>158</ele>
        <time>2021-09-19T10:10:01Z</time>
      </trkpt>
      <trkpt lat="43.57836" lon="1.35991">
        <ele>158</ele>
        <time>2021-09-19T10:10:02Z</time>
      </trkpt>
      <trkpt lat="43.57836" lon="1.35988">
        <ele>158</ele>
        <time>2021-09-19T10:10:03Z</time>
      </trkpt>
      <trkpt lat="43.57835" lon="1.35985">
        <ele>158</ele>
        <time>2021-09-19T10:10:04Z</time>
      </trkpt>
      <trkpt lat="43.57835" lon="1.35982">
        <ele>158</ele>
        <time>2021-09-19T10:10:05Z</time>
      </trkpt>
      <trkpt lat="43.57834" lon="1.35978">
        <ele>158</ele>
        <time>2021-09-19T10:10:06Z</time>
      </trkpt>
      <trkpt lat="43.57832" lon="1.35976">
        <ele>158</ele>
        <time>2021-09-19T10:10:07Z</time>
      </trkpt>
      <trkpt lat="43.57831" lon="1.35973">
        <ele>158</ele>
        <time>2021-09-19T10:10:08Z</time>
      </trkpt>
      <trkpt lat="43.57829" lon="1.35971">
        <ele>158</ele>
        <time>2021-09-19T10:10:09Z</time>
      </trkpt>
      <trkpt lat="43.57828" lon="1.35968">
        <ele>158</ele>
        <time>2021-09-19T10:10:10Z</time>
      </trkpt>
      <trkpt lat="43.57825" lon="1.35965">
        <ele>158</ele>
        <time>2021-09-19T10:10:11Z</time>
      </trkpt>
      <trkpt lat="43.57823" lon="1.35962">
        <ele>158</ele>
        <time>2021-09-19T10:10:12Z</time>
      </trkpt>
      <trkpt lat="43.5782" lon="1.35958">
        <ele>158</ele>
        <time>2021-09-19T10:10:13Z</time>
      </trkpt>
      <trkpt lat="43.57817" lon="1.35956">
        <ele>158</ele>
        <time>2021-09-19T10:10:14Z</time>
      </trkpt>
      <trkpt lat="43.57813" lon="1.35953">
        <ele>158</ele>
        <time>2021-09-19T10:10:15Z</time>
      </trkpt>
      <trkpt lat="43.5781" lon="1.3595">
        <ele>158</ele>
        <time>2021-09-19T10:10:16Z</time>
      </trkpt>
      <trkpt lat="43.57806" lon="1.35947">
        <ele>158</ele>
        <time>2021-09-19T10:10:17Z</time>
      </trkpt>
      <trkpt lat="43.57802" lon="1.35944">
        <ele>158</ele>
        <time>2021-09-19T10:10:18Z</time>
      </trkpt>
      <trkpt lat="43.57798" lon="1.35942">
        <ele>158</ele>
        <time>2021-09-19T10:10:19Z</time>
      </trkpt>
      <trkpt lat="43.57794" lon="1.35939">
        <ele>158</ele>
        <time>2021-09-19T10:10:20Z</time>
      </trkpt>
      <trkpt lat="43.5779" lon="1.35936">
        <ele>158</ele>
        <time>2021-09-19T10:10:21Z</time>
      </trkpt>
      <trkpt lat="43.57786" lon="1.35932">
        <ele>158</ele>
        <time>2021-09-19T10:10:22Z</time>
      </trkpt>
      <trkpt lat="43.57782" lon="1.35929">
        <ele>158</ele>
        <time>2021-09-19T10:10:23Z</time>
      </trkpt>
      <trkpt lat="43.57779" lon="1.35925">
        <ele>158</ele>
        <time>2021-09-19T10:10:24Z</time>
      </trkpt>
      <trkpt lat="43.57775" lon="1.35922">
        <ele>158</ele>
        <time>2021-09-19T10:10:25Z</time>
      </trkpt>
      <trkpt lat="43.57771" lon="1.35919">
        <ele>158</ele>
        <time>2021-09-19T10:10:26Z</time>
      </trkpt>
      <trkpt lat="43.57767" lon="1.35916">
        <ele>158</ele>
        <time>2021-09-19T10:10:27Z</time>
      </trkpt>
      <trkpt lat="43.57763" lon="1.35913">
        <ele>158</ele>
        <time>2021-09-19T10:10:28Z</time>
      </trkpt>
      <trkpt lat="43.57759" lon="1.3591">
        <ele>158</ele>
        <time>2021-09-19T10:10:29Z</time>
      </trkpt>
      <trkpt lat="43.57755" lon="1.35907">
        <ele>158</ele>
        <time>2021-09-19T10:10:30Z</time>
      </trkpt>
      <trkpt lat="43.57751" lon="1.35904">
        <ele>158</ele>
        <time>2021-09-19T10:10:31Z</time>
      </trkpt>
      <trkpt lat="43.57747" lon="1.35901">
        <ele>158</ele>
        <time>2021-09-19T10:10:32Z</time>
      </trkpt>
      <trkpt lat="43.57743" lon="1.35899">
        <ele>158</ele>
        <time>2021-09-19T10:10:33Z</time>
      </trkpt>
      <trkpt lat="43.57739" lon="1.35896">
        <ele>158</ele>
        <time>2021-09-19T10:10:34Z</time>
      </trkpt>
      <trkpt lat="43.57736" lon="1.35893">
        <ele>158</ele>
        <time>2021-09-19T10:10:35Z</time>
      </trkpt>
      <trkpt lat="43.57732" lon="1.3589">
        <ele>158</ele>
        <time>2021-09-19T10:10:36Z</time>
      </trkpt>
      <trkpt lat="43.57728" lon="1.35887">
        <ele>158</ele>
        <time>2021-09-19T10:10:37Z</time>
      </trkpt>
      <trkpt lat="43.57724" lon="1.35885">
        <ele>158</ele>
        <time>2021-09-19T10:10:38Z</time>
      </trkpt>
      <trkpt lat="43.57721" lon="1.35882">
        <ele>158</ele>
        <time>2021-09-19T10:10:39Z</time>
      </trkpt>
      <trkpt lat="43.57717" lon="1.35879">
        <ele>159</ele>
        <time>2021-09-19T10:10:40Z</time>
      </trkpt>
      <trkpt lat="43.57714" lon="1.35877">
        <ele>159</ele>
        <time>2021-09-19T10:10:41Z</time>
      </trkpt>
      <trkpt lat="43.5771" lon="1.35874">
        <ele>158</ele>
        <time>2021-09-19T10:10:42Z</time>
      </trkpt>
      <trkpt lat="43.57706" lon="1.35871">
        <ele>158</ele>
        <time>2021-09-19T10:10:43Z</time>
      </trkpt>
      <trkpt lat="43.57703" lon="1.35868">
        <ele>158</ele>
        <time>2021-09-19T10:10:44Z</time>
      </trkpt>
      <trkpt lat="43.57699" lon="1.35865">
        <ele>158</ele>
        <time>2021-09-19T10:10:45Z</time>
      </trkpt>
      <trkpt lat="43.57695" lon="1.35862">
        <ele>158</ele>
        <time>2021-09-19T10:10:46Z</time>
      </trkpt>
      <trkpt lat="43.57691" lon="1.35859">
        <ele>158</ele>
        <time>2021-09-19T10:10:47Z</time>
      </trkpt>
      <trkpt lat="43.57688" lon="1.35856">
        <ele>158</ele>
        <time>2021-09-19T10:10:48Z</time>
      </trkpt>
      <trkpt lat="43.57684" lon="1.35853">
        <ele>158</ele>
        <time>2021-09-19T10:10:49Z</time>
      </trkpt>
      <trkpt lat="43.5768" lon="1.3585">
        <ele>158</ele>
        <time>2021-09-19T10:10:50Z</time>
      </trkpt>
      <trkpt lat="43.57677" lon="1.35847">
        <ele>158</ele>
        <time>2021-09-19T10:10:51Z</time>
      </trkpt>
      <trkpt lat="43.57673" lon="1.35844">
        <ele>158</ele>
        <time>2021-09-19T10:10:52Z</time>
      </trkpt>
      <trkpt lat="43.57669" lon="1.35842">
        <ele>158</ele>
        <time>2021-09-19T10:10:53Z</time>
      </trkpt>
      <trkpt lat="43.57665" lon="1.3584">
        <ele>158</ele>
        <time>2021-09-19T10:10:54Z</time>
      </trkpt>
      <trkpt lat="43.57662" lon="1.35837">
        <ele>158</ele>
        <time>2021-09-19T10:10:55Z</time>
      </trkpt>
      <trkpt lat="43.57658" lon="1.35834">
        <ele>158</ele>
        <time>2021-09-19T10:10:56Z</time>
      </trkpt>
      <trkpt lat="43.57654" lon="1.35832">
        <ele>158</ele>
        <time>2021-09-19T10:10:57Z</time>
      </trkpt>
      <trkpt lat="43.5765" lon="1.35829">
        <ele>158</ele>
        <time>2021-09-19T10:10:58Z</time>
      </trkpt>
      <trkpt lat="43.57647" lon="1.35826">
        <ele>158</ele>
        <time>2021-09-19T10:10:59Z</time>
      </trkpt>
      <trkpt lat="43.57643" lon="1.35824">
        <ele>159</ele>
        <time>2021-09-19T10:11:00Z</time>
      </trkpt>
      <trkpt lat="43.5764" lon="1.35821">
        <ele>159</ele>
        <time>2021-09-19T10:11:01Z</time>
      </trkpt>
      <trkpt lat="43.57636" lon="1.35818">
        <ele>159</ele>
        <time>2021-09-19T10:11:02Z</time>
      </trkpt>
      <trkpt lat="43.57632" lon="1.35815">
        <ele>159</ele>
        <time>2021-09-19T10:11:03Z</time>
      </trkpt>
      <trkpt lat="43.57629" lon="1.35811">
        <ele>159</ele>
        <time>2021-09-19T10:11:04Z</time>
      </trkpt>
      <trkpt lat="43.57625" lon="1.35808">
        <ele>159</ele>
        <time>2021-09-19T10:11:05Z</time>
      </trkpt>
      <trkpt lat="43.57621" lon="1.35805">
        <ele>159</ele>
        <time>2021-09-19T10:11:06Z</time>
      </trkpt>
      <trkpt lat="43.57617" lon="1.35802">
        <ele>159</ele>
        <time>2021-09-19T10:11:07Z</time>
      </trkpt>
      <trkpt lat="43.57613" lon="1.35799">
        <ele>159</ele>
        <time>2021-09-19T10:11:08Z</time>
      </trkpt>
      <trkpt lat="43.57609" lon="1.35796">
        <ele>159</ele>
        <time>2021-09-19T10:11:09Z</time>
      </trkpt>
      <trkpt lat="43.57605" lon="1.35793">
        <ele>159</ele>
        <time>2021-09-19T10:11:10Z</time>
      </trkpt>
      <trkpt lat="43.57601" lon="1.35791">
        <ele>159</ele>
        <time>2021-09-19T10:11:11Z</time>
      </trkpt>
      <trkpt lat="43.57598" lon="1.35788">
        <ele>159</ele>
        <time>2021-09-19T10:11:12Z</time>
      </trkpt>
      <trkpt lat="43.57594" lon="1.35785">
        <ele>158</ele>
        <time>2021-09-19T10:11:13Z</time>
      </trkpt>
      <trkpt lat="43.57591" lon="1.35782">
        <ele>158</ele>
        <time>2021-09-19T10:11:14Z</time>
      </trkpt>
      <trkpt lat="43.57587" lon="1.3578">
        <ele>158</ele>
        <time>2021-09-19T10:11:15Z</time>
      </trkpt>
      <trkpt lat="43.57584" lon="1.35777">
        <ele>158</ele>
        <time>2021-09-19T10:11:16Z</time>
      </trkpt>
      <trkpt lat="43.5758" lon="1.35775">
        <ele>158</ele>
        <time>2021-09-19T10:11:17Z</time>
      </trkpt>
      <trkpt lat="43.57577" lon="1.35772">
        <ele>158</ele>
        <time>2021-09-19T10:11:18Z</time>
      </trkpt>
      <trkpt lat="43.57574" lon="1.35769">
        <ele>158</ele>
        <time>2021-09-19T10:11:19Z</time>
      </trkpt>
      <trkpt lat="43.5757" lon="1.35767">
        <ele>158</ele>
        <time>2021-09-19T10:11:20Z</time>
      </trkpt>
      <trkpt lat="43.57567" lon="1.35764">
        <ele>158</ele>
        <time>2021-09-19T10:11:21Z</time>
      </trkpt>
      <trkpt lat="43.57564" lon="1.35762">
        <ele>158</ele>
        <time>2021-09-19T10:11:22Z</time>
      </trkpt>
      <trkpt lat="43.57561" lon="1.3576">
        <ele>158</ele>
        <time>2021-09-19T10:11:23Z</time>
      </trkpt>
      <trkpt lat="43.57558" lon="1.35758">
        <ele>158</ele>
        <time>2021-09-19T10:11:24Z</time>
      </trkpt>
      <trkpt lat="43.57555" lon="1.35756">
        <ele>158</ele>
        <time>2021-09-19T10:11:25Z</time>
      </trkpt>
      <trkpt lat="43.57553" lon="1.35753">
        <ele>158</ele>
        <time>2021-09-19T10:11:26Z</time>
      </trkpt>
      <trkpt lat="43.57551" lon="1.35751">
        <ele>158</ele>
        <time>2021-09-19T10:11:27Z</time>
      </trkpt>
      <trkpt lat="43.5755" lon="1.35747">
        <ele>158</ele>
        <time>2021-09-19T10:11:28Z</time>
      </trkpt>
      <trkpt lat="43.57549" lon="1.35743">
        <ele>158</ele>
        <time>2021-09-19T10:11:29Z</time>
      </trkpt>
      <trkpt lat="43.5755" lon="1.35739">
        <ele>158</ele>
        <time>2021-09-19T10:11:30Z</time>
      </trkpt>
      <trkpt lat="43.5755" lon="1.35736">
        <ele>158</ele>
        <time>2021-09-19T10:11:31Z</time>
      </trkpt>
      <trkpt lat="43.57552" lon="1.35732">
        <ele>158</ele>
        <time>2021-09-19T10:11:32Z</time>
      </trkpt>
      <trkpt lat="43.57554" lon="1.3573">
        <ele>158</ele>
        <time>2021-09-19T10:11:33Z</time>
      </trkpt>
      <trkpt lat="43.57558" lon="1.35729">
        <ele>158</ele>
        <time>2021-09-19T10:11:34Z</time>
      </trkpt>
      <trkpt lat="43.57561" lon="1.35728">
        <ele>158</ele>
        <time>2021-09-19T10:11:35Z</time>
      </trkpt>
      <trkpt lat="43.57563" lon="1.35726">
        <ele>158</ele>
        <time>2021-09-19T10:11:36Z</time>
      </trkpt>
      <trkpt lat="43.57566" lon="1.35722">
        <ele>158</ele>
        <time>2021-09-19T10:11:37Z</time>
      </trkpt>
      <trkpt lat="43.57567" lon="1.35718">
        <ele>159</ele>
        <time>2021-09-19T10:11:38Z</time>
      </trkpt>
      <trkpt lat="43.57567" lon="1.35714">
        <ele>159</ele>
        <time>2021-09-19T10:11:39Z</time>
      </trkpt>
      <trkpt lat="43.57565" lon="1.3571">
        <ele>160</ele>
        <time>2021-09-19T10:11:40Z</time>
      </trkpt>
      <trkpt lat="43.57563" lon="1.35708">
        <ele>160</ele>
        <time>2021-09-19T10:11:41Z</time>
      </trkpt>
      <trkpt lat="43.5756" lon="1.35706">
        <ele>160</ele>
        <time>2021-09-19T10:11:42Z</time>
      </trkpt>
      <trkpt lat="43.57559" lon="1.35704">
        <ele>160</ele>
        <time>2021-09-19T10:11:43Z</time>
      </trkpt>
      <trkpt lat="43.57558" lon="1.357">
        <ele>160</ele>
        <time>2021-09-19T10:11:44Z</time>
      </trkpt>
      <trkpt lat="43.57559" lon="1.35697">
        <ele>160</ele>
        <time>2021-09-19T10:11:45Z</time>
      </trkpt>
      <trkpt lat="43.57561" lon="1.35694">
        <ele>159</ele>
        <time>2021-09-19T10:11:46Z</time>
      </trkpt>
      <trkpt lat="43.57563" lon="1.3569">
        <ele>159</ele>
        <time>2021-09-19T10:11:47Z</time>
      </trkpt>
      <trkpt lat="43.57565" lon="1.35686">
        <ele>159</ele>
        <time>2021-09-19T10:11:48Z</time>
      </trkpt>
      <trkpt lat="43.57566" lon="1.35681">
        <ele>159</ele>
        <time>2021-09-19T10:11:49Z</time>
      </trkpt>
      <trkpt lat="43.57567" lon="1.35676">
        <ele>159</ele>
        <time>2021-09-19T10:11:50Z</time>
      </trkpt>
      <trkpt lat="43.57567" lon="1.35671">
        <ele>160</ele>
        <time>2021-09-19T10:11:51Z</time>
      </trkpt>
      <trkpt lat="43.57567" lon="1.35666">
        <ele>160</ele>
        <time>2021-09-19T10:11:52Z</time>
      </trkpt>
      <trkpt lat="43.57567" lon="1.35661">
        <ele>159</ele>
        <time>2021-09-19T10:11:53Z</time>
      </trkpt>
      <trkpt lat="43.57567" lon="1.35656">
        <ele>159</ele>
        <time>2021-09-19T10:11:54Z</time>
      </trkpt>
      <trkpt lat="43.57567" lon="1.35651">
        <ele>159</ele>
        <time>2021-09-19T10:11:55Z</time>
      </trkpt>
      <trkpt lat="43.57566" lon="1.35646">
        <ele>159</ele>
        <time>2021-09-19T10:11:56Z</time>
      </trkpt>
      <trkpt lat="43.57566" lon="1.3564">
        <ele>159</ele>
        <time>2021-09-19T10:11:57Z</time>
      </trkpt>
      <trkpt lat="43.57566" lon="1.35635">
        <ele>159</ele>
        <time>2021-09-19T10:11:58Z</time>
      </trkpt>
      <trkpt lat="43.57565" lon="1.3563">
        <ele>159</ele>
        <time>2021-09-19T10:11:59Z</time>
      </trkpt>
      <trkpt lat="43.57565" lon="1.35625">
        <ele>160</ele>
        <time>2021-09-19T10:12:00Z</time>
      </trkpt>
      <trkpt lat="43.57564" lon="1.3562">
        <ele>160</ele>
        <time>2021-09-19T10:12:01Z</time>
      </trkpt>
      <trkpt lat="43.57564" lon="1.35614">
        <ele>160</ele>
        <time>2021-09-19T10:12:02Z</time>
      </trkpt>
      <trkpt lat="43.57563" lon="1.35609">
        <ele>160</ele>
        <time>2021-09-19T10:12:03Z</time>
      </trkpt>
      <trkpt lat="43.57563" lon="1.35604">
        <ele>160</ele>
        <time>2021-09-19T10:12:04Z</time>
      </trkpt>
      <trkpt lat="43.57564" lon="1.35599">
        <ele>160</ele>
        <time>2021-09-19T10:12:05Z</time>
      </trkpt>
      <trkpt lat="43.57564" lon="1.35594">
        <ele>160</ele>
        <time>2021-09-19T10:12:06Z</time>
      </trkpt>
      <trkpt lat="43.57564" lon="1.35589">
        <ele>160</ele>
        <time>2021-09-19T10:12:07Z</time>
      </trkpt>
      <trkpt lat="43.57563" lon="1.35584">
        <ele>160</ele>
        <time>2021-09-19T10:12:08Z</time>
      </trkpt>
      <trkpt lat="43.57563" lon="1.35579">
        <ele>160</ele>
        <time>2021-09-19T10:12:09Z</time>
      </trkpt>
      <trkpt lat="43.57563" lon="1.35574">
        <ele>160</ele>
        <time>2021-09-19T10:12:10Z</time>
      </trkpt>
      <trkpt lat="43.57562" lon="1.35569">
        <ele>160</ele>
        <time>2021-09-19T10:12:11Z</time>
      </trkpt>
      <trkpt lat="43.57562" lon="1.35564">
        <ele>160</ele>
        <time>2021-09-19T10:12:12Z</time>
      </trkpt>
      <trkpt lat="43.57563" lon="1.35558">
        <ele>160</ele>
        <time>2021-09-19T10:12:13Z</time>
      </trkpt>
      <trkpt lat="43.57563" lon="1.35553">
        <ele>160</ele>
        <time>2021-09-19T10:12:14Z</time>
      </trkpt>
      <trkpt lat="43.57563" lon="1.35548">
        <ele>159</ele>
        <time>2021-09-19T10:12:15Z</time>
      </trkpt>
      <trkpt lat="43.57563" lon="1.35542">
        <ele>159</ele>
        <time>2021-09-19T10:12:16Z</time>
      </trkpt>
      <trkpt lat="43.57563" lon="1.35537">
        <ele>160</ele>
        <time>2021-09-19T10:12:17Z</time>
      </trkpt>
      <trkpt lat="43.57563" lon="1.35532">
        <ele>160</ele>
        <time>2021-09-19T10:12:18Z</time>
      </trkpt>
      <trkpt lat="43.57563" lon="1.35527">
        <ele>160</ele>
        <time>2021-09-19T10:12:19Z</time>
      </trkpt>
      <trkpt lat="43.57563" lon="1.35521">
        <ele>159</ele>
        <time>2021-09-19T10:12:20Z</time>
      </trkpt>
      <trkpt lat="43.57563" lon="1.35516">
        <ele>159</ele>
        <time>2021-09-19T10:12:21Z</time>
      </trkpt>
      <trkpt lat="43.57562" lon="1.35511">
        <ele>159</ele>
        <time>2021-09-19T10:12:22Z</time>
      </trkpt>
      <trkpt lat="43.57562" lon="1.35505">
        <ele>159</ele>
        <time>2021-09-19T10:12:23Z</time>
      </trkpt>
      <trkpt lat="43.57561" lon="1.355">
        <ele>159</ele>
        <time>2021-09-19T10:12:24Z</time>
      </trkpt>
      <trkpt lat="43.57561" lon="1.35494">
        <ele>159</ele>
        <time>2021-09-19T10:12:25Z</time>
      </trkpt>
      <trkpt lat="43.57561" lon="1.35489">
        <ele>159</ele>
        <time>2021-09-19T10:12:26Z</time>
      </trkpt>
      <trkpt lat="43.57562" lon="1.35483">
        <ele>159</ele>
        <time>2021-09-19T10:12:27Z</time>
      </trkpt>
      <trkpt lat="43.57562" lon="1.35478">
        <ele>160</ele>
        <time>2021-09-19T10:12:28Z</time>
      </trkpt>
      <trkpt lat="43.57562" lon="1.35472">
        <ele>160</ele>
        <time>2021-09-19T10:12:29Z</time>
      </trkpt>
      <trkpt lat="43.57562" lon="1.35467">
        <ele>160</ele>
        <time>2021-09-19T10:12:30Z</time>
      </trkpt>
      <trkpt lat="43.57562" lon="1.35462">
        <ele>160</ele>
        <time>2021-09-19T10:12:31Z</time>
      </trkpt>
      <trkpt lat="43.57562" lon="1.35456">
        <ele>160</ele>
        <time>2021-09-19T10:12:32Z</time>
      </trkpt>
      <trkpt lat="43.57562" lon="1.35451">
        <ele>160</ele>
        <time>2021-09-19T10:12:33Z</time>
      </trkpt>
      <trkpt lat="43.57562" lon="1.35446">
        <ele>160</ele>
        <time>2021-09-19T10:12:34Z</time>
      </trkpt>
      <trkpt lat="43.57562" lon="1.35441">
        <ele>160</ele>
        <time>2021-09-19T10:12:35Z</time>
      </trkpt>
      <trkpt lat="43.57562" lon="1.35435">
        <ele>160</ele>
        <time>2021-09-19T10:12:36Z</time>
      </trkpt>
      <trkpt lat="43.57561" lon="1.3543">
        <ele>160</ele>
        <time>2021-09-19T10:12:37Z</time>
      </trkpt>
      <trkpt lat="43.57561" lon="1.35424">
        <ele>160</ele>
        <time>2021-09-19T10:12:38Z</time>
      </trkpt>
      <trkpt lat="43.57561" lon="1.35419">
        <ele>160</ele>
        <time>2021-09-19T10:12:39Z</time>
      </trkpt>
      <trkpt lat="43.57562" lon="1.35413">
        <ele>160</ele>
        <time>2021-09-19T10:12:40Z</time>
      </trkpt>
      <trkpt lat="43.57562" lon="1.35408">
        <ele>160</ele>
        <time>2021-09-19T10:12:41Z</time>
      </trkpt>
      <trkpt lat="43.57562" lon="1.35403">
        <ele>159</ele>
        <time>2021-09-19T10:12:42Z</time>
      </trkpt>
      <trkpt lat="43.57562" lon="1.35397">
        <ele>160</ele>
        <time>2021-09-19T10:12:43Z</time>
      </trkpt>
      <trkpt lat="43.57562" lon="1.35391">
        <ele>160</ele>
        <time>2021-09-19T10:12:44Z</time>
      </trkpt>
      <trkpt lat="43.57562" lon="1.35386">
        <ele>160</ele>
        <time>2021-09-19T10:12:45Z</time>
      </trkpt>
      <trkpt lat="43.57562" lon="1.3538">
        <ele>160</ele>
        <time>2021-09-19T10:12:46Z</time>
      </trkpt>
      <trkpt lat="43.57561" lon="1.35374">
        <ele>159</ele>
        <time>2021-09-19T10:12:47Z</time>
      </trkpt>
      <trkpt lat="43.57561" lon="1.35369">
        <ele>159</ele>
        <time>2021-09-19T10:12:48Z</time>
      </trkpt>
      <trkpt lat="43.57561" lon="1.35363">
        <ele>159</ele>
        <time>2021-09-19T10:12:49Z</time>
      </trkpt>
      <trkpt lat="43.5756" lon="1.35357">
        <ele>159</ele>
        <time>2021-09-19T10:12:50Z</time>
      </trkpt>
      <trkpt lat="43.5756" lon="1.35351">
        <ele>159</ele>
        <time>2021-09-19T10:12:51Z</time>
      </trkpt>
      <trkpt lat="43.5756" lon="1.35346">
        <ele>159</ele>
        <time>2021-09-19T10:12:52Z</time>
      </trkpt>
      <trkpt lat="43.57559" lon="1.3534">
        <ele>159</ele>
        <time>2021-09-19T10:12:53Z</time>
      </trkpt>
      <trkpt lat="43.57559" lon="1.35334">
        <ele>159</ele>
        <time>2021-09-19T10:12:54Z</time>
      </trkpt>
      <trkpt lat="43.57558" lon="1.35328">
        <ele>159</ele>
        <time>2021-09-19T10:12:55Z</time>
      </trkpt>
      <trkpt lat="43.57558" lon="1.35322">
        <ele>159</ele>
        <time>2021-09-19T10:12:56Z</time>
      </trkpt>
      <trkpt lat="43.57558" lon="1.35317">
        <ele>159</ele>
        <time>2021-09-19T10:12:57Z</time>
      </trkpt>
      <trkpt lat="43.57557" lon="1.3531">
        <ele>159</ele>
        <time>2021-09-19T10:12:58Z</time>
      </trkpt>
      <trkpt lat="43.57556" lon="1.35304">
        <ele>159</ele>
        <time>2021-09-19T10:12:59Z</time>
      </trkpt>
      <trkpt lat="43.57556" lon="1.35298">
        <ele>159</ele>
        <time>2021-09-19T10:13:00Z</time>
      </trkpt>
      <trkpt lat="43.57555" lon="1.35292">
        <ele>159</ele>
        <time>2021-09-19T10:13:01Z</time>
      </trkpt>
      <trkpt lat="43.57554" lon="1.35286">
        <ele>159</ele>
        <time>2021-09-19T10:13:02Z</time>
      </trkpt>
      <trkpt lat="43.57554" lon="1.3528">
        <ele>159</ele>
        <time>2021-09-19T10:13:03Z</time>
      </trkpt>
      <trkpt lat="43.57553" lon="1.35274">
        <ele>159</ele>
        <time>2021-09-19T10:13:04Z</time>
      </trkpt>
      <trkpt lat="43.57552" lon="1.35268">
        <ele>160</ele>
        <time>2021-09-19T10:13:05Z</time>
      </trkpt>
      <trkpt lat="43.57551" lon="1.35262">
        <ele>160</ele>
        <time>2021-09-19T10:13:06Z</time>
      </trkpt>
      <trkpt lat="43.57549" lon="1.35257">
        <ele>160</ele>
        <time>2021-09-19T10:13:07Z</time>
      </trkpt>
      <trkpt lat="43.57548" lon="1.35251">
        <ele>160</ele>
        <time>2021-09-19T10:13:08Z</time>
      </trkpt>
      <trkpt lat="43.57546" lon="1.35246">
        <ele>160</ele>
        <time>2021-09-19T10:13:09Z</time>
      </trkpt>
      <trkpt lat="43.57544" lon="1.3524">
        <ele>160</ele>
        <time>2021-09-19T10:13:10Z</time>
      </trkpt>
      <trkpt lat="43.57542" lon="1.35235">
        <ele>159</ele>
        <time>2021-09-19T10:13:11Z</time>
      </trkpt>
      <trkpt lat="43.5754" lon="1.3523">
        <ele>159</ele>
        <time>2021-09-19T10:13:12Z</time>
      </trkpt>
      <trkpt lat="43.57537" lon="1.35225">
        <ele>160</ele>
        <time>2021-09-19T10:13:13Z</time>
      </trkpt>
      <trkpt lat="43.57534" lon="1.35221">
        <ele>160</ele>
        <time>2021-09-19T10:13:14Z</time>
      </trkpt>
      <trkpt lat="43.57532" lon="1.35216">
        <ele>160</ele>
        <time>2021-09-19T10:13:15Z</time>
      </trkpt>
      <trkpt lat="43.57529" lon="1.35212">
        <ele>160</ele>
        <time>2021-09-19T10:13:16Z</time>
      </trkpt>
      <trkpt lat="43.57526" lon="1.35207">
        <ele>160</ele>
        <time>2021-09-19T10:13:17Z</time>
      </trkpt>
      <trkpt lat="43.57523" lon="1.35204">
        <ele>160</ele>
        <time>2021-09-19T10:13:18Z</time>
      </trkpt>
      <trkpt lat="43.5752" lon="1.352">
        <ele>160</ele>
        <time>2021-09-19T10:13:19Z</time>
      </trkpt>
      <trkpt lat="43.57517" lon="1.35195">
        <ele>160</ele>
        <time>2021-09-19T10:13:20Z</time>
      </trkpt>
      <trkpt lat="43.57514" lon="1.35191">
        <ele>160</ele>
        <time>2021-09-19T10:13:21Z</time>
      </trkpt>
      <trkpt lat="43.57511" lon="1.35187">
        <ele>160</ele>
        <time>2021-09-19T10:13:22Z</time>
      </trkpt>
      <trkpt lat="43.57508" lon="1.35183">
        <ele>160</ele>
        <time>2021-09-19T10:13:23Z</time>
      </trkpt>
      <trkpt lat="43.57504" lon="1.3518">
        <ele>160</ele>
        <time>2021-09-19T10:13:24Z</time>
      </trkpt>
      <trkpt lat="43.57501" lon="1.35176">
        <ele>160</ele>
        <time>2021-09-19T10:13:25Z</time>
      </trkpt>
      <trkpt lat="43.57497" lon="1.35173">
        <ele>160</ele>
        <time>2021-09-19T10:13:26Z</time>
      </trkpt>
      <trkpt lat="43.57494" lon="1.3517">
        <ele>160</ele>
        <time>2021-09-19T10:13:27Z</time>
      </trkpt>
      <trkpt lat="43.5749" lon="1.35167">
        <ele>160</ele>
        <time>2021-09-19T10:13:28Z</time>
      </trkpt>
      <trkpt lat="43.57486" lon="1.35164">
        <ele>160</ele>
        <time>2021-09-19T10:13:29Z</time>
      </trkpt>
      <trkpt lat="43.57482" lon="1.35161">
        <ele>160</ele>
        <time>2021-09-19T10:13:30Z</time>
      </trkpt>
      <trkpt lat="43.57479" lon="1.35158">
        <ele>160</ele>
        <time>2021-09-19T10:13:31Z</time>
      </trkpt>
      <trkpt lat="43.57475" lon="1.35155">
        <ele>160</ele>
        <time>2021-09-19T10:13:32Z</time>
      </trkpt>
      <trkpt lat="43.57471" lon="1.35153">
        <ele>160</ele>
        <time>2021-09-19T10:13:33Z</time>
      </trkpt>
      <trkpt lat="43.57467" lon="1.35151">
        <ele>160</ele>
        <time>2021-09-19T10:13:34Z</time>
      </trkpt>
      <trkpt lat="43.57463" lon="1.35149">
        <ele>160</ele>
        <time>2021-09-19T10:13:35Z</time>
      </trkpt>
      <trkpt lat="43.57459" lon="1.35148">
        <ele>160</ele>
        <time>2021-09-19T10:13:36Z</time>
      </trkpt>
      <trkpt lat="43.57455" lon="1.35146">
        <ele>160</ele>
        <time>2021-09-19T10:13:37Z</time>
      </trkpt>
      <trkpt lat="43.57451" lon="1.35145">
        <ele>160</ele>
        <time>2021-09-19T10:13:38Z</time>
      </trkpt>
      <trkpt lat="43.57447" lon="1.35143">
        <ele>160</ele>
        <time>2021-09-19T10:13:39Z</time>
      </trkpt>
      <trkpt lat="43.57443" lon="1.35142">
        <ele>160</ele>
        <time>2021-09-19T10:13:40Z</time>
      </trkpt>
      <trkpt lat="43.57438" lon="1.35141">
        <ele>160</ele>
        <time>2021-09-19T10:13:41Z</time>
      </trkpt>
      <trkpt lat="43.57434" lon="1.35141">
        <ele>160</ele>
        <time>2021-09-19T10:13:42Z</time>
      </trkpt>
      <trkpt lat="43.5743" lon="1.3514">
        <ele>160</ele>
        <time>2021-09-19T10:13:43Z</time>
      </trkpt>
      <trkpt lat="43.57426" lon="1.3514">
        <ele>160</ele>
        <time>2021-09-19T10:13:44Z</time>
      </trkpt>
      <trkpt lat="43.57422" lon="1.35139">
        <ele>160</ele>
        <time>2021-09-19T10:13:45Z</time>
      </trkpt>
      <trkpt lat="43.57417" lon="1.35139">
        <ele>160</ele>
        <time>2021-09-19T10:13:46Z</time>
      </trkpt>
      <trkpt lat="43.57413" lon="1.35139">
        <ele>160</ele>
        <time>2021-09-19T10:13:47Z</time>
      </trkpt>
      <trkpt lat="43.57409" lon="1.35139">
        <ele>160</ele>
        <time>2021-09-19T10:13:48Z</time>
      </trkpt>
      <trkpt lat="43.57405" lon="1.35139">
        <ele>160</ele>
        <time>2021-09-19T10:13:49Z</time>
      </trkpt>
      <trkpt lat="43.57401" lon="1.35139">
        <ele>160</ele>
        <time>2021-09-19T10:13:50Z</time>
      </trkpt>
      <trkpt lat="43.57396" lon="1.35139">
        <ele>160</ele>
        <time>2021-09-19T10:13:51Z</time>
      </trkpt>
      <trkpt lat="43.57392" lon="1.3514">
        <ele>160</ele>
        <time>2021-09-19T10:13:52Z</time>
      </trkpt>
      <trkpt lat="43.57388" lon="1.3514">
        <ele>160</ele>
        <time>2021-09-19T10:13:53Z</time>
      </trkpt>
      <trkpt lat="43.57383" lon="1.35141">
        <ele>160</ele>
        <time>2021-09-19T10:13:54Z</time>
      </trkpt>
      <trkpt lat="43.57379" lon="1.35142">
        <ele>160</ele>
        <time>2021-09-19T10:13:55Z</time>
      </trkpt>
      <trkpt lat="43.57374" lon="1.35142">
        <ele>160</ele>
        <time>2021-09-19T10:13:56Z</time>
      </trkpt>
      <trkpt lat="43.5737" lon="1.35143">
        <ele>160</ele>
        <time>2021-09-19T10:13:57Z</time>
      </trkpt>
      <trkpt lat="43.57365" lon="1.35144">
        <ele>160</ele>
        <time>2021-09-19T10:13:58Z</time>
      </trkpt>
      <trkpt lat="43.57361" lon="1.35145">
        <ele>160</ele>
        <time>2021-09-19T10:13:59Z</time>
      </trkpt>
      <trkpt lat="43.57356" lon="1.35146">
        <ele>160</ele>
        <time>2021-09-19T10:14:00Z</time>
      </trkpt>
      <trkpt lat="43.57352" lon="1.35147">
        <ele>160</ele>
        <time>2021-09-19T10:14:01Z</time>
      </trkpt>
      <trkpt lat="43.57347" lon="1.35148">
        <ele>160</ele>
        <time>2021-09-19T10:14:02Z</time>
      </trkpt>
      <trkpt lat="43.57343" lon="1.35149">
        <ele>160</ele>
        <time>2021-09-19T10:14:03Z</time>
      </trkpt>
      <trkpt lat="43.57338" lon="1.3515">
        <ele>160</ele>
        <time>2021-09-19T10:14:04Z</time>
      </trkpt>
      <trkpt lat="43.57334" lon="1.35151">
        <ele>160</ele>
        <time>2021-09-19T10:14:05Z</time>
      </trkpt>
      <trkpt lat="43.5733" lon="1.35152">
        <ele>160</ele>
        <time>2021-09-19T10:14:06Z</time>
      </trkpt>
      <trkpt lat="43.57326" lon="1.35154">
        <ele>160</ele>
        <time>2021-09-19T10:14:07Z</time>
      </trkpt>
      <trkpt lat="43.57322" lon="1.35155">
        <ele>160</ele>
        <time>2021-09-19T10:14:08Z</time>
      </trkpt>
      <trkpt lat="43.57318" lon="1.35155">
        <ele>160</ele>
        <time>2021-09-19T10:14:09Z</time>
      </trkpt>
      <trkpt lat="43.57314" lon="1.35155">
        <ele>160</ele>
        <time>2021-09-19T10:14:10Z</time>
      </trkpt>
      <trkpt lat="43.5731" lon="1.35155">
        <ele>160</ele>
        <time>2021-09-19T10:14:11Z</time>
      </trkpt>
      <trkpt lat="43.57306" lon="1.35153">
        <ele>160</ele>
        <time>2021-09-19T10:14:12Z</time>
      </trkpt>
      <trkpt lat="43.57302" lon="1.3515">
        <ele>160</ele>
        <time>2021-09-19T10:14:13Z</time>
      </trkpt>
      <trkpt lat="43.57299" lon="1.35147">
        <ele>160</ele>
        <time>2021-09-19T10:14:14Z</time>
      </trkpt>
      <trkpt lat="43.57296" lon="1.35142">
        <ele>160</ele>
        <time>2021-09-19T10:14:15Z</time>
      </trkpt>
      <trkpt lat="43.57293" lon="1.35138">
        <ele>160</ele>
        <time>2021-09-19T10:14:16Z</time>
      </trkpt>
      <trkpt lat="43.57291" lon="1.35133">
        <ele>160</ele>
        <time>2021-09-19T10:14:17Z</time>
      </trkpt>
      <trkpt lat="43.57288" lon="1.35128">
        <ele>160</ele>
        <time>2021-09-19T10:14:18Z</time>
      </trkpt>
      <trkpt lat="43.57285" lon="1.35123">
        <ele>160</ele>
        <time>2021-09-19T10:14:19Z</time>
      </trkpt>
      <trkpt lat="43.57283" lon="1.35117">
        <ele>160</ele>
        <time>2021-09-19T10:14:20Z</time>
      </trkpt>
      <trkpt lat="43.5728" lon="1.35111">
        <ele>160</ele>
        <time>2021-09-19T10:14:21Z</time>
      </trkpt>
      <trkpt lat="43.57277" lon="1.35105">
        <ele>160</ele>
        <time>2021-09-19T10:14:22Z</time>
      </trkpt>
      <trkpt lat="43.57274" lon="1.35098">
        <ele>160</ele>
        <time>2021-09-19T10:14:23Z</time>
      </trkpt>
      <trkpt lat="43.57272" lon="1.35092">
        <ele>160</ele>
        <time>2021-09-19T10:14:24Z</time>
      </trkpt>
      <trkpt lat="43.57269" lon="1.35086">
        <ele>160</ele>
        <time>2021-09-19T10:14:25Z</time>
      </trkpt>
      <trkpt lat="43.57266" lon="1.35081">
        <ele>160</ele>
        <time>2021-09-19T10:14:26Z</time>
      </trkpt>
      <trkpt lat="43.57264" lon="1.35075">
        <ele>160</ele>
        <time>2021-09-19T10:14:27Z</time>
      </trkpt>
      <trkpt lat="43.57261" lon="1.3507">
        <ele>160</ele>
        <time>2021-09-19T10:14:28Z</time>
      </trkpt>
      <trkpt lat="43.57258" lon="1.35065">
        <ele>160</ele>
        <time>2021-09-19T10:14:29Z</time>
      </trkpt>
      <trkpt lat="43.57255" lon="1.3506">
        <ele>160</ele>
        <time>2021-09-19T10:14:30Z</time>
      </trkpt>
      <trkpt lat="43.57252" lon="1.35055">
        <ele>160</ele>
        <time>2021-09-19T10:14:31Z</time>
      </trkpt>
      <trkpt lat="43.57249" lon="1.3505">
        <ele>160</ele>
        <time>2021-09-19T10:14:32Z</time>
      </trkpt>
      <trkpt lat="43.57246" lon="1.35045">
        <ele>160</ele>
        <time>2021-09-19T10:14:33Z</time>
      </trkpt>
      <trkpt lat="43.57243" lon="1.3504">
        <ele>160</ele>
        <time>2021-09-19T10:14:34Z</time>
      </trkpt>
      <trkpt lat="43.57239" lon="1.35035">
        <ele>160</ele>
        <time>2021-09-19T10:14:35Z</time>
      </trkpt>
      <trkpt lat="43.57236" lon="1.3503">
        <ele>160</ele>
        <time>2021-09-19T10:14:36Z</time>
      </trkpt>
      <trkpt lat="43.57232" lon="1.35026">
        <ele>160</ele>
        <time>2021-09-19T10:14:37Z</time>
      </trkpt>
      <trkpt lat="43.57229" lon="1.35022">
        <ele>160</ele>
        <time>2021-09-19T10:14:38Z</time>
      </trkpt>
      <trkpt lat="43.57225" lon="1.35018">
        <ele>160</ele>
        <time>2021-09-19T10:14:39Z</time>
      </trkpt>
      <trkpt lat="43.57221" lon="1.35014">
        <ele>160</ele>
        <time>2021-09-19T10:14:40Z</time>
      </trkpt>
      <trkpt lat="43.57218" lon="1.35011">
        <ele>160</ele>
        <time>2021-09-19T10:14:41Z</time>
      </trkpt>
      <trkpt lat="43.57214" lon="1.35007">
        <ele>160</ele>
        <time>2021-09-19T10:14:42Z</time>
      </trkpt>
      <trkpt lat="43.5721" lon="1.35004">
        <ele>160</ele>
        <time>2021-09-19T10:14:43Z</time>
      </trkpt>
      <trkpt lat="43.57206" lon="1.35001">
        <ele>160</ele>
        <time>2021-09-19T10:14:44Z</time>
      </trkpt>
      <trkpt lat="43.57201" lon="1.34999">
        <ele>160</ele>
        <time>2021-09-19T10:14:45Z</time>
      </trkpt>
      <trkpt lat="43.57197" lon="1.34996">
        <ele>160</ele>
        <time>2021-09-19T10:14:46Z</time>
      </trkpt>
      <trkpt lat="43.57193" lon="1.34994">
        <ele>160</ele>
        <time>2021-09-19T10:14:47Z</time>
      </trkpt>
      <trkpt lat="43.57189" lon="1.34992">
        <ele>160</ele>
        <time>2021-09-19T10:14:48Z</time>
      </trkpt>
      <trkpt lat="43.57185" lon="1.3499">
        <ele>160</ele>
        <time>2021-09-19T10:14:49Z</time>
      </trkpt>
      <trkpt lat="43.57181" lon="1.34987">
        <ele>160</ele>
        <time>2021-09-19T10:14:50Z</time>
      </trkpt>
      <trkpt lat="43.57177" lon="1.34985">
        <ele>161</ele>
        <time>2021-09-19T10:14:51Z</time>
      </trkpt>
      <trkpt lat="43.57173" lon="1.34983">
        <ele>161</ele>
        <time>2021-09-19T10:14:52Z</time>
      </trkpt>
      <trkpt lat="43.57169" lon="1.34981">
        <ele>161</ele>
        <time>2021-09-19T10:14:53Z</time>
      </trkpt>
      <trkpt lat="43.57165" lon="1.34979">
        <ele>161</ele>
        <time>2021-09-19T10:14:54Z</time>
      </trkpt>
      <trkpt lat="43.5716" lon="1.34978">
        <ele>161</ele>
        <time>2021-09-19T10:14:55Z</time>
      </trkpt>
      <trkpt lat="43.57156" lon="1.34976">
        <ele>161</ele>
        <time>2021-09-19T10:14:56Z</time>
      </trkpt>
      <trkpt lat="43.57152" lon="1.34975">
        <ele>161</ele>
        <time>2021-09-19T10:14:57Z</time>
      </trkpt>
      <trkpt lat="43.57148" lon="1.34974">
        <ele>160</ele>
        <time>2021-09-19T10:14:58Z</time>
      </trkpt>
      <trkpt lat="43.57144" lon="1.34973">
        <ele>160</ele>
        <time>2021-09-19T10:14:59Z</time>
      </trkpt>
      <trkpt lat="43.5714" lon="1.34971">
        <ele>160</ele>
        <time>2021-09-19T10:15:00Z</time>
      </trkpt>
      <trkpt lat="43.57136" lon="1.3497">
        <ele>161</ele>
        <time>2021-09-19T10:15:01Z</time>
      </trkpt>
      <trkpt lat="43.57132" lon="1.34969">
        <ele>161</ele>
        <time>2021-09-19T10:15:02Z</time>
      </trkpt>
      <trkpt lat="43.57128" lon="1.34968">
        <ele>161</ele>
        <time>2021-09-19T10:15:03Z</time>
      </trkpt>
      <trkpt lat="43.57123" lon="1.34967">
        <ele>161</ele>
        <time>2021-09-19T10:15:04Z</time>
      </trkpt>
      <trkpt lat="43.57119" lon="1.34966">
        <ele>161</ele>
        <time>2021-09-19T10:15:05Z</time>
      </trkpt>
      <trkpt lat="43.57114" lon="1.34964">
        <ele>161</ele>
        <time>2021-09-19T10:15:06Z</time>
      </trkpt>
      <trkpt lat="43.5711" lon="1.34963">
        <ele>161</ele>
        <time>2021-09-19T10:15:07Z</time>
      </trkpt>
      <trkpt lat="43.57106" lon="1.34961">
        <ele>161</ele>
        <time>2021-09-19T10:15:08Z</time>
      </trkpt>
      <trkpt lat="43.57102" lon="1.34959">
        <ele>162</ele>
        <time>2021-09-19T10:15:09Z</time>
      </trkpt>
      <trkpt lat="43.57098" lon="1.34956">
        <ele>162</ele>
        <time>2021-09-19T10:15:10Z</time>
      </trkpt>
      <trkpt lat="43.57094" lon="1.34953">
        <ele>162</ele>
        <time>2021-09-19T10:15:11Z</time>
      </trkpt>
      <trkpt lat="43.5709" lon="1.3495">
        <ele>162</ele>
        <time>2021-09-19T10:15:12Z</time>
      </trkpt>
      <trkpt lat="43.57087" lon="1.34947">
        <ele>162</ele>
        <time>2021-09-19T10:15:13Z</time>
      </trkpt>
      <trkpt lat="43.57083" lon="1.34944">
        <ele>163</ele>
        <time>2021-09-19T10:15:14Z</time>
      </trkpt>
      <trkpt lat="43.5708" lon="1.34942">
        <ele>163</ele>
        <time>2021-09-19T10:15:15Z</time>
      </trkpt>
      <trkpt lat="43.57076" lon="1.34939">
        <ele>163</ele>
        <time>2021-09-19T10:15:16Z</time>
      </trkpt>
      <trkpt lat="43.57073" lon="1.34936">
        <ele>163</ele>
        <time>2021-09-19T10:15:17Z</time>
      </trkpt>
      <trkpt lat="43.57069" lon="1.34933">
        <ele>163</ele>
        <time>2021-09-19T10:15:18Z</time>
      </trkpt>
      <trkpt lat="43.57066" lon="1.3493">
        <ele>163</ele>
        <time>2021-09-19T10:15:19Z</time>
      </trkpt>
      <trkpt lat="43.57063" lon="1.34927">
        <ele>163</ele>
        <time>2021-09-19T10:15:20Z</time>
      </trkpt>
      <trkpt lat="43.5706" lon="1.34924">
        <ele>163</ele>
        <time>2021-09-19T10:15:21Z</time>
      </trkpt>
      <trkpt lat="43.57058" lon="1.34922">
        <ele>164</ele>
        <time>2021-09-19T10:15:22Z</time>
      </trkpt>
      <trkpt lat="43.57055" lon="1.34919">
        <ele>164</ele>
        <time>2021-09-19T10:15:23Z</time>
      </trkpt>
      <trkpt lat="43.57053" lon="1.34916">
        <ele>164</ele>
        <time>2021-09-19T10:15:24Z</time>
      </trkpt>
      <trkpt lat="43.57052" lon="1.34912">
        <ele>164</ele>
        <time>2021-09-19T10:15:25Z</time>
      </trkpt>
      <trkpt lat="43.5705" lon="1.34908">
        <ele>165</ele>
        <time>2021-09-19T10:15:26Z</time>
      </trkpt>
      <trkpt lat="43.57048" lon="1.34904">
        <ele>165</ele>
        <time>2021-09-19T10:15:27Z</time>
      </trkpt>
      <trkpt lat="43.57047" lon="1.34899">
        <ele>165</ele>
        <time>2021-09-19T10:15:28Z</time>
      </trkpt>
      <trkpt lat="43.57046" lon="1.34895">
        <ele>165</ele>
        <time>2021-09-19T10:15:29Z</time>
      </trkpt>
      <trkpt lat="43.57044" lon="1.3489">
        <ele>165</ele>
        <time>2021-09-19T10:15:30Z</time>
      </trkpt>
      <trkpt lat="43.57043" lon="1.34884">
        <ele>165</ele>
        <time>2021-09-19T10:15:31Z</time>
      </trkpt>
      <trkpt lat="43.57042" lon="1.34878">
        <ele>164</ele>
        <time>2021-09-19T10:15:32Z</time>
      </trkpt>
      <trkpt lat="43.57042" lon="1.34871">
        <ele>163</ele>
        <time>2021-09-19T10:15:33Z</time>
      </trkpt>
      <trkpt lat="43.57042" lon="1.34865">
        <ele>163</ele>
        <time>2021-09-19T10:15:34Z</time>
      </trkpt>
      <trkpt lat="43.57043" lon="1.34858">
        <ele>163</ele>
        <time>2021-09-19T10:15:35Z</time>
      </trkpt>
      <trkpt lat="43.57044" lon="1.34851">
        <ele>163</ele>
        <time>2021-09-19T10:15:36Z</time>
      </trkpt>
      <trkpt lat="43.57045" lon="1.34844">
        <ele>163</ele>
        <time>2021-09-19T10:15:37Z</time>
      </trkpt>
      <trkpt lat="43.57046" lon="1.34838">
        <ele>162</ele>
        <time>2021-09-19T10:15:38Z</time>
      </trkpt>
      <trkpt lat="43.57048" lon="1.34832">
        <ele>162</ele>
        <time>2021-09-19T10:15:39Z</time>
      </trkpt>
      <trkpt lat="43.57049" lon="1.34827">
        <ele>162</ele>
        <time>2021-09-19T10:15:40Z</time>
      </trkpt>
      <trkpt lat="43.5705" lon="1.34821">
        <ele>162</ele>
        <time>2021-09-19T10:15:41Z</time>
      </trkpt>
      <trkpt lat="43.57051" lon="1.34816">
        <ele>162</ele>
        <time>2021-09-19T10:15:42Z</time>
      </trkpt>
      <trkpt lat="43.57052" lon="1.3481">
        <ele>162</ele>
        <time>2021-09-19T10:15:43Z</time>
      </trkpt>
      <trkpt lat="43.57054" lon="1.34805">
        <ele>162</ele>
        <time>2021-09-19T10:15:44Z</time>
      </trkpt>
      <trkpt lat="43.57055" lon="1.348">
        <ele>161</ele>
        <time>2021-09-19T10:15:45Z</time>
      </trkpt>
      <trkpt lat="43.57055" lon="1.34795">
        <ele>161</ele>
        <time>2021-09-19T10:15:46Z</time>
      </trkpt>
      <trkpt lat="43.57055" lon="1.34789">
        <ele>161</ele>
        <time>2021-09-19T10:15:47Z</time>
      </trkpt>
      <trkpt lat="43.57055" lon="1.34783">
        <ele>161</ele>
        <time>2021-09-19T10:15:48Z</time>
      </trkpt>
      <trkpt lat="43.57056" lon="1.34776">
        <ele>161</ele>
        <time>2021-09-19T10:15:49Z</time>
      </trkpt>
      <trkpt lat="43.57056" lon="1.34769">
        <ele>161</ele>
        <time>2021-09-19T10:15:50Z</time>
      </trkpt>
      <trkpt lat="43.57057" lon="1.34762">
        <ele>161</ele>
        <time>2021-09-19T10:15:51Z</time>
      </trkpt>
      <trkpt lat="43.57058" lon="1.34756">
        <ele>161</ele>
        <time>2021-09-19T10:15:52Z</time>
      </trkpt>
      <trkpt lat="43.57059" lon="1.34749">
        <ele>161</ele>
        <time>2021-09-19T10:15:53Z</time>
      </trkpt>
      <trkpt lat="43.5706" lon="1.34742">
        <ele>161</ele>
        <time>2021-09-19T10:15:54Z</time>
      </trkpt>
      <trkpt lat="43.5706" lon="1.34735">
        <ele>160</ele>
        <time>2021-09-19T10:15:55Z</time>
      </trkpt>
      <trkpt lat="43.5706" lon="1.34728">
        <ele>160</ele>
        <time>2021-09-19T10:15:56Z</time>
      </trkpt>
      <trkpt lat="43.5706" lon="1.34722">
        <ele>160</ele>
        <time>2021-09-19T10:15:57Z</time>
      </trkpt>
      <trkpt lat="43.5706" lon="1.34715">
        <ele>159</ele>
        <time>2021-09-19T10:15:58Z</time>
      </trkpt>
      <trkpt lat="43.57061" lon="1.34708">
        <ele>159</ele>
        <time>2021-09-19T10:15:59Z</time>
      </trkpt>
      <trkpt lat="43.57061" lon="1.34702">
        <ele>160</ele>
        <time>2021-09-19T10:16:00Z</time>
      </trkpt>
      <trkpt lat="43.57061" lon="1.34696">
        <ele>160</ele>
        <time>2021-09-19T10:16:01Z</time>
      </trkpt>
      <trkpt lat="43.57062" lon="1.3469">
        <ele>160</ele>
        <time>2021-09-19T10:16:02Z</time>
      </trkpt>
      <trkpt lat="43.57062" lon="1.34684">
        <ele>160</ele>
        <time>2021-09-19T10:16:03Z</time>
      </trkpt>
      <trkpt lat="43.57062" lon="1.34678">
        <ele>160</ele>
        <time>2021-09-19T10:16:04Z</time>
      </trkpt>
      <trkpt lat="43.57061" lon="1.34673">
        <ele>160</ele>
        <time>2021-09-19T10:16:05Z</time>
      </trkpt>
      <trkpt lat="43.57058" lon="1.34669">
        <ele>160</ele>
        <time>2021-09-19T10:16:06Z</time>
      </trkpt>
      <trkpt lat="43.57055" lon="1.34664">
        <ele>160</ele>
        <time>2021-09-19T10:16:07Z</time>
      </trkpt>
      <trkpt lat="43.57053" lon="1.34659">
        <ele>159</ele>
        <time>2021-09-19T10:16:08Z</time>
      </trkpt>
      <trkpt lat="43.5705" lon="1.34654">
        <ele>159</ele>
        <time>2021-09-19T10:16:09Z</time>
      </trkpt>
      <trkpt lat="43.57047" lon="1.34649">
        <ele>159</ele>
        <time>2021-09-19T10:16:10Z</time>
      </trkpt>
      <trkpt lat="43.57044" lon="1.34644">
        <ele>160</ele>
        <time>2021-09-19T10:16:11Z</time>
      </trkpt>
      <trkpt lat="43.57041" lon="1.34639">
        <ele>160</ele>
        <time>2021-09-19T10:16:12Z</time>
      </trkpt>
      <trkpt lat="43.57039" lon="1.34634">
        <ele>160</ele>
        <time>2021-09-19T10:16:13Z</time>
      </trkpt>
      <trkpt lat="43.57036" lon="1.3463">
        <ele>160</ele>
        <time>2021-09-19T10:16:14Z</time>
      </trkpt>
      <trkpt lat="43.57033" lon="1.34625">
        <ele>160</ele>
        <time>2021-09-19T10:16:15Z</time>
      </trkpt>
      <trkpt lat="43.5703" lon="1.34621">
        <ele>160</ele>
        <time>2021-09-19T10:16:16Z</time>
      </trkpt>
      <trkpt lat="43.57027" lon="1.34617">
        <ele>160</ele>
        <time>2021-09-19T10:16:17Z</time>
      </trkpt>
      <trkpt lat="43.57024" lon="1.34613">
        <ele>160</ele>
        <time>2021-09-19T10:16:18Z</time>
      </trkpt>
      <trkpt lat="43.57021" lon="1.34609">
        <ele>160</ele>
        <time>2021-09-19T10:16:19Z</time>
      </trkpt>
      <trkpt lat="43.57018" lon="1.34606">
        <ele>160</ele>
        <time>2021-09-19T10:16:20Z</time>
      </trkpt>
      <trkpt lat="43.57016" lon="1.34603">
        <ele>160</ele>
        <time>2021-09-19T10:16:21Z</time>
      </trkpt>
      <trkpt lat="43.57013" lon="1.34599">
        <ele>160</ele>
        <time>2021-09-19T10:16:22Z</time>
      </trkpt>
      <trkpt lat="43.5701" lon="1.34595">
        <ele>160</ele>
        <time>2021-09-19T10:16:23Z</time>
      </trkpt>
      <trkpt lat="43.57008" lon="1.34591">
        <ele>160</ele>
        <time>2021-09-19T10:16:24Z</time>
      </trkpt>
      <trkpt lat="43.57005" lon="1.34588">
        <ele>160</ele>
        <time>2021-09-19T10:16:25Z</time>
      </trkpt>
      <trkpt lat="43.57002" lon="1.34584">
        <ele>160</ele>
        <time>2021-09-19T10:16:26Z</time>
      </trkpt>
      <trkpt lat="43.56999" lon="1.3458">
        <ele>160</ele>
        <time>2021-09-19T10:16:27Z</time>
      </trkpt>
      <trkpt lat="43.56997" lon="1.34576">
        <ele>160</ele>
        <time>2021-09-19T10:16:28Z</time>
      </trkpt>
      <trkpt lat="43.56996" lon="1.34573">
        <ele>160</ele>
        <time>2021-09-19T10:16:29Z</time>
      </trkpt>
      <trkpt lat="43.56994" lon="1.34569">
        <ele>160</ele>
        <time>2021-09-19T10:16:30Z</time>
      </trkpt>
      <trkpt lat="43.56993" lon="1.34565">
        <ele>160</ele>
        <time>2021-09-19T10:16:31Z</time>
      </trkpt>
      <trkpt lat="43.56991" lon="1.34562">
        <ele>160</ele>
        <time>2021-09-19T10:16:32Z</time>
      </trkpt>
      <trkpt lat="43.5699" lon="1.34558">
        <ele>161</ele>
        <time>2021-09-19T10:16:33Z</time>
      </trkpt>
      <trkpt lat="43.56988" lon="1.34554">
        <ele>161</ele>
        <time>2021-09-19T10:16:34Z</time>
      </trkpt>
      <trkpt lat="43.56986" lon="1.3455">
        <ele>161</ele>
        <time>2021-09-19T10:16:35Z</time>
      </trkpt>
      <trkpt lat="43.56984" lon="1.34547">
        <ele>161</ele>
        <time>2021-09-19T10:16:36Z</time>
      </trkpt>
      <trkpt lat="43.56982" lon="1.34543">
        <ele>160</ele>
        <time>2021-09-19T10:16:37Z</time>
      </trkpt>
      <trkpt lat="43.5698" lon="1.34539">
        <ele>160</ele>
        <time>2021-09-19T10:16:38Z</time>
      </trkpt>
      <trkpt lat="43.56978" lon="1.34534">
        <ele>160</ele>
        <time>2021-09-19T10:16:39Z</time>
      </trkpt>
      <trkpt lat="43.56976" lon="1.3453">
        <ele>160</ele>
        <time>2021-09-19T10:16:40Z</time>
      </trkpt>
      <trkpt lat="43.56974" lon="1.34526">
        <ele>160</ele>
        <time>2021-09-19T10:16:41Z</time>
      </trkpt>
      <trkpt lat="43.56972" lon="1.34522">
        <ele>160</ele>
        <time>2021-09-19T10:16:42Z</time>
      </trkpt>
      <trkpt lat="43.5697" lon="1.34519">
        <ele>160</ele>
        <time>2021-09-19T10:16:43Z</time>
      </trkpt>
      <trkpt lat="43.56967" lon="1.34516">
        <ele>160</ele>
        <time>2021-09-19T10:16:44Z</time>
      </trkpt>
      <trkpt lat="43.56965" lon="1.34513">
        <ele>160</ele>
        <time>2021-09-19T10:16:45Z</time>
      </trkpt>
      <trkpt lat="43.56962" lon="1.3451">
        <ele>160</ele>
        <time>2021-09-19T10:16:46Z</time>
      </trkpt>
      <trkpt lat="43.5696" lon="1.34507">
        <ele>160</ele>
        <time>2021-09-19T10:16:47Z</time>
      </trkpt>
      <trkpt lat="43.56958" lon="1.34504">
        <ele>160</ele>
        <time>2021-09-19T10:16:48Z</time>
      </trkpt>
      <trkpt lat="43.56956" lon="1.34499">
        <ele>160</ele>
        <time>2021-09-19T10:16:49Z</time>
      </trkpt>
      <trkpt lat="43.56954" lon="1.34495">
        <ele>160</ele>
        <time>2021-09-19T10:16:50Z</time>
      </trkpt>
      <trkpt lat="43.56952" lon="1.34491">
        <ele>160</ele>
        <time>2021-09-19T10:16:51Z</time>
      </trkpt>
      <trkpt lat="43.56951" lon="1.34486">
        <ele>160</ele>
        <time>2021-09-19T10:16:52Z</time>
      </trkpt>
      <trkpt lat="43.56949" lon="1.34482">
        <ele>160</ele>
        <time>2021-09-19T10:16:53Z</time>
      </trkpt>
      <trkpt lat="43.56947" lon="1.34477">
        <ele>160</ele>
        <time>2021-09-19T10:16:54Z</time>
      </trkpt>
      <trkpt lat="43.56945" lon="1.34472">
        <ele>160</ele>
        <time>2021-09-19T10:16:55Z</time>
      </trkpt>
      <trkpt lat="43.56944" lon="1.34467">
        <ele>160</ele>
        <time>2021-09-19T10:16:56Z</time>
      </trkpt>
      <trkpt lat="43.56942" lon="1.34462">
        <ele>160</ele>
        <time>2021-09-19T10:16:57Z</time>
      </trkpt>
      <trkpt lat="43.5694" lon="1.34457">
        <ele>160</ele>
        <time>2021-09-19T10:16:58Z</time>
      </trkpt>
      <trkpt lat="43.56939" lon="1.34451">
        <ele>160</ele>
        <time>2021-09-19T10:16:59Z</time>
      </trkpt>
      <trkpt lat="43.56937" lon="1.34446">
        <ele>160</ele>
        <time>2021-09-19T10:17:00Z</time>
      </trkpt>
      <trkpt lat="43.56936" lon="1.34441">
        <ele>160</ele>
        <time>2021-09-19T10:17:01Z</time>
      </trkpt>
      <trkpt lat="43.56934" lon="1.34437">
        <ele>160</ele>
        <time>2021-09-19T10:17:02Z</time>
      </trkpt>
      <trkpt lat="43.56933" lon="1.34432">
        <ele>160</ele>
        <time>2021-09-19T10:17:03Z</time>
      </trkpt>
      <trkpt lat="43.56931" lon="1.34428">
        <ele>160</ele>
        <time>2021-09-19T10:17:04Z</time>
      </trkpt>
      <trkpt lat="43.5693" lon="1.34424">
        <ele>160</ele>
        <time>2021-09-19T10:17:05Z</time>
      </trkpt>
      <trkpt lat="43.56928" lon="1.34421">
        <ele>160</ele>
        <time>2021-09-19T10:17:06Z</time>
      </trkpt>
      <trkpt lat="43.56925" lon="1.34417">
        <ele>160</ele>
        <time>2021-09-19T10:17:07Z</time>
      </trkpt>
      <trkpt lat="43.56924" lon="1.34413">
        <ele>160</ele>
        <time>2021-09-19T10:17:08Z</time>
      </trkpt>
      <trkpt lat="43.56922" lon="1.34409">
        <ele>160</ele>
        <time>2021-09-19T10:17:09Z</time>
      </trkpt>
      <trkpt lat="43.5692" lon="1.34405">
        <ele>160</ele>
        <time>2021-09-19T10:17:10Z</time>
      </trkpt>
      <trkpt lat="43.56918" lon="1.34401">
        <ele>160</ele>
        <time>2021-09-19T10:17:11Z</time>
      </trkpt>
      <trkpt lat="43.56916" lon="1.34396">
        <ele>160</ele>
        <time>2021-09-19T10:17:12Z</time>
      </trkpt>
      <trkpt lat="43.56915" lon="1.34391">
        <ele>160</ele>
        <time>2021-09-19T10:17:13Z</time>
      </trkpt>
      <trkpt lat="43.56913" lon="1.34386">
        <ele>160</ele>
        <time>2021-09-19T10:17:14Z</time>
      </trkpt>
      <trkpt lat="43.56912" lon="1.34381">
        <ele>160</ele>
        <time>2021-09-19T10:17:15Z</time>
      </trkpt>
      <trkpt lat="43.5691" lon="1.34376">
        <ele>160</ele>
        <time>2021-09-19T10:17:16Z</time>
      </trkpt>
      <trkpt lat="43.56909" lon="1.34371">
        <ele>160</ele>
        <time>2021-09-19T10:17:17Z</time>
      </trkpt>
      <trkpt lat="43.56906" lon="1.34367">
        <ele>160</ele>
        <time>2021-09-19T10:17:18Z</time>
      </trkpt>
      <trkpt lat="43.56904" lon="1.34362">
        <ele>160</ele>
        <time>2021-09-19T10:17:19Z</time>
      </trkpt>
      <trkpt lat="43.56901" lon="1.34358">
        <ele>160</ele>
        <time>2021-09-19T10:17:20Z</time>
      </trkpt>
      <trkpt lat="43.56899" lon="1.34354">
        <ele>160</ele>
        <time>2021-09-19T10:17:21Z</time>
      </trkpt>
      <trkpt lat="43.56897" lon="1.34349">
        <ele>160</ele>
        <time>2021-09-19T10:17:22Z</time>
      </trkpt>
      <trkpt lat="43.56895" lon="1.34345">
        <ele>160</ele>
        <time>2021-09-19T10:17:23Z</time>
      </trkpt>
      <trkpt lat="43.56893" lon="1.3434">
        <ele>160</ele>
        <time>2021-09-19T10:17:24Z</time>
      </trkpt>
      <trkpt lat="43.56891" lon="1.34336">
        <ele>160</ele>
        <time>2021-09-19T10:17:25Z</time>
      </trkpt>
      <trkpt lat="43.56888" lon="1.34334">
        <ele>160</ele>
        <time>2021-09-19T10:17:26Z</time>
      </trkpt>
      <trkpt lat="43.56885" lon="1.34332">
        <ele>160</ele>
        <time>2021-09-19T10:17:27Z</time>
      </trkpt>
      <trkpt lat="43.56882" lon="1.34332">
        <ele>160</ele>
        <time>2021-09-19T10:17:28Z</time>
      </trkpt>
      <trkpt lat="43.56879" lon="1.34333">
        <ele>160</ele>
        <time>2021-09-19T10:17:29Z</time>
      </trkpt>
      <trkpt lat="43.56876" lon="1.34334">
        <ele>160</ele>
        <time>2021-09-19T10:17:30Z</time>
      </trkpt>
      <trkpt lat="43.56873" lon="1.34337">
        <ele>160</ele>
        <time>2021-09-19T10:17:31Z</time>
      </trkpt>
      <trkpt lat="43.5687" lon="1.34339">
        <ele>160</ele>
        <time>2021-09-19T10:17:32Z</time>
      </trkpt>
      <trkpt lat="43.56867" lon="1.3434">
        <ele>160</ele>
        <time>2021-09-19T10:17:33Z</time>
      </trkpt>
      <trkpt lat="43.56863" lon="1.34341">
        <ele>160</ele>
        <time>2021-09-19T10:17:34Z</time>
      </trkpt>
      <trkpt lat="43.5686" lon="1.34342">
        <ele>160</ele>
        <time>2021-09-19T10:17:35Z</time>
      </trkpt>
      <trkpt lat="43.56856" lon="1.34341">
        <ele>160</ele>
        <time>2021-09-19T10:17:36Z</time>
      </trkpt>
      <trkpt lat="43.56853" lon="1.3434">
        <ele>160</ele>
        <time>2021-09-19T10:17:37Z</time>
      </trkpt>
      <trkpt lat="43.5685" lon="1.34339">
        <ele>160</ele>
        <time>2021-09-19T10:17:38Z</time>
      </trkpt>
      <trkpt lat="43.56847" lon="1.34338">
        <ele>160</ele>
        <time>2021-09-19T10:17:39Z</time>
      </trkpt>
      <trkpt lat="43.56844" lon="1.34337">
        <ele>160</ele>
        <time>2021-09-19T10:17:40Z</time>
      </trkpt>
      <trkpt lat="43.5684" lon="1.34338">
        <ele>160</ele>
        <time>2021-09-19T10:17:41Z</time>
      </trkpt>
      <trkpt lat="43.56837" lon="1.34339">
        <ele>160</ele>
        <time>2021-09-19T10:17:42Z</time>
      </trkpt>
      <trkpt lat="43.56834" lon="1.34339">
        <ele>160</ele>
        <time>2021-09-19T10:17:43Z</time>
      </trkpt>
      <trkpt lat="43.56831" lon="1.34337">
        <ele>160</ele>
        <time>2021-09-19T10:17:44Z</time>
      </trkpt>
      <trkpt lat="43.56829" lon="1.34335">
        <ele>160</ele>
        <time>2021-09-19T10:17:45Z</time>
      </trkpt>
      <trkpt lat="43.56827" lon="1.34332">
        <ele>160</ele>
        <time>2021-09-19T10:17:46Z</time>
      </trkpt>
      <trkpt lat="43.56825" lon="1.34328">
        <ele>160</ele>
        <time>2021-09-19T10:17:47Z</time>
      </trkpt>
      <trkpt lat="43.56822" lon="1.34324">
        <ele>160</ele>
        <time>2021-09-19T10:17:48Z</time>
      </trkpt>
      <trkpt lat="43.56821" lon="1.3432">
        <ele>160</ele>
        <time>2021-09-19T10:17:49Z</time>
      </trkpt>
      <trkpt lat="43.56819" lon="1.34316">
        <ele>160</ele>
        <time>2021-09-19T10:17:50Z</time>
      </trkpt>
      <trkpt lat="43.56818" lon="1.34312">
        <ele>160</ele>
        <time>2021-09-19T10:17:51Z</time>
      </trkpt>
      <trkpt lat="43.56816" lon="1.34308">
        <ele>160</ele>
        <time>2021-09-19T10:17:52Z</time>
      </trkpt>
      <trkpt lat="43.56814" lon="1.34303">
        <ele>160</ele>
        <time>2021-09-19T10:17:53Z</time>
      </trkpt>
      <trkpt lat="43.56811" lon="1.34294">
        <ele>160</ele>
        <time>2021-09-19T10:17:55Z</time>
      </trkpt>
      <trkpt lat="43.56811" lon="1.34289">
        <ele>160</ele>
        <time>2021-09-19T10:17:56Z</time>
      </trkpt>
      <trkpt lat="43.5681" lon="1.34284">
        <ele>160</ele>
        <time>2021-09-19T10:17:57Z</time>
      </trkpt>
      <trkpt lat="43.5681" lon="1.34279">
        <ele>160</ele>
        <time>2021-09-19T10:17:58Z</time>
      </trkpt>
      <trkpt lat="43.5681" lon="1.34274">
        <ele>160</ele>
        <time>2021-09-19T10:17:59Z</time>
      </trkpt>
      <trkpt lat="43.56811" lon="1.34269">
        <ele>160</ele>
        <time>2021-09-19T10:18:00Z</time>
      </trkpt>
      <trkpt lat="43.56811" lon="1.34263">
        <ele>160</ele>
        <time>2021-09-19T10:18:01Z</time>
      </trkpt>
      <trkpt lat="43.56812" lon="1.34258">
        <ele>160</ele>
        <time>2021-09-19T10:18:02Z</time>
      </trkpt>
      <trkpt lat="43.56813" lon="1.34253">
        <ele>160</ele>
        <time>2021-09-19T10:18:03Z</time>
      </trkpt>
      <trkpt lat="43.56815" lon="1.34248">
        <ele>160</ele>
        <time>2021-09-19T10:18:04Z</time>
      </trkpt>
      <trkpt lat="43.56817" lon="1.34243">
        <ele>160</ele>
        <time>2021-09-19T10:18:05Z</time>
      </trkpt>
      <trkpt lat="43.56819" lon="1.34239">
        <ele>160</ele>
        <time>2021-09-19T10:18:06Z</time>
      </trkpt>
      <trkpt lat="43.56822" lon="1.34235">
        <ele>160</ele>
        <time>2021-09-19T10:18:07Z</time>
      </trkpt>
      <trkpt lat="43.56825" lon="1.34231">
        <ele>160</ele>
        <time>2021-09-19T10:18:08Z</time>
      </trkpt>
      <trkpt lat="43.56829" lon="1.34228">
        <ele>159</ele>
        <time>2021-09-19T10:18:09Z</time>
      </trkpt>
      <trkpt lat="43.56832" lon="1.34224">
        <ele>159</ele>
        <time>2021-09-19T10:18:10Z</time>
      </trkpt>
      <trkpt lat="43.56835" lon="1.3422">
        <ele>159</ele>
        <time>2021-09-19T10:18:11Z</time>
      </trkpt>
      <trkpt lat="43.56837" lon="1.34216">
        <ele>159</ele>
        <time>2021-09-19T10:18:12Z</time>
      </trkpt>
      <trkpt lat="43.56838" lon="1.34212">
        <ele>159</ele>
        <time>2021-09-19T10:18:13Z</time>
      </trkpt>
      <trkpt lat="43.5684" lon="1.34207">
        <ele>159</ele>
        <time>2021-09-19T10:18:14Z</time>
      </trkpt>
      <trkpt lat="43.56841" lon="1.34202">
        <ele>159</ele>
        <time>2021-09-19T10:18:15Z</time>
      </trkpt>
      <trkpt lat="43.56841" lon="1.34197">
        <ele>159</ele>
        <time>2021-09-19T10:18:16Z</time>
      </trkpt>
      <trkpt lat="43.56841" lon="1.34192">
        <ele>159</ele>
        <time>2021-09-19T10:18:17Z</time>
      </trkpt>
      <trkpt lat="43.5684" lon="1.34187">
        <ele>159</ele>
        <time>2021-09-19T10:18:18Z</time>
      </trkpt>
      <trkpt lat="43.56838" lon="1.34183">
        <ele>159</ele>
        <time>2021-09-19T10:18:19Z</time>
      </trkpt>
      <trkpt lat="43.56836" lon="1.34178">
        <ele>159</ele>
        <time>2021-09-19T10:18:20Z</time>
      </trkpt>
      <trkpt lat="43.56834" lon="1.34173">
        <ele>159</ele>
        <time>2021-09-19T10:18:21Z</time>
      </trkpt>
      <trkpt lat="43.56831" lon="1.34169">
        <ele>159</ele>
        <time>2021-09-19T10:18:22Z</time>
      </trkpt>
      <trkpt lat="43.56829" lon="1.34164">
        <ele>159</ele>
        <time>2021-09-19T10:18:23Z</time>
      </trkpt>
      <trkpt lat="43.56827" lon="1.34159">
        <ele>159</ele>
        <time>2021-09-19T10:18:24Z</time>
      </trkpt>
      <trkpt lat="43.56825" lon="1.34155">
        <ele>159</ele>
        <time>2021-09-19T10:18:25Z</time>
      </trkpt>
      <trkpt lat="43.56823" lon="1.3415">
        <ele>159</ele>
        <time>2021-09-19T10:18:26Z</time>
      </trkpt>
      <trkpt lat="43.56821" lon="1.34145">
        <ele>159</ele>
        <time>2021-09-19T10:18:27Z</time>
      </trkpt>
      <trkpt lat="43.56819" lon="1.3414">
        <ele>159</ele>
        <time>2021-09-19T10:18:28Z</time>
      </trkpt>
      <trkpt lat="43.56817" lon="1.34135">
        <ele>159</ele>
        <time>2021-09-19T10:18:29Z</time>
      </trkpt>
      <trkpt lat="43.56816" lon="1.3413">
        <ele>159</ele>
        <time>2021-09-19T10:18:30Z</time>
      </trkpt>
      <trkpt lat="43.56814" lon="1.34125">
        <ele>159</ele>
        <time>2021-09-19T10:18:31Z</time>
      </trkpt>
      <trkpt lat="43.56811" lon="1.34115">
        <ele>159</ele>
        <time>2021-09-19T10:18:33Z</time>
      </trkpt>
      <trkpt lat="43.56809" lon="1.3411">
        <ele>159</ele>
        <time>2021-09-19T10:18:34Z</time>
      </trkpt>
      <trkpt lat="43.56807" lon="1.34105">
        <ele>159</ele>
        <time>2021-09-19T10:18:35Z</time>
      </trkpt>
      <trkpt lat="43.56805" lon="1.341">
        <ele>159</ele>
        <time>2021-09-19T10:18:36Z</time>
      </trkpt>
      <trkpt lat="43.56802" lon="1.34096">
        <ele>159</ele>
        <time>2021-09-19T10:18:37Z</time>
      </trkpt>
      <trkpt lat="43.56799" lon="1.34091">
        <ele>159</ele>
        <time>2021-09-19T10:18:38Z</time>
      </trkpt>
      <trkpt lat="43.56797" lon="1.34087">
        <ele>159</ele>
        <time>2021-09-19T10:18:39Z</time>
      </trkpt>
      <trkpt lat="43.56793" lon="1.34083">
        <ele>159</ele>
        <time>2021-09-19T10:18:40Z</time>
      </trkpt>
      <trkpt lat="43.5679" lon="1.34079">
        <ele>159</ele>
        <time>2021-09-19T10:18:41Z</time>
      </trkpt>
      <trkpt lat="43.56787" lon="1.34075">
        <ele>159</ele>
        <time>2021-09-19T10:18:42Z</time>
      </trkpt>
      <trkpt lat="43.56784" lon="1.34072">
        <ele>159</ele>
        <time>2021-09-19T10:18:43Z</time>
      </trkpt>
      <trkpt lat="43.5678" lon="1.34069">
        <ele>159</ele>
        <time>2021-09-19T10:18:44Z</time>
      </trkpt>
      <trkpt lat="43.56777" lon="1.34067">
        <ele>159</ele>
        <time>2021-09-19T10:18:45Z</time>
      </trkpt>
      <trkpt lat="43.56774" lon="1.34064">
        <ele>158</ele>
        <time>2021-09-19T10:18:46Z</time>
      </trkpt>
      <trkpt lat="43.56771" lon="1.34062">
        <ele>158</ele>
        <time>2021-09-19T10:18:47Z</time>
      </trkpt>
      <trkpt lat="43.56767" lon="1.34059">
        <ele>158</ele>
        <time>2021-09-19T10:18:48Z</time>
      </trkpt>
      <trkpt lat="43.56764" lon="1.34058">
        <ele>158</ele>
        <time>2021-09-19T10:18:49Z</time>
      </trkpt>
      <trkpt lat="43.5676" lon="1.34057">
        <ele>158</ele>
        <time>2021-09-19T10:18:50Z</time>
      </trkpt>
      <trkpt lat="43.56757" lon="1.34057">
        <ele>158</ele>
        <time>2021-09-19T10:18:51Z</time>
      </trkpt>
      <trkpt lat="43.56753" lon="1.34058">
        <ele>159</ele>
        <time>2021-09-19T10:18:52Z</time>
      </trkpt>
      <trkpt lat="43.56749" lon="1.34058">
        <ele>159</ele>
        <time>2021-09-19T10:18:53Z</time>
      </trkpt>
      <trkpt lat="43.56745" lon="1.34059">
        <ele>159</ele>
        <time>2021-09-19T10:18:54Z</time>
      </trkpt>
      <trkpt lat="43.56742" lon="1.3406">
        <ele>159</ele>
        <time>2021-09-19T10:18:55Z</time>
      </trkpt>
      <trkpt lat="43.56738" lon="1.34062">
        <ele>159</ele>
        <time>2021-09-19T10:18:56Z</time>
      </trkpt>
      <trkpt lat="43.56735" lon="1.34064">
        <ele>159</ele>
        <time>2021-09-19T10:18:57Z</time>
      </trkpt>
      <trkpt lat="43.56731" lon="1.34066">
        <ele>159</ele>
        <time>2021-09-19T10:18:58Z</time>
      </trkpt>
      <trkpt lat="43.56728" lon="1.34067">
        <ele>159</ele>
        <time>2021-09-19T10:18:59Z</time>
      </trkpt>
      <trkpt lat="43.56724" lon="1.34069">
        <ele>159</ele>
        <time>2021-09-19T10:19:00Z</time>
      </trkpt>
      <trkpt lat="43.5672" lon="1.3407">
        <ele>159</ele>
        <time>2021-09-19T10:19:01Z</time>
      </trkpt>
      <trkpt lat="43.56717" lon="1.34071">
        <ele>159</ele>
        <time>2021-09-19T10:19:02Z</time>
      </trkpt>
      <trkpt lat="43.56713" lon="1.34072">
        <ele>159</ele>
        <time>2021-09-19T10:19:03Z</time>
      </trkpt>
      <trkpt lat="43.5671" lon="1.34073">
        <ele>159</ele>
        <time>2021-09-19T10:19:04Z</time>
      </trkpt>
      <trkpt lat="43.56706" lon="1.34074">
        <ele>159</ele>
        <time>2021-09-19T10:19:05Z</time>
      </trkpt>
      <trkpt lat="43.56702" lon="1.34075">
        <ele>159</ele>
        <time>2021-09-19T10:19:06Z</time>
      </trkpt>
      <trkpt lat="43.56699" lon="1.34076">
        <ele>159</ele>
        <time>2021-09-19T10:19:07Z</time>
      </trkpt>
      <trkpt lat="43.56695" lon="1.34077">
        <ele>159</ele>
        <time>2021-09-19T10:19:08Z</time>
      </trkpt>
      <trkpt lat="43.56692" lon="1.34078">
        <ele>159</ele>
        <time>2021-09-19T10:19:09Z</time>
      </trkpt>
      <trkpt lat="43.56689" lon="1.34079">
        <ele>159</ele>
        <time>2021-09-19T10:19:10Z</time>
      </trkpt>
      <trkpt lat="43.56685" lon="1.3408">
        <ele>160</ele>
        <time>2021-09-19T10:19:11Z</time>
      </trkpt>
      <trkpt lat="43.56682" lon="1.3408">
        <ele>160</ele>
        <time>2021-09-19T10:19:12Z</time>
      </trkpt>
      <trkpt lat="43.56678" lon="1.34081">
        <ele>160</ele>
        <time>2021-09-19T10:19:13Z</time>
      </trkpt>
      <trkpt lat="43.56675" lon="1.34082">
        <ele>160</ele>
        <time>2021-09-19T10:19:14Z</time>
      </trkpt>
      <trkpt lat="43.56672" lon="1.34082">
        <ele>160</ele>
        <time>2021-09-19T10:19:15Z</time>
      </trkpt>
      <trkpt lat="43.56668" lon="1.34082">
        <ele>160</ele>
        <time>2021-09-19T10:19:16Z</time>
      </trkpt>
      <trkpt lat="43.56665" lon="1.34082">
        <ele>160</ele>
        <time>2021-09-19T10:19:17Z</time>
      </trkpt>
      <trkpt lat="43.56662" lon="1.34083">
        <ele>160</ele>
        <time>2021-09-19T10:19:18Z</time>
      </trkpt>
      <trkpt lat="43.56659" lon="1.34083">
        <ele>160</ele>
        <time>2021-09-19T10:19:19Z</time>
      </trkpt>
      <trkpt lat="43.56655" lon="1.34083">
        <ele>160</ele>
        <time>2021-09-19T10:19:20Z</time>
      </trkpt>
      <trkpt lat="43.56653" lon="1.34083">
        <ele>160</ele>
        <time>2021-09-19T10:19:21Z</time>
      </trkpt>
      <trkpt lat="43.5665" lon="1.34083">
        <ele>160</ele>
        <time>2021-09-19T10:19:22Z</time>
      </trkpt>
      <trkpt lat="43.56648" lon="1.34083">
        <ele>160</ele>
        <time>2021-09-19T10:19:23Z</time>
      </trkpt>
      <trkpt lat="43.56645" lon="1.34083">
        <ele>160</ele>
        <time>2021-09-19T10:19:24Z</time>
      </trkpt>
      <trkpt lat="43.56643" lon="1.34083">
        <ele>160</ele>
        <time>2021-09-19T10:19:25Z</time>
      </trkpt>
      <trkpt lat="43.56642" lon="1.34083">
        <ele>160</ele>
        <time>2021-09-19T10:19:26Z</time>
      </trkpt>
      <trkpt lat="43.5664" lon="1.34083">
        <ele>160</ele>
        <time>2021-09-19T10:19:27Z</time>
      </trkpt>
      <trkpt lat="43.56637" lon="1.34083">
        <ele>160</ele>
        <time>2021-09-19T10:19:28Z</time>
      </trkpt>
      <trkpt lat="43.56635" lon="1.34084">
        <ele>160</ele>
        <time>2021-09-19T10:19:29Z</time>
      </trkpt>
      <trkpt lat="43.56632" lon="1.34084">
        <ele>160</ele>
        <time>2021-09-19T10:19:30Z</time>
      </trkpt>
      <trkpt lat="43.5663" lon="1.34084">
        <ele>160</ele>
        <time>2021-09-19T10:19:31Z</time>
      </trkpt>
      <trkpt lat="43.56627" lon="1.34084">
        <ele>160</ele>
        <time>2021-09-19T10:19:32Z</time>
      </trkpt>
      <trkpt lat="43.56625" lon="1.34084">
        <ele>160</ele>
        <time>2021-09-19T10:19:33Z</time>
      </trkpt>
      <trkpt lat="43.56622" lon="1.34084">
        <ele>160</ele>
        <time>2021-09-19T10:19:34Z</time>
      </trkpt>
      <trkpt lat="43.5662" lon="1.34084">
        <ele>160</ele>
        <time>2021-09-19T10:19:35Z</time>
      </trkpt>
      <trkpt lat="43.56618" lon="1.34083">
        <ele>160</ele>
        <time>2021-09-19T10:19:36Z</time>
      </trkpt>
      <trkpt lat="43.56615" lon="1.34083">
        <ele>160</ele>
        <time>2021-09-19T10:19:37Z</time>
      </trkpt>
      <trkpt lat="43.56613" lon="1.34083">
        <ele>160</ele>
        <time>2021-09-19T10:19:38Z</time>
      </trkpt>
      <trkpt lat="43.56611" lon="1.34083">
        <ele>160</ele>
        <time>2021-09-19T10:19:39Z</time>
      </trkpt>
      <trkpt lat="43.56608" lon="1.34083">
        <ele>160</ele>
        <time>2021-09-19T10:19:40Z</time>
      </trkpt>
      <trkpt lat="43.56606" lon="1.34083">
        <ele>160</ele>
        <time>2021-09-19T10:19:41Z</time>
      </trkpt>
      <trkpt lat="43.56604" lon="1.34082">
        <ele>160</ele>
        <time>2021-09-19T10:19:42Z</time>
      </trkpt>
      <trkpt lat="43.56602" lon="1.3408">
        <ele>160</ele>
        <time>2021-09-19T10:19:44Z</time>
      </trkpt>
      <trkpt lat="43.56598" lon="1.34078">
        <ele>160</ele>
        <time>2021-09-19T10:19:46Z</time>
      </trkpt>
      <trkpt lat="43.56596" lon="1.34077">
        <ele>160</ele>
        <time>2021-09-19T10:19:47Z</time>
      </trkpt>
      <trkpt lat="43.56595" lon="1.34076">
        <ele>160</ele>
        <time>2021-09-19T10:19:48Z</time>
      </trkpt>
      <trkpt lat="43.56592" lon="1.34074">
        <ele>160</ele>
        <time>2021-09-19T10:19:50Z</time>
      </trkpt>
      <trkpt lat="43.5659" lon="1.34075">
        <ele>160</ele>
        <time>2021-09-19T10:20:09Z</time>
      </trkpt>
      <trkpt lat="43.56589" lon="1.34078">
        <ele>160</ele>
        <time>2021-09-19T10:20:12Z</time>
      </trkpt>
      <trkpt lat="43.56587" lon="1.34081">
        <ele>160</ele>
        <time>2021-09-19T10:20:14Z</time>
      </trkpt>
      <trkpt lat="43.56585" lon="1.34082">
        <ele>160</ele>
        <time>2021-09-19T10:20:15Z</time>
      </trkpt>
      <trkpt lat="43.56582" lon="1.34083">
        <ele>160</ele>
        <time>2021-09-19T10:20:16Z</time>
      </trkpt>
      <trkpt lat="43.5658" lon="1.34085">
        <ele>160</ele>
        <time>2021-09-19T10:20:17Z</time>
      </trkpt>
      <trkpt lat="43.56577" lon="1.34087">
        <ele>160</ele>
        <time>2021-09-19T10:20:18Z</time>
      </trkpt>
      <trkpt lat="43.56574" lon="1.34089">
        <ele>160</ele>
        <time>2021-09-19T10:20:19Z</time>
      </trkpt>
      <trkpt lat="43.56571" lon="1.34092">
        <ele>160</ele>
        <time>2021-09-19T10:20:20Z</time>
      </trkpt>
      <trkpt lat="43.56568" lon="1.34095">
        <ele>160</ele>
        <time>2021-09-19T10:20:21Z</time>
      </trkpt>
      <trkpt lat="43.56564" lon="1.34096">
        <ele>160</ele>
        <time>2021-09-19T10:20:22Z</time>
      </trkpt>
      <trkpt lat="43.56561" lon="1.34096">
        <ele>160</ele>
        <time>2021-09-19T10:20:23Z</time>
      </trkpt>
      <trkpt lat="43.56558" lon="1.34095">
        <ele>160</ele>
        <time>2021-09-19T10:20:24Z</time>
      </trkpt>
      <trkpt lat="43.56555" lon="1.34094">
        <ele>160</ele>
        <time>2021-09-19T10:20:25Z</time>
      </trkpt>
      <trkpt lat="43.56552" lon="1.34093">
        <ele>160</ele>
        <time>2021-09-19T10:20:26Z</time>
      </trkpt>
      <trkpt lat="43.56549" lon="1.34091">
        <ele>160</ele>
        <time>2021-09-19T10:20:27Z</time>
      </trkpt>
      <trkpt lat="43.56546" lon="1.34089">
        <ele>160</ele>
        <time>2021-09-19T10:20:28Z</time>
      </trkpt>
      <trkpt lat="43.56542" lon="1.34087">
        <ele>159</ele>
        <time>2021-09-19T10:20:29Z</time>
      </trkpt>
      <trkpt lat="43.56539" lon="1.34085">
        <ele>160</ele>
        <time>2021-09-19T10:20:30Z</time>
      </trkpt>
      <trkpt lat="43.56535" lon="1.34083">
        <ele>160</ele>
        <time>2021-09-19T10:20:31Z</time>
      </trkpt>
      <trkpt lat="43.56532" lon="1.34081">
        <ele>160</ele>
        <time>2021-09-19T10:20:32Z</time>
      </trkpt>
      <trkpt lat="43.56528" lon="1.34079">
        <ele>160</ele>
        <time>2021-09-19T10:20:33Z</time>
      </trkpt>
      <trkpt lat="43.56524" lon="1.34077">
        <ele>160</ele>
        <time>2021-09-19T10:20:34Z</time>
      </trkpt>
      <trkpt lat="43.5652" lon="1.34075">
        <ele>160</ele>
        <time>2021-09-19T10:20:35Z</time>
      </trkpt>
      <trkpt lat="43.56517" lon="1.34073">
        <ele>160</ele>
        <time>2021-09-19T10:20:36Z</time>
      </trkpt>
      <trkpt lat="43.56513" lon="1.3407">
        <ele>160</ele>
        <time>2021-09-19T10:20:37Z</time>
      </trkpt>
      <trkpt lat="43.56509" lon="1.34068">
        <ele>159</ele>
        <time>2021-09-19T10:20:38Z</time>
      </trkpt>
      <trkpt lat="43.56506" lon="1.34066">
        <ele>159</ele>
        <time>2021-09-19T10:20:39Z</time>
      </trkpt>
      <trkpt lat="43.56502" lon="1.34064">
        <ele>159</ele>
        <time>2021-09-19T10:20:40Z</time>
      </trkpt>
      <trkpt lat="43.56498" lon="1.34062">
        <ele>159</ele>
        <time>2021-09-19T10:20:41Z</time>
      </trkpt>
      <trkpt lat="43.56495" lon="1.3406">
        <ele>159</ele>
        <time>2021-09-19T10:20:42Z</time>
      </trkpt>
      <trkpt lat="43.56491" lon="1.34057">
        <ele>159</ele>
        <time>2021-09-19T10:20:43Z</time>
      </trkpt>
      <trkpt lat="43.56487" lon="1.34055">
        <ele>159</ele>
        <time>2021-09-19T10:20:44Z</time>
      </trkpt>
      <trkpt lat="43.56484" lon="1.34054">
        <ele>160</ele>
        <time>2021-09-19T10:20:45Z</time>
      </trkpt>
      <trkpt lat="43.5648" lon="1.34052">
        <ele>161</ele>
        <time>2021-09-19T10:20:46Z</time>
      </trkpt>
      <trkpt lat="43.56477" lon="1.3405">
        <ele>161</ele>
        <time>2021-09-19T10:20:47Z</time>
      </trkpt>
      <trkpt lat="43.56473" lon="1.34048">
        <ele>161</ele>
        <time>2021-09-19T10:20:48Z</time>
      </trkpt>
      <trkpt lat="43.56469" lon="1.34046">
        <ele>161</ele>
        <time>2021-09-19T10:20:49Z</time>
      </trkpt>
      <trkpt lat="43.56466" lon="1.34044">
        <ele>160</ele>
        <time>2021-09-19T10:20:50Z</time>
      </trkpt>
      <trkpt lat="43.56462" lon="1.34042">
        <ele>160</ele>
        <time>2021-09-19T10:20:51Z</time>
      </trkpt>
      <trkpt lat="43.56458" lon="1.3404">
        <ele>160</ele>
        <time>2021-09-19T10:20:52Z</time>
      </trkpt>
      <trkpt lat="43.56455" lon="1.34038">
        <ele>160</ele>
        <time>2021-09-19T10:20:53Z</time>
      </trkpt>
      <trkpt lat="43.56451" lon="1.34036">
        <ele>160</ele>
        <time>2021-09-19T10:20:54Z</time>
      </trkpt>
      <trkpt lat="43.56448" lon="1.34033">
        <ele>160</ele>
        <time>2021-09-19T10:20:55Z</time>
      </trkpt>
      <trkpt lat="43.56444" lon="1.34031">
        <ele>160</ele>
        <time>2021-09-19T10:20:56Z</time>
      </trkpt>
      <trkpt lat="43.5644" lon="1.34029">
        <ele>160</ele>
        <time>2021-09-19T10:20:57Z</time>
      </trkpt>
      <trkpt lat="43.56437" lon="1.34027">
        <ele>160</ele>
        <time>2021-09-19T10:20:58Z</time>
      </trkpt>
      <trkpt lat="43.56433" lon="1.34025">
        <ele>160</ele>
        <time>2021-09-19T10:20:59Z</time>
      </trkpt>
      <trkpt lat="43.56429" lon="1.34022">
        <ele>160</ele>
        <time>2021-09-19T10:21:00Z</time>
      </trkpt>
      <trkpt lat="43.56426" lon="1.3402">
        <ele>160</ele>
        <time>2021-09-19T10:21:01Z</time>
      </trkpt>
      <trkpt lat="43.56422" lon="1.34018">
        <ele>160</ele>
        <time>2021-09-19T10:21:02Z</time>
      </trkpt>
      <trkpt lat="43.56418" lon="1.34016">
        <ele>160</ele>
        <time>2021-09-19T10:21:03Z</time>
      </trkpt>
      <trkpt lat="43.56414" lon="1.34014">
        <ele>160</ele>
        <time>2021-09-19T10:21:04Z</time>
      </trkpt>
      <trkpt lat="43.56411" lon="1.34012">
        <ele>160</ele>
        <time>2021-09-19T10:21:05Z</time>
      </trkpt>
      <trkpt lat="43.56407" lon="1.3401">
        <ele>160</ele>
        <time>2021-09-19T10:21:06Z</time>
      </trkpt>
      <trkpt lat="43.56403" lon="1.34008">
        <ele>160</ele>
        <time>2021-09-19T10:21:07Z</time>
      </trkpt>
      <trkpt lat="43.564" lon="1.34006">
        <ele>160</ele>
        <time>2021-09-19T10:21:08Z</time>
      </trkpt>
      <trkpt lat="43.56396" lon="1.34004">
        <ele>160</ele>
        <time>2021-09-19T10:21:09Z</time>
      </trkpt>
      <trkpt lat="43.56393" lon="1.34002">
        <ele>160</ele>
        <time>2021-09-19T10:21:10Z</time>
      </trkpt>
      <trkpt lat="43.56389" lon="1.34">
        <ele>160</ele>
        <time>2021-09-19T10:21:11Z</time>
      </trkpt>
      <trkpt lat="43.56386" lon="1.33998">
        <ele>160</ele>
        <time>2021-09-19T10:21:12Z</time>
      </trkpt>
      <trkpt lat="43.56382" lon="1.33996">
        <ele>160</ele>
        <time>2021-09-19T10:21:13Z</time>
      </trkpt>
      <trkpt lat="43.56379" lon="1.33994">
        <ele>160</ele>
        <time>2021-09-19T10:21:14Z</time>
      </trkpt>
      <trkpt lat="43.56376" lon="1.33992">
        <ele>160</ele>
        <time>2021-09-19T10:21:15Z</time>
      </trkpt>
      <trkpt lat="43.56372" lon="1.3399">
        <ele>160</ele>
        <time>2021-09-19T10:21:16Z</time>
      </trkpt>
      <trkpt lat="43.56369" lon="1.33988">
        <ele>160</ele>
        <time>2021-09-19T10:21:17Z</time>
      </trkpt>
      <trkpt lat="43.56366" lon="1.33986">
        <ele>160</ele>
        <time>2021-09-19T10:21:18Z</time>
      </trkpt>
      <trkpt lat="43.56363" lon="1.33985">
        <ele>160</ele>
        <time>2021-09-19T10:21:19Z</time>
      </trkpt>
      <trkpt lat="43.56359" lon="1.33983">
        <ele>160</ele>
        <time>2021-09-19T10:21:20Z</time>
      </trkpt>
      <trkpt lat="43.56356" lon="1.33981">
        <ele>160</ele>
        <time>2021-09-19T10:21:21Z</time>
      </trkpt>
      <trkpt lat="43.56353" lon="1.3398">
        <ele>160</ele>
        <time>2021-09-19T10:21:22Z</time>
      </trkpt>
      <trkpt lat="43.5635" lon="1.33978">
        <ele>160</ele>
        <time>2021-09-19T10:21:23Z</time>
      </trkpt>
      <trkpt lat="43.56347" lon="1.33976">
        <ele>160</ele>
        <time>2021-09-19T10:21:24Z</time>
      </trkpt>
      <trkpt lat="43.56344" lon="1.33974">
        <ele>160</ele>
        <time>2021-09-19T10:21:25Z</time>
      </trkpt>
      <trkpt lat="43.56341" lon="1.33973">
        <ele>160</ele>
        <time>2021-09-19T10:21:26Z</time>
      </trkpt>
      <trkpt lat="43.56339" lon="1.33972">
        <ele>160</ele>
        <time>2021-09-19T10:21:27Z</time>
      </trkpt>
      <trkpt lat="43.56336" lon="1.33971">
        <ele>160</ele>
        <time>2021-09-19T10:21:28Z</time>
      </trkpt>
      <trkpt lat="43.56334" lon="1.33969">
        <ele>160</ele>
        <time>2021-09-19T10:21:29Z</time>
      </trkpt>
      <trkpt lat="43.56333" lon="1.33967">
        <ele>160</ele>
        <time>2021-09-19T10:21:30Z</time>
      </trkpt>
      <trkpt lat="43.56332" lon="1.33963">
        <ele>160</ele>
        <time>2021-09-19T10:21:31Z</time>
      </trkpt>
      <trkpt lat="43.56333" lon="1.3396">
        <ele>160</ele>
        <time>2021-09-19T10:21:32Z</time>
      </trkpt>
      <trkpt lat="43.56334" lon="1.33956">
        <ele>160</ele>
        <time>2021-09-19T10:21:33Z</time>
      </trkpt>
      <trkpt lat="43.56335" lon="1.33951">
        <ele>160</ele>
        <time>2021-09-19T10:21:34Z</time>
      </trkpt>
      <trkpt lat="43.56335" lon="1.33946">
        <ele>160</ele>
        <time>2021-09-19T10:21:35Z</time>
      </trkpt>
      <trkpt lat="43.56335" lon="1.33941">
        <ele>160</ele>
        <time>2021-09-19T10:21:36Z</time>
      </trkpt>
      <trkpt lat="43.56335" lon="1.33936">
        <ele>160</ele>
        <time>2021-09-19T10:21:37Z</time>
      </trkpt>
      <trkpt lat="43.56336" lon="1.33931">
        <ele>161</ele>
        <time>2021-09-19T10:21:38Z</time>
      </trkpt>
      <trkpt lat="43.56338" lon="1.33926">
        <ele>161</ele>
        <time>2021-09-19T10:21:39Z</time>
      </trkpt>
      <trkpt lat="43.5634" lon="1.33921">
        <ele>161</ele>
        <time>2021-09-19T10:21:40Z</time>
      </trkpt>
      <trkpt lat="43.56343" lon="1.33918">
        <ele>161</ele>
        <time>2021-09-19T10:21:41Z</time>
      </trkpt>
      <trkpt lat="43.56347" lon="1.33914">
        <ele>161</ele>
        <time>2021-09-19T10:21:42Z</time>
      </trkpt>
      <trkpt lat="43.5635" lon="1.3391">
        <ele>161</ele>
        <time>2021-09-19T10:21:43Z</time>
      </trkpt>
      <trkpt lat="43.56354" lon="1.33907">
        <ele>160</ele>
        <time>2021-09-19T10:21:44Z</time>
      </trkpt>
      <trkpt lat="43.56358" lon="1.33903">
        <ele>159</ele>
        <time>2021-09-19T10:21:45Z</time>
      </trkpt>
      <trkpt lat="43.56361" lon="1.339">
        <ele>159</ele>
        <time>2021-09-19T10:21:46Z</time>
      </trkpt>
      <trkpt lat="43.56364" lon="1.33897">
        <ele>160</ele>
        <time>2021-09-19T10:21:47Z</time>
      </trkpt>
      <trkpt lat="43.56367" lon="1.33893">
        <ele>160</ele>
        <time>2021-09-19T10:21:48Z</time>
      </trkpt>
      <trkpt lat="43.5637" lon="1.3389">
        <ele>159</ele>
        <time>2021-09-19T10:21:49Z</time>
      </trkpt>
      <trkpt lat="43.56374" lon="1.33887">
        <ele>159</ele>
        <time>2021-09-19T10:21:50Z</time>
      </trkpt>
      <trkpt lat="43.56377" lon="1.33884">
        <ele>159</ele>
        <time>2021-09-19T10:21:51Z</time>
      </trkpt>
      <trkpt lat="43.5638" lon="1.33881">
        <ele>159</ele>
        <time>2021-09-19T10:21:52Z</time>
      </trkpt>
      <trkpt lat="43.56384" lon="1.33877">
        <ele>159</ele>
        <time>2021-09-19T10:21:53Z</time>
      </trkpt>
      <trkpt lat="43.56387" lon="1.33874">
        <ele>159</ele>
        <time>2021-09-19T10:21:54Z</time>
      </trkpt>
      <trkpt lat="43.5639" lon="1.33871">
        <ele>159</ele>
        <time>2021-09-19T10:21:55Z</time>
      </trkpt>
      <trkpt lat="43.56394" lon="1.33868">
        <ele>159</ele>
        <time>2021-09-19T10:21:56Z</time>
      </trkpt>
      <trkpt lat="43.56398" lon="1.33865">
        <ele>159</ele>
        <time>2021-09-19T10:21:57Z</time>
      </trkpt>
      <trkpt lat="43.56401" lon="1.33862">
        <ele>159</ele>
        <time>2021-09-19T10:21:58Z</time>
      </trkpt>
      <trkpt lat="43.56404" lon="1.33859">
        <ele>159</ele>
        <time>2021-09-19T10:21:59Z</time>
      </trkpt>
      <trkpt lat="43.56408" lon="1.33857">
        <ele>159</ele>
        <time>2021-09-19T10:22:00Z</time>
      </trkpt>
      <trkpt lat="43.56411" lon="1.33854">
        <ele>159</ele>
        <time>2021-09-19T10:22:01Z</time>
      </trkpt>
      <trkpt lat="43.56414" lon="1.33851">
        <ele>159</ele>
        <time>2021-09-19T10:22:02Z</time>
      </trkpt>
      <trkpt lat="43.56417" lon="1.33848">
        <ele>159</ele>
        <time>2021-09-19T10:22:03Z</time>
      </trkpt>
      <trkpt lat="43.5642" lon="1.33845">
        <ele>160</ele>
        <time>2021-09-19T10:22:04Z</time>
      </trkpt>
      <trkpt lat="43.56423" lon="1.33842">
        <ele>160</ele>
        <time>2021-09-19T10:22:05Z</time>
      </trkpt>
      <trkpt lat="43.56427" lon="1.33839">
        <ele>160</ele>
        <time>2021-09-19T10:22:06Z</time>
      </trkpt>
      <trkpt lat="43.5643" lon="1.33836">
        <ele>160</ele>
        <time>2021-09-19T10:22:07Z</time>
      </trkpt>
      <trkpt lat="43.56433" lon="1.33833">
        <ele>160</ele>
        <time>2021-09-19T10:22:08Z</time>
      </trkpt>
      <trkpt lat="43.56436" lon="1.3383">
        <ele>160</ele>
        <time>2021-09-19T10:22:09Z</time>
      </trkpt>
      <trkpt lat="43.56439" lon="1.33827">
        <ele>160</ele>
        <time>2021-09-19T10:22:10Z</time>
      </trkpt>
      <trkpt lat="43.56442" lon="1.33824">
        <ele>160</ele>
        <time>2021-09-19T10:22:11Z</time>
      </trkpt>
      <trkpt lat="43.56445" lon="1.3382">
        <ele>160</ele>
        <time>2021-09-19T10:22:12Z</time>
      </trkpt>
      <trkpt lat="43.56448" lon="1.33817">
        <ele>160</ele>
        <time>2021-09-19T10:22:13Z</time>
      </trkpt>
      <trkpt lat="43.56451" lon="1.33814">
        <ele>160</ele>
        <time>2021-09-19T10:22:14Z</time>
      </trkpt>
      <trkpt lat="43.56454" lon="1.33811">
        <ele>160</ele>
        <time>2021-09-19T10:22:15Z</time>
      </trkpt>
      <trkpt lat="43.56457" lon="1.33808">
        <ele>161</ele>
        <time>2021-09-19T10:22:16Z</time>
      </trkpt>
      <trkpt lat="43.5646" lon="1.33806">
        <ele>161</ele>
        <time>2021-09-19T10:22:17Z</time>
      </trkpt>
      <trkpt lat="43.56462" lon="1.33803">
        <ele>161</ele>
        <time>2021-09-19T10:22:18Z</time>
      </trkpt>
      <trkpt lat="43.56465" lon="1.338">
        <ele>161</ele>
        <time>2021-09-19T10:22:19Z</time>
      </trkpt>
      <trkpt lat="43.56467" lon="1.33797">
        <ele>161</ele>
        <time>2021-09-19T10:22:20Z</time>
      </trkpt>
      <trkpt lat="43.5647" lon="1.33794">
        <ele>161</ele>
        <time>2021-09-19T10:22:21Z</time>
      </trkpt>
      <trkpt lat="43.56473" lon="1.33791">
        <ele>161</ele>
        <time>2021-09-19T10:22:22Z</time>
      </trkpt>
      <trkpt lat="43.56475" lon="1.33788">
        <ele>161</ele>
        <time>2021-09-19T10:22:23Z</time>
      </trkpt>
      <trkpt lat="43.56478" lon="1.33786">
        <ele>161</ele>
        <time>2021-09-19T10:22:24Z</time>
      </trkpt>
      <trkpt lat="43.56482" lon="1.33783">
        <ele>161</ele>
        <time>2021-09-19T10:22:25Z</time>
      </trkpt>
      <trkpt lat="43.56485" lon="1.3378">
        <ele>161</ele>
        <time>2021-09-19T10:22:26Z</time>
      </trkpt>
      <trkpt lat="43.56488" lon="1.33777">
        <ele>160</ele>
        <time>2021-09-19T10:22:27Z</time>
      </trkpt>
      <trkpt lat="43.56492" lon="1.33774">
        <ele>160</ele>
        <time>2021-09-19T10:22:28Z</time>
      </trkpt>
      <trkpt lat="43.56495" lon="1.33771">
        <ele>160</ele>
        <time>2021-09-19T10:22:29Z</time>
      </trkpt>
      <trkpt lat="43.56498" lon="1.33767">
        <ele>161</ele>
        <time>2021-09-19T10:22:30Z</time>
      </trkpt>
      <trkpt lat="43.56502" lon="1.33764">
        <ele>161</ele>
        <time>2021-09-19T10:22:31Z</time>
      </trkpt>
      <trkpt lat="43.56505" lon="1.33761">
        <ele>161</ele>
        <time>2021-09-19T10:22:32Z</time>
      </trkpt>
      <trkpt lat="43.56508" lon="1.33757">
        <ele>161</ele>
        <time>2021-09-19T10:22:33Z</time>
      </trkpt>
      <trkpt lat="43.56512" lon="1.33754">
        <ele>161</ele>
        <time>2021-09-19T10:22:34Z</time>
      </trkpt>
      <trkpt lat="43.56515" lon="1.33751">
        <ele>161</ele>
        <time>2021-09-19T10:22:35Z</time>
      </trkpt>
      <trkpt lat="43.56518" lon="1.33748">
        <ele>161</ele>
        <time>2021-09-19T10:22:36Z</time>
      </trkpt>
      <trkpt lat="43.56522" lon="1.33744">
        <ele>161</ele>
        <time>2021-09-19T10:22:37Z</time>
      </trkpt>
      <trkpt lat="43.56525" lon="1.33741">
        <ele>161</ele>
        <time>2021-09-19T10:22:38Z</time>
      </trkpt>
      <trkpt lat="43.56528" lon="1.33738">
        <ele>161</ele>
        <time>2021-09-19T10:22:39Z</time>
      </trkpt>
      <trkpt lat="43.56531" lon="1.33735">
        <ele>161</ele>
        <time>2021-09-19T10:22:40Z</time>
      </trkpt>
      <trkpt lat="43.56535" lon="1.33732">
        <ele>161</ele>
        <time>2021-09-19T10:22:41Z</time>
      </trkpt>
      <trkpt lat="43.56538" lon="1.33729">
        <ele>161</ele>
        <time>2021-09-19T10:22:42Z</time>
      </trkpt>
      <trkpt lat="43.56541" lon="1.33726">
        <ele>161</ele>
        <time>2021-09-19T10:22:43Z</time>
      </trkpt>
      <trkpt lat="43.56544" lon="1.33724">
        <ele>161</ele>
        <time>2021-09-19T10:22:44Z</time>
      </trkpt>
      <trkpt lat="43.56547" lon="1.33721">
        <ele>161</ele>
        <time>2021-09-19T10:22:45Z</time>
      </trkpt>
      <trkpt lat="43.5655" lon="1.33718">
        <ele>161</ele>
        <time>2021-09-19T10:22:46Z</time>
      </trkpt>
      <trkpt lat="43.56553" lon="1.33715">
        <ele>161</ele>
        <time>2021-09-19T10:22:47Z</time>
      </trkpt>
      <trkpt lat="43.56556" lon="1.33712">
        <ele>161</ele>
        <time>2021-09-19T10:22:48Z</time>
      </trkpt>
      <trkpt lat="43.56559" lon="1.33709">
        <ele>161</ele>
        <time>2021-09-19T10:22:49Z</time>
      </trkpt>
      <trkpt lat="43.56562" lon="1.33707">
        <ele>161</ele>
        <time>2021-09-19T10:22:50Z</time>
      </trkpt>
      <trkpt lat="43.56565" lon="1.33704">
        <ele>161</ele>
        <time>2021-09-19T10:22:51Z</time>
      </trkpt>
      <trkpt lat="43.56568" lon="1.33701">
        <ele>161</ele>
        <time>2021-09-19T10:22:52Z</time>
      </trkpt>
      <trkpt lat="43.56571" lon="1.33698">
        <ele>161</ele>
        <time>2021-09-19T10:22:53Z</time>
      </trkpt>
      <trkpt lat="43.56575" lon="1.33695">
        <ele>161</ele>
        <time>2021-09-19T10:22:54Z</time>
      </trkpt>
      <trkpt lat="43.56578" lon="1.33692">
        <ele>161</ele>
        <time>2021-09-19T10:22:55Z</time>
      </trkpt>
      <trkpt lat="43.56581" lon="1.3369">
        <ele>161</ele>
        <time>2021-09-19T10:22:56Z</time>
      </trkpt>
      <trkpt lat="43.56584" lon="1.33687">
        <ele>162</ele>
        <time>2021-09-19T10:22:57Z</time>
      </trkpt>
      <trkpt lat="43.56587" lon="1.33684">
        <ele>162</ele>
        <time>2021-09-19T10:22:58Z</time>
      </trkpt>
      <trkpt lat="43.5659" lon="1.33681">
        <ele>162</ele>
        <time>2021-09-19T10:22:59Z</time>
      </trkpt>
      <trkpt lat="43.56594" lon="1.33679">
        <ele>162</ele>
        <time>2021-09-19T10:23:00Z</time>
      </trkpt>
      <trkpt lat="43.56597" lon="1.33676">
        <ele>162</ele>
        <time>2021-09-19T10:23:01Z</time>
      </trkpt>
      <trkpt lat="43.566" lon="1.33673">
        <ele>162</ele>
        <time>2021-09-19T10:23:02Z</time>
      </trkpt>
      <trkpt lat="43.56604" lon="1.3367">
        <ele>161</ele>
        <time>2021-09-19T10:23:03Z</time>
      </trkpt>
      <trkpt lat="43.56607" lon="1.33667">
        <ele>161</ele>
        <time>2021-09-19T10:23:04Z</time>
      </trkpt>
      <trkpt lat="43.56611" lon="1.33664">
        <ele>161</ele>
        <time>2021-09-19T10:23:05Z</time>
      </trkpt>
      <trkpt lat="43.56615" lon="1.33661">
        <ele>161</ele>
        <time>2021-09-19T10:23:06Z</time>
      </trkpt>
      <trkpt lat="43.56618" lon="1.33659">
        <ele>161</ele>
        <time>2021-09-19T10:23:07Z</time>
      </trkpt>
      <trkpt lat="43.56622" lon="1.33656">
        <ele>161</ele>
        <time>2021-09-19T10:23:08Z</time>
      </trkpt>
      <trkpt lat="43.56625" lon="1.33653">
        <ele>161</ele>
        <time>2021-09-19T10:23:09Z</time>
      </trkpt>
      <trkpt lat="43.56629" lon="1.3365">
        <ele>161</ele>
        <time>2021-09-19T10:23:10Z</time>
      </trkpt>
      <trkpt lat="43.56632" lon="1.33647">
        <ele>161</ele>
        <time>2021-09-19T10:23:11Z</time>
      </trkpt>
      <trkpt lat="43.56636" lon="1.33644">
        <ele>161</ele>
        <time>2021-09-19T10:23:12Z</time>
      </trkpt>
      <trkpt lat="43.5664" lon="1.33642">
        <ele>161</ele>
        <time>2021-09-19T10:23:13Z</time>
      </trkpt>
      <trkpt lat="43.56643" lon="1.33639">
        <ele>161</ele>
        <time>2021-09-19T10:23:14Z</time>
      </trkpt>
      <trkpt lat="43.56647" lon="1.33636">
        <ele>161</ele>
        <time>2021-09-19T10:23:15Z</time>
      </trkpt>
      <trkpt lat="43.5665" lon="1.33634">
        <ele>161</ele>
        <time>2021-09-19T10:23:16Z</time>
      </trkpt>
      <trkpt lat="43.56654" lon="1.33631">
        <ele>161</ele>
        <time>2021-09-19T10:23:17Z</time>
      </trkpt>
      <trkpt lat="43.56657" lon="1.33629">
        <ele>161</ele>
        <time>2021-09-19T10:23:18Z</time>
      </trkpt>
      <trkpt lat="43.56661" lon="1.33626">
        <ele>161</ele>
        <time>2021-09-19T10:23:19Z</time>
      </trkpt>
      <trkpt lat="43.56664" lon="1.33624">
        <ele>161</ele>
        <time>2021-09-19T10:23:20Z</time>
      </trkpt>
      <trkpt lat="43.56667" lon="1.33621">
        <ele>161</ele>
        <time>2021-09-19T10:23:21Z</time>
      </trkpt>
      <trkpt lat="43.56671" lon="1.33618">
        <ele>161</ele>
        <time>2021-09-19T10:23:22Z</time>
      </trkpt>
      <trkpt lat="43.56675" lon="1.33615">
        <ele>161</ele>
        <time>2021-09-19T10:23:23Z</time>
      </trkpt>
      <trkpt lat="43.56678" lon="1.33613">
        <ele>161</ele>
        <time>2021-09-19T10:23:24Z</time>
      </trkpt>
      <trkpt lat="43.56682" lon="1.3361">
        <ele>161</ele>
        <time>2021-09-19T10:23:25Z</time>
      </trkpt>
      <trkpt lat="43.56686" lon="1.33607">
        <ele>161</ele>
        <time>2021-09-19T10:23:26Z</time>
      </trkpt>
      <trkpt lat="43.56689" lon="1.33604">
        <ele>161</ele>
        <time>2021-09-19T10:23:27Z</time>
      </trkpt>
      <trkpt lat="43.56693" lon="1.33602">
        <ele>161</ele>
        <time>2021-09-19T10:23:28Z</time>
      </trkpt>
      <trkpt lat="43.56696" lon="1.336">
        <ele>161</ele>
        <time>2021-09-19T10:23:29Z</time>
      </trkpt>
      <trkpt lat="43.567" lon="1.33598">
        <ele>161</ele>
        <time>2021-09-19T10:23:30Z</time>
      </trkpt>
      <trkpt lat="43.56703" lon="1.33596">
        <ele>161</ele>
        <time>2021-09-19T10:23:31Z</time>
      </trkpt>
      <trkpt lat="43.56706" lon="1.33595">
        <ele>161</ele>
        <time>2021-09-19T10:23:32Z</time>
      </trkpt>
      <trkpt lat="43.5671" lon="1.33594">
        <ele>161</ele>
        <time>2021-09-19T10:23:33Z</time>
      </trkpt>
      <trkpt lat="43.56713" lon="1.33593">
        <ele>161</ele>
        <time>2021-09-19T10:23:34Z</time>
      </trkpt>
      <trkpt lat="43.56716" lon="1.33592">
        <ele>161</ele>
        <time>2021-09-19T10:23:35Z</time>
      </trkpt>
      <trkpt lat="43.56718" lon="1.33592">
        <ele>161</ele>
        <time>2021-09-19T10:23:36Z</time>
      </trkpt>
      <trkpt lat="43.56721" lon="1.33592">
        <ele>161</ele>
        <time>2021-09-19T10:23:37Z</time>
      </trkpt>
      <trkpt lat="43.56724" lon="1.33593">
        <ele>161</ele>
        <time>2021-09-19T10:23:38Z</time>
      </trkpt>
      <trkpt lat="43.56726" lon="1.33596">
        <ele>161</ele>
        <time>2021-09-19T10:23:39Z</time>
      </trkpt>
      <trkpt lat="43.56727" lon="1.33598">
        <ele>161</ele>
        <time>2021-09-19T10:23:40Z</time>
      </trkpt>
      <trkpt lat="43.56729" lon="1.33599">
        <ele>161</ele>
        <time>2021-09-19T10:23:41Z</time>
      </trkpt>
      <trkpt lat="43.56731" lon="1.33596">
        <ele>161</ele>
        <time>2021-09-19T10:23:43Z</time>
      </trkpt>
      <trkpt lat="43.56732" lon="1.33593">
        <ele>161</ele>
        <time>2021-09-19T10:23:44Z</time>
      </trkpt>
      <trkpt lat="43.56731" lon="1.3359">
        <ele>161</ele>
        <time>2021-09-19T10:23:45Z</time>
      </trkpt>
      <trkpt lat="43.5673" lon="1.33585">
        <ele>161</ele>
        <time>2021-09-19T10:23:46Z</time>
      </trkpt>
      <trkpt lat="43.56731" lon="1.3358">
        <ele>161</ele>
        <time>2021-09-19T10:23:47Z</time>
      </trkpt>
      <trkpt lat="43.56732" lon="1.33576">
        <ele>161</ele>
        <time>2021-09-19T10:23:48Z</time>
      </trkpt>
      <trkpt lat="43.56736" lon="1.33572">
        <ele>161</ele>
        <time>2021-09-19T10:23:49Z</time>
      </trkpt>
      <trkpt lat="43.56739" lon="1.33569">
        <ele>161</ele>
        <time>2021-09-19T10:23:50Z</time>
      </trkpt>
      <trkpt lat="43.56743" lon="1.33566">
        <ele>161</ele>
        <time>2021-09-19T10:23:51Z</time>
      </trkpt>
      <trkpt lat="43.56747" lon="1.33563">
        <ele>161</ele>
        <time>2021-09-19T10:23:52Z</time>
      </trkpt>
      <trkpt lat="43.56751" lon="1.33559">
        <ele>161</ele>
        <time>2021-09-19T10:23:53Z</time>
      </trkpt>
      <trkpt lat="43.56754" lon="1.33556">
        <ele>161</ele>
        <time>2021-09-19T10:23:54Z</time>
      </trkpt>
      <trkpt lat="43.56758" lon="1.33553">
        <ele>161</ele>
        <time>2021-09-19T10:23:55Z</time>
      </trkpt>
      <trkpt lat="43.56761" lon="1.33551">
        <ele>161</ele>
        <time>2021-09-19T10:23:56Z</time>
      </trkpt>
      <trkpt lat="43.56765" lon="1.33549">
        <ele>161</ele>
        <time>2021-09-19T10:23:57Z</time>
      </trkpt>
      <trkpt lat="43.56768" lon="1.33546">
        <ele>161</ele>
        <time>2021-09-19T10:23:58Z</time>
      </trkpt>
      <trkpt lat="43.56771" lon="1.33544">
        <ele>161</ele>
        <time>2021-09-19T10:23:59Z</time>
      </trkpt>
      <trkpt lat="43.56774" lon="1.33542">
        <ele>161</ele>
        <time>2021-09-19T10:24:00Z</time>
      </trkpt>
      <trkpt lat="43.56777" lon="1.33539">
        <ele>161</ele>
        <time>2021-09-19T10:24:01Z</time>
      </trkpt>
      <trkpt lat="43.56781" lon="1.33537">
        <ele>161</ele>
        <time>2021-09-19T10:24:02Z</time>
      </trkpt>
      <trkpt lat="43.56784" lon="1.33534">
        <ele>160</ele>
        <time>2021-09-19T10:24:03Z</time>
      </trkpt>
      <trkpt lat="43.56788" lon="1.33532">
        <ele>160</ele>
        <time>2021-09-19T10:24:04Z</time>
      </trkpt>
      <trkpt lat="43.56791" lon="1.33529">
        <ele>160</ele>
        <time>2021-09-19T10:24:05Z</time>
      </trkpt>
      <trkpt lat="43.56794" lon="1.33526">
        <ele>160</ele>
        <time>2021-09-19T10:24:06Z</time>
      </trkpt>
      <trkpt lat="43.56798" lon="1.33523">
        <ele>160</ele>
        <time>2021-09-19T10:24:07Z</time>
      </trkpt>
      <trkpt lat="43.56801" lon="1.33521">
        <ele>160</ele>
        <time>2021-09-19T10:24:08Z</time>
      </trkpt>
      <trkpt lat="43.56805" lon="1.33518">
        <ele>160</ele>
        <time>2021-09-19T10:24:09Z</time>
      </trkpt>
      <trkpt lat="43.56808" lon="1.33515">
        <ele>160</ele>
        <time>2021-09-19T10:24:10Z</time>
      </trkpt>
      <trkpt lat="43.56812" lon="1.33513">
        <ele>160</ele>
        <time>2021-09-19T10:24:11Z</time>
      </trkpt>
      <trkpt lat="43.56816" lon="1.3351">
        <ele>160</ele>
        <time>2021-09-19T10:24:12Z</time>
      </trkpt>
      <trkpt lat="43.56819" lon="1.33507">
        <ele>160</ele>
        <time>2021-09-19T10:24:13Z</time>
      </trkpt>
      <trkpt lat="43.56823" lon="1.33504">
        <ele>161</ele>
        <time>2021-09-19T10:24:14Z</time>
      </trkpt>
      <trkpt lat="43.56826" lon="1.33501">
        <ele>161</ele>
        <time>2021-09-19T10:24:15Z</time>
      </trkpt>
      <trkpt lat="43.5683" lon="1.33498">
        <ele>161</ele>
        <time>2021-09-19T10:24:16Z</time>
      </trkpt>
      <trkpt lat="43.56834" lon="1.33495">
        <ele>160</ele>
        <time>2021-09-19T10:24:17Z</time>
      </trkpt>
      <trkpt lat="43.56837" lon="1.33493">
        <ele>161</ele>
        <time>2021-09-19T10:24:18Z</time>
      </trkpt>
      <trkpt lat="43.56841" lon="1.3349">
        <ele>161</ele>
        <time>2021-09-19T10:24:19Z</time>
      </trkpt>
      <trkpt lat="43.56845" lon="1.33487">
        <ele>161</ele>
        <time>2021-09-19T10:24:20Z</time>
      </trkpt>
      <trkpt lat="43.56848" lon="1.33484">
        <ele>161</ele>
        <time>2021-09-19T10:24:21Z</time>
      </trkpt>
      <trkpt lat="43.56852" lon="1.33481">
        <ele>161</ele>
        <time>2021-09-19T10:24:22Z</time>
      </trkpt>
      <trkpt lat="43.56856" lon="1.33478">
        <ele>161</ele>
        <time>2021-09-19T10:24:23Z</time>
      </trkpt>
      <trkpt lat="43.5686" lon="1.33476">
        <ele>161</ele>
        <time>2021-09-19T10:24:24Z</time>
      </trkpt>
      <trkpt lat="43.56863" lon="1.33473">
        <ele>161</ele>
        <time>2021-09-19T10:24:25Z</time>
      </trkpt>
      <trkpt lat="43.56867" lon="1.3347">
        <ele>161</ele>
        <time>2021-09-19T10:24:26Z</time>
      </trkpt>
      <trkpt lat="43.56871" lon="1.33467">
        <ele>160</ele>
        <time>2021-09-19T10:24:27Z</time>
      </trkpt>
      <trkpt lat="43.56875" lon="1.33464">
        <ele>160</ele>
        <time>2021-09-19T10:24:28Z</time>
      </trkpt>
      <trkpt lat="43.56878" lon="1.33461">
        <ele>160</ele>
        <time>2021-09-19T10:24:29Z</time>
      </trkpt>
      <trkpt lat="43.56882" lon="1.33459">
        <ele>160</ele>
        <time>2021-09-19T10:24:30Z</time>
      </trkpt>
      <trkpt lat="43.56886" lon="1.33456">
        <ele>160</ele>
        <time>2021-09-19T10:24:31Z</time>
      </trkpt>
      <trkpt lat="43.56889" lon="1.33453">
        <ele>159</ele>
        <time>2021-09-19T10:24:32Z</time>
      </trkpt>
      <trkpt lat="43.56893" lon="1.33451">
        <ele>160</ele>
        <time>2021-09-19T10:24:33Z</time>
      </trkpt>
      <trkpt lat="43.56896" lon="1.33448">
        <ele>160</ele>
        <time>2021-09-19T10:24:34Z</time>
      </trkpt>
      <trkpt lat="43.569" lon="1.33445">
        <ele>160</ele>
        <time>2021-09-19T10:24:35Z</time>
      </trkpt>
      <trkpt lat="43.56903" lon="1.33443">
        <ele>161</ele>
        <time>2021-09-19T10:24:36Z</time>
      </trkpt>
      <trkpt lat="43.56906" lon="1.3344">
        <ele>161</ele>
        <time>2021-09-19T10:24:37Z</time>
      </trkpt>
      <trkpt lat="43.5691" lon="1.33438">
        <ele>161</ele>
        <time>2021-09-19T10:24:38Z</time>
      </trkpt>
      <trkpt lat="43.56913" lon="1.33435">
        <ele>161</ele>
        <time>2021-09-19T10:24:39Z</time>
      </trkpt>
      <trkpt lat="43.56916" lon="1.33433">
        <ele>161</ele>
        <time>2021-09-19T10:24:40Z</time>
      </trkpt>
      <trkpt lat="43.56919" lon="1.3343">
        <ele>161</ele>
        <time>2021-09-19T10:24:41Z</time>
      </trkpt>
      <trkpt lat="43.56923" lon="1.33429">
        <ele>161</ele>
        <time>2021-09-19T10:24:42Z</time>
      </trkpt>
      <trkpt lat="43.56926" lon="1.33427">
        <ele>161</ele>
        <time>2021-09-19T10:24:43Z</time>
      </trkpt>
      <trkpt lat="43.5693" lon="1.33425">
        <ele>160</ele>
        <time>2021-09-19T10:24:44Z</time>
      </trkpt>
      <trkpt lat="43.56934" lon="1.33424">
        <ele>160</ele>
        <time>2021-09-19T10:24:45Z</time>
      </trkpt>
      <trkpt lat="43.56938" lon="1.33422">
        <ele>160</ele>
        <time>2021-09-19T10:24:46Z</time>
      </trkpt>
      <trkpt lat="43.56942" lon="1.3342">
        <ele>160</ele>
        <time>2021-09-19T10:24:47Z</time>
      </trkpt>
      <trkpt lat="43.56945" lon="1.33418">
        <ele>160</ele>
        <time>2021-09-19T10:24:48Z</time>
      </trkpt>
      <trkpt lat="43.56949" lon="1.33418">
        <ele>160</ele>
        <time>2021-09-19T10:24:49Z</time>
      </trkpt>
      <trkpt lat="43.56953" lon="1.3342">
        <ele>160</ele>
        <time>2021-09-19T10:24:50Z</time>
      </trkpt>
      <trkpt lat="43.56956" lon="1.33424">
        <ele>161</ele>
        <time>2021-09-19T10:24:51Z</time>
      </trkpt>
      <trkpt lat="43.56961" lon="1.33433">
        <ele>161</ele>
        <time>2021-09-19T10:24:53Z</time>
      </trkpt>
      <trkpt lat="43.56963" lon="1.33437">
        <ele>161</ele>
        <time>2021-09-19T10:24:54Z</time>
      </trkpt>
      <trkpt lat="43.56965" lon="1.33442">
        <ele>161</ele>
        <time>2021-09-19T10:24:55Z</time>
      </trkpt>
      <trkpt lat="43.56967" lon="1.33445">
        <ele>161</ele>
        <time>2021-09-19T10:24:56Z</time>
      </trkpt>
      <trkpt lat="43.5697" lon="1.33448">
        <ele>161</ele>
        <time>2021-09-19T10:24:57Z</time>
      </trkpt>
      <trkpt lat="43.56972" lon="1.33448">
        <ele>160</ele>
        <time>2021-09-19T10:24:58Z</time>
      </trkpt>
      <trkpt lat="43.56975" lon="1.33447">
        <ele>160</ele>
        <time>2021-09-19T10:24:59Z</time>
      </trkpt>
      <trkpt lat="43.56977" lon="1.33446">
        <ele>161</ele>
        <time>2021-09-19T10:25:00Z</time>
      </trkpt>
      <trkpt lat="43.5698" lon="1.33444">
        <ele>161</ele>
        <time>2021-09-19T10:25:01Z</time>
      </trkpt>
      <trkpt lat="43.56982" lon="1.33441">
        <ele>160</ele>
        <time>2021-09-19T10:25:02Z</time>
      </trkpt>
      <trkpt lat="43.56983" lon="1.33438">
        <ele>160</ele>
        <time>2021-09-19T10:25:03Z</time>
      </trkpt>
      <trkpt lat="43.56983" lon="1.33433">
        <ele>160</ele>
        <time>2021-09-19T10:25:04Z</time>
      </trkpt>
      <trkpt lat="43.56982" lon="1.33429">
        <ele>160</ele>
        <time>2021-09-19T10:25:05Z</time>
      </trkpt>
      <trkpt lat="43.56983" lon="1.33424">
        <ele>161</ele>
        <time>2021-09-19T10:25:06Z</time>
      </trkpt>
      <trkpt lat="43.56985" lon="1.3342">
        <ele>161</ele>
        <time>2021-09-19T10:25:07Z</time>
      </trkpt>
      <trkpt lat="43.56988" lon="1.33417">
        <ele>161</ele>
        <time>2021-09-19T10:25:08Z</time>
      </trkpt>
      <trkpt lat="43.5699" lon="1.33413">
        <ele>160</ele>
        <time>2021-09-19T10:25:09Z</time>
      </trkpt>
      <trkpt lat="43.56992" lon="1.33408">
        <ele>160</ele>
        <time>2021-09-19T10:25:10Z</time>
      </trkpt>
      <trkpt lat="43.56993" lon="1.33404">
        <ele>160</ele>
        <time>2021-09-19T10:25:11Z</time>
      </trkpt>
      <trkpt lat="43.56995" lon="1.33399">
        <ele>160</ele>
        <time>2021-09-19T10:25:12Z</time>
      </trkpt>
      <trkpt lat="43.56997" lon="1.33395">
        <ele>160</ele>
        <time>2021-09-19T10:25:13Z</time>
      </trkpt>
      <trkpt lat="43.57" lon="1.33392">
        <ele>160</ele>
        <time>2021-09-19T10:25:14Z</time>
      </trkpt>
      <trkpt lat="43.57003" lon="1.33389">
        <ele>160</ele>
        <time>2021-09-19T10:25:15Z</time>
      </trkpt>
      <trkpt lat="43.57006" lon="1.33386">
        <ele>160</ele>
        <time>2021-09-19T10:25:16Z</time>
      </trkpt>
      <trkpt lat="43.57009" lon="1.33383">
        <ele>160</ele>
        <time>2021-09-19T10:25:17Z</time>
      </trkpt>
      <trkpt lat="43.57013" lon="1.3338">
        <ele>160</ele>
        <time>2021-09-19T10:25:18Z</time>
      </trkpt>
      <trkpt lat="43.57018" lon="1.33378">
        <ele>160</ele>
        <time>2021-09-19T10:25:19Z</time>
      </trkpt>
      <trkpt lat="43.57022" lon="1.33375">
        <ele>160</ele>
        <time>2021-09-19T10:25:20Z</time>
      </trkpt>
      <trkpt lat="43.57026" lon="1.33372">
        <ele>160</ele>
        <time>2021-09-19T10:25:21Z</time>
      </trkpt>
      <trkpt lat="43.5703" lon="1.33369">
        <ele>160</ele>
        <time>2021-09-19T10:25:22Z</time>
      </trkpt>
      <trkpt lat="43.57034" lon="1.33366">
        <ele>160</ele>
        <time>2021-09-19T10:25:23Z</time>
      </trkpt>
      <trkpt lat="43.57038" lon="1.33363">
        <ele>159</ele>
        <time>2021-09-19T10:25:24Z</time>
      </trkpt>
      <trkpt lat="43.57042" lon="1.33361">
        <ele>159</ele>
        <time>2021-09-19T10:25:25Z</time>
      </trkpt>
      <trkpt lat="43.57046" lon="1.33358">
        <ele>160</ele>
        <time>2021-09-19T10:25:26Z</time>
      </trkpt>
      <trkpt lat="43.5705" lon="1.33355">
        <ele>160</ele>
        <time>2021-09-19T10:25:27Z</time>
      </trkpt>
      <trkpt lat="43.57054" lon="1.33353">
        <ele>160</ele>
        <time>2021-09-19T10:25:28Z</time>
      </trkpt>
      <trkpt lat="43.57058" lon="1.3335">
        <ele>160</ele>
        <time>2021-09-19T10:25:29Z</time>
      </trkpt>
      <trkpt lat="43.57062" lon="1.33348">
        <ele>160</ele>
        <time>2021-09-19T10:25:30Z</time>
      </trkpt>
      <trkpt lat="43.57066" lon="1.33345">
        <ele>159</ele>
        <time>2021-09-19T10:25:31Z</time>
      </trkpt>
      <trkpt lat="43.5707" lon="1.33342">
        <ele>159</ele>
        <time>2021-09-19T10:25:32Z</time>
      </trkpt>
      <trkpt lat="43.57073" lon="1.33339">
        <ele>159</ele>
        <time>2021-09-19T10:25:33Z</time>
      </trkpt>
      <trkpt lat="43.57077" lon="1.33336">
        <ele>159</ele>
        <time>2021-09-19T10:25:34Z</time>
      </trkpt>
      <trkpt lat="43.57081" lon="1.33333">
        <ele>159</ele>
        <time>2021-09-19T10:25:35Z</time>
      </trkpt>
      <trkpt lat="43.57085" lon="1.3333">
        <ele>159</ele>
        <time>2021-09-19T10:25:36Z</time>
      </trkpt>
      <trkpt lat="43.57088" lon="1.33326">
        <ele>159</ele>
        <time>2021-09-19T10:25:37Z</time>
      </trkpt>
      <trkpt lat="43.57093" lon="1.33323">
        <ele>159</ele>
        <time>2021-09-19T10:25:38Z</time>
      </trkpt>
      <trkpt lat="43.57097" lon="1.3332">
        <ele>159</ele>
        <time>2021-09-19T10:25:39Z</time>
      </trkpt>
      <trkpt lat="43.57101" lon="1.33317">
        <ele>159</ele>
        <time>2021-09-19T10:25:40Z</time>
      </trkpt>
      <trkpt lat="43.57106" lon="1.33314">
        <ele>159</ele>
        <time>2021-09-19T10:25:41Z</time>
      </trkpt>
      <trkpt lat="43.5711" lon="1.3331">
        <ele>159</ele>
        <time>2021-09-19T10:25:42Z</time>
      </trkpt>
      <trkpt lat="43.57115" lon="1.33306">
        <ele>159</ele>
        <time>2021-09-19T10:25:43Z</time>
      </trkpt>
      <trkpt lat="43.57119" lon="1.33302">
        <ele>159</ele>
        <time>2021-09-19T10:25:44Z</time>
      </trkpt>
      <trkpt lat="43.57123" lon="1.33299">
        <ele>159</ele>
        <time>2021-09-19T10:25:45Z</time>
      </trkpt>
      <trkpt lat="43.57128" lon="1.33295">
        <ele>159</ele>
        <time>2021-09-19T10:25:46Z</time>
      </trkpt>
      <trkpt lat="43.57132" lon="1.33291">
        <ele>159</ele>
        <time>2021-09-19T10:25:47Z</time>
      </trkpt>
      <trkpt lat="43.57136" lon="1.33288">
        <ele>158</ele>
        <time>2021-09-19T10:25:48Z</time>
      </trkpt>
      <trkpt lat="43.57141" lon="1.33286">
        <ele>158</ele>
        <time>2021-09-19T10:25:49Z</time>
      </trkpt>
      <trkpt lat="43.57145" lon="1.33284">
        <ele>158</ele>
        <time>2021-09-19T10:25:50Z</time>
      </trkpt>
      <trkpt lat="43.5715" lon="1.33283">
        <ele>158</ele>
        <time>2021-09-19T10:25:51Z</time>
      </trkpt>
      <trkpt lat="43.57154" lon="1.33282">
        <ele>158</ele>
        <time>2021-09-19T10:25:52Z</time>
      </trkpt>
      <trkpt lat="43.57159" lon="1.3328">
        <ele>158</ele>
        <time>2021-09-19T10:25:53Z</time>
      </trkpt>
      <trkpt lat="43.57163" lon="1.33278">
        <ele>158</ele>
        <time>2021-09-19T10:25:54Z</time>
      </trkpt>
      <trkpt lat="43.57167" lon="1.33275">
        <ele>158</ele>
        <time>2021-09-19T10:25:55Z</time>
      </trkpt>
      <trkpt lat="43.57171" lon="1.33271">
        <ele>157</ele>
        <time>2021-09-19T10:25:56Z</time>
      </trkpt>
      <trkpt lat="43.57175" lon="1.33268">
        <ele>158</ele>
        <time>2021-09-19T10:25:57Z</time>
      </trkpt>
      <trkpt lat="43.5718" lon="1.33265">
        <ele>158</ele>
        <time>2021-09-19T10:25:58Z</time>
      </trkpt>
      <trkpt lat="43.57184" lon="1.33261">
        <ele>158</ele>
        <time>2021-09-19T10:25:59Z</time>
      </trkpt>
      <trkpt lat="43.57186" lon="1.33256">
        <ele>158</ele>
        <time>2021-09-19T10:26:00Z</time>
      </trkpt>
      <trkpt lat="43.57188" lon="1.3325">
        <ele>158</ele>
        <time>2021-09-19T10:26:01Z</time>
      </trkpt>
      <trkpt lat="43.57191" lon="1.33245">
        <ele>158</ele>
        <time>2021-09-19T10:26:02Z</time>
      </trkpt>
      <trkpt lat="43.57194" lon="1.3324">
        <ele>158</ele>
        <time>2021-09-19T10:26:03Z</time>
      </trkpt>
      <trkpt lat="43.57197" lon="1.33236">
        <ele>158</ele>
        <time>2021-09-19T10:26:04Z</time>
      </trkpt>
      <trkpt lat="43.57201" lon="1.33233">
        <ele>158</ele>
        <time>2021-09-19T10:26:05Z</time>
      </trkpt>
      <trkpt lat="43.57205" lon="1.33231">
        <ele>158</ele>
        <time>2021-09-19T10:26:06Z</time>
      </trkpt>
      <trkpt lat="43.57209" lon="1.33231">
        <ele>158</ele>
        <time>2021-09-19T10:26:07Z</time>
      </trkpt>
      <trkpt lat="43.57213" lon="1.33232">
        <ele>158</ele>
        <time>2021-09-19T10:26:08Z</time>
      </trkpt>
      <trkpt lat="43.57216" lon="1.33233">
        <ele>158</ele>
        <time>2021-09-19T10:26:09Z</time>
      </trkpt>
      <trkpt lat="43.57219" lon="1.33232">
        <ele>158</ele>
        <time>2021-09-19T10:26:10Z</time>
      </trkpt>
      <trkpt lat="43.57222" lon="1.33231">
        <ele>158</ele>
        <time>2021-09-19T10:26:11Z</time>
      </trkpt>
      <trkpt lat="43.57224" lon="1.33228">
        <ele>158</ele>
        <time>2021-09-19T10:26:12Z</time>
      </trkpt>
      <trkpt lat="43.57226" lon="1.33224">
        <ele>157</ele>
        <time>2021-09-19T10:26:13Z</time>
      </trkpt>
      <trkpt lat="43.57227" lon="1.3322">
        <ele>157</ele>
        <time>2021-09-19T10:26:14Z</time>
      </trkpt>
      <trkpt lat="43.57228" lon="1.33216">
        <ele>157</ele>
        <time>2021-09-19T10:26:15Z</time>
      </trkpt>
      <trkpt lat="43.57229" lon="1.33211">
        <ele>157</ele>
        <time>2021-09-19T10:26:16Z</time>
      </trkpt>
      <trkpt lat="43.57231" lon="1.33207">
        <ele>158</ele>
        <time>2021-09-19T10:26:17Z</time>
      </trkpt>
      <trkpt lat="43.57233" lon="1.33203">
        <ele>158</ele>
        <time>2021-09-19T10:26:18Z</time>
      </trkpt>
      <trkpt lat="43.57236" lon="1.33199">
        <ele>158</ele>
        <time>2021-09-19T10:26:19Z</time>
      </trkpt>
      <trkpt lat="43.5724" lon="1.33195">
        <ele>158</ele>
        <time>2021-09-19T10:26:20Z</time>
      </trkpt>
      <trkpt lat="43.57243" lon="1.33191">
        <ele>158</ele>
        <time>2021-09-19T10:26:21Z</time>
      </trkpt>
      <trkpt lat="43.57246" lon="1.33187">
        <ele>158</ele>
        <time>2021-09-19T10:26:22Z</time>
      </trkpt>
      <trkpt lat="43.57249" lon="1.33183">
        <ele>158</ele>
        <time>2021-09-19T10:26:23Z</time>
      </trkpt>
      <trkpt lat="43.57253" lon="1.3318">
        <ele>158</ele>
        <time>2021-09-19T10:26:24Z</time>
      </trkpt>
      <trkpt lat="43.57256" lon="1.33176">
        <ele>158</ele>
        <time>2021-09-19T10:26:25Z</time>
      </trkpt>
      <trkpt lat="43.57259" lon="1.33173">
        <ele>158</ele>
        <time>2021-09-19T10:26:26Z</time>
      </trkpt>
      <trkpt lat="43.57262" lon="1.33169">
        <ele>158</ele>
        <time>2021-09-19T10:26:27Z</time>
      </trkpt>
      <trkpt lat="43.57266" lon="1.33165">
        <ele>158</ele>
        <time>2021-09-19T10:26:28Z</time>
      </trkpt>
      <trkpt lat="43.57269" lon="1.33162">
        <ele>158</ele>
        <time>2021-09-19T10:26:29Z</time>
      </trkpt>
      <trkpt lat="43.57272" lon="1.33158">
        <ele>159</ele>
        <time>2021-09-19T10:26:30Z</time>
      </trkpt>
      <trkpt lat="43.57276" lon="1.33155">
        <ele>159</ele>
        <time>2021-09-19T10:26:31Z</time>
      </trkpt>
      <trkpt lat="43.57279" lon="1.33151">
        <ele>158</ele>
        <time>2021-09-19T10:26:32Z</time>
      </trkpt>
      <trkpt lat="43.57283" lon="1.33147">
        <ele>158</ele>
        <time>2021-09-19T10:26:33Z</time>
      </trkpt>
      <trkpt lat="43.57286" lon="1.33144">
        <ele>159</ele>
        <time>2021-09-19T10:26:34Z</time>
      </trkpt>
      <trkpt lat="43.57289" lon="1.3314">
        <ele>159</ele>
        <time>2021-09-19T10:26:35Z</time>
      </trkpt>
      <trkpt lat="43.57293" lon="1.33136">
        <ele>159</ele>
        <time>2021-09-19T10:26:36Z</time>
      </trkpt>
      <trkpt lat="43.57296" lon="1.33132">
        <ele>158</ele>
        <time>2021-09-19T10:26:37Z</time>
      </trkpt>
      <trkpt lat="43.57299" lon="1.33128">
        <ele>158</ele>
        <time>2021-09-19T10:26:38Z</time>
      </trkpt>
      <trkpt lat="43.57303" lon="1.33124">
        <ele>158</ele>
        <time>2021-09-19T10:26:39Z</time>
      </trkpt>
      <trkpt lat="43.57306" lon="1.3312">
        <ele>158</ele>
        <time>2021-09-19T10:26:40Z</time>
      </trkpt>
      <trkpt lat="43.5731" lon="1.33116">
        <ele>158</ele>
        <time>2021-09-19T10:26:41Z</time>
      </trkpt>
      <trkpt lat="43.57313" lon="1.33112">
        <ele>158</ele>
        <time>2021-09-19T10:26:42Z</time>
      </trkpt>
      <trkpt lat="43.57316" lon="1.33108">
        <ele>158</ele>
        <time>2021-09-19T10:26:43Z</time>
      </trkpt>
      <trkpt lat="43.5732" lon="1.33104">
        <ele>158</ele>
        <time>2021-09-19T10:26:44Z</time>
      </trkpt>
      <trkpt lat="43.57323" lon="1.331">
        <ele>158</ele>
        <time>2021-09-19T10:26:45Z</time>
      </trkpt>
      <trkpt lat="43.57327" lon="1.33096">
        <ele>158</ele>
        <time>2021-09-19T10:26:46Z</time>
      </trkpt>
      <trkpt lat="43.5733" lon="1.33092">
        <ele>158</ele>
        <time>2021-09-19T10:26:47Z</time>
      </trkpt>
      <trkpt lat="43.57334" lon="1.33087">
        <ele>158</ele>
        <time>2021-09-19T10:26:48Z</time>
      </trkpt>
      <trkpt lat="43.57337" lon="1.33083">
        <ele>158</ele>
        <time>2021-09-19T10:26:49Z</time>
      </trkpt>
      <trkpt lat="43.5734" lon="1.33079">
        <ele>159</ele>
        <time>2021-09-19T10:26:50Z</time>
      </trkpt>
      <trkpt lat="43.57343" lon="1.33075">
        <ele>159</ele>
        <time>2021-09-19T10:26:51Z</time>
      </trkpt>
      <trkpt lat="43.57346" lon="1.33071">
        <ele>159</ele>
        <time>2021-09-19T10:26:52Z</time>
      </trkpt>
      <trkpt lat="43.57349" lon="1.33066">
        <ele>159</ele>
        <time>2021-09-19T10:26:53Z</time>
      </trkpt>
      <trkpt lat="43.57352" lon="1.33062">
        <ele>159</ele>
        <time>2021-09-19T10:26:54Z</time>
      </trkpt>
      <trkpt lat="43.57356" lon="1.33058">
        <ele>159</ele>
        <time>2021-09-19T10:26:55Z</time>
      </trkpt>
      <trkpt lat="43.57359" lon="1.33053">
        <ele>160</ele>
        <time>2021-09-19T10:26:56Z</time>
      </trkpt>
      <trkpt lat="43.57362" lon="1.33049">
        <ele>160</ele>
        <time>2021-09-19T10:26:57Z</time>
      </trkpt>
      <trkpt lat="43.57365" lon="1.33045">
        <ele>159</ele>
        <time>2021-09-19T10:26:58Z</time>
      </trkpt>
      <trkpt lat="43.57368" lon="1.33041">
        <ele>159</ele>
        <time>2021-09-19T10:26:59Z</time>
      </trkpt>
      <trkpt lat="43.57371" lon="1.33037">
        <ele>159</ele>
        <time>2021-09-19T10:27:00Z</time>
      </trkpt>
      <trkpt lat="43.57374" lon="1.33033">
        <ele>159</ele>
        <time>2021-09-19T10:27:01Z</time>
      </trkpt>
      <trkpt lat="43.57378" lon="1.33029">
        <ele>159</ele>
        <time>2021-09-19T10:27:02Z</time>
      </trkpt>
      <trkpt lat="43.57381" lon="1.33025">
        <ele>159</ele>
        <time>2021-09-19T10:27:03Z</time>
      </trkpt>
      <trkpt lat="43.57385" lon="1.33021">
        <ele>158</ele>
        <time>2021-09-19T10:27:04Z</time>
      </trkpt>
      <trkpt lat="43.57388" lon="1.33017">
        <ele>158</ele>
        <time>2021-09-19T10:27:05Z</time>
      </trkpt>
      <trkpt lat="43.57392" lon="1.33013">
        <ele>158</ele>
        <time>2021-09-19T10:27:06Z</time>
      </trkpt>
      <trkpt lat="43.57395" lon="1.33009">
        <ele>158</ele>
        <time>2021-09-19T10:27:07Z</time>
      </trkpt>
      <trkpt lat="43.57399" lon="1.33006">
        <ele>158</ele>
        <time>2021-09-19T10:27:08Z</time>
      </trkpt>
      <trkpt lat="43.57402" lon="1.33002">
        <ele>158</ele>
        <time>2021-09-19T10:27:09Z</time>
      </trkpt>
      <trkpt lat="43.57406" lon="1.32998">
        <ele>158</ele>
        <time>2021-09-19T10:27:10Z</time>
      </trkpt>
      <trkpt lat="43.5741" lon="1.32994">
        <ele>158</ele>
        <time>2021-09-19T10:27:11Z</time>
      </trkpt>
      <trkpt lat="43.57413" lon="1.32989">
        <ele>158</ele>
        <time>2021-09-19T10:27:12Z</time>
      </trkpt>
      <trkpt lat="43.57417" lon="1.32984">
        <ele>158</ele>
        <time>2021-09-19T10:27:13Z</time>
      </trkpt>
      <trkpt lat="43.5742" lon="1.32979">
        <ele>158</ele>
        <time>2021-09-19T10:27:14Z</time>
      </trkpt>
      <trkpt lat="43.57424" lon="1.32974">
        <ele>158</ele>
        <time>2021-09-19T10:27:15Z</time>
      </trkpt>
      <trkpt lat="43.57428" lon="1.32969">
        <ele>158</ele>
        <time>2021-09-19T10:27:16Z</time>
      </trkpt>
      <trkpt lat="43.57432" lon="1.32964">
        <ele>158</ele>
        <time>2021-09-19T10:27:17Z</time>
      </trkpt>
      <trkpt lat="43.57436" lon="1.32959">
        <ele>158</ele>
        <time>2021-09-19T10:27:18Z</time>
      </trkpt>
      <trkpt lat="43.5744" lon="1.32954">
        <ele>158</ele>
        <time>2021-09-19T10:27:19Z</time>
      </trkpt>
      <trkpt lat="43.57443" lon="1.32949">
        <ele>158</ele>
        <time>2021-09-19T10:27:20Z</time>
      </trkpt>
      <trkpt lat="43.57447" lon="1.32945">
        <ele>158</ele>
        <time>2021-09-19T10:27:21Z</time>
      </trkpt>
      <trkpt lat="43.57451" lon="1.3294">
        <ele>158</ele>
        <time>2021-09-19T10:27:22Z</time>
      </trkpt>
      <trkpt lat="43.57456" lon="1.32936">
        <ele>157</ele>
        <time>2021-09-19T10:27:23Z</time>
      </trkpt>
      <trkpt lat="43.57464" lon="1.32927">
        <ele>157</ele>
        <time>2021-09-19T10:27:25Z</time>
      </trkpt>
      <trkpt lat="43.57468" lon="1.32923">
        <ele>157</ele>
        <time>2021-09-19T10:27:26Z</time>
      </trkpt>
      <trkpt lat="43.57472" lon="1.32919">
        <ele>157</ele>
        <time>2021-09-19T10:27:27Z</time>
      </trkpt>
      <trkpt lat="43.57476" lon="1.32915">
        <ele>156</ele>
        <time>2021-09-19T10:27:28Z</time>
      </trkpt>
      <trkpt lat="43.5748" lon="1.32911">
        <ele>157</ele>
        <time>2021-09-19T10:27:29Z</time>
      </trkpt>
      <trkpt lat="43.57483" lon="1.32907">
        <ele>157</ele>
        <time>2021-09-19T10:27:30Z</time>
      </trkpt>
      <trkpt lat="43.57487" lon="1.32903">
        <ele>157</ele>
        <time>2021-09-19T10:27:31Z</time>
      </trkpt>
      <trkpt lat="43.57491" lon="1.32899">
        <ele>157</ele>
        <time>2021-09-19T10:27:32Z</time>
      </trkpt>
      <trkpt lat="43.57495" lon="1.32896">
        <ele>157</ele>
        <time>2021-09-19T10:27:33Z</time>
      </trkpt>
      <trkpt lat="43.57499" lon="1.32892">
        <ele>157</ele>
        <time>2021-09-19T10:27:34Z</time>
      </trkpt>
      <trkpt lat="43.57503" lon="1.32889">
        <ele>157</ele>
        <time>2021-09-19T10:27:35Z</time>
      </trkpt>
      <trkpt lat="43.57506" lon="1.32885">
        <ele>157</ele>
        <time>2021-09-19T10:27:36Z</time>
      </trkpt>
      <trkpt lat="43.5751" lon="1.32883">
        <ele>157</ele>
        <time>2021-09-19T10:27:37Z</time>
      </trkpt>
      <trkpt lat="43.57513" lon="1.3288">
        <ele>156</ele>
        <time>2021-09-19T10:27:38Z</time>
      </trkpt>
      <trkpt lat="43.57517" lon="1.32877">
        <ele>157</ele>
        <time>2021-09-19T10:27:39Z</time>
      </trkpt>
      <trkpt lat="43.5752" lon="1.32875">
        <ele>157</ele>
        <time>2021-09-19T10:27:40Z</time>
      </trkpt>
      <trkpt lat="43.57524" lon="1.32873">
        <ele>156</ele>
        <time>2021-09-19T10:27:41Z</time>
      </trkpt>
      <trkpt lat="43.57528" lon="1.32873">
        <ele>156</ele>
        <time>2021-09-19T10:27:42Z</time>
      </trkpt>
      <trkpt lat="43.57531" lon="1.32874">
        <ele>156</ele>
        <time>2021-09-19T10:27:43Z</time>
      </trkpt>
      <trkpt lat="43.57534" lon="1.32877">
        <ele>156</ele>
        <time>2021-09-19T10:27:44Z</time>
      </trkpt>
      <trkpt lat="43.57537" lon="1.32881">
        <ele>156</ele>
        <time>2021-09-19T10:27:45Z</time>
      </trkpt>
      <trkpt lat="43.5754" lon="1.32883">
        <ele>156</ele>
        <time>2021-09-19T10:27:46Z</time>
      </trkpt>
      <trkpt lat="43.57543" lon="1.32884">
        <ele>156</ele>
        <time>2021-09-19T10:27:47Z</time>
      </trkpt>
      <trkpt lat="43.57546" lon="1.32883">
        <ele>156</ele>
        <time>2021-09-19T10:27:48Z</time>
      </trkpt>
      <trkpt lat="43.57548" lon="1.3288">
        <ele>156</ele>
        <time>2021-09-19T10:27:49Z</time>
      </trkpt>
      <trkpt lat="43.57548" lon="1.32876">
        <ele>156</ele>
        <time>2021-09-19T10:27:50Z</time>
      </trkpt>
      <trkpt lat="43.57548" lon="1.32873">
        <ele>156</ele>
        <time>2021-09-19T10:27:51Z</time>
      </trkpt>
      <trkpt lat="43.57548" lon="1.32868">
        <ele>156</ele>
        <time>2021-09-19T10:27:52Z</time>
      </trkpt>
      <trkpt lat="43.57549" lon="1.32863">
        <ele>156</ele>
        <time>2021-09-19T10:27:53Z</time>
      </trkpt>
      <trkpt lat="43.57551" lon="1.32859">
        <ele>156</ele>
        <time>2021-09-19T10:27:54Z</time>
      </trkpt>
      <trkpt lat="43.57554" lon="1.32855">
        <ele>156</ele>
        <time>2021-09-19T10:27:55Z</time>
      </trkpt>
      <trkpt lat="43.57557" lon="1.32851">
        <ele>156</ele>
        <time>2021-09-19T10:27:56Z</time>
      </trkpt>
      <trkpt lat="43.57561" lon="1.32849">
        <ele>156</ele>
        <time>2021-09-19T10:27:57Z</time>
      </trkpt>
      <trkpt lat="43.57564" lon="1.32846">
        <ele>156</ele>
        <time>2021-09-19T10:27:58Z</time>
      </trkpt>
      <trkpt lat="43.57568" lon="1.32843">
        <ele>157</ele>
        <time>2021-09-19T10:27:59Z</time>
      </trkpt>
      <trkpt lat="43.57571" lon="1.3284">
        <ele>157</ele>
        <time>2021-09-19T10:28:00Z</time>
      </trkpt>
      <trkpt lat="43.57575" lon="1.32838">
        <ele>157</ele>
        <time>2021-09-19T10:28:01Z</time>
      </trkpt>
      <trkpt lat="43.57579" lon="1.32835">
        <ele>156</ele>
        <time>2021-09-19T10:28:02Z</time>
      </trkpt>
      <trkpt lat="43.57583" lon="1.32832">
        <ele>156</ele>
        <time>2021-09-19T10:28:03Z</time>
      </trkpt>
      <trkpt lat="43.57586" lon="1.32829">
        <ele>156</ele>
        <time>2021-09-19T10:28:04Z</time>
      </trkpt>
      <trkpt lat="43.5759" lon="1.32826">
        <ele>156</ele>
        <time>2021-09-19T10:28:05Z</time>
      </trkpt>
      <trkpt lat="43.57594" lon="1.32824">
        <ele>156</ele>
        <time>2021-09-19T10:28:06Z</time>
      </trkpt>
      <trkpt lat="43.57598" lon="1.32821">
        <ele>157</ele>
        <time>2021-09-19T10:28:07Z</time>
      </trkpt>
      <trkpt lat="43.57601" lon="1.32818">
        <ele>157</ele>
        <time>2021-09-19T10:28:08Z</time>
      </trkpt>
      <trkpt lat="43.57605" lon="1.32816">
        <ele>157</ele>
        <time>2021-09-19T10:28:09Z</time>
      </trkpt>
      <trkpt lat="43.57608" lon="1.32813">
        <ele>157</ele>
        <time>2021-09-19T10:28:10Z</time>
      </trkpt>
      <trkpt lat="43.57612" lon="1.3281">
        <ele>157</ele>
        <time>2021-09-19T10:28:11Z</time>
      </trkpt>
      <trkpt lat="43.57615" lon="1.32808">
        <ele>157</ele>
        <time>2021-09-19T10:28:12Z</time>
      </trkpt>
      <trkpt lat="43.57619" lon="1.32805">
        <ele>157</ele>
        <time>2021-09-19T10:28:13Z</time>
      </trkpt>
      <trkpt lat="43.57623" lon="1.32802">
        <ele>157</ele>
        <time>2021-09-19T10:28:14Z</time>
      </trkpt>
      <trkpt lat="43.57626" lon="1.328">
        <ele>157</ele>
        <time>2021-09-19T10:28:15Z</time>
      </trkpt>
      <trkpt lat="43.5763" lon="1.32797">
        <ele>157</ele>
        <time>2021-09-19T10:28:16Z</time>
      </trkpt>
      <trkpt lat="43.57633" lon="1.32795">
        <ele>157</ele>
        <time>2021-09-19T10:28:17Z</time>
      </trkpt>
      <trkpt lat="43.57636" lon="1.32792">
        <ele>158</ele>
        <time>2021-09-19T10:28:18Z</time>
      </trkpt>
      <trkpt lat="43.5764" lon="1.3279">
        <ele>158</ele>
        <time>2021-09-19T10:28:19Z</time>
      </trkpt>
      <trkpt lat="43.57643" lon="1.32787">
        <ele>158</ele>
        <time>2021-09-19T10:28:20Z</time>
      </trkpt>
      <trkpt lat="43.57647" lon="1.32785">
        <ele>158</ele>
        <time>2021-09-19T10:28:21Z</time>
      </trkpt>
      <trkpt lat="43.5765" lon="1.32783">
        <ele>158</ele>
        <time>2021-09-19T10:28:22Z</time>
      </trkpt>
      <trkpt lat="43.57654" lon="1.3278">
        <ele>158</ele>
        <time>2021-09-19T10:28:23Z</time>
      </trkpt>
      <trkpt lat="43.57657" lon="1.32777">
        <ele>158</ele>
        <time>2021-09-19T10:28:24Z</time>
      </trkpt>
      <trkpt lat="43.57661" lon="1.32775">
        <ele>158</ele>
        <time>2021-09-19T10:28:25Z</time>
      </trkpt>
      <trkpt lat="43.57664" lon="1.32772">
        <ele>158</ele>
        <time>2021-09-19T10:28:26Z</time>
      </trkpt>
      <trkpt lat="43.57668" lon="1.3277">
        <ele>158</ele>
        <time>2021-09-19T10:28:27Z</time>
      </trkpt>
      <trkpt lat="43.57671" lon="1.32769">
        <ele>158</ele>
        <time>2021-09-19T10:28:28Z</time>
      </trkpt>
      <trkpt lat="43.57675" lon="1.32769">
        <ele>159</ele>
        <time>2021-09-19T10:28:29Z</time>
      </trkpt>
      <trkpt lat="43.57678" lon="1.32771">
        <ele>159</ele>
        <time>2021-09-19T10:28:30Z</time>
      </trkpt>
      <trkpt lat="43.5768" lon="1.32774">
        <ele>159</ele>
        <time>2021-09-19T10:28:31Z</time>
      </trkpt>
      <trkpt lat="43.57682" lon="1.32777">
        <ele>159</ele>
        <time>2021-09-19T10:28:32Z</time>
      </trkpt>
      <trkpt lat="43.57684" lon="1.3278">
        <ele>159</ele>
        <time>2021-09-19T10:28:33Z</time>
      </trkpt>
      <trkpt lat="43.57686" lon="1.32781">
        <ele>159</ele>
        <time>2021-09-19T10:28:34Z</time>
      </trkpt>
      <trkpt lat="43.57688" lon="1.32782">
        <ele>159</ele>
        <time>2021-09-19T10:28:35Z</time>
      </trkpt>
      <trkpt lat="43.5769" lon="1.32783">
        <ele>158</ele>
        <time>2021-09-19T10:28:36Z</time>
      </trkpt>
      <trkpt lat="43.57692" lon="1.32783">
        <ele>158</ele>
        <time>2021-09-19T10:28:37Z</time>
      </trkpt>
      <trkpt lat="43.57695" lon="1.32782">
        <ele>158</ele>
        <time>2021-09-19T10:28:38Z</time>
      </trkpt>
      <trkpt lat="43.57697" lon="1.3278">
        <ele>158</ele>
        <time>2021-09-19T10:28:39Z</time>
      </trkpt>
      <trkpt lat="43.57698" lon="1.32775">
        <ele>158</ele>
        <time>2021-09-19T10:28:40Z</time>
      </trkpt>
      <trkpt lat="43.57699" lon="1.32771">
        <ele>158</ele>
        <time>2021-09-19T10:28:41Z</time>
      </trkpt>
      <trkpt lat="43.57701" lon="1.32767">
        <ele>158</ele>
        <time>2021-09-19T10:28:42Z</time>
      </trkpt>
      <trkpt lat="43.57704" lon="1.32764">
        <ele>158</ele>
        <time>2021-09-19T10:28:43Z</time>
      </trkpt>
      <trkpt lat="43.57708" lon="1.32762">
        <ele>158</ele>
        <time>2021-09-19T10:28:44Z</time>
      </trkpt>
      <trkpt lat="43.57712" lon="1.32761">
        <ele>158</ele>
        <time>2021-09-19T10:28:45Z</time>
      </trkpt>
      <trkpt lat="43.57719" lon="1.3276">
        <ele>159</ele>
        <time>2021-09-19T10:28:46Z</time>
      </trkpt>
      <trkpt lat="43.57723" lon="1.3276">
        <ele>158</ele>
        <time>2021-09-19T10:28:48Z</time>
      </trkpt>
      <trkpt lat="43.57727" lon="1.3276">
        <ele>158</ele>
        <time>2021-09-19T10:28:49Z</time>
      </trkpt>
      <trkpt lat="43.57731" lon="1.3276">
        <ele>158</ele>
        <time>2021-09-19T10:28:50Z</time>
      </trkpt>
      <trkpt lat="43.57734" lon="1.3276">
        <ele>158</ele>
        <time>2021-09-19T10:28:51Z</time>
      </trkpt>
      <trkpt lat="43.57738" lon="1.3276">
        <ele>158</ele>
        <time>2021-09-19T10:28:52Z</time>
      </trkpt>
      <trkpt lat="43.57742" lon="1.32759">
        <ele>158</ele>
        <time>2021-09-19T10:28:53Z</time>
      </trkpt>
      <trkpt lat="43.57745" lon="1.32759">
        <ele>159</ele>
        <time>2021-09-19T10:28:54Z</time>
      </trkpt>
      <trkpt lat="43.57749" lon="1.32759">
        <ele>159</ele>
        <time>2021-09-19T10:28:55Z</time>
      </trkpt>
      <trkpt lat="43.57752" lon="1.32758">
        <ele>160</ele>
        <time>2021-09-19T10:28:56Z</time>
      </trkpt>
      <trkpt lat="43.57756" lon="1.32758">
        <ele>160</ele>
        <time>2021-09-19T10:28:57Z</time>
      </trkpt>
      <trkpt lat="43.5776" lon="1.32758">
        <ele>160</ele>
        <time>2021-09-19T10:28:58Z</time>
      </trkpt>
      <trkpt lat="43.57763" lon="1.32759">
        <ele>160</ele>
        <time>2021-09-19T10:28:59Z</time>
      </trkpt>
      <trkpt lat="43.57767" lon="1.3276">
        <ele>160</ele>
        <time>2021-09-19T10:29:00Z</time>
      </trkpt>
      <trkpt lat="43.5777" lon="1.32762">
        <ele>160</ele>
        <time>2021-09-19T10:29:01Z</time>
      </trkpt>
      <trkpt lat="43.57773" lon="1.32764">
        <ele>160</ele>
        <time>2021-09-19T10:29:02Z</time>
      </trkpt>
      <trkpt lat="43.57776" lon="1.32767">
        <ele>160</ele>
        <time>2021-09-19T10:29:03Z</time>
      </trkpt>
      <trkpt lat="43.57779" lon="1.3277">
        <ele>160</ele>
        <time>2021-09-19T10:29:04Z</time>
      </trkpt>
      <trkpt lat="43.57781" lon="1.32774">
        <ele>160</ele>
        <time>2021-09-19T10:29:05Z</time>
      </trkpt>
      <trkpt lat="43.57784" lon="1.32778">
        <ele>160</ele>
        <time>2021-09-19T10:29:06Z</time>
      </trkpt>
      <trkpt lat="43.57786" lon="1.32781">
        <ele>160</ele>
        <time>2021-09-19T10:29:07Z</time>
      </trkpt>
      <trkpt lat="43.57788" lon="1.32783">
        <ele>160</ele>
        <time>2021-09-19T10:29:08Z</time>
      </trkpt>
      <trkpt lat="43.5779" lon="1.32783">
        <ele>160</ele>
        <time>2021-09-19T10:29:09Z</time>
      </trkpt>
      <trkpt lat="43.57793" lon="1.32782">
        <ele>160</ele>
        <time>2021-09-19T10:29:10Z</time>
      </trkpt>
      <trkpt lat="43.57795" lon="1.3278">
        <ele>160</ele>
        <time>2021-09-19T10:29:11Z</time>
      </trkpt>
      <trkpt lat="43.57796" lon="1.32778">
        <ele>160</ele>
        <time>2021-09-19T10:29:12Z</time>
      </trkpt>
      <trkpt lat="43.57795" lon="1.32775">
        <ele>160</ele>
        <time>2021-09-19T10:29:13Z</time>
      </trkpt>
      <trkpt lat="43.57793" lon="1.32772">
        <ele>160</ele>
        <time>2021-09-19T10:29:14Z</time>
      </trkpt>
      <trkpt lat="43.57792" lon="1.32769">
        <ele>160</ele>
        <time>2021-09-19T10:29:15Z</time>
      </trkpt>
      <trkpt lat="43.5779" lon="1.32767">
        <ele>160</ele>
        <time>2021-09-19T10:29:16Z</time>
      </trkpt>
      <trkpt lat="43.57789" lon="1.32764">
        <ele>160</ele>
        <time>2021-09-19T10:29:17Z</time>
      </trkpt>
      <trkpt lat="43.57789" lon="1.3276">
        <ele>160</ele>
        <time>2021-09-19T10:29:19Z</time>
      </trkpt>
      <trkpt lat="43.57791" lon="1.32757">
        <ele>160</ele>
        <time>2021-09-19T10:29:21Z</time>
      </trkpt>
      <trkpt lat="43.57793" lon="1.32755">
        <ele>160</ele>
        <time>2021-09-19T10:29:22Z</time>
      </trkpt>
      <trkpt lat="43.57795" lon="1.32752">
        <ele>160</ele>
        <time>2021-09-19T10:29:23Z</time>
      </trkpt>
      <trkpt lat="43.57795" lon="1.32749">
        <ele>160</ele>
        <time>2021-09-19T10:29:24Z</time>
      </trkpt>
      <trkpt lat="43.57795" lon="1.32745">
        <ele>160</ele>
        <time>2021-09-19T10:29:25Z</time>
      </trkpt>
      <trkpt lat="43.57794" lon="1.32741">
        <ele>160</ele>
        <time>2021-09-19T10:29:26Z</time>
      </trkpt>
      <trkpt lat="43.57794" lon="1.32736">
        <ele>160</ele>
        <time>2021-09-19T10:29:27Z</time>
      </trkpt>
      <trkpt lat="43.57794" lon="1.32732">
        <ele>160</ele>
        <time>2021-09-19T10:29:28Z</time>
      </trkpt>
      <trkpt lat="43.57796" lon="1.32728">
        <ele>160</ele>
        <time>2021-09-19T10:29:29Z</time>
      </trkpt>
      <trkpt lat="43.57797" lon="1.32724">
        <ele>160</ele>
        <time>2021-09-19T10:29:30Z</time>
      </trkpt>
      <trkpt lat="43.57799" lon="1.3272">
        <ele>160</ele>
        <time>2021-09-19T10:29:31Z</time>
      </trkpt>
      <trkpt lat="43.57801" lon="1.32716">
        <ele>160</ele>
        <time>2021-09-19T10:29:32Z</time>
      </trkpt>
      <trkpt lat="43.57804" lon="1.32712">
        <ele>160</ele>
        <time>2021-09-19T10:29:33Z</time>
      </trkpt>
      <trkpt lat="43.57807" lon="1.32708">
        <ele>160</ele>
        <time>2021-09-19T10:29:34Z</time>
      </trkpt>
      <trkpt lat="43.5781" lon="1.32705">
        <ele>160</ele>
        <time>2021-09-19T10:29:35Z</time>
      </trkpt>
      <trkpt lat="43.57812" lon="1.32702">
        <ele>159</ele>
        <time>2021-09-19T10:29:36Z</time>
      </trkpt>
      <trkpt lat="43.57814" lon="1.32699">
        <ele>159</ele>
        <time>2021-09-19T10:29:37Z</time>
      </trkpt>
      <trkpt lat="43.57817" lon="1.32695">
        <ele>159</ele>
        <time>2021-09-19T10:29:38Z</time>
      </trkpt>
      <trkpt lat="43.5782" lon="1.32691">
        <ele>160</ele>
        <time>2021-09-19T10:29:39Z</time>
      </trkpt>
      <trkpt lat="43.57822" lon="1.32687">
        <ele>160</ele>
        <time>2021-09-19T10:29:40Z</time>
      </trkpt>
      <trkpt lat="43.57825" lon="1.32683">
        <ele>160</ele>
        <time>2021-09-19T10:29:41Z</time>
      </trkpt>
      <trkpt lat="43.57828" lon="1.32679">
        <ele>160</ele>
        <time>2021-09-19T10:29:42Z</time>
      </trkpt>
      <trkpt lat="43.57831" lon="1.32676">
        <ele>160</ele>
        <time>2021-09-19T10:29:43Z</time>
      </trkpt>
      <trkpt lat="43.57834" lon="1.32672">
        <ele>160</ele>
        <time>2021-09-19T10:29:44Z</time>
      </trkpt>
      <trkpt lat="43.57837" lon="1.32668">
        <ele>160</ele>
        <time>2021-09-19T10:29:45Z</time>
      </trkpt>
      <trkpt lat="43.57841" lon="1.32664">
        <ele>161</ele>
        <time>2021-09-19T10:29:46Z</time>
      </trkpt>
      <trkpt lat="43.57844" lon="1.3266">
        <ele>161</ele>
        <time>2021-09-19T10:29:47Z</time>
      </trkpt>
      <trkpt lat="43.57847" lon="1.32656">
        <ele>161</ele>
        <time>2021-09-19T10:29:48Z</time>
      </trkpt>
      <trkpt lat="43.5785" lon="1.32652">
        <ele>161</ele>
        <time>2021-09-19T10:29:49Z</time>
      </trkpt>
      <trkpt lat="43.57853" lon="1.32648">
        <ele>161</ele>
        <time>2021-09-19T10:29:50Z</time>
      </trkpt>
      <trkpt lat="43.57856" lon="1.32643">
        <ele>161</ele>
        <time>2021-09-19T10:29:51Z</time>
      </trkpt>
      <trkpt lat="43.57859" lon="1.32639">
        <ele>161</ele>
        <time>2021-09-19T10:29:52Z</time>
      </trkpt>
      <trkpt lat="43.57862" lon="1.32635">
        <ele>161</ele>
        <time>2021-09-19T10:29:53Z</time>
      </trkpt>
      <trkpt lat="43.57865" lon="1.32631">
        <ele>161</ele>
        <time>2021-09-19T10:29:54Z</time>
      </trkpt>
      <trkpt lat="43.57868" lon="1.32628">
        <ele>161</ele>
        <time>2021-09-19T10:29:55Z</time>
      </trkpt>
      <trkpt lat="43.57871" lon="1.32624">
        <ele>162</ele>
        <time>2021-09-19T10:29:56Z</time>
      </trkpt>
      <trkpt lat="43.57874" lon="1.3262">
        <ele>162</ele>
        <time>2021-09-19T10:29:57Z</time>
      </trkpt>
      <trkpt lat="43.57876" lon="1.32617">
        <ele>162</ele>
        <time>2021-09-19T10:29:58Z</time>
      </trkpt>
      <trkpt lat="43.57879" lon="1.32613">
        <ele>162</ele>
        <time>2021-09-19T10:29:59Z</time>
      </trkpt>
      <trkpt lat="43.57882" lon="1.3261">
        <ele>161</ele>
        <time>2021-09-19T10:30:00Z</time>
      </trkpt>
      <trkpt lat="43.57884" lon="1.32607">
        <ele>161</ele>
        <time>2021-09-19T10:30:01Z</time>
      </trkpt>
      <trkpt lat="43.57887" lon="1.32604">
        <ele>161</ele>
        <time>2021-09-19T10:30:02Z</time>
      </trkpt>
      <trkpt lat="43.57889" lon="1.32602">
        <ele>161</ele>
        <time>2021-09-19T10:30:03Z</time>
      </trkpt>
      <trkpt lat="43.57891" lon="1.32599">
        <ele>161</ele>
        <time>2021-09-19T10:30:04Z</time>
      </trkpt>
      <trkpt lat="43.57893" lon="1.32596">
        <ele>161</ele>
        <time>2021-09-19T10:30:05Z</time>
      </trkpt>
      <trkpt lat="43.57896" lon="1.32595">
        <ele>161</ele>
        <time>2021-09-19T10:30:06Z</time>
      </trkpt>
      <trkpt lat="43.57898" lon="1.32595">
        <ele>161</ele>
        <time>2021-09-19T10:30:07Z</time>
      </trkpt>
      <trkpt lat="43.57901" lon="1.32596">
        <ele>161</ele>
        <time>2021-09-19T10:30:08Z</time>
      </trkpt>
      <trkpt lat="43.57903" lon="1.32599">
        <ele>161</ele>
        <time>2021-09-19T10:30:09Z</time>
      </trkpt>
      <trkpt lat="43.57905" lon="1.32602">
        <ele>161</ele>
        <time>2021-09-19T10:30:10Z</time>
      </trkpt>
      <trkpt lat="43.57906" lon="1.32605">
        <ele>161</ele>
        <time>2021-09-19T10:30:11Z</time>
      </trkpt>
      <trkpt lat="43.57908" lon="1.32606">
        <ele>161</ele>
        <time>2021-09-19T10:30:12Z</time>
      </trkpt>
      <trkpt lat="43.57911" lon="1.32605">
        <ele>161</ele>
        <time>2021-09-19T10:30:13Z</time>
      </trkpt>
      <trkpt lat="43.57913" lon="1.32605">
        <ele>161</ele>
        <time>2021-09-19T10:30:14Z</time>
      </trkpt>
      <trkpt lat="43.57916" lon="1.32606">
        <ele>161</ele>
        <time>2021-09-19T10:30:15Z</time>
      </trkpt>
      <trkpt lat="43.57919" lon="1.32608">
        <ele>161</ele>
        <time>2021-09-19T10:30:16Z</time>
      </trkpt>
      <trkpt lat="43.57921" lon="1.32612">
        <ele>161</ele>
        <time>2021-09-19T10:30:17Z</time>
      </trkpt>
      <trkpt lat="43.57922" lon="1.32617">
        <ele>161</ele>
        <time>2021-09-19T10:30:18Z</time>
      </trkpt>
      <trkpt lat="43.57924" lon="1.32622">
        <ele>161</ele>
        <time>2021-09-19T10:30:19Z</time>
      </trkpt>
      <trkpt lat="43.57926" lon="1.32626">
        <ele>161</ele>
        <time>2021-09-19T10:30:20Z</time>
      </trkpt>
      <trkpt lat="43.57928" lon="1.32631">
        <ele>161</ele>
        <time>2021-09-19T10:30:21Z</time>
      </trkpt>
      <trkpt lat="43.5793" lon="1.32636">
        <ele>161</ele>
        <time>2021-09-19T10:30:22Z</time>
      </trkpt>
      <trkpt lat="43.57933" lon="1.32641">
        <ele>161</ele>
        <time>2021-09-19T10:30:23Z</time>
      </trkpt>
      <trkpt lat="43.57935" lon="1.32646">
        <ele>161</ele>
        <time>2021-09-19T10:30:24Z</time>
      </trkpt>
      <trkpt lat="43.57937" lon="1.3265">
        <ele>161</ele>
        <time>2021-09-19T10:30:25Z</time>
      </trkpt>
      <trkpt lat="43.57938" lon="1.32654">
        <ele>161</ele>
        <time>2021-09-19T10:30:26Z</time>
      </trkpt>
      <trkpt lat="43.57939" lon="1.32658">
        <ele>161</ele>
        <time>2021-09-19T10:30:27Z</time>
      </trkpt>
      <trkpt lat="43.5794" lon="1.32661">
        <ele>161</ele>
        <time>2021-09-19T10:30:28Z</time>
      </trkpt>
      <trkpt lat="43.57941" lon="1.32664">
        <ele>161</ele>
        <time>2021-09-19T10:30:29Z</time>
      </trkpt>
      <trkpt lat="43.57943" lon="1.32666">
        <ele>161</ele>
        <time>2021-09-19T10:30:30Z</time>
      </trkpt>
      <trkpt lat="43.57946" lon="1.32666">
        <ele>161</ele>
        <time>2021-09-19T10:30:31Z</time>
      </trkpt>
      <trkpt lat="43.57948" lon="1.32665">
        <ele>160</ele>
        <time>2021-09-19T10:30:32Z</time>
      </trkpt>
      <trkpt lat="43.57951" lon="1.32665">
        <ele>160</ele>
        <time>2021-09-19T10:30:33Z</time>
      </trkpt>
      <trkpt lat="43.57953" lon="1.32666">
        <ele>161</ele>
        <time>2021-09-19T10:30:34Z</time>
      </trkpt>
      <trkpt lat="43.57955" lon="1.32668">
        <ele>161</ele>
        <time>2021-09-19T10:30:35Z</time>
      </trkpt>
      <trkpt lat="43.57958" lon="1.3267">
        <ele>161</ele>
        <time>2021-09-19T10:30:36Z</time>
      </trkpt>
      <trkpt lat="43.57961" lon="1.32674">
        <ele>161</ele>
        <time>2021-09-19T10:30:37Z</time>
      </trkpt>
      <trkpt lat="43.57964" lon="1.32677">
        <ele>161</ele>
        <time>2021-09-19T10:30:38Z</time>
      </trkpt>
      <trkpt lat="43.57967" lon="1.32681">
        <ele>161</ele>
        <time>2021-09-19T10:30:39Z</time>
      </trkpt>
      <trkpt lat="43.57971" lon="1.32685">
        <ele>161</ele>
        <time>2021-09-19T10:30:40Z</time>
      </trkpt>
      <trkpt lat="43.57975" lon="1.32688">
        <ele>161</ele>
        <time>2021-09-19T10:30:41Z</time>
      </trkpt>
      <trkpt lat="43.57979" lon="1.3269">
        <ele>161</ele>
        <time>2021-09-19T10:30:42Z</time>
      </trkpt>
      <trkpt lat="43.57982" lon="1.32692">
        <ele>160</ele>
        <time>2021-09-19T10:30:43Z</time>
      </trkpt>
      <trkpt lat="43.57986" lon="1.32695">
        <ele>160</ele>
        <time>2021-09-19T10:30:44Z</time>
      </trkpt>
      <trkpt lat="43.57988" lon="1.32698">
        <ele>160</ele>
        <time>2021-09-19T10:30:45Z</time>
      </trkpt>
      <trkpt lat="43.57991" lon="1.32701">
        <ele>160</ele>
        <time>2021-09-19T10:30:46Z</time>
      </trkpt>
      <trkpt lat="43.57993" lon="1.32705">
        <ele>160</ele>
        <time>2021-09-19T10:30:47Z</time>
      </trkpt>
      <trkpt lat="43.57994" lon="1.32709">
        <ele>160</ele>
        <time>2021-09-19T10:30:48Z</time>
      </trkpt>
      <trkpt lat="43.57996" lon="1.32712">
        <ele>160</ele>
        <time>2021-09-19T10:30:49Z</time>
      </trkpt>
      <trkpt lat="43.57998" lon="1.32713">
        <ele>160</ele>
        <time>2021-09-19T10:30:50Z</time>
      </trkpt>
      <trkpt lat="43.58001" lon="1.32713">
        <ele>160</ele>
        <time>2021-09-19T10:30:51Z</time>
      </trkpt>
      <trkpt lat="43.58003" lon="1.3271">
        <ele>160</ele>
        <time>2021-09-19T10:30:52Z</time>
      </trkpt>
      <trkpt lat="43.58005" lon="1.32707">
        <ele>160</ele>
        <time>2021-09-19T10:30:53Z</time>
      </trkpt>
      <trkpt lat="43.58008" lon="1.32704">
        <ele>159</ele>
        <time>2021-09-19T10:30:54Z</time>
      </trkpt>
      <trkpt lat="43.58011" lon="1.32701">
        <ele>159</ele>
        <time>2021-09-19T10:30:55Z</time>
      </trkpt>
      <trkpt lat="43.58014" lon="1.32698">
        <ele>159</ele>
        <time>2021-09-19T10:30:56Z</time>
      </trkpt>
      <trkpt lat="43.58017" lon="1.32695">
        <ele>159</ele>
        <time>2021-09-19T10:30:57Z</time>
      </trkpt>
      <trkpt lat="43.58021" lon="1.32692">
        <ele>159</ele>
        <time>2021-09-19T10:30:58Z</time>
      </trkpt>
      <trkpt lat="43.58024" lon="1.32688">
        <ele>160</ele>
        <time>2021-09-19T10:30:59Z</time>
      </trkpt>
      <trkpt lat="43.58028" lon="1.32685">
        <ele>159</ele>
        <time>2021-09-19T10:31:00Z</time>
      </trkpt>
      <trkpt lat="43.58032" lon="1.32681">
        <ele>159</ele>
        <time>2021-09-19T10:31:01Z</time>
      </trkpt>
      <trkpt lat="43.58035" lon="1.32677">
        <ele>160</ele>
        <time>2021-09-19T10:31:02Z</time>
      </trkpt>
      <trkpt lat="43.58039" lon="1.32673">
        <ele>160</ele>
        <time>2021-09-19T10:31:03Z</time>
      </trkpt>
      <trkpt lat="43.58042" lon="1.3267">
        <ele>160</ele>
        <time>2021-09-19T10:31:04Z</time>
      </trkpt>
      <trkpt lat="43.58046" lon="1.32666">
        <ele>160</ele>
        <time>2021-09-19T10:31:05Z</time>
      </trkpt>
      <trkpt lat="43.5805" lon="1.32662">
        <ele>160</ele>
        <time>2021-09-19T10:31:06Z</time>
      </trkpt>
      <trkpt lat="43.58053" lon="1.32658">
        <ele>160</ele>
        <time>2021-09-19T10:31:07Z</time>
      </trkpt>
      <trkpt lat="43.58057" lon="1.32655">
        <ele>160</ele>
        <time>2021-09-19T10:31:08Z</time>
      </trkpt>
      <trkpt lat="43.5806" lon="1.32652">
        <ele>160</ele>
        <time>2021-09-19T10:31:09Z</time>
      </trkpt>
      <trkpt lat="43.58063" lon="1.32648">
        <ele>160</ele>
        <time>2021-09-19T10:31:10Z</time>
      </trkpt>
      <trkpt lat="43.58066" lon="1.32645">
        <ele>160</ele>
        <time>2021-09-19T10:31:11Z</time>
      </trkpt>
      <trkpt lat="43.58069" lon="1.32641">
        <ele>160</ele>
        <time>2021-09-19T10:31:12Z</time>
      </trkpt>
      <trkpt lat="43.58073" lon="1.32638">
        <ele>160</ele>
        <time>2021-09-19T10:31:13Z</time>
      </trkpt>
      <trkpt lat="43.58076" lon="1.32635">
        <ele>160</ele>
        <time>2021-09-19T10:31:14Z</time>
      </trkpt>
      <trkpt lat="43.58079" lon="1.32631">
        <ele>160</ele>
        <time>2021-09-19T10:31:15Z</time>
      </trkpt>
      <trkpt lat="43.58082" lon="1.32628">
        <ele>160</ele>
        <time>2021-09-19T10:31:16Z</time>
      </trkpt>
      <trkpt lat="43.58085" lon="1.32625">
        <ele>161</ele>
        <time>2021-09-19T10:31:17Z</time>
      </trkpt>
      <trkpt lat="43.58087" lon="1.32621">
        <ele>161</ele>
        <time>2021-09-19T10:31:18Z</time>
      </trkpt>
      <trkpt lat="43.5809" lon="1.32617">
        <ele>161</ele>
        <time>2021-09-19T10:31:19Z</time>
      </trkpt>
      <trkpt lat="43.58092" lon="1.32613">
        <ele>161</ele>
        <time>2021-09-19T10:31:20Z</time>
      </trkpt>
      <trkpt lat="43.58095" lon="1.32609">
        <ele>161</ele>
        <time>2021-09-19T10:31:21Z</time>
      </trkpt>
      <trkpt lat="43.58097" lon="1.32604">
        <ele>161</ele>
        <time>2021-09-19T10:31:22Z</time>
      </trkpt>
      <trkpt lat="43.58099" lon="1.326">
        <ele>161</ele>
        <time>2021-09-19T10:31:23Z</time>
      </trkpt>
      <trkpt lat="43.58101" lon="1.32596">
        <ele>161</ele>
        <time>2021-09-19T10:31:24Z</time>
      </trkpt>
      <trkpt lat="43.58103" lon="1.32592">
        <ele>161</ele>
        <time>2021-09-19T10:31:25Z</time>
      </trkpt>
      <trkpt lat="43.58105" lon="1.32587">
        <ele>161</ele>
        <time>2021-09-19T10:31:26Z</time>
      </trkpt>
      <trkpt lat="43.58106" lon="1.32582">
        <ele>161</ele>
        <time>2021-09-19T10:31:27Z</time>
      </trkpt>
      <trkpt lat="43.58108" lon="1.32578">
        <ele>161</ele>
        <time>2021-09-19T10:31:28Z</time>
      </trkpt>
      <trkpt lat="43.58109" lon="1.32573">
        <ele>161</ele>
        <time>2021-09-19T10:31:29Z</time>
      </trkpt>
      <trkpt lat="43.5811" lon="1.32569">
        <ele>161</ele>
        <time>2021-09-19T10:31:30Z</time>
      </trkpt>
      <trkpt lat="43.58111" lon="1.32565">
        <ele>161</ele>
        <time>2021-09-19T10:31:31Z</time>
      </trkpt>
      <trkpt lat="43.58111" lon="1.3256">
        <ele>161</ele>
        <time>2021-09-19T10:31:32Z</time>
      </trkpt>
      <trkpt lat="43.5811" lon="1.32556">
        <ele>161</ele>
        <time>2021-09-19T10:31:33Z</time>
      </trkpt>
      <trkpt lat="43.5811" lon="1.32552">
        <ele>161</ele>
        <time>2021-09-19T10:31:34Z</time>
      </trkpt>
      <trkpt lat="43.58111" lon="1.32547">
        <ele>161</ele>
        <time>2021-09-19T10:31:35Z</time>
      </trkpt>
      <trkpt lat="43.58112" lon="1.32542">
        <ele>161</ele>
        <time>2021-09-19T10:31:36Z</time>
      </trkpt>
      <trkpt lat="43.58114" lon="1.32538">
        <ele>161</ele>
        <time>2021-09-19T10:31:37Z</time>
      </trkpt>
      <trkpt lat="43.58116" lon="1.32534">
        <ele>161</ele>
        <time>2021-09-19T10:31:38Z</time>
      </trkpt>
      <trkpt lat="43.58119" lon="1.32531">
        <ele>161</ele>
        <time>2021-09-19T10:31:39Z</time>
      </trkpt>
      <trkpt lat="43.58122" lon="1.32527">
        <ele>161</ele>
        <time>2021-09-19T10:31:40Z</time>
      </trkpt>
      <trkpt lat="43.58124" lon="1.32523">
        <ele>162</ele>
        <time>2021-09-19T10:31:41Z</time>
      </trkpt>
      <trkpt lat="43.58127" lon="1.32519">
        <ele>162</ele>
        <time>2021-09-19T10:31:42Z</time>
      </trkpt>
      <trkpt lat="43.58129" lon="1.32515">
        <ele>162</ele>
        <time>2021-09-19T10:31:43Z</time>
      </trkpt>
      <trkpt lat="43.58132" lon="1.32511">
        <ele>162</ele>
        <time>2021-09-19T10:31:44Z</time>
      </trkpt>
      <trkpt lat="43.58134" lon="1.32507">
        <ele>162</ele>
        <time>2021-09-19T10:31:45Z</time>
      </trkpt>
      <trkpt lat="43.58137" lon="1.32503">
        <ele>161</ele>
        <time>2021-09-19T10:31:46Z</time>
      </trkpt>
      <trkpt lat="43.5814" lon="1.32499">
        <ele>161</ele>
        <time>2021-09-19T10:31:47Z</time>
      </trkpt>
      <trkpt lat="43.58143" lon="1.32496">
        <ele>161</ele>
        <time>2021-09-19T10:31:48Z</time>
      </trkpt>
      <trkpt lat="43.58146" lon="1.32492">
        <ele>161</ele>
        <time>2021-09-19T10:31:49Z</time>
      </trkpt>
      <trkpt lat="43.5815" lon="1.32489">
        <ele>161</ele>
        <time>2021-09-19T10:31:50Z</time>
      </trkpt>
      <trkpt lat="43.58153" lon="1.32486">
        <ele>161</ele>
        <time>2021-09-19T10:31:51Z</time>
      </trkpt>
      <trkpt lat="43.58157" lon="1.32483">
        <ele>162</ele>
        <time>2021-09-19T10:31:52Z</time>
      </trkpt>
      <trkpt lat="43.5816" lon="1.32479">
        <ele>162</ele>
        <time>2021-09-19T10:31:53Z</time>
      </trkpt>
      <trkpt lat="43.58163" lon="1.32477">
        <ele>162</ele>
        <time>2021-09-19T10:31:54Z</time>
      </trkpt>
      <trkpt lat="43.58166" lon="1.32474">
        <ele>162</ele>
        <time>2021-09-19T10:31:55Z</time>
      </trkpt>
      <trkpt lat="43.58169" lon="1.32471">
        <ele>162</ele>
        <time>2021-09-19T10:31:56Z</time>
      </trkpt>
      <trkpt lat="43.58172" lon="1.32469">
        <ele>161</ele>
        <time>2021-09-19T10:31:57Z</time>
      </trkpt>
      <trkpt lat="43.58175" lon="1.32466">
        <ele>161</ele>
        <time>2021-09-19T10:31:58Z</time>
      </trkpt>
      <trkpt lat="43.58178" lon="1.32463">
        <ele>161</ele>
        <time>2021-09-19T10:31:59Z</time>
      </trkpt>
      <trkpt lat="43.58182" lon="1.32459">
        <ele>161</ele>
        <time>2021-09-19T10:32:00Z</time>
      </trkpt>
      <trkpt lat="43.58185" lon="1.32456">
        <ele>161</ele>
        <time>2021-09-19T10:32:01Z</time>
      </trkpt>
      <trkpt lat="43.58189" lon="1.32454">
        <ele>161</ele>
        <time>2021-09-19T10:32:02Z</time>
      </trkpt>
      <trkpt lat="43.58192" lon="1.32451">
        <ele>161</ele>
        <time>2021-09-19T10:32:03Z</time>
      </trkpt>
      <trkpt lat="43.58196" lon="1.3245">
        <ele>161</ele>
        <time>2021-09-19T10:32:04Z</time>
      </trkpt>
      <trkpt lat="43.582" lon="1.32448">
        <ele>161</ele>
        <time>2021-09-19T10:32:05Z</time>
      </trkpt>
      <trkpt lat="43.58203" lon="1.32447">
        <ele>161</ele>
        <time>2021-09-19T10:32:06Z</time>
      </trkpt>
      <trkpt lat="43.58207" lon="1.32446">
        <ele>161</ele>
        <time>2021-09-19T10:32:07Z</time>
      </trkpt>
      <trkpt lat="43.58211" lon="1.32446">
        <ele>161</ele>
        <time>2021-09-19T10:32:08Z</time>
      </trkpt>
      <trkpt lat="43.58215" lon="1.32445">
        <ele>161</ele>
        <time>2021-09-19T10:32:09Z</time>
      </trkpt>
      <trkpt lat="43.58219" lon="1.32445">
        <ele>162</ele>
        <time>2021-09-19T10:32:10Z</time>
      </trkpt>
      <trkpt lat="43.58223" lon="1.32445">
        <ele>162</ele>
        <time>2021-09-19T10:32:11Z</time>
      </trkpt>
      <trkpt lat="43.58227" lon="1.32445">
        <ele>162</ele>
        <time>2021-09-19T10:32:12Z</time>
      </trkpt>
      <trkpt lat="43.58231" lon="1.32446">
        <ele>161</ele>
        <time>2021-09-19T10:32:13Z</time>
      </trkpt>
      <trkpt lat="43.58235" lon="1.32446">
        <ele>161</ele>
        <time>2021-09-19T10:32:14Z</time>
      </trkpt>
      <trkpt lat="43.58238" lon="1.32447">
        <ele>161</ele>
        <time>2021-09-19T10:32:15Z</time>
      </trkpt>
      <trkpt lat="43.58242" lon="1.32448">
        <ele>161</ele>
        <time>2021-09-19T10:32:16Z</time>
      </trkpt>
      <trkpt lat="43.58246" lon="1.32449">
        <ele>161</ele>
        <time>2021-09-19T10:32:17Z</time>
      </trkpt>
      <trkpt lat="43.5825" lon="1.3245">
        <ele>161</ele>
        <time>2021-09-19T10:32:18Z</time>
      </trkpt>
      <trkpt lat="43.58254" lon="1.32451">
        <ele>161</ele>
        <time>2021-09-19T10:32:19Z</time>
      </trkpt>
      <trkpt lat="43.58258" lon="1.32452">
        <ele>161</ele>
        <time>2021-09-19T10:32:20Z</time>
      </trkpt>
      <trkpt lat="43.58262" lon="1.32453">
        <ele>161</ele>
        <time>2021-09-19T10:32:21Z</time>
      </trkpt>
      <trkpt lat="43.58265" lon="1.32453">
        <ele>161</ele>
        <time>2021-09-19T10:32:22Z</time>
      </trkpt>
      <trkpt lat="43.58269" lon="1.32454">
        <ele>161</ele>
        <time>2021-09-19T10:32:23Z</time>
      </trkpt>
      <trkpt lat="43.58273" lon="1.32455">
        <ele>161</ele>
        <time>2021-09-19T10:32:24Z</time>
      </trkpt>
      <trkpt lat="43.58277" lon="1.32456">
        <ele>161</ele>
        <time>2021-09-19T10:32:25Z</time>
      </trkpt>
      <trkpt lat="43.5828" lon="1.32457">
        <ele>161</ele>
        <time>2021-09-19T10:32:26Z</time>
      </trkpt>
      <trkpt lat="43.58284" lon="1.32458">
        <ele>162</ele>
        <time>2021-09-19T10:32:27Z</time>
      </trkpt>
      <trkpt lat="43.58288" lon="1.32459">
        <ele>162</ele>
        <time>2021-09-19T10:32:28Z</time>
      </trkpt>
      <trkpt lat="43.58291" lon="1.32459">
        <ele>162</ele>
        <time>2021-09-19T10:32:29Z</time>
      </trkpt>
      <trkpt lat="43.58295" lon="1.3246">
        <ele>162</ele>
        <time>2021-09-19T10:32:30Z</time>
      </trkpt>
      <trkpt lat="43.58299" lon="1.32461">
        <ele>162</ele>
        <time>2021-09-19T10:32:31Z</time>
      </trkpt>
      <trkpt lat="43.58302" lon="1.32462">
        <ele>162</ele>
        <time>2021-09-19T10:32:32Z</time>
      </trkpt>
      <trkpt lat="43.58306" lon="1.32463">
        <ele>162</ele>
        <time>2021-09-19T10:32:33Z</time>
      </trkpt>
      <trkpt lat="43.58309" lon="1.32464">
        <ele>162</ele>
        <time>2021-09-19T10:32:34Z</time>
      </trkpt>
      <trkpt lat="43.58313" lon="1.32465">
        <ele>162</ele>
        <time>2021-09-19T10:32:35Z</time>
      </trkpt>
      <trkpt lat="43.58316" lon="1.32466">
        <ele>162</ele>
        <time>2021-09-19T10:32:36Z</time>
      </trkpt>
      <trkpt lat="43.58319" lon="1.32466">
        <ele>162</ele>
        <time>2021-09-19T10:32:37Z</time>
      </trkpt>
      <trkpt lat="43.58322" lon="1.32467">
        <ele>162</ele>
        <time>2021-09-19T10:32:38Z</time>
      </trkpt>
      <trkpt lat="43.58324" lon="1.32467">
        <ele>162</ele>
        <time>2021-09-19T10:32:39Z</time>
      </trkpt>
      <trkpt lat="43.58326" lon="1.32467">
        <ele>162</ele>
        <time>2021-09-19T10:32:40Z</time>
      </trkpt>
      <trkpt lat="43.58328" lon="1.32463">
        <ele>162</ele>
        <time>2021-09-19T10:32:42Z</time>
      </trkpt>
      <trkpt lat="43.58328" lon="1.32458">
        <ele>163</ele>
        <time>2021-09-19T10:32:44Z</time>
      </trkpt>
      <trkpt lat="43.58329" lon="1.32456">
        <ele>163</ele>
        <time>2021-09-19T10:32:45Z</time>
      </trkpt>
      <trkpt lat="43.58331" lon="1.32454">
        <ele>163</ele>
        <time>2021-09-19T10:32:46Z</time>
      </trkpt>
      <trkpt lat="43.58332" lon="1.32452">
        <ele>162</ele>
        <time>2021-09-19T10:32:47Z</time>
      </trkpt>
      <trkpt lat="43.58333" lon="1.32449">
        <ele>162</ele>
        <time>2021-09-19T10:32:48Z</time>
      </trkpt>
      <trkpt lat="43.58334" lon="1.32446">
        <ele>162</ele>
        <time>2021-09-19T10:32:49Z</time>
      </trkpt>
      <trkpt lat="43.58336" lon="1.32444">
        <ele>162</ele>
        <time>2021-09-19T10:32:50Z</time>
      </trkpt>
      <trkpt lat="43.58339" lon="1.32443">
        <ele>162</ele>
        <time>2021-09-19T10:32:51Z</time>
      </trkpt>
      <trkpt lat="43.58342" lon="1.32445">
        <ele>162</ele>
        <time>2021-09-19T10:32:52Z</time>
      </trkpt>
      <trkpt lat="43.58344" lon="1.32448">
        <ele>162</ele>
        <time>2021-09-19T10:32:53Z</time>
      </trkpt>
      <trkpt lat="43.58346" lon="1.3245">
        <ele>162</ele>
        <time>2021-09-19T10:32:54Z</time>
      </trkpt>
      <trkpt lat="43.58349" lon="1.32452">
        <ele>162</ele>
        <time>2021-09-19T10:32:55Z</time>
      </trkpt>
      <trkpt lat="43.58351" lon="1.32454">
        <ele>162</ele>
        <time>2021-09-19T10:32:56Z</time>
      </trkpt>
      <trkpt lat="43.58353" lon="1.32457">
        <ele>162</ele>
        <time>2021-09-19T10:32:57Z</time>
      </trkpt>
      <trkpt lat="43.58354" lon="1.32459">
        <ele>162</ele>
        <time>2021-09-19T10:32:58Z</time>
      </trkpt>
      <trkpt lat="43.58355" lon="1.32463">
        <ele>162</ele>
        <time>2021-09-19T10:32:59Z</time>
      </trkpt>
      <trkpt lat="43.58354" lon="1.32466">
        <ele>162</ele>
        <time>2021-09-19T10:33:00Z</time>
      </trkpt>
      <trkpt lat="43.58355" lon="1.3247">
        <ele>162</ele>
        <time>2021-09-19T10:33:01Z</time>
      </trkpt>
      <trkpt lat="43.58356" lon="1.32473">
        <ele>162</ele>
        <time>2021-09-19T10:33:02Z</time>
      </trkpt>
      <trkpt lat="43.58359" lon="1.32474">
        <ele>163</ele>
        <time>2021-09-19T10:33:03Z</time>
      </trkpt>
      <trkpt lat="43.58363" lon="1.32475">
        <ele>163</ele>
        <time>2021-09-19T10:33:04Z</time>
      </trkpt>
      <trkpt lat="43.58366" lon="1.32476">
        <ele>163</ele>
        <time>2021-09-19T10:33:05Z</time>
      </trkpt>
      <trkpt lat="43.5837" lon="1.32476">
        <ele>163</ele>
        <time>2021-09-19T10:33:06Z</time>
      </trkpt>
      <trkpt lat="43.58373" lon="1.32477">
        <ele>163</ele>
        <time>2021-09-19T10:33:07Z</time>
      </trkpt>
      <trkpt lat="43.58377" lon="1.32477">
        <ele>163</ele>
        <time>2021-09-19T10:33:08Z</time>
      </trkpt>
      <trkpt lat="43.5838" lon="1.32478">
        <ele>163</ele>
        <time>2021-09-19T10:33:09Z</time>
      </trkpt>
      <trkpt lat="43.58383" lon="1.32479">
        <ele>163</ele>
        <time>2021-09-19T10:33:10Z</time>
      </trkpt>
      <trkpt lat="43.58386" lon="1.32479">
        <ele>163</ele>
        <time>2021-09-19T10:33:11Z</time>
      </trkpt>
      <trkpt lat="43.58388" lon="1.32479">
        <ele>163</ele>
        <time>2021-09-19T10:33:12Z</time>
      </trkpt>
      <trkpt lat="43.5839" lon="1.3248">
        <ele>164</ele>
        <time>2021-09-19T10:33:13Z</time>
      </trkpt>
      <trkpt lat="43.58392" lon="1.3248">
        <ele>164</ele>
        <time>2021-09-19T10:33:14Z</time>
      </trkpt>
      <trkpt lat="43.58394" lon="1.32481">
        <ele>164</ele>
        <time>2021-09-19T10:33:15Z</time>
      </trkpt>
      <trkpt lat="43.58396" lon="1.32482">
        <ele>164</ele>
        <time>2021-09-19T10:33:16Z</time>
      </trkpt>
      <trkpt lat="43.58398" lon="1.32483">
        <ele>164</ele>
        <time>2021-09-19T10:33:17Z</time>
      </trkpt>
      <trkpt lat="43.584" lon="1.32484">
        <ele>164</ele>
        <time>2021-09-19T10:33:18Z</time>
      </trkpt>
      <trkpt lat="43.58402" lon="1.32484">
        <ele>164</ele>
        <time>2021-09-19T10:33:19Z</time>
      </trkpt>
      <trkpt lat="43.58405" lon="1.32485">
        <ele>164</ele>
        <time>2021-09-19T10:33:20Z</time>
      </trkpt>
      <trkpt lat="43.58408" lon="1.32485">
        <ele>164</ele>
        <time>2021-09-19T10:33:21Z</time>
      </trkpt>
      <trkpt lat="43.5841" lon="1.32486">
        <ele>165</ele>
        <time>2021-09-19T10:33:22Z</time>
      </trkpt>
      <trkpt lat="43.58413" lon="1.32486">
        <ele>165</ele>
        <time>2021-09-19T10:33:23Z</time>
      </trkpt>
      <trkpt lat="43.58415" lon="1.32487">
        <ele>165</ele>
        <time>2021-09-19T10:33:24Z</time>
      </trkpt>
      <trkpt lat="43.58418" lon="1.32487">
        <ele>165</ele>
        <time>2021-09-19T10:33:25Z</time>
      </trkpt>
      <trkpt lat="43.5842" lon="1.32487">
        <ele>165</ele>
        <time>2021-09-19T10:33:26Z</time>
      </trkpt>
      <trkpt lat="43.58423" lon="1.32488">
        <ele>165</ele>
        <time>2021-09-19T10:33:27Z</time>
      </trkpt>
      <trkpt lat="43.58425" lon="1.32488">
        <ele>165</ele>
        <time>2021-09-19T10:33:28Z</time>
      </trkpt>
      <trkpt lat="43.58428" lon="1.32489">
        <ele>165</ele>
        <time>2021-09-19T10:33:29Z</time>
      </trkpt>
      <trkpt lat="43.58431" lon="1.3249">
        <ele>165</ele>
        <time>2021-09-19T10:33:30Z</time>
      </trkpt>
      <trkpt lat="43.58434" lon="1.32491">
        <ele>165</ele>
        <time>2021-09-19T10:33:31Z</time>
      </trkpt>
      <trkpt lat="43.58436" lon="1.32492">
        <ele>165</ele>
        <time>2021-09-19T10:33:32Z</time>
      </trkpt>
      <trkpt lat="43.5844" lon="1.32493">
        <ele>165</ele>
        <time>2021-09-19T10:33:33Z</time>
      </trkpt>
      <trkpt lat="43.58443" lon="1.32494">
        <ele>165</ele>
        <time>2021-09-19T10:33:34Z</time>
      </trkpt>
      <trkpt lat="43.58446" lon="1.32496">
        <ele>165</ele>
        <time>2021-09-19T10:33:35Z</time>
      </trkpt>
      <trkpt lat="43.58448" lon="1.32497">
        <ele>165</ele>
        <time>2021-09-19T10:33:36Z</time>
      </trkpt>
      <trkpt lat="43.58451" lon="1.32497">
        <ele>166</ele>
        <time>2021-09-19T10:33:37Z</time>
      </trkpt>
      <trkpt lat="43.58454" lon="1.32498">
        <ele>166</ele>
        <time>2021-09-19T10:33:38Z</time>
      </trkpt>
      <trkpt lat="43.58457" lon="1.32499">
        <ele>166</ele>
        <time>2021-09-19T10:33:39Z</time>
      </trkpt>
      <trkpt lat="43.58459" lon="1.32501">
        <ele>166</ele>
        <time>2021-09-19T10:33:40Z</time>
      </trkpt>
      <trkpt lat="43.58461" lon="1.32503">
        <ele>166</ele>
        <time>2021-09-19T10:33:41Z</time>
      </trkpt>
      <trkpt lat="43.58463" lon="1.32505">
        <ele>166</ele>
        <time>2021-09-19T10:33:42Z</time>
      </trkpt>
      <trkpt lat="43.58465" lon="1.32507">
        <ele>166</ele>
        <time>2021-09-19T10:33:43Z</time>
      </trkpt>
      <trkpt lat="43.58468" lon="1.3251">
        <ele>166</ele>
        <time>2021-09-19T10:33:44Z</time>
      </trkpt>
      <trkpt lat="43.58471" lon="1.32511">
        <ele>166</ele>
        <time>2021-09-19T10:33:45Z</time>
      </trkpt>
      <trkpt lat="43.58474" lon="1.32512">
        <ele>166</ele>
        <time>2021-09-19T10:33:46Z</time>
      </trkpt>
      <trkpt lat="43.58477" lon="1.32513">
        <ele>167</ele>
        <time>2021-09-19T10:33:47Z</time>
      </trkpt>
      <trkpt lat="43.5848" lon="1.32513">
        <ele>167</ele>
        <time>2021-09-19T10:33:48Z</time>
      </trkpt>
      <trkpt lat="43.58483" lon="1.32513">
        <ele>167</ele>
        <time>2021-09-19T10:33:49Z</time>
      </trkpt>
      <trkpt lat="43.58486" lon="1.32512">
        <ele>167</ele>
        <time>2021-09-19T10:33:50Z</time>
      </trkpt>
      <trkpt lat="43.58489" lon="1.32511">
        <ele>167</ele>
        <time>2021-09-19T10:33:51Z</time>
      </trkpt>
      <trkpt lat="43.58493" lon="1.32508">
        <ele>167</ele>
        <time>2021-09-19T10:33:52Z</time>
      </trkpt>
      <trkpt lat="43.58495" lon="1.32504">
        <ele>167</ele>
        <time>2021-09-19T10:33:53Z</time>
      </trkpt>
      <trkpt lat="43.58498" lon="1.325">
        <ele>167</ele>
        <time>2021-09-19T10:33:54Z</time>
      </trkpt>
      <trkpt lat="43.58501" lon="1.32496">
        <ele>167</ele>
        <time>2021-09-19T10:33:55Z</time>
      </trkpt>
      <trkpt lat="43.58503" lon="1.32492">
        <ele>167</ele>
        <time>2021-09-19T10:33:56Z</time>
      </trkpt>
      <trkpt lat="43.58506" lon="1.32488">
        <ele>167</ele>
        <time>2021-09-19T10:33:57Z</time>
      </trkpt>
      <trkpt lat="43.58509" lon="1.32484">
        <ele>168</ele>
        <time>2021-09-19T10:33:58Z</time>
      </trkpt>
      <trkpt lat="43.58512" lon="1.32481">
        <ele>168</ele>
        <time>2021-09-19T10:33:59Z</time>
      </trkpt>
      <trkpt lat="43.58515" lon="1.32477">
        <ele>168</ele>
        <time>2021-09-19T10:34:00Z</time>
      </trkpt>
      <trkpt lat="43.58518" lon="1.32473">
        <ele>168</ele>
        <time>2021-09-19T10:34:01Z</time>
      </trkpt>
      <trkpt lat="43.58521" lon="1.3247">
        <ele>168</ele>
        <time>2021-09-19T10:34:02Z</time>
      </trkpt>
      <trkpt lat="43.58524" lon="1.32466">
        <ele>168</ele>
        <time>2021-09-19T10:34:03Z</time>
      </trkpt>
      <trkpt lat="43.58527" lon="1.32462">
        <ele>169</ele>
        <time>2021-09-19T10:34:04Z</time>
      </trkpt>
      <trkpt lat="43.5853" lon="1.32459">
        <ele>169</ele>
        <time>2021-09-19T10:34:05Z</time>
      </trkpt>
      <trkpt lat="43.58533" lon="1.32456">
        <ele>169</ele>
        <time>2021-09-19T10:34:06Z</time>
      </trkpt>
      <trkpt lat="43.58536" lon="1.32452">
        <ele>169</ele>
        <time>2021-09-19T10:34:07Z</time>
      </trkpt>
      <trkpt lat="43.58539" lon="1.32448">
        <ele>169</ele>
        <time>2021-09-19T10:34:08Z</time>
      </trkpt>
      <trkpt lat="43.58542" lon="1.32444">
        <ele>170</ele>
        <time>2021-09-19T10:34:09Z</time>
      </trkpt>
      <trkpt lat="43.58545" lon="1.32441">
        <ele>170</ele>
        <time>2021-09-19T10:34:10Z</time>
      </trkpt>
      <trkpt lat="43.58547" lon="1.32437">
        <ele>170</ele>
        <time>2021-09-19T10:34:11Z</time>
      </trkpt>
      <trkpt lat="43.5855" lon="1.32434">
        <ele>170</ele>
        <time>2021-09-19T10:34:12Z</time>
      </trkpt>
      <trkpt lat="43.58553" lon="1.3243">
        <ele>170</ele>
        <time>2021-09-19T10:34:13Z</time>
      </trkpt>
      <trkpt lat="43.58556" lon="1.32427">
        <ele>170</ele>
        <time>2021-09-19T10:34:14Z</time>
      </trkpt>
      <trkpt lat="43.58559" lon="1.32423">
        <ele>170</ele>
        <time>2021-09-19T10:34:15Z</time>
      </trkpt>
      <trkpt lat="43.58562" lon="1.3242">
        <ele>171</ele>
        <time>2021-09-19T10:34:16Z</time>
      </trkpt>
      <trkpt lat="43.58565" lon="1.32416">
        <ele>171</ele>
        <time>2021-09-19T10:34:17Z</time>
      </trkpt>
      <trkpt lat="43.58568" lon="1.32413">
        <ele>171</ele>
        <time>2021-09-19T10:34:18Z</time>
      </trkpt>
      <trkpt lat="43.58571" lon="1.3241">
        <ele>171</ele>
        <time>2021-09-19T10:34:19Z</time>
      </trkpt>
      <trkpt lat="43.58573" lon="1.32406">
        <ele>172</ele>
        <time>2021-09-19T10:34:20Z</time>
      </trkpt>
      <trkpt lat="43.58576" lon="1.32403">
        <ele>172</ele>
        <time>2021-09-19T10:34:21Z</time>
      </trkpt>
      <trkpt lat="43.58579" lon="1.324">
        <ele>172</ele>
        <time>2021-09-19T10:34:22Z</time>
      </trkpt>
      <trkpt lat="43.58582" lon="1.32397">
        <ele>172</ele>
        <time>2021-09-19T10:34:23Z</time>
      </trkpt>
      <trkpt lat="43.58585" lon="1.32394">
        <ele>173</ele>
        <time>2021-09-19T10:34:24Z</time>
      </trkpt>
      <trkpt lat="43.58588" lon="1.32391">
        <ele>173</ele>
        <time>2021-09-19T10:34:25Z</time>
      </trkpt>
      <trkpt lat="43.58591" lon="1.32387">
        <ele>173</ele>
        <time>2021-09-19T10:34:26Z</time>
      </trkpt>
      <trkpt lat="43.58594" lon="1.32384">
        <ele>174</ele>
        <time>2021-09-19T10:34:27Z</time>
      </trkpt>
      <trkpt lat="43.58597" lon="1.32381">
        <ele>174</ele>
        <time>2021-09-19T10:34:28Z</time>
      </trkpt>
      <trkpt lat="43.586" lon="1.32377">
        <ele>174</ele>
        <time>2021-09-19T10:34:29Z</time>
      </trkpt>
      <trkpt lat="43.58602" lon="1.32374">
        <ele>174</ele>
        <time>2021-09-19T10:34:30Z</time>
      </trkpt>
      <trkpt lat="43.58605" lon="1.32371">
        <ele>174</ele>
        <time>2021-09-19T10:34:31Z</time>
      </trkpt>
      <trkpt lat="43.58608" lon="1.32367">
        <ele>174</ele>
        <time>2021-09-19T10:34:32Z</time>
      </trkpt>
      <trkpt lat="43.5861" lon="1.32364">
        <ele>174</ele>
        <time>2021-09-19T10:34:33Z</time>
      </trkpt>
      <trkpt lat="43.58613" lon="1.32361">
        <ele>174</ele>
        <time>2021-09-19T10:34:34Z</time>
      </trkpt>
      <trkpt lat="43.58616" lon="1.32358">
        <ele>174</ele>
        <time>2021-09-19T10:34:35Z</time>
      </trkpt>
      <trkpt lat="43.58619" lon="1.32355">
        <ele>175</ele>
        <time>2021-09-19T10:34:36Z</time>
      </trkpt>
      <trkpt lat="43.58622" lon="1.32352">
        <ele>175</ele>
        <time>2021-09-19T10:34:37Z</time>
      </trkpt>
      <trkpt lat="43.58624" lon="1.3235">
        <ele>176</ele>
        <time>2021-09-19T10:34:38Z</time>
      </trkpt>
      <trkpt lat="43.58626" lon="1.32347">
        <ele>176</ele>
        <time>2021-09-19T10:34:39Z</time>
      </trkpt>
      <trkpt lat="43.58629" lon="1.32343">
        <ele>176</ele>
        <time>2021-09-19T10:34:40Z</time>
      </trkpt>
      <trkpt lat="43.58632" lon="1.3234">
        <ele>176</ele>
        <time>2021-09-19T10:34:41Z</time>
      </trkpt>
      <trkpt lat="43.58634" lon="1.32337">
        <ele>176</ele>
        <time>2021-09-19T10:34:42Z</time>
      </trkpt>
      <trkpt lat="43.58637" lon="1.32334">
        <ele>177</ele>
        <time>2021-09-19T10:34:43Z</time>
      </trkpt>
      <trkpt lat="43.58639" lon="1.32332">
        <ele>178</ele>
        <time>2021-09-19T10:34:44Z</time>
      </trkpt>
      <trkpt lat="43.58641" lon="1.32329">
        <ele>178</ele>
        <time>2021-09-19T10:34:45Z</time>
      </trkpt>
      <trkpt lat="43.58644" lon="1.32327">
        <ele>178</ele>
        <time>2021-09-19T10:34:46Z</time>
      </trkpt>
      <trkpt lat="43.58647" lon="1.32324">
        <ele>178</ele>
        <time>2021-09-19T10:34:47Z</time>
      </trkpt>
      <trkpt lat="43.58649" lon="1.32322">
        <ele>178</ele>
        <time>2021-09-19T10:34:48Z</time>
      </trkpt>
      <trkpt lat="43.58652" lon="1.32319">
        <ele>179</ele>
        <time>2021-09-19T10:34:49Z</time>
      </trkpt>
      <trkpt lat="43.58655" lon="1.32316">
        <ele>180</ele>
        <time>2021-09-19T10:34:50Z</time>
      </trkpt>
      <trkpt lat="43.58657" lon="1.32313">
        <ele>180</ele>
        <time>2021-09-19T10:34:51Z</time>
      </trkpt>
      <trkpt lat="43.5866" lon="1.32311">
        <ele>180</ele>
        <time>2021-09-19T10:34:52Z</time>
      </trkpt>
      <trkpt lat="43.58662" lon="1.32308">
        <ele>180</ele>
        <time>2021-09-19T10:34:53Z</time>
      </trkpt>
      <trkpt lat="43.58665" lon="1.32305">
        <ele>180</ele>
        <time>2021-09-19T10:34:54Z</time>
      </trkpt>
      <trkpt lat="43.58667" lon="1.32302">
        <ele>180</ele>
        <time>2021-09-19T10:34:55Z</time>
      </trkpt>
      <trkpt lat="43.58669" lon="1.323">
        <ele>180</ele>
        <time>2021-09-19T10:34:56Z</time>
      </trkpt>
      <trkpt lat="43.58671" lon="1.32297">
        <ele>180</ele>
        <time>2021-09-19T10:34:57Z</time>
      </trkpt>
      <trkpt lat="43.58673" lon="1.32295">
        <ele>180</ele>
        <time>2021-09-19T10:34:58Z</time>
      </trkpt>
      <trkpt lat="43.58675" lon="1.32292">
        <ele>180</ele>
        <time>2021-09-19T10:34:59Z</time>
      </trkpt>
      <trkpt lat="43.58677" lon="1.3229">
        <ele>180</ele>
        <time>2021-09-19T10:35:00Z</time>
      </trkpt>
      <trkpt lat="43.5868" lon="1.32288">
        <ele>181</ele>
        <time>2021-09-19T10:35:01Z</time>
      </trkpt>
      <trkpt lat="43.58682" lon="1.32285">
        <ele>182</ele>
        <time>2021-09-19T10:35:02Z</time>
      </trkpt>
      <trkpt lat="43.58685" lon="1.32283">
        <ele>182</ele>
        <time>2021-09-19T10:35:03Z</time>
      </trkpt>
      <trkpt lat="43.58687" lon="1.3228">
        <ele>183</ele>
        <time>2021-09-19T10:35:04Z</time>
      </trkpt>
      <trkpt lat="43.5869" lon="1.32278">
        <ele>183</ele>
        <time>2021-09-19T10:35:05Z</time>
      </trkpt>
      <trkpt lat="43.58693" lon="1.32276">
        <ele>183</ele>
        <time>2021-09-19T10:35:06Z</time>
      </trkpt>
      <trkpt lat="43.58695" lon="1.32273">
        <ele>184</ele>
        <time>2021-09-19T10:35:07Z</time>
      </trkpt>
      <trkpt lat="43.58698" lon="1.32271">
        <ele>184</ele>
        <time>2021-09-19T10:35:08Z</time>
      </trkpt>
      <trkpt lat="43.587" lon="1.32268">
        <ele>184</ele>
        <time>2021-09-19T10:35:09Z</time>
      </trkpt>
      <trkpt lat="43.58703" lon="1.32266">
        <ele>184</ele>
        <time>2021-09-19T10:35:10Z</time>
      </trkpt>
      <trkpt lat="43.58706" lon="1.32263">
        <ele>184</ele>
        <time>2021-09-19T10:35:11Z</time>
      </trkpt>
      <trkpt lat="43.58708" lon="1.32261">
        <ele>184</ele>
        <time>2021-09-19T10:35:12Z</time>
      </trkpt>
      <trkpt lat="43.58711" lon="1.32258">
        <ele>184</ele>
        <time>2021-09-19T10:35:13Z</time>
      </trkpt>
      <trkpt lat="43.58714" lon="1.32255">
        <ele>184</ele>
        <time>2021-09-19T10:35:14Z</time>
      </trkpt>
      <trkpt lat="43.58716" lon="1.32253">
        <ele>184</ele>
        <time>2021-09-19T10:35:15Z</time>
      </trkpt>
      <trkpt lat="43.58719" lon="1.3225">
        <ele>184</ele>
        <time>2021-09-19T10:35:16Z</time>
      </trkpt>
      <trkpt lat="43.58721" lon="1.32246">
        <ele>185</ele>
        <time>2021-09-19T10:35:17Z</time>
      </trkpt>
      <trkpt lat="43.58723" lon="1.32243">
        <ele>185</ele>
        <time>2021-09-19T10:35:18Z</time>
      </trkpt>
      <trkpt lat="43.58726" lon="1.3224">
        <ele>185</ele>
        <time>2021-09-19T10:35:19Z</time>
      </trkpt>
      <trkpt lat="43.58729" lon="1.32237">
        <ele>186</ele>
        <time>2021-09-19T10:35:20Z</time>
      </trkpt>
      <trkpt lat="43.58731" lon="1.32234">
        <ele>186</ele>
        <time>2021-09-19T10:35:21Z</time>
      </trkpt>
      <trkpt lat="43.58734" lon="1.32231">
        <ele>186</ele>
        <time>2021-09-19T10:35:22Z</time>
      </trkpt>
      <trkpt lat="43.58737" lon="1.32228">
        <ele>186</ele>
        <time>2021-09-19T10:35:23Z</time>
      </trkpt>
      <trkpt lat="43.5874" lon="1.32225">
        <ele>186</ele>
        <time>2021-09-19T10:35:24Z</time>
      </trkpt>
      <trkpt lat="43.58743" lon="1.32222">
        <ele>186</ele>
        <time>2021-09-19T10:35:25Z</time>
      </trkpt>
      <trkpt lat="43.58747" lon="1.32219">
        <ele>186</ele>
        <time>2021-09-19T10:35:26Z</time>
      </trkpt>
      <trkpt lat="43.5875" lon="1.32216">
        <ele>186</ele>
        <time>2021-09-19T10:35:27Z</time>
      </trkpt>
      <trkpt lat="43.58753" lon="1.32213">
        <ele>186</ele>
        <time>2021-09-19T10:35:28Z</time>
      </trkpt>
      <trkpt lat="43.58757" lon="1.3221">
        <ele>186</ele>
        <time>2021-09-19T10:35:29Z</time>
      </trkpt>
      <trkpt lat="43.5876" lon="1.32207">
        <ele>186</ele>
        <time>2021-09-19T10:35:30Z</time>
      </trkpt>
      <trkpt lat="43.58763" lon="1.32204">
        <ele>186</ele>
        <time>2021-09-19T10:35:31Z</time>
      </trkpt>
      <trkpt lat="43.58766" lon="1.32201">
        <ele>186</ele>
        <time>2021-09-19T10:35:32Z</time>
      </trkpt>
      <trkpt lat="43.58768" lon="1.32198">
        <ele>186</ele>
        <time>2021-09-19T10:35:33Z</time>
      </trkpt>
      <trkpt lat="43.58771" lon="1.32195">
        <ele>186</ele>
        <time>2021-09-19T10:35:34Z</time>
      </trkpt>
      <trkpt lat="43.58773" lon="1.32193">
        <ele>186</ele>
        <time>2021-09-19T10:35:35Z</time>
      </trkpt>
      <trkpt lat="43.58776" lon="1.32191">
        <ele>186</ele>
        <time>2021-09-19T10:35:36Z</time>
      </trkpt>
      <trkpt lat="43.58779" lon="1.32188">
        <ele>186</ele>
        <time>2021-09-19T10:35:37Z</time>
      </trkpt>
      <trkpt lat="43.58782" lon="1.32185">
        <ele>186</ele>
        <time>2021-09-19T10:35:38Z</time>
      </trkpt>
      <trkpt lat="43.58784" lon="1.32182">
        <ele>186</ele>
        <time>2021-09-19T10:35:39Z</time>
      </trkpt>
      <trkpt lat="43.58787" lon="1.3218">
        <ele>186</ele>
        <time>2021-09-19T10:35:40Z</time>
      </trkpt>
      <trkpt lat="43.5879" lon="1.32177">
        <ele>186</ele>
        <time>2021-09-19T10:35:41Z</time>
      </trkpt>
      <trkpt lat="43.58792" lon="1.32174">
        <ele>186</ele>
        <time>2021-09-19T10:35:42Z</time>
      </trkpt>
      <trkpt lat="43.58794" lon="1.32171">
        <ele>186</ele>
        <time>2021-09-19T10:35:43Z</time>
      </trkpt>
      <trkpt lat="43.58797" lon="1.32169">
        <ele>186</ele>
        <time>2021-09-19T10:35:44Z</time>
      </trkpt>
      <trkpt lat="43.58799" lon="1.32167">
        <ele>186</ele>
        <time>2021-09-19T10:35:45Z</time>
      </trkpt>
      <trkpt lat="43.58802" lon="1.32165">
        <ele>186</ele>
        <time>2021-09-19T10:35:46Z</time>
      </trkpt>
      <trkpt lat="43.58804" lon="1.32163">
        <ele>186</ele>
        <time>2021-09-19T10:35:47Z</time>
      </trkpt>
      <trkpt lat="43.58805" lon="1.32162">
        <ele>186</ele>
        <time>2021-09-19T10:35:48Z</time>
      </trkpt>
      <trkpt lat="43.58809" lon="1.32161">
        <ele>186</ele>
        <time>2021-09-19T10:35:50Z</time>
      </trkpt>
      <trkpt lat="43.5881" lon="1.32163">
        <ele>186</ele>
        <time>2021-09-19T10:35:51Z</time>
      </trkpt>
      <trkpt lat="43.58812" lon="1.32164">
        <ele>186</ele>
        <time>2021-09-19T10:35:52Z</time>
      </trkpt>
      <trkpt lat="43.58815" lon="1.32166">
        <ele>186</ele>
        <time>2021-09-19T10:35:53Z</time>
      </trkpt>
      <trkpt lat="43.58818" lon="1.32167">
        <ele>186</ele>
        <time>2021-09-19T10:35:54Z</time>
      </trkpt>
      <trkpt lat="43.58821" lon="1.32169">
        <ele>186</ele>
        <time>2021-09-19T10:35:55Z</time>
      </trkpt>
      <trkpt lat="43.58824" lon="1.32171">
        <ele>186</ele>
        <time>2021-09-19T10:35:56Z</time>
      </trkpt>
      <trkpt lat="43.58826" lon="1.32174">
        <ele>186</ele>
        <time>2021-09-19T10:35:57Z</time>
      </trkpt>
      <trkpt lat="43.58829" lon="1.32178">
        <ele>186</ele>
        <time>2021-09-19T10:35:58Z</time>
      </trkpt>
      <trkpt lat="43.58831" lon="1.32182">
        <ele>186</ele>
        <time>2021-09-19T10:35:59Z</time>
      </trkpt>
      <trkpt lat="43.58833" lon="1.32186">
        <ele>186</ele>
        <time>2021-09-19T10:36:00Z</time>
      </trkpt>
      <trkpt lat="43.58836" lon="1.3219">
        <ele>186</ele>
        <time>2021-09-19T10:36:01Z</time>
      </trkpt>
      <trkpt lat="43.58838" lon="1.32194">
        <ele>186</ele>
        <time>2021-09-19T10:36:02Z</time>
      </trkpt>
      <trkpt lat="43.5884" lon="1.32198">
        <ele>186</ele>
        <time>2021-09-19T10:36:03Z</time>
      </trkpt>
      <trkpt lat="43.58842" lon="1.32202">
        <ele>186</ele>
        <time>2021-09-19T10:36:04Z</time>
      </trkpt>
      <trkpt lat="43.58844" lon="1.32206">
        <ele>186</ele>
        <time>2021-09-19T10:36:05Z</time>
      </trkpt>
      <trkpt lat="43.58847" lon="1.3221">
        <ele>186</ele>
        <time>2021-09-19T10:36:06Z</time>
      </trkpt>
      <trkpt lat="43.58849" lon="1.32214">
        <ele>186</ele>
        <time>2021-09-19T10:36:07Z</time>
      </trkpt>
      <trkpt lat="43.58851" lon="1.32219">
        <ele>186</ele>
        <time>2021-09-19T10:36:08Z</time>
      </trkpt>
      <trkpt lat="43.58853" lon="1.32223">
        <ele>185</ele>
        <time>2021-09-19T10:36:09Z</time>
      </trkpt>
      <trkpt lat="43.58855" lon="1.32228">
        <ele>185</ele>
        <time>2021-09-19T10:36:10Z</time>
      </trkpt>
      <trkpt lat="43.58857" lon="1.32234">
        <ele>184</ele>
        <time>2021-09-19T10:36:11Z</time>
      </trkpt>
      <trkpt lat="43.58859" lon="1.32239">
        <ele>184</ele>
        <time>2021-09-19T10:36:12Z</time>
      </trkpt>
      <trkpt lat="43.58861" lon="1.32245">
        <ele>184</ele>
        <time>2021-09-19T10:36:13Z</time>
      </trkpt>
      <trkpt lat="43.58863" lon="1.32251">
        <ele>185</ele>
        <time>2021-09-19T10:36:14Z</time>
      </trkpt>
      <trkpt lat="43.58865" lon="1.32257">
        <ele>185</ele>
        <time>2021-09-19T10:36:15Z</time>
      </trkpt>
      <trkpt lat="43.58867" lon="1.32263">
        <ele>184</ele>
        <time>2021-09-19T10:36:16Z</time>
      </trkpt>
      <trkpt lat="43.58869" lon="1.32269">
        <ele>184</ele>
        <time>2021-09-19T10:36:17Z</time>
      </trkpt>
      <trkpt lat="43.58872" lon="1.32275">
        <ele>184</ele>
        <time>2021-09-19T10:36:18Z</time>
      </trkpt>
      <trkpt lat="43.58875" lon="1.32281">
        <ele>184</ele>
        <time>2021-09-19T10:36:19Z</time>
      </trkpt>
      <trkpt lat="43.58878" lon="1.32286">
        <ele>184</ele>
        <time>2021-09-19T10:36:20Z</time>
      </trkpt>
      <trkpt lat="43.58881" lon="1.3229">
        <ele>184</ele>
        <time>2021-09-19T10:36:21Z</time>
      </trkpt>
      <trkpt lat="43.58885" lon="1.32295">
        <ele>184</ele>
        <time>2021-09-19T10:36:22Z</time>
      </trkpt>
      <trkpt lat="43.58887" lon="1.32299">
        <ele>184</ele>
        <time>2021-09-19T10:36:23Z</time>
      </trkpt>
      <trkpt lat="43.5889" lon="1.32304">
        <ele>184</ele>
        <time>2021-09-19T10:36:24Z</time>
      </trkpt>
      <trkpt lat="43.58892" lon="1.32308">
        <ele>184</ele>
        <time>2021-09-19T10:36:25Z</time>
      </trkpt>
      <trkpt lat="43.58894" lon="1.32312">
        <ele>183</ele>
        <time>2021-09-19T10:36:26Z</time>
      </trkpt>
      <trkpt lat="43.58896" lon="1.32315">
        <ele>183</ele>
        <time>2021-09-19T10:36:27Z</time>
      </trkpt>
      <trkpt lat="43.58899" lon="1.32319">
        <ele>183</ele>
        <time>2021-09-19T10:36:28Z</time>
      </trkpt>
      <trkpt lat="43.58903" lon="1.32322">
        <ele>183</ele>
        <time>2021-09-19T10:36:29Z</time>
      </trkpt>
      <trkpt lat="43.58906" lon="1.32324">
        <ele>183</ele>
        <time>2021-09-19T10:36:30Z</time>
      </trkpt>
      <trkpt lat="43.5891" lon="1.32325">
        <ele>183</ele>
        <time>2021-09-19T10:36:31Z</time>
      </trkpt>
      <trkpt lat="43.58914" lon="1.32327">
        <ele>183</ele>
        <time>2021-09-19T10:36:32Z</time>
      </trkpt>
      <trkpt lat="43.58918" lon="1.32329">
        <ele>183</ele>
        <time>2021-09-19T10:36:33Z</time>
      </trkpt>
      <trkpt lat="43.58922" lon="1.32332">
        <ele>183</ele>
        <time>2021-09-19T10:36:34Z</time>
      </trkpt>
      <trkpt lat="43.58927" lon="1.32335">
        <ele>183</ele>
        <time>2021-09-19T10:36:35Z</time>
      </trkpt>
      <trkpt lat="43.58932" lon="1.32338">
        <ele>183</ele>
        <time>2021-09-19T10:36:36Z</time>
      </trkpt>
      <trkpt lat="43.58937" lon="1.32342">
        <ele>183</ele>
        <time>2021-09-19T10:36:37Z</time>
      </trkpt>
      <trkpt lat="43.58941" lon="1.32345">
        <ele>183</ele>
        <time>2021-09-19T10:36:38Z</time>
      </trkpt>
      <trkpt lat="43.58945" lon="1.32347">
        <ele>184</ele>
        <time>2021-09-19T10:36:39Z</time>
      </trkpt>
      <trkpt lat="43.58948" lon="1.32348">
        <ele>184</ele>
        <time>2021-09-19T10:36:40Z</time>
      </trkpt>
      <trkpt lat="43.58951" lon="1.32349">
        <ele>185</ele>
        <time>2021-09-19T10:36:41Z</time>
      </trkpt>
      <trkpt lat="43.58953" lon="1.3235">
        <ele>186</ele>
        <time>2021-09-19T10:36:42Z</time>
      </trkpt>
      <trkpt lat="43.58955" lon="1.32352">
        <ele>186</ele>
        <time>2021-09-19T10:36:43Z</time>
      </trkpt>
      <trkpt lat="43.58957" lon="1.32355">
        <ele>186</ele>
        <time>2021-09-19T10:36:44Z</time>
      </trkpt>
      <trkpt lat="43.5896" lon="1.32358">
        <ele>186</ele>
        <time>2021-09-19T10:36:45Z</time>
      </trkpt>
      <trkpt lat="43.58963" lon="1.32362">
        <ele>186</ele>
        <time>2021-09-19T10:36:46Z</time>
      </trkpt>
      <trkpt lat="43.58966" lon="1.32366">
        <ele>186</ele>
        <time>2021-09-19T10:36:47Z</time>
      </trkpt>
      <trkpt lat="43.58969" lon="1.3237">
        <ele>186</ele>
        <time>2021-09-19T10:36:48Z</time>
      </trkpt>
      <trkpt lat="43.58972" lon="1.32374">
        <ele>186</ele>
        <time>2021-09-19T10:36:49Z</time>
      </trkpt>
      <trkpt lat="43.58975" lon="1.32377">
        <ele>186</ele>
        <time>2021-09-19T10:36:50Z</time>
      </trkpt>
      <trkpt lat="43.58978" lon="1.3238">
        <ele>186</ele>
        <time>2021-09-19T10:36:51Z</time>
      </trkpt>
      <trkpt lat="43.58981" lon="1.32384">
        <ele>186</ele>
        <time>2021-09-19T10:36:52Z</time>
      </trkpt>
      <trkpt lat="43.58984" lon="1.32387">
        <ele>186</ele>
        <time>2021-09-19T10:36:53Z</time>
      </trkpt>
      <trkpt lat="43.58987" lon="1.3239">
        <ele>186</ele>
        <time>2021-09-19T10:36:54Z</time>
      </trkpt>
      <trkpt lat="43.5899" lon="1.32393">
        <ele>186</ele>
        <time>2021-09-19T10:36:55Z</time>
      </trkpt>
      <trkpt lat="43.58993" lon="1.32396">
        <ele>186</ele>
        <time>2021-09-19T10:36:56Z</time>
      </trkpt>
      <trkpt lat="43.58997" lon="1.32398">
        <ele>186</ele>
        <time>2021-09-19T10:36:57Z</time>
      </trkpt>
      <trkpt lat="43.59" lon="1.32399">
        <ele>186</ele>
        <time>2021-09-19T10:36:58Z</time>
      </trkpt>
      <trkpt lat="43.59004" lon="1.324">
        <ele>186</ele>
        <time>2021-09-19T10:36:59Z</time>
      </trkpt>
      <trkpt lat="43.59007" lon="1.32401">
        <ele>186</ele>
        <time>2021-09-19T10:37:00Z</time>
      </trkpt>
      <trkpt lat="43.59011" lon="1.32401">
        <ele>186</ele>
        <time>2021-09-19T10:37:01Z</time>
      </trkpt>
      <trkpt lat="43.59014" lon="1.32401">
        <ele>186</ele>
        <time>2021-09-19T10:37:02Z</time>
      </trkpt>
      <trkpt lat="43.59018" lon="1.32401">
        <ele>186</ele>
        <time>2021-09-19T10:37:03Z</time>
      </trkpt>
      <trkpt lat="43.59022" lon="1.324">
        <ele>186</ele>
        <time>2021-09-19T10:37:04Z</time>
      </trkpt>
      <trkpt lat="43.59025" lon="1.32399">
        <ele>186</ele>
        <time>2021-09-19T10:37:05Z</time>
      </trkpt>
      <trkpt lat="43.59029" lon="1.32399">
        <ele>187</ele>
        <time>2021-09-19T10:37:06Z</time>
      </trkpt>
      <trkpt lat="43.59032" lon="1.32398">
        <ele>187</ele>
        <time>2021-09-19T10:37:07Z</time>
      </trkpt>
      <trkpt lat="43.59035" lon="1.32397">
        <ele>187</ele>
        <time>2021-09-19T10:37:08Z</time>
      </trkpt>
      <trkpt lat="43.59039" lon="1.32397">
        <ele>187</ele>
        <time>2021-09-19T10:37:09Z</time>
      </trkpt>
      <trkpt lat="43.59042" lon="1.32395">
        <ele>187</ele>
        <time>2021-09-19T10:37:10Z</time>
      </trkpt>
      <trkpt lat="43.59046" lon="1.32393">
        <ele>187</ele>
        <time>2021-09-19T10:37:11Z</time>
      </trkpt>
      <trkpt lat="43.5905" lon="1.32392">
        <ele>187</ele>
        <time>2021-09-19T10:37:12Z</time>
      </trkpt>
      <trkpt lat="43.59054" lon="1.3239">
        <ele>187</ele>
        <time>2021-09-19T10:37:13Z</time>
      </trkpt>
      <trkpt lat="43.59058" lon="1.32388">
        <ele>187</ele>
        <time>2021-09-19T10:37:14Z</time>
      </trkpt>
      <trkpt lat="43.59061" lon="1.32387">
        <ele>187</ele>
        <time>2021-09-19T10:37:15Z</time>
      </trkpt>
      <trkpt lat="43.59064" lon="1.32385">
        <ele>186</ele>
        <time>2021-09-19T10:37:16Z</time>
      </trkpt>
      <trkpt lat="43.59067" lon="1.32384">
        <ele>186</ele>
        <time>2021-09-19T10:37:17Z</time>
      </trkpt>
      <trkpt lat="43.59069" lon="1.3238">
        <ele>186</ele>
        <time>2021-09-19T10:37:18Z</time>
      </trkpt>
      <trkpt lat="43.59071" lon="1.32376">
        <ele>186</ele>
        <time>2021-09-19T10:37:19Z</time>
      </trkpt>
      <trkpt lat="43.59071" lon="1.32371">
        <ele>187</ele>
        <time>2021-09-19T10:37:20Z</time>
      </trkpt>
      <trkpt lat="43.59072" lon="1.32367">
        <ele>187</ele>
        <time>2021-09-19T10:37:21Z</time>
      </trkpt>
      <trkpt lat="43.59072" lon="1.32362">
        <ele>187</ele>
        <time>2021-09-19T10:37:22Z</time>
      </trkpt>
      <trkpt lat="43.59073" lon="1.32357">
        <ele>187</ele>
        <time>2021-09-19T10:37:23Z</time>
      </trkpt>
      <trkpt lat="43.59075" lon="1.32353">
        <ele>187</ele>
        <time>2021-09-19T10:37:24Z</time>
      </trkpt>
      <trkpt lat="43.59078" lon="1.32351">
        <ele>187</ele>
        <time>2021-09-19T10:37:25Z</time>
      </trkpt>
      <trkpt lat="43.59081" lon="1.32349">
        <ele>187</ele>
        <time>2021-09-19T10:37:26Z</time>
      </trkpt>
      <trkpt lat="43.59084" lon="1.32347">
        <ele>187</ele>
        <time>2021-09-19T10:37:27Z</time>
      </trkpt>
      <trkpt lat="43.59087" lon="1.32345">
        <ele>187</ele>
        <time>2021-09-19T10:37:28Z</time>
      </trkpt>
      <trkpt lat="43.5909" lon="1.32343">
        <ele>187</ele>
        <time>2021-09-19T10:37:29Z</time>
      </trkpt>
      <trkpt lat="43.59094" lon="1.32341">
        <ele>187</ele>
        <time>2021-09-19T10:37:30Z</time>
      </trkpt>
      <trkpt lat="43.59096" lon="1.3234">
        <ele>187</ele>
        <time>2021-09-19T10:37:31Z</time>
      </trkpt>
      <trkpt lat="43.59098" lon="1.3234">
        <ele>187</ele>
        <time>2021-09-19T10:37:32Z</time>
      </trkpt>
      <trkpt lat="43.591" lon="1.3234">
        <ele>186</ele>
        <time>2021-09-19T10:37:33Z</time>
      </trkpt>
      <trkpt lat="43.59102" lon="1.3234">
        <ele>186</ele>
        <time>2021-09-19T10:37:34Z</time>
      </trkpt>
      <trkpt lat="43.59104" lon="1.3234">
        <ele>186</ele>
        <time>2021-09-19T10:37:35Z</time>
      </trkpt>
      <trkpt lat="43.59107" lon="1.3234">
        <ele>186</ele>
        <time>2021-09-19T10:37:36Z</time>
      </trkpt>
      <trkpt lat="43.5911" lon="1.32342">
        <ele>186</ele>
        <time>2021-09-19T10:37:37Z</time>
      </trkpt>
      <trkpt lat="43.59112" lon="1.32346">
        <ele>186</ele>
        <time>2021-09-19T10:37:38Z</time>
      </trkpt>
      <trkpt lat="43.59113" lon="1.3235">
        <ele>186</ele>
        <time>2021-09-19T10:37:39Z</time>
      </trkpt>
      <trkpt lat="43.59115" lon="1.32354">
        <ele>186</ele>
        <time>2021-09-19T10:37:40Z</time>
      </trkpt>
      <trkpt lat="43.59118" lon="1.32357">
        <ele>186</ele>
        <time>2021-09-19T10:37:41Z</time>
      </trkpt>
      <trkpt lat="43.59122" lon="1.32359">
        <ele>186</ele>
        <time>2021-09-19T10:37:42Z</time>
      </trkpt>
      <trkpt lat="43.59126" lon="1.32361">
        <ele>186</ele>
        <time>2021-09-19T10:37:43Z</time>
      </trkpt>
      <trkpt lat="43.59129" lon="1.32363">
        <ele>186</ele>
        <time>2021-09-19T10:37:44Z</time>
      </trkpt>
      <trkpt lat="43.59133" lon="1.32364">
        <ele>186</ele>
        <time>2021-09-19T10:37:45Z</time>
      </trkpt>
      <trkpt lat="43.59137" lon="1.32367">
        <ele>186</ele>
        <time>2021-09-19T10:37:46Z</time>
      </trkpt>
      <trkpt lat="43.5914" lon="1.32371">
        <ele>186</ele>
        <time>2021-09-19T10:37:47Z</time>
      </trkpt>
      <trkpt lat="43.59142" lon="1.32375">
        <ele>186</ele>
        <time>2021-09-19T10:37:48Z</time>
      </trkpt>
      <trkpt lat="43.59142" lon="1.32379">
        <ele>185</ele>
        <time>2021-09-19T10:37:49Z</time>
      </trkpt>
      <trkpt lat="43.59142" lon="1.32384">
        <ele>186</ele>
        <time>2021-09-19T10:37:50Z</time>
      </trkpt>
      <trkpt lat="43.59141" lon="1.32387">
        <ele>186</ele>
        <time>2021-09-19T10:37:51Z</time>
      </trkpt>
      <trkpt lat="43.59141" lon="1.3239">
        <ele>186</ele>
        <time>2021-09-19T10:37:52Z</time>
      </trkpt>
      <trkpt lat="43.59143" lon="1.32392">
        <ele>186</ele>
        <time>2021-09-19T10:37:53Z</time>
      </trkpt>
      <trkpt lat="43.59146" lon="1.32393">
        <ele>186</ele>
        <time>2021-09-19T10:37:54Z</time>
      </trkpt>
      <trkpt lat="43.59149" lon="1.32394">
        <ele>186</ele>
        <time>2021-09-19T10:37:55Z</time>
      </trkpt>
      <trkpt lat="43.59153" lon="1.32395">
        <ele>186</ele>
        <time>2021-09-19T10:37:56Z</time>
      </trkpt>
      <trkpt lat="43.59157" lon="1.32396">
        <ele>186</ele>
        <time>2021-09-19T10:37:57Z</time>
      </trkpt>
      <trkpt lat="43.5916" lon="1.32398">
        <ele>186</ele>
        <time>2021-09-19T10:37:58Z</time>
      </trkpt>
      <trkpt lat="43.59164" lon="1.32399">
        <ele>186</ele>
        <time>2021-09-19T10:37:59Z</time>
      </trkpt>
      <trkpt lat="43.59167" lon="1.324">
        <ele>186</ele>
        <time>2021-09-19T10:38:00Z</time>
      </trkpt>
      <trkpt lat="43.5917" lon="1.32402">
        <ele>186</ele>
        <time>2021-09-19T10:38:01Z</time>
      </trkpt>
      <trkpt lat="43.59173" lon="1.32403">
        <ele>186</ele>
        <time>2021-09-19T10:38:02Z</time>
      </trkpt>
      <trkpt lat="43.59176" lon="1.32404">
        <ele>186</ele>
        <time>2021-09-19T10:38:03Z</time>
      </trkpt>
      <trkpt lat="43.59179" lon="1.32405">
        <ele>186</ele>
        <time>2021-09-19T10:38:04Z</time>
      </trkpt>
      <trkpt lat="43.59182" lon="1.32406">
        <ele>186</ele>
        <time>2021-09-19T10:38:05Z</time>
      </trkpt>
      <trkpt lat="43.59184" lon="1.32407">
        <ele>186</ele>
        <time>2021-09-19T10:38:06Z</time>
      </trkpt>
      <trkpt lat="43.59187" lon="1.32408">
        <ele>186</ele>
        <time>2021-09-19T10:38:07Z</time>
      </trkpt>
      <trkpt lat="43.59189" lon="1.32408">
        <ele>186</ele>
        <time>2021-09-19T10:38:08Z</time>
      </trkpt>
      <trkpt lat="43.59193" lon="1.32409">
        <ele>186</ele>
        <time>2021-09-19T10:38:09Z</time>
      </trkpt>
      <trkpt lat="43.59196" lon="1.3241">
        <ele>186</ele>
        <time>2021-09-19T10:38:10Z</time>
      </trkpt>
      <trkpt lat="43.592" lon="1.32411">
        <ele>186</ele>
        <time>2021-09-19T10:38:11Z</time>
      </trkpt>
      <trkpt lat="43.59203" lon="1.32412">
        <ele>186</ele>
        <time>2021-09-19T10:38:12Z</time>
      </trkpt>
      <trkpt lat="43.59206" lon="1.32413">
        <ele>186</ele>
        <time>2021-09-19T10:38:13Z</time>
      </trkpt>
      <trkpt lat="43.5921" lon="1.32414">
        <ele>186</ele>
        <time>2021-09-19T10:38:14Z</time>
      </trkpt>
      <trkpt lat="43.59213" lon="1.32415">
        <ele>186</ele>
        <time>2021-09-19T10:38:15Z</time>
      </trkpt>
      <trkpt lat="43.59217" lon="1.32416">
        <ele>186</ele>
        <time>2021-09-19T10:38:16Z</time>
      </trkpt>
      <trkpt lat="43.5922" lon="1.32416">
        <ele>186</ele>
        <time>2021-09-19T10:38:17Z</time>
      </trkpt>
      <trkpt lat="43.59224" lon="1.32417">
        <ele>187</ele>
        <time>2021-09-19T10:38:18Z</time>
      </trkpt>
      <trkpt lat="43.59227" lon="1.32418">
        <ele>187</ele>
        <time>2021-09-19T10:38:19Z</time>
      </trkpt>
      <trkpt lat="43.59231" lon="1.32419">
        <ele>187</ele>
        <time>2021-09-19T10:38:20Z</time>
      </trkpt>
      <trkpt lat="43.59234" lon="1.32419">
        <ele>187</ele>
        <time>2021-09-19T10:38:21Z</time>
      </trkpt>
      <trkpt lat="43.59238" lon="1.3242">
        <ele>187</ele>
        <time>2021-09-19T10:38:22Z</time>
      </trkpt>
      <trkpt lat="43.59241" lon="1.3242">
        <ele>187</ele>
        <time>2021-09-19T10:38:23Z</time>
      </trkpt>
      <trkpt lat="43.59244" lon="1.32421">
        <ele>187</ele>
        <time>2021-09-19T10:38:24Z</time>
      </trkpt>
      <trkpt lat="43.59248" lon="1.32422">
        <ele>187</ele>
        <time>2021-09-19T10:38:25Z</time>
      </trkpt>
      <trkpt lat="43.59251" lon="1.32423">
        <ele>187</ele>
        <time>2021-09-19T10:38:26Z</time>
      </trkpt>
      <trkpt lat="43.59254" lon="1.32423">
        <ele>187</ele>
        <time>2021-09-19T10:38:27Z</time>
      </trkpt>
      <trkpt lat="43.59258" lon="1.32424">
        <ele>187</ele>
        <time>2021-09-19T10:38:28Z</time>
      </trkpt>
      <trkpt lat="43.59261" lon="1.32425">
        <ele>187</ele>
        <time>2021-09-19T10:38:29Z</time>
      </trkpt>
      <trkpt lat="43.59264" lon="1.32425">
        <ele>187</ele>
        <time>2021-09-19T10:38:30Z</time>
      </trkpt>
      <trkpt lat="43.59267" lon="1.32427">
        <ele>186</ele>
        <time>2021-09-19T10:38:31Z</time>
      </trkpt>
      <trkpt lat="43.5927" lon="1.32428">
        <ele>186</ele>
        <time>2021-09-19T10:38:32Z</time>
      </trkpt>
      <trkpt lat="43.59274" lon="1.32429">
        <ele>186</ele>
        <time>2021-09-19T10:38:33Z</time>
      </trkpt>
      <trkpt lat="43.59277" lon="1.3243">
        <ele>186</ele>
        <time>2021-09-19T10:38:34Z</time>
      </trkpt>
      <trkpt lat="43.5928" lon="1.32431">
        <ele>186</ele>
        <time>2021-09-19T10:38:35Z</time>
      </trkpt>
      <trkpt lat="43.59284" lon="1.32431">
        <ele>186</ele>
        <time>2021-09-19T10:38:36Z</time>
      </trkpt>
      <trkpt lat="43.59287" lon="1.32432">
        <ele>186</ele>
        <time>2021-09-19T10:38:37Z</time>
      </trkpt>
      <trkpt lat="43.5929" lon="1.32433">
        <ele>186</ele>
        <time>2021-09-19T10:38:38Z</time>
      </trkpt>
      <trkpt lat="43.59293" lon="1.32434">
        <ele>186</ele>
        <time>2021-09-19T10:38:39Z</time>
      </trkpt>
      <trkpt lat="43.59296" lon="1.32435">
        <ele>186</ele>
        <time>2021-09-19T10:38:40Z</time>
      </trkpt>
      <trkpt lat="43.59299" lon="1.32437">
        <ele>186</ele>
        <time>2021-09-19T10:38:41Z</time>
      </trkpt>
      <trkpt lat="43.59302" lon="1.32438">
        <ele>186</ele>
        <time>2021-09-19T10:38:42Z</time>
      </trkpt>
      <trkpt lat="43.59306" lon="1.32439">
        <ele>186</ele>
        <time>2021-09-19T10:38:43Z</time>
      </trkpt>
      <trkpt lat="43.59309" lon="1.32438">
        <ele>186</ele>
        <time>2021-09-19T10:38:44Z</time>
      </trkpt>
      <trkpt lat="43.59311" lon="1.32437">
        <ele>186</ele>
        <time>2021-09-19T10:38:45Z</time>
      </trkpt>
      <trkpt lat="43.59314" lon="1.32436">
        <ele>186</ele>
        <time>2021-09-19T10:38:46Z</time>
      </trkpt>
      <trkpt lat="43.59316" lon="1.32436">
        <ele>186</ele>
        <time>2021-09-19T10:38:47Z</time>
      </trkpt>
      <trkpt lat="43.59318" lon="1.32436">
        <ele>186</ele>
        <time>2021-09-19T10:38:48Z</time>
      </trkpt>
      <trkpt lat="43.59321" lon="1.32436">
        <ele>186</ele>
        <time>2021-09-19T10:38:49Z</time>
      </trkpt>
      <trkpt lat="43.59323" lon="1.32438">
        <ele>186</ele>
        <time>2021-09-19T10:38:50Z</time>
      </trkpt>
      <trkpt lat="43.59325" lon="1.3244">
        <ele>186</ele>
        <time>2021-09-19T10:38:51Z</time>
      </trkpt>
      <trkpt lat="43.59326" lon="1.32444">
        <ele>186</ele>
        <time>2021-09-19T10:38:52Z</time>
      </trkpt>
      <trkpt lat="43.59328" lon="1.32447">
        <ele>186</ele>
        <time>2021-09-19T10:38:53Z</time>
      </trkpt>
      <trkpt lat="43.59331" lon="1.3245">
        <ele>186</ele>
        <time>2021-09-19T10:38:54Z</time>
      </trkpt>
      <trkpt lat="43.59334" lon="1.32452">
        <ele>186</ele>
        <time>2021-09-19T10:38:55Z</time>
      </trkpt>
      <trkpt lat="43.59338" lon="1.32455">
        <ele>186</ele>
        <time>2021-09-19T10:38:56Z</time>
      </trkpt>
      <trkpt lat="43.59341" lon="1.32456">
        <ele>186</ele>
        <time>2021-09-19T10:38:57Z</time>
      </trkpt>
      <trkpt lat="43.59345" lon="1.32459">
        <ele>186</ele>
        <time>2021-09-19T10:38:58Z</time>
      </trkpt>
      <trkpt lat="43.59348" lon="1.32461">
        <ele>186</ele>
        <time>2021-09-19T10:38:59Z</time>
      </trkpt>
      <trkpt lat="43.59352" lon="1.32463">
        <ele>186</ele>
        <time>2021-09-19T10:39:00Z</time>
      </trkpt>
      <trkpt lat="43.59356" lon="1.32465">
        <ele>186</ele>
        <time>2021-09-19T10:39:01Z</time>
      </trkpt>
      <trkpt lat="43.5936" lon="1.32468">
        <ele>186</ele>
        <time>2021-09-19T10:39:02Z</time>
      </trkpt>
      <trkpt lat="43.59364" lon="1.3247">
        <ele>186</ele>
        <time>2021-09-19T10:39:03Z</time>
      </trkpt>
      <trkpt lat="43.59368" lon="1.32472">
        <ele>186</ele>
        <time>2021-09-19T10:39:04Z</time>
      </trkpt>
      <trkpt lat="43.59371" lon="1.32474">
        <ele>186</ele>
        <time>2021-09-19T10:39:05Z</time>
      </trkpt>
      <trkpt lat="43.59374" lon="1.32476">
        <ele>186</ele>
        <time>2021-09-19T10:39:06Z</time>
      </trkpt>
      <trkpt lat="43.59378" lon="1.32478">
        <ele>186</ele>
        <time>2021-09-19T10:39:07Z</time>
      </trkpt>
      <trkpt lat="43.59381" lon="1.3248">
        <ele>186</ele>
        <time>2021-09-19T10:39:08Z</time>
      </trkpt>
      <trkpt lat="43.59385" lon="1.32483">
        <ele>186</ele>
        <time>2021-09-19T10:39:09Z</time>
      </trkpt>
      <trkpt lat="43.59388" lon="1.32485">
        <ele>186</ele>
        <time>2021-09-19T10:39:10Z</time>
      </trkpt>
      <trkpt lat="43.59391" lon="1.32487">
        <ele>186</ele>
        <time>2021-09-19T10:39:11Z</time>
      </trkpt>
      <trkpt lat="43.59394" lon="1.32488">
        <ele>186</ele>
        <time>2021-09-19T10:39:12Z</time>
      </trkpt>
      <trkpt lat="43.59396" lon="1.3249">
        <ele>186</ele>
        <time>2021-09-19T10:39:13Z</time>
      </trkpt>
      <trkpt lat="43.59398" lon="1.32491">
        <ele>186</ele>
        <time>2021-09-19T10:39:14Z</time>
      </trkpt>
      <trkpt lat="43.59401" lon="1.32493">
        <ele>185</ele>
        <time>2021-09-19T10:39:16Z</time>
      </trkpt>
      <trkpt lat="43.59403" lon="1.32494">
        <ele>185</ele>
        <time>2021-09-19T10:39:18Z</time>
      </trkpt>
      <trkpt lat="43.59406" lon="1.32495">
        <ele>185</ele>
        <time>2021-09-19T10:39:20Z</time>
      </trkpt>
      <trkpt lat="43.59407" lon="1.32497">
        <ele>185</ele>
        <time>2021-09-19T10:39:23Z</time>
      </trkpt>
      <trkpt lat="43.59406" lon="1.32501">
        <ele>186</ele>
        <time>2021-09-19T10:39:30Z</time>
      </trkpt>
      <trkpt lat="43.59407" lon="1.32503">
        <ele>186</ele>
        <time>2021-09-19T10:39:31Z</time>
      </trkpt>
      <trkpt lat="43.59409" lon="1.32505">
        <ele>186</ele>
        <time>2021-09-19T10:39:32Z</time>
      </trkpt>
      <trkpt lat="43.59411" lon="1.32508">
        <ele>186</ele>
        <time>2021-09-19T10:39:33Z</time>
      </trkpt>
      <trkpt lat="43.59415" lon="1.32511">
        <ele>186</ele>
        <time>2021-09-19T10:39:34Z</time>
      </trkpt>
      <trkpt lat="43.59419" lon="1.32514">
        <ele>186</ele>
        <time>2021-09-19T10:39:35Z</time>
      </trkpt>
      <trkpt lat="43.59423" lon="1.32517">
        <ele>186</ele>
        <time>2021-09-19T10:39:36Z</time>
      </trkpt>
      <trkpt lat="43.59427" lon="1.32521">
        <ele>186</ele>
        <time>2021-09-19T10:39:37Z</time>
      </trkpt>
      <trkpt lat="43.59432" lon="1.32525">
        <ele>186</ele>
        <time>2021-09-19T10:39:38Z</time>
      </trkpt>
      <trkpt lat="43.59436" lon="1.32529">
        <ele>186</ele>
        <time>2021-09-19T10:39:39Z</time>
      </trkpt>
      <trkpt lat="43.5944" lon="1.32533">
        <ele>186</ele>
        <time>2021-09-19T10:39:40Z</time>
      </trkpt>
      <trkpt lat="43.59445" lon="1.32537">
        <ele>186</ele>
        <time>2021-09-19T10:39:41Z</time>
      </trkpt>
      <trkpt lat="43.59449" lon="1.32542">
        <ele>186</ele>
        <time>2021-09-19T10:39:42Z</time>
      </trkpt>
      <trkpt lat="43.59453" lon="1.32546">
        <ele>186</ele>
        <time>2021-09-19T10:39:43Z</time>
      </trkpt>
      <trkpt lat="43.59456" lon="1.3255">
        <ele>186</ele>
        <time>2021-09-19T10:39:44Z</time>
      </trkpt>
      <trkpt lat="43.5946" lon="1.32554">
        <ele>186</ele>
        <time>2021-09-19T10:39:45Z</time>
      </trkpt>
      <trkpt lat="43.59464" lon="1.32557">
        <ele>186</ele>
        <time>2021-09-19T10:39:46Z</time>
      </trkpt>
      <trkpt lat="43.59467" lon="1.32561">
        <ele>186</ele>
        <time>2021-09-19T10:39:47Z</time>
      </trkpt>
      <trkpt lat="43.5947" lon="1.32565">
        <ele>186</ele>
        <time>2021-09-19T10:39:48Z</time>
      </trkpt>
      <trkpt lat="43.59473" lon="1.3257">
        <ele>186</ele>
        <time>2021-09-19T10:39:49Z</time>
      </trkpt>
      <trkpt lat="43.59476" lon="1.32575">
        <ele>186</ele>
        <time>2021-09-19T10:39:50Z</time>
      </trkpt>
      <trkpt lat="43.59479" lon="1.32579">
        <ele>186</ele>
        <time>2021-09-19T10:39:51Z</time>
      </trkpt>
      <trkpt lat="43.59483" lon="1.32581">
        <ele>186</ele>
        <time>2021-09-19T10:39:52Z</time>
      </trkpt>
      <trkpt lat="43.59487" lon="1.3258">
        <ele>186</ele>
        <time>2021-09-19T10:39:53Z</time>
      </trkpt>
      <trkpt lat="43.59489" lon="1.32576">
        <ele>186</ele>
        <time>2021-09-19T10:39:54Z</time>
      </trkpt>
      <trkpt lat="43.5949" lon="1.32571">
        <ele>186</ele>
        <time>2021-09-19T10:39:55Z</time>
      </trkpt>
      <trkpt lat="43.59491" lon="1.32565">
        <ele>186</ele>
        <time>2021-09-19T10:39:56Z</time>
      </trkpt>
      <trkpt lat="43.5949" lon="1.32559">
        <ele>186</ele>
        <time>2021-09-19T10:39:57Z</time>
      </trkpt>
      <trkpt lat="43.5949" lon="1.32553">
        <ele>186</ele>
        <time>2021-09-19T10:39:58Z</time>
      </trkpt>
      <trkpt lat="43.5949" lon="1.32547">
        <ele>186</ele>
        <time>2021-09-19T10:39:59Z</time>
      </trkpt>
      <trkpt lat="43.5949" lon="1.32541">
        <ele>186</ele>
        <time>2021-09-19T10:40:00Z</time>
      </trkpt>
      <trkpt lat="43.59491" lon="1.32535">
        <ele>186</ele>
        <time>2021-09-19T10:40:01Z</time>
      </trkpt>
      <trkpt lat="43.59493" lon="1.3253">
        <ele>186</ele>
        <time>2021-09-19T10:40:02Z</time>
      </trkpt>
      <trkpt lat="43.59495" lon="1.32525">
        <ele>186</ele>
        <time>2021-09-19T10:40:03Z</time>
      </trkpt>
      <trkpt lat="43.59497" lon="1.3252">
        <ele>185</ele>
        <time>2021-09-19T10:40:04Z</time>
      </trkpt>
      <trkpt lat="43.59498" lon="1.32515">
        <ele>185</ele>
        <time>2021-09-19T10:40:05Z</time>
      </trkpt>
      <trkpt lat="43.59499" lon="1.3251">
        <ele>185</ele>
        <time>2021-09-19T10:40:06Z</time>
      </trkpt>
      <trkpt lat="43.59499" lon="1.32505">
        <ele>186</ele>
        <time>2021-09-19T10:40:07Z</time>
      </trkpt>
      <trkpt lat="43.595" lon="1.325">
        <ele>186</ele>
        <time>2021-09-19T10:40:08Z</time>
      </trkpt>
      <trkpt lat="43.59501" lon="1.32495">
        <ele>186</ele>
        <time>2021-09-19T10:40:09Z</time>
      </trkpt>
      <trkpt lat="43.59502" lon="1.3249">
        <ele>186</ele>
        <time>2021-09-19T10:40:10Z</time>
      </trkpt>
      <trkpt lat="43.59503" lon="1.32486">
        <ele>186</ele>
        <time>2021-09-19T10:40:11Z</time>
      </trkpt>
      <trkpt lat="43.59504" lon="1.32481">
        <ele>186</ele>
        <time>2021-09-19T10:40:12Z</time>
      </trkpt>
      <trkpt lat="43.59505" lon="1.32477">
        <ele>186</ele>
        <time>2021-09-19T10:40:13Z</time>
      </trkpt>
      <trkpt lat="43.59506" lon="1.32473">
        <ele>186</ele>
        <time>2021-09-19T10:40:14Z</time>
      </trkpt>
      <trkpt lat="43.59507" lon="1.32469">
        <ele>186</ele>
        <time>2021-09-19T10:40:15Z</time>
      </trkpt>
      <trkpt lat="43.59509" lon="1.32465">
        <ele>185</ele>
        <time>2021-09-19T10:40:16Z</time>
      </trkpt>
      <trkpt lat="43.5951" lon="1.3246">
        <ele>185</ele>
        <time>2021-09-19T10:40:17Z</time>
      </trkpt>
      <trkpt lat="43.59511" lon="1.32456">
        <ele>184</ele>
        <time>2021-09-19T10:40:18Z</time>
      </trkpt>
      <trkpt lat="43.59512" lon="1.32453">
        <ele>185</ele>
        <time>2021-09-19T10:40:19Z</time>
      </trkpt>
      <trkpt lat="43.59513" lon="1.32449">
        <ele>186</ele>
        <time>2021-09-19T10:40:20Z</time>
      </trkpt>
      <trkpt lat="43.59515" lon="1.32446">
        <ele>186</ele>
        <time>2021-09-19T10:40:21Z</time>
      </trkpt>
      <trkpt lat="43.59516" lon="1.32442">
        <ele>186</ele>
        <time>2021-09-19T10:40:22Z</time>
      </trkpt>
      <trkpt lat="43.59518" lon="1.32438">
        <ele>186</ele>
        <time>2021-09-19T10:40:23Z</time>
      </trkpt>
      <trkpt lat="43.59519" lon="1.32433">
        <ele>186</ele>
        <time>2021-09-19T10:40:24Z</time>
      </trkpt>
      <trkpt lat="43.59521" lon="1.32429">
        <ele>185</ele>
        <time>2021-09-19T10:40:25Z</time>
      </trkpt>
      <trkpt lat="43.59522" lon="1.32425">
        <ele>185</ele>
        <time>2021-09-19T10:40:26Z</time>
      </trkpt>
      <trkpt lat="43.59524" lon="1.32421">
        <ele>185</ele>
        <time>2021-09-19T10:40:27Z</time>
      </trkpt>
      <trkpt lat="43.59526" lon="1.32417">
        <ele>185</ele>
        <time>2021-09-19T10:40:28Z</time>
      </trkpt>
      <trkpt lat="43.59527" lon="1.32413">
        <ele>184</ele>
        <time>2021-09-19T10:40:29Z</time>
      </trkpt>
      <trkpt lat="43.59529" lon="1.32409">
        <ele>185</ele>
        <time>2021-09-19T10:40:30Z</time>
      </trkpt>
      <trkpt lat="43.59531" lon="1.32404">
        <ele>185</ele>
        <time>2021-09-19T10:40:31Z</time>
      </trkpt>
      <trkpt lat="43.59532" lon="1.324">
        <ele>185</ele>
        <time>2021-09-19T10:40:32Z</time>
      </trkpt>
      <trkpt lat="43.59534" lon="1.32395">
        <ele>185</ele>
        <time>2021-09-19T10:40:33Z</time>
      </trkpt>
      <trkpt lat="43.59536" lon="1.32391">
        <ele>185</ele>
        <time>2021-09-19T10:40:34Z</time>
      </trkpt>
      <trkpt lat="43.59538" lon="1.32386">
        <ele>185</ele>
        <time>2021-09-19T10:40:35Z</time>
      </trkpt>
      <trkpt lat="43.5954" lon="1.32382">
        <ele>184</ele>
        <time>2021-09-19T10:40:36Z</time>
      </trkpt>
      <trkpt lat="43.59542" lon="1.32377">
        <ele>184</ele>
        <time>2021-09-19T10:40:37Z</time>
      </trkpt>
      <trkpt lat="43.59544" lon="1.32373">
        <ele>184</ele>
        <time>2021-09-19T10:40:38Z</time>
      </trkpt>
      <trkpt lat="43.59547" lon="1.32368">
        <ele>184</ele>
        <time>2021-09-19T10:40:39Z</time>
      </trkpt>
      <trkpt lat="43.59549" lon="1.32364">
        <ele>185</ele>
        <time>2021-09-19T10:40:40Z</time>
      </trkpt>
      <trkpt lat="43.59551" lon="1.3236">
        <ele>185</ele>
        <time>2021-09-19T10:40:41Z</time>
      </trkpt>
      <trkpt lat="43.59553" lon="1.32355">
        <ele>185</ele>
        <time>2021-09-19T10:40:42Z</time>
      </trkpt>
      <trkpt lat="43.59555" lon="1.32351">
        <ele>185</ele>
        <time>2021-09-19T10:40:43Z</time>
      </trkpt>
      <trkpt lat="43.59558" lon="1.32346">
        <ele>185</ele>
        <time>2021-09-19T10:40:44Z</time>
      </trkpt>
      <trkpt lat="43.5956" lon="1.32342">
        <ele>185</ele>
        <time>2021-09-19T10:40:45Z</time>
      </trkpt>
      <trkpt lat="43.59562" lon="1.32338">
        <ele>185</ele>
        <time>2021-09-19T10:40:46Z</time>
      </trkpt>
      <trkpt lat="43.59564" lon="1.32333">
        <ele>185</ele>
        <time>2021-09-19T10:40:47Z</time>
      </trkpt>
      <trkpt lat="43.59566" lon="1.32329">
        <ele>185</ele>
        <time>2021-09-19T10:40:48Z</time>
      </trkpt>
      <trkpt lat="43.59568" lon="1.32325">
        <ele>185</ele>
        <time>2021-09-19T10:40:49Z</time>
      </trkpt>
      <trkpt lat="43.5957" lon="1.3232">
        <ele>185</ele>
        <time>2021-09-19T10:40:50Z</time>
      </trkpt>
      <trkpt lat="43.59571" lon="1.32316">
        <ele>185</ele>
        <time>2021-09-19T10:40:51Z</time>
      </trkpt>
      <trkpt lat="43.59573" lon="1.32311">
        <ele>185</ele>
        <time>2021-09-19T10:40:52Z</time>
      </trkpt>
      <trkpt lat="43.59574" lon="1.32307">
        <ele>185</ele>
        <time>2021-09-19T10:40:53Z</time>
      </trkpt>
      <trkpt lat="43.59575" lon="1.32302">
        <ele>185</ele>
        <time>2021-09-19T10:40:54Z</time>
      </trkpt>
      <trkpt lat="43.59576" lon="1.32297">
        <ele>185</ele>
        <time>2021-09-19T10:40:55Z</time>
      </trkpt>
      <trkpt lat="43.59577" lon="1.32292">
        <ele>185</ele>
        <time>2021-09-19T10:40:56Z</time>
      </trkpt>
      <trkpt lat="43.59578" lon="1.32287">
        <ele>185</ele>
        <time>2021-09-19T10:40:57Z</time>
      </trkpt>
      <trkpt lat="43.59579" lon="1.32282">
        <ele>185</ele>
        <time>2021-09-19T10:40:58Z</time>
      </trkpt>
      <trkpt lat="43.5958" lon="1.32277">
        <ele>185</ele>
        <time>2021-09-19T10:40:59Z</time>
      </trkpt>
      <trkpt lat="43.5958" lon="1.32272">
        <ele>186</ele>
        <time>2021-09-19T10:41:00Z</time>
      </trkpt>
      <trkpt lat="43.59581" lon="1.32266">
        <ele>186</ele>
        <time>2021-09-19T10:41:01Z</time>
      </trkpt>
      <trkpt lat="43.59581" lon="1.32261">
        <ele>185</ele>
        <time>2021-09-19T10:41:02Z</time>
      </trkpt>
      <trkpt lat="43.59581" lon="1.32256">
        <ele>186</ele>
        <time>2021-09-19T10:41:03Z</time>
      </trkpt>
      <trkpt lat="43.59581" lon="1.32251">
        <ele>186</ele>
        <time>2021-09-19T10:41:04Z</time>
      </trkpt>
      <trkpt lat="43.59581" lon="1.32246">
        <ele>186</ele>
        <time>2021-09-19T10:41:05Z</time>
      </trkpt>
      <trkpt lat="43.59581" lon="1.32241">
        <ele>185</ele>
        <time>2021-09-19T10:41:06Z</time>
      </trkpt>
      <trkpt lat="43.5958" lon="1.32235">
        <ele>185</ele>
        <time>2021-09-19T10:41:07Z</time>
      </trkpt>
      <trkpt lat="43.5958" lon="1.3223">
        <ele>185</ele>
        <time>2021-09-19T10:41:08Z</time>
      </trkpt>
      <trkpt lat="43.59579" lon="1.32225">
        <ele>185</ele>
        <time>2021-09-19T10:41:09Z</time>
      </trkpt>
      <trkpt lat="43.59578" lon="1.32219">
        <ele>185</ele>
        <time>2021-09-19T10:41:10Z</time>
      </trkpt>
      <trkpt lat="43.59577" lon="1.32214">
        <ele>185</ele>
        <time>2021-09-19T10:41:11Z</time>
      </trkpt>
      <trkpt lat="43.59576" lon="1.32208">
        <ele>185</ele>
        <time>2021-09-19T10:41:12Z</time>
      </trkpt>
      <trkpt lat="43.59574" lon="1.32203">
        <ele>186</ele>
        <time>2021-09-19T10:41:13Z</time>
      </trkpt>
      <trkpt lat="43.59573" lon="1.32198">
        <ele>186</ele>
        <time>2021-09-19T10:41:14Z</time>
      </trkpt>
      <trkpt lat="43.59571" lon="1.32193">
        <ele>186</ele>
        <time>2021-09-19T10:41:15Z</time>
      </trkpt>
      <trkpt lat="43.59569" lon="1.32188">
        <ele>186</ele>
        <time>2021-09-19T10:41:16Z</time>
      </trkpt>
      <trkpt lat="43.59567" lon="1.32183">
        <ele>185</ele>
        <time>2021-09-19T10:41:17Z</time>
      </trkpt>
      <trkpt lat="43.59565" lon="1.32177">
        <ele>185</ele>
        <time>2021-09-19T10:41:18Z</time>
      </trkpt>
      <trkpt lat="43.59563" lon="1.32172">
        <ele>185</ele>
        <time>2021-09-19T10:41:19Z</time>
      </trkpt>
      <trkpt lat="43.59561" lon="1.32167">
        <ele>186</ele>
        <time>2021-09-19T10:41:20Z</time>
      </trkpt>
      <trkpt lat="43.59559" lon="1.32162">
        <ele>186</ele>
        <time>2021-09-19T10:41:21Z</time>
      </trkpt>
      <trkpt lat="43.59557" lon="1.32157">
        <ele>186</ele>
        <time>2021-09-19T10:41:22Z</time>
      </trkpt>
      <trkpt lat="43.59555" lon="1.32152">
        <ele>186</ele>
        <time>2021-09-19T10:41:23Z</time>
      </trkpt>
      <trkpt lat="43.59554" lon="1.32147">
        <ele>185</ele>
        <time>2021-09-19T10:41:24Z</time>
      </trkpt>
      <trkpt lat="43.59553" lon="1.32142">
        <ele>185</ele>
        <time>2021-09-19T10:41:25Z</time>
      </trkpt>
      <trkpt lat="43.59552" lon="1.32137">
        <ele>185</ele>
        <time>2021-09-19T10:41:26Z</time>
      </trkpt>
      <trkpt lat="43.59551" lon="1.32132">
        <ele>185</ele>
        <time>2021-09-19T10:41:27Z</time>
      </trkpt>
      <trkpt lat="43.5955" lon="1.32126">
        <ele>185</ele>
        <time>2021-09-19T10:41:28Z</time>
      </trkpt>
      <trkpt lat="43.5955" lon="1.32121">
        <ele>185</ele>
        <time>2021-09-19T10:41:29Z</time>
      </trkpt>
      <trkpt lat="43.59549" lon="1.32116">
        <ele>185</ele>
        <time>2021-09-19T10:41:30Z</time>
      </trkpt>
      <trkpt lat="43.59549" lon="1.32111">
        <ele>185</ele>
        <time>2021-09-19T10:41:31Z</time>
      </trkpt>
      <trkpt lat="43.59549" lon="1.32106">
        <ele>185</ele>
        <time>2021-09-19T10:41:32Z</time>
      </trkpt>
      <trkpt lat="43.59549" lon="1.321">
        <ele>185</ele>
        <time>2021-09-19T10:41:33Z</time>
      </trkpt>
      <trkpt lat="43.5955" lon="1.32095">
        <ele>185</ele>
        <time>2021-09-19T10:41:34Z</time>
      </trkpt>
      <trkpt lat="43.5955" lon="1.3209">
        <ele>185</ele>
        <time>2021-09-19T10:41:35Z</time>
      </trkpt>
      <trkpt lat="43.59551" lon="1.32084">
        <ele>185</ele>
        <time>2021-09-19T10:41:36Z</time>
      </trkpt>
      <trkpt lat="43.59552" lon="1.32079">
        <ele>185</ele>
        <time>2021-09-19T10:41:37Z</time>
      </trkpt>
      <trkpt lat="43.59553" lon="1.32074">
        <ele>185</ele>
        <time>2021-09-19T10:41:38Z</time>
      </trkpt>
      <trkpt lat="43.59554" lon="1.32069">
        <ele>185</ele>
        <time>2021-09-19T10:41:39Z</time>
      </trkpt>
      <trkpt lat="43.59555" lon="1.32065">
        <ele>185</ele>
        <time>2021-09-19T10:41:40Z</time>
      </trkpt>
      <trkpt lat="43.59556" lon="1.3206">
        <ele>185</ele>
        <time>2021-09-19T10:41:41Z</time>
      </trkpt>
      <trkpt lat="43.59558" lon="1.32056">
        <ele>185</ele>
        <time>2021-09-19T10:41:42Z</time>
      </trkpt>
      <trkpt lat="43.59559" lon="1.32052">
        <ele>185</ele>
        <time>2021-09-19T10:41:43Z</time>
      </trkpt>
      <trkpt lat="43.59561" lon="1.32048">
        <ele>185</ele>
        <time>2021-09-19T10:41:44Z</time>
      </trkpt>
      <trkpt lat="43.59562" lon="1.32044">
        <ele>185</ele>
        <time>2021-09-19T10:41:45Z</time>
      </trkpt>
      <trkpt lat="43.59564" lon="1.32041">
        <ele>185</ele>
        <time>2021-09-19T10:41:46Z</time>
      </trkpt>
      <trkpt lat="43.59567" lon="1.32038">
        <ele>185</ele>
        <time>2021-09-19T10:41:47Z</time>
      </trkpt>
      <trkpt lat="43.5957" lon="1.32037">
        <ele>185</ele>
        <time>2021-09-19T10:41:48Z</time>
      </trkpt>
      <trkpt lat="43.59573" lon="1.32036">
        <ele>185</ele>
        <time>2021-09-19T10:41:49Z</time>
      </trkpt>
      <trkpt lat="43.59577" lon="1.32035">
        <ele>185</ele>
        <time>2021-09-19T10:41:50Z</time>
      </trkpt>
      <trkpt lat="43.5958" lon="1.32034">
        <ele>185</ele>
        <time>2021-09-19T10:41:51Z</time>
      </trkpt>
      <trkpt lat="43.59584" lon="1.32034">
        <ele>185</ele>
        <time>2021-09-19T10:41:52Z</time>
      </trkpt>
      <trkpt lat="43.59587" lon="1.32035">
        <ele>185</ele>
        <time>2021-09-19T10:41:53Z</time>
      </trkpt>
      <trkpt lat="43.5959" lon="1.32036">
        <ele>185</ele>
        <time>2021-09-19T10:41:54Z</time>
      </trkpt>
      <trkpt lat="43.59592" lon="1.32036">
        <ele>185</ele>
        <time>2021-09-19T10:41:55Z</time>
      </trkpt>
      <trkpt lat="43.59595" lon="1.32034">
        <ele>185</ele>
        <time>2021-09-19T10:41:56Z</time>
      </trkpt>
      <trkpt lat="43.59597" lon="1.32032">
        <ele>185</ele>
        <time>2021-09-19T10:41:57Z</time>
      </trkpt>
      <trkpt lat="43.596" lon="1.32029">
        <ele>185</ele>
        <time>2021-09-19T10:41:58Z</time>
      </trkpt>
      <trkpt lat="43.59603" lon="1.32029">
        <ele>185</ele>
        <time>2021-09-19T10:41:59Z</time>
      </trkpt>
      <trkpt lat="43.59606" lon="1.32031">
        <ele>185</ele>
        <time>2021-09-19T10:42:00Z</time>
      </trkpt>
      <trkpt lat="43.59609" lon="1.32033">
        <ele>185</ele>
        <time>2021-09-19T10:42:01Z</time>
      </trkpt>
      <trkpt lat="43.59613" lon="1.32036">
        <ele>185</ele>
        <time>2021-09-19T10:42:02Z</time>
      </trkpt>
      <trkpt lat="43.59616" lon="1.32038">
        <ele>185</ele>
        <time>2021-09-19T10:42:03Z</time>
      </trkpt>
      <trkpt lat="43.59619" lon="1.32041">
        <ele>185</ele>
        <time>2021-09-19T10:42:04Z</time>
      </trkpt>
      <trkpt lat="43.59622" lon="1.32043">
        <ele>185</ele>
        <time>2021-09-19T10:42:05Z</time>
      </trkpt>
      <trkpt lat="43.59626" lon="1.32045">
        <ele>185</ele>
        <time>2021-09-19T10:42:06Z</time>
      </trkpt>
      <trkpt lat="43.59629" lon="1.32048">
        <ele>185</ele>
        <time>2021-09-19T10:42:07Z</time>
      </trkpt>
      <trkpt lat="43.59633" lon="1.32051">
        <ele>185</ele>
        <time>2021-09-19T10:42:08Z</time>
      </trkpt>
      <trkpt lat="43.59637" lon="1.32053">
        <ele>185</ele>
        <time>2021-09-19T10:42:09Z</time>
      </trkpt>
      <trkpt lat="43.59641" lon="1.32056">
        <ele>185</ele>
        <time>2021-09-19T10:42:10Z</time>
      </trkpt>
      <trkpt lat="43.59644" lon="1.32059">
        <ele>185</ele>
        <time>2021-09-19T10:42:11Z</time>
      </trkpt>
      <trkpt lat="43.59648" lon="1.32061">
        <ele>185</ele>
        <time>2021-09-19T10:42:12Z</time>
      </trkpt>
      <trkpt lat="43.59652" lon="1.32064">
        <ele>185</ele>
        <time>2021-09-19T10:42:13Z</time>
      </trkpt>
      <trkpt lat="43.59656" lon="1.32067">
        <ele>185</ele>
        <time>2021-09-19T10:42:14Z</time>
      </trkpt>
      <trkpt lat="43.59659" lon="1.32069">
        <ele>185</ele>
        <time>2021-09-19T10:42:15Z</time>
      </trkpt>
      <trkpt lat="43.59663" lon="1.32072">
        <ele>185</ele>
        <time>2021-09-19T10:42:16Z</time>
      </trkpt>
      <trkpt lat="43.59667" lon="1.32075">
        <ele>186</ele>
        <time>2021-09-19T10:42:17Z</time>
      </trkpt>
      <trkpt lat="43.5967" lon="1.32078">
        <ele>186</ele>
        <time>2021-09-19T10:42:18Z</time>
      </trkpt>
      <trkpt lat="43.59674" lon="1.3208">
        <ele>186</ele>
        <time>2021-09-19T10:42:19Z</time>
      </trkpt>
      <trkpt lat="43.59678" lon="1.32083">
        <ele>186</ele>
        <time>2021-09-19T10:42:20Z</time>
      </trkpt>
      <trkpt lat="43.59681" lon="1.32086">
        <ele>186</ele>
        <time>2021-09-19T10:42:21Z</time>
      </trkpt>
      <trkpt lat="43.59685" lon="1.32088">
        <ele>185</ele>
        <time>2021-09-19T10:42:22Z</time>
      </trkpt>
      <trkpt lat="43.59688" lon="1.32091">
        <ele>185</ele>
        <time>2021-09-19T10:42:23Z</time>
      </trkpt>
      <trkpt lat="43.59692" lon="1.32094">
        <ele>185</ele>
        <time>2021-09-19T10:42:24Z</time>
      </trkpt>
      <trkpt lat="43.59696" lon="1.32096">
        <ele>185</ele>
        <time>2021-09-19T10:42:25Z</time>
      </trkpt>
      <trkpt lat="43.59699" lon="1.32099">
        <ele>185</ele>
        <time>2021-09-19T10:42:26Z</time>
      </trkpt>
      <trkpt lat="43.59703" lon="1.32102">
        <ele>185</ele>
        <time>2021-09-19T10:42:27Z</time>
      </trkpt>
      <trkpt lat="43.59707" lon="1.32105">
        <ele>185</ele>
        <time>2021-09-19T10:42:28Z</time>
      </trkpt>
      <trkpt lat="43.59711" lon="1.32108">
        <ele>185</ele>
        <time>2021-09-19T10:42:29Z</time>
      </trkpt>
      <trkpt lat="43.59715" lon="1.32111">
        <ele>185</ele>
        <time>2021-09-19T10:42:30Z</time>
      </trkpt>
      <trkpt lat="43.59719" lon="1.32114">
        <ele>185</ele>
        <time>2021-09-19T10:42:31Z</time>
      </trkpt>
      <trkpt lat="43.59723" lon="1.32116">
        <ele>185</ele>
        <time>2021-09-19T10:42:32Z</time>
      </trkpt>
      <trkpt lat="43.59726" lon="1.32119">
        <ele>185</ele>
        <time>2021-09-19T10:42:33Z</time>
      </trkpt>
      <trkpt lat="43.5973" lon="1.32121">
        <ele>185</ele>
        <time>2021-09-19T10:42:34Z</time>
      </trkpt>
      <trkpt lat="43.59733" lon="1.32124">
        <ele>185</ele>
        <time>2021-09-19T10:42:35Z</time>
      </trkpt>
      <trkpt lat="43.59737" lon="1.32127">
        <ele>185</ele>
        <time>2021-09-19T10:42:36Z</time>
      </trkpt>
      <trkpt lat="43.5974" lon="1.32129">
        <ele>185</ele>
        <time>2021-09-19T10:42:37Z</time>
      </trkpt>
      <trkpt lat="43.59743" lon="1.32132">
        <ele>185</ele>
        <time>2021-09-19T10:42:38Z</time>
      </trkpt>
      <trkpt lat="43.59747" lon="1.32134">
        <ele>185</ele>
        <time>2021-09-19T10:42:39Z</time>
      </trkpt>
      <trkpt lat="43.5975" lon="1.32137">
        <ele>185</ele>
        <time>2021-09-19T10:42:40Z</time>
      </trkpt>
      <trkpt lat="43.59754" lon="1.3214">
        <ele>185</ele>
        <time>2021-09-19T10:42:41Z</time>
      </trkpt>
      <trkpt lat="43.59757" lon="1.32142">
        <ele>185</ele>
        <time>2021-09-19T10:42:42Z</time>
      </trkpt>
      <trkpt lat="43.5976" lon="1.32145">
        <ele>185</ele>
        <time>2021-09-19T10:42:43Z</time>
      </trkpt>
      <trkpt lat="43.59763" lon="1.32147">
        <ele>185</ele>
        <time>2021-09-19T10:42:44Z</time>
      </trkpt>
      <trkpt lat="43.59765" lon="1.32148">
        <ele>185</ele>
        <time>2021-09-19T10:42:45Z</time>
      </trkpt>
      <trkpt lat="43.59768" lon="1.3215">
        <ele>185</ele>
        <time>2021-09-19T10:42:46Z</time>
      </trkpt>
      <trkpt lat="43.5977" lon="1.3215">
        <ele>185</ele>
        <time>2021-09-19T10:42:47Z</time>
      </trkpt>
      <trkpt lat="43.59772" lon="1.3215">
        <ele>185</ele>
        <time>2021-09-19T10:42:48Z</time>
      </trkpt>
      <trkpt lat="43.59774" lon="1.32149">
        <ele>185</ele>
        <time>2021-09-19T10:42:49Z</time>
      </trkpt>
      <trkpt lat="43.59776" lon="1.32148">
        <ele>185</ele>
        <time>2021-09-19T10:42:50Z</time>
      </trkpt>
      <trkpt lat="43.59778" lon="1.32148">
        <ele>185</ele>
        <time>2021-09-19T10:42:51Z</time>
      </trkpt>
      <trkpt lat="43.59781" lon="1.32148">
        <ele>185</ele>
        <time>2021-09-19T10:42:52Z</time>
      </trkpt>
      <trkpt lat="43.59783" lon="1.32149">
        <ele>185</ele>
        <time>2021-09-19T10:42:53Z</time>
      </trkpt>
      <trkpt lat="43.59786" lon="1.32151">
        <ele>185</ele>
        <time>2021-09-19T10:42:54Z</time>
      </trkpt>
      <trkpt lat="43.59788" lon="1.32155">
        <ele>185</ele>
        <time>2021-09-19T10:42:55Z</time>
      </trkpt>
      <trkpt lat="43.59789" lon="1.32159">
        <ele>185</ele>
        <time>2021-09-19T10:42:56Z</time>
      </trkpt>
      <trkpt lat="43.5979" lon="1.32163">
        <ele>185</ele>
        <time>2021-09-19T10:42:57Z</time>
      </trkpt>
      <trkpt lat="43.59791" lon="1.32167">
        <ele>185</ele>
        <time>2021-09-19T10:42:58Z</time>
      </trkpt>
      <trkpt lat="43.59794" lon="1.3217">
        <ele>185</ele>
        <time>2021-09-19T10:42:59Z</time>
      </trkpt>
      <trkpt lat="43.59796" lon="1.32172">
        <ele>185</ele>
        <time>2021-09-19T10:43:00Z</time>
      </trkpt>
      <trkpt lat="43.59799" lon="1.32175">
        <ele>185</ele>
        <time>2021-09-19T10:43:01Z</time>
      </trkpt>
      <trkpt lat="43.59803" lon="1.32178">
        <ele>186</ele>
        <time>2021-09-19T10:43:02Z</time>
      </trkpt>
      <trkpt lat="43.59806" lon="1.32181">
        <ele>186</ele>
        <time>2021-09-19T10:43:03Z</time>
      </trkpt>
      <trkpt lat="43.5981" lon="1.32185">
        <ele>186</ele>
        <time>2021-09-19T10:43:04Z</time>
      </trkpt>
      <trkpt lat="43.59813" lon="1.32189">
        <ele>186</ele>
        <time>2021-09-19T10:43:05Z</time>
      </trkpt>
      <trkpt lat="43.59816" lon="1.32193">
        <ele>185</ele>
        <time>2021-09-19T10:43:06Z</time>
      </trkpt>
      <trkpt lat="43.5982" lon="1.32198">
        <ele>185</ele>
        <time>2021-09-19T10:43:07Z</time>
      </trkpt>
      <trkpt lat="43.59823" lon="1.32201">
        <ele>185</ele>
        <time>2021-09-19T10:43:08Z</time>
      </trkpt>
      <trkpt lat="43.59827" lon="1.32205">
        <ele>185</ele>
        <time>2021-09-19T10:43:09Z</time>
      </trkpt>
      <trkpt lat="43.5983" lon="1.32207">
        <ele>185</ele>
        <time>2021-09-19T10:43:10Z</time>
      </trkpt>
      <trkpt lat="43.59834" lon="1.32209">
        <ele>185</ele>
        <time>2021-09-19T10:43:11Z</time>
      </trkpt>
      <trkpt lat="43.59838" lon="1.3221">
        <ele>185</ele>
        <time>2021-09-19T10:43:12Z</time>
      </trkpt>
      <trkpt lat="43.59842" lon="1.32211">
        <ele>185</ele>
        <time>2021-09-19T10:43:13Z</time>
      </trkpt>
      <trkpt lat="43.59846" lon="1.32211">
        <ele>185</ele>
        <time>2021-09-19T10:43:14Z</time>
      </trkpt>
      <trkpt lat="43.59851" lon="1.32212">
        <ele>185</ele>
        <time>2021-09-19T10:43:15Z</time>
      </trkpt>
      <trkpt lat="43.59855" lon="1.32212">
        <ele>185</ele>
        <time>2021-09-19T10:43:16Z</time>
      </trkpt>
      <trkpt lat="43.59859" lon="1.32213">
        <ele>185</ele>
        <time>2021-09-19T10:43:17Z</time>
      </trkpt>
      <trkpt lat="43.59863" lon="1.32213">
        <ele>185</ele>
        <time>2021-09-19T10:43:18Z</time>
      </trkpt>
      <trkpt lat="43.59867" lon="1.32214">
        <ele>185</ele>
        <time>2021-09-19T10:43:19Z</time>
      </trkpt>
      <trkpt lat="43.59871" lon="1.32215">
        <ele>185</ele>
        <time>2021-09-19T10:43:20Z</time>
      </trkpt>
      <trkpt lat="43.59874" lon="1.32215">
        <ele>185</ele>
        <time>2021-09-19T10:43:21Z</time>
      </trkpt>
      <trkpt lat="43.59878" lon="1.32215">
        <ele>185</ele>
        <time>2021-09-19T10:43:22Z</time>
      </trkpt>
      <trkpt lat="43.59882" lon="1.32216">
        <ele>185</ele>
        <time>2021-09-19T10:43:23Z</time>
      </trkpt>
      <trkpt lat="43.59886" lon="1.32216">
        <ele>185</ele>
        <time>2021-09-19T10:43:24Z</time>
      </trkpt>
      <trkpt lat="43.5989" lon="1.32217">
        <ele>185</ele>
        <time>2021-09-19T10:43:25Z</time>
      </trkpt>
      <trkpt lat="43.59894" lon="1.32218">
        <ele>185</ele>
        <time>2021-09-19T10:43:26Z</time>
      </trkpt>
      <trkpt lat="43.59898" lon="1.32218">
        <ele>185</ele>
        <time>2021-09-19T10:43:27Z</time>
      </trkpt>
      <trkpt lat="43.59901" lon="1.32219">
        <ele>185</ele>
        <time>2021-09-19T10:43:28Z</time>
      </trkpt>
      <trkpt lat="43.59905" lon="1.32219">
        <ele>185</ele>
        <time>2021-09-19T10:43:29Z</time>
      </trkpt>
      <trkpt lat="43.59909" lon="1.3222">
        <ele>185</ele>
        <time>2021-09-19T10:43:30Z</time>
      </trkpt>
      <trkpt lat="43.59913" lon="1.3222">
        <ele>185</ele>
        <time>2021-09-19T10:43:31Z</time>
      </trkpt>
      <trkpt lat="43.59916" lon="1.32221">
        <ele>185</ele>
        <time>2021-09-19T10:43:32Z</time>
      </trkpt>
      <trkpt lat="43.5992" lon="1.32221">
        <ele>185</ele>
        <time>2021-09-19T10:43:33Z</time>
      </trkpt>
      <trkpt lat="43.59924" lon="1.32221">
        <ele>185</ele>
        <time>2021-09-19T10:43:34Z</time>
      </trkpt>
      <trkpt lat="43.59928" lon="1.32222">
        <ele>185</ele>
        <time>2021-09-19T10:43:35Z</time>
      </trkpt>
      <trkpt lat="43.59932" lon="1.32222">
        <ele>185</ele>
        <time>2021-09-19T10:43:36Z</time>
      </trkpt>
      <trkpt lat="43.59935" lon="1.32223">
        <ele>185</ele>
        <time>2021-09-19T10:43:37Z</time>
      </trkpt>
      <trkpt lat="43.59939" lon="1.32223">
        <ele>185</ele>
        <time>2021-09-19T10:43:38Z</time>
      </trkpt>
      <trkpt lat="43.59942" lon="1.32224">
        <ele>185</ele>
        <time>2021-09-19T10:43:39Z</time>
      </trkpt>
      <trkpt lat="43.59946" lon="1.32224">
        <ele>185</ele>
        <time>2021-09-19T10:43:40Z</time>
      </trkpt>
      <trkpt lat="43.59949" lon="1.32225">
        <ele>185</ele>
        <time>2021-09-19T10:43:41Z</time>
      </trkpt>
      <trkpt lat="43.59953" lon="1.32227">
        <ele>185</ele>
        <time>2021-09-19T10:43:42Z</time>
      </trkpt>
      <trkpt lat="43.59957" lon="1.32228">
        <ele>185</ele>
        <time>2021-09-19T10:43:43Z</time>
      </trkpt>
      <trkpt lat="43.5996" lon="1.3223">
        <ele>185</ele>
        <time>2021-09-19T10:43:44Z</time>
      </trkpt>
      <trkpt lat="43.59964" lon="1.32232">
        <ele>185</ele>
        <time>2021-09-19T10:43:45Z</time>
      </trkpt>
      <trkpt lat="43.59967" lon="1.32234">
        <ele>185</ele>
        <time>2021-09-19T10:43:46Z</time>
      </trkpt>
      <trkpt lat="43.5997" lon="1.32237">
        <ele>185</ele>
        <time>2021-09-19T10:43:47Z</time>
      </trkpt>
      <trkpt lat="43.59973" lon="1.3224">
        <ele>185</ele>
        <time>2021-09-19T10:43:48Z</time>
      </trkpt>
      <trkpt lat="43.59976" lon="1.32244">
        <ele>185</ele>
        <time>2021-09-19T10:43:49Z</time>
      </trkpt>
      <trkpt lat="43.59979" lon="1.32247">
        <ele>186</ele>
        <time>2021-09-19T10:43:50Z</time>
      </trkpt>
      <trkpt lat="43.59981" lon="1.3225">
        <ele>186</ele>
        <time>2021-09-19T10:43:51Z</time>
      </trkpt>
      <trkpt lat="43.59984" lon="1.32253">
        <ele>186</ele>
        <time>2021-09-19T10:43:52Z</time>
      </trkpt>
      <trkpt lat="43.59986" lon="1.32256">
        <ele>186</ele>
        <time>2021-09-19T10:43:53Z</time>
      </trkpt>
      <trkpt lat="43.59989" lon="1.32259">
        <ele>186</ele>
        <time>2021-09-19T10:43:54Z</time>
      </trkpt>
      <trkpt lat="43.59991" lon="1.3226">
        <ele>187</ele>
        <time>2021-09-19T10:43:55Z</time>
      </trkpt>
      <trkpt lat="43.59993" lon="1.3226">
        <ele>187</ele>
        <time>2021-09-19T10:43:56Z</time>
      </trkpt>
      <trkpt lat="43.59996" lon="1.3226">
        <ele>187</ele>
        <time>2021-09-19T10:43:57Z</time>
      </trkpt>
      <trkpt lat="43.6" lon="1.3226">
        <ele>186</ele>
        <time>2021-09-19T10:43:58Z</time>
      </trkpt>
      <trkpt lat="43.60003" lon="1.32261">
        <ele>186</ele>
        <time>2021-09-19T10:43:59Z</time>
      </trkpt>
      <trkpt lat="43.60006" lon="1.32261">
        <ele>186</ele>
        <time>2021-09-19T10:44:00Z</time>
      </trkpt>
      <trkpt lat="43.60009" lon="1.32261">
        <ele>186</ele>
        <time>2021-09-19T10:44:01Z</time>
      </trkpt>
      <trkpt lat="43.60012" lon="1.32261">
        <ele>186</ele>
        <time>2021-09-19T10:44:02Z</time>
      </trkpt>
      <trkpt lat="43.60015" lon="1.32261">
        <ele>186</ele>
        <time>2021-09-19T10:44:03Z</time>
      </trkpt>
      <trkpt lat="43.60018" lon="1.32261">
        <ele>186</ele>
        <time>2021-09-19T10:44:04Z</time>
      </trkpt>
      <trkpt lat="43.60021" lon="1.32262">
        <ele>186</ele>
        <time>2021-09-19T10:44:05Z</time>
      </trkpt>
      <trkpt lat="43.60031" lon="1.32264">
        <ele>186</ele>
        <time>2021-09-19T10:44:09Z</time>
      </trkpt>
      <trkpt lat="43.60039" lon="1.32258">
        <ele>186</ele>
        <time>2021-09-19T10:44:11Z</time>
      </trkpt>
      <trkpt lat="43.60041" lon="1.32256">
        <ele>186</ele>
        <time>2021-09-19T10:44:12Z</time>
      </trkpt>
      <trkpt lat="43.60043" lon="1.32254">
        <ele>186</ele>
        <time>2021-09-19T10:44:13Z</time>
      </trkpt>
      <trkpt lat="43.60044" lon="1.32251">
        <ele>186</ele>
        <time>2021-09-19T10:44:14Z</time>
      </trkpt>
      <trkpt lat="43.60046" lon="1.32249">
        <ele>186</ele>
        <time>2021-09-19T10:44:15Z</time>
      </trkpt>
      <trkpt lat="43.60048" lon="1.32246">
        <ele>186</ele>
        <time>2021-09-19T10:44:16Z</time>
      </trkpt>
      <trkpt lat="43.6005" lon="1.32243">
        <ele>186</ele>
        <time>2021-09-19T10:44:17Z</time>
      </trkpt>
      <trkpt lat="43.60053" lon="1.32239">
        <ele>186</ele>
        <time>2021-09-19T10:44:18Z</time>
      </trkpt>
      <trkpt lat="43.60055" lon="1.32235">
        <ele>186</ele>
        <time>2021-09-19T10:44:19Z</time>
      </trkpt>
      <trkpt lat="43.60057" lon="1.32232">
        <ele>186</ele>
        <time>2021-09-19T10:44:20Z</time>
      </trkpt>
      <trkpt lat="43.60059" lon="1.32228">
        <ele>186</ele>
        <time>2021-09-19T10:44:21Z</time>
      </trkpt>
      <trkpt lat="43.60061" lon="1.32224">
        <ele>186</ele>
        <time>2021-09-19T10:44:22Z</time>
      </trkpt>
      <trkpt lat="43.60063" lon="1.32221">
        <ele>186</ele>
        <time>2021-09-19T10:44:23Z</time>
      </trkpt>
      <trkpt lat="43.60064" lon="1.32219">
        <ele>186</ele>
        <time>2021-09-19T10:44:24Z</time>
      </trkpt>
      <trkpt lat="43.60066" lon="1.32217">
        <ele>186</ele>
        <time>2021-09-19T10:44:25Z</time>
      </trkpt>
      <trkpt lat="43.60068" lon="1.32214">
        <ele>185</ele>
        <time>2021-09-19T10:44:26Z</time>
      </trkpt>
      <trkpt lat="43.60069" lon="1.3221">
        <ele>185</ele>
        <time>2021-09-19T10:44:27Z</time>
      </trkpt>
      <trkpt lat="43.6007" lon="1.32206">
        <ele>185</ele>
        <time>2021-09-19T10:44:28Z</time>
      </trkpt>
      <trkpt lat="43.60072" lon="1.32202">
        <ele>185</ele>
        <time>2021-09-19T10:44:29Z</time>
      </trkpt>
      <trkpt lat="43.60074" lon="1.322">
        <ele>185</ele>
        <time>2021-09-19T10:44:30Z</time>
      </trkpt>
      <trkpt lat="43.60076" lon="1.32197">
        <ele>185</ele>
        <time>2021-09-19T10:44:31Z</time>
      </trkpt>
      <trkpt lat="43.60078" lon="1.32195">
        <ele>185</ele>
        <time>2021-09-19T10:44:32Z</time>
      </trkpt>
      <trkpt lat="43.6008" lon="1.32192">
        <ele>185</ele>
        <time>2021-09-19T10:44:33Z</time>
      </trkpt>
      <trkpt lat="43.60082" lon="1.32189">
        <ele>185</ele>
        <time>2021-09-19T10:44:34Z</time>
      </trkpt>
      <trkpt lat="43.60084" lon="1.32185">
        <ele>185</ele>
        <time>2021-09-19T10:44:35Z</time>
      </trkpt>
      <trkpt lat="43.60086" lon="1.32182">
        <ele>185</ele>
        <time>2021-09-19T10:44:36Z</time>
      </trkpt>
      <trkpt lat="43.60088" lon="1.32178">
        <ele>185</ele>
        <time>2021-09-19T10:44:37Z</time>
      </trkpt>
      <trkpt lat="43.6009" lon="1.32174">
        <ele>185</ele>
        <time>2021-09-19T10:44:38Z</time>
      </trkpt>
      <trkpt lat="43.60092" lon="1.3217">
        <ele>185</ele>
        <time>2021-09-19T10:44:39Z</time>
      </trkpt>
      <trkpt lat="43.60095" lon="1.32166">
        <ele>185</ele>
        <time>2021-09-19T10:44:40Z</time>
      </trkpt>
      <trkpt lat="43.60097" lon="1.32162">
        <ele>185</ele>
        <time>2021-09-19T10:44:41Z</time>
      </trkpt>
      <trkpt lat="43.60099" lon="1.32158">
        <ele>185</ele>
        <time>2021-09-19T10:44:42Z</time>
      </trkpt>
      <trkpt lat="43.60102" lon="1.32154">
        <ele>185</ele>
        <time>2021-09-19T10:44:43Z</time>
      </trkpt>
      <trkpt lat="43.60105" lon="1.3215">
        <ele>185</ele>
        <time>2021-09-19T10:44:44Z</time>
      </trkpt>
      <trkpt lat="43.60107" lon="1.32146">
        <ele>185</ele>
        <time>2021-09-19T10:44:45Z</time>
      </trkpt>
      <trkpt lat="43.60109" lon="1.32141">
        <ele>185</ele>
        <time>2021-09-19T10:44:46Z</time>
      </trkpt>
      <trkpt lat="43.60112" lon="1.32137">
        <ele>185</ele>
        <time>2021-09-19T10:44:47Z</time>
      </trkpt>
      <trkpt lat="43.60115" lon="1.32133">
        <ele>185</ele>
        <time>2021-09-19T10:44:48Z</time>
      </trkpt>
      <trkpt lat="43.60117" lon="1.3213">
        <ele>185</ele>
        <time>2021-09-19T10:44:49Z</time>
      </trkpt>
      <trkpt lat="43.6012" lon="1.32126">
        <ele>185</ele>
        <time>2021-09-19T10:44:50Z</time>
      </trkpt>
      <trkpt lat="43.60123" lon="1.32123">
        <ele>185</ele>
        <time>2021-09-19T10:44:51Z</time>
      </trkpt>
      <trkpt lat="43.60125" lon="1.32119">
        <ele>185</ele>
        <time>2021-09-19T10:44:52Z</time>
      </trkpt>
      <trkpt lat="43.60128" lon="1.32115">
        <ele>185</ele>
        <time>2021-09-19T10:44:53Z</time>
      </trkpt>
      <trkpt lat="43.6013" lon="1.32112">
        <ele>185</ele>
        <time>2021-09-19T10:44:54Z</time>
      </trkpt>
      <trkpt lat="43.60132" lon="1.32108">
        <ele>185</ele>
        <time>2021-09-19T10:44:55Z</time>
      </trkpt>
      <trkpt lat="43.60134" lon="1.32104">
        <ele>185</ele>
        <time>2021-09-19T10:44:56Z</time>
      </trkpt>
      <trkpt lat="43.60137" lon="1.321">
        <ele>185</ele>
        <time>2021-09-19T10:44:57Z</time>
      </trkpt>
      <trkpt lat="43.60139" lon="1.32096">
        <ele>185</ele>
        <time>2021-09-19T10:44:58Z</time>
      </trkpt>
      <trkpt lat="43.60141" lon="1.32092">
        <ele>185</ele>
        <time>2021-09-19T10:44:59Z</time>
      </trkpt>
      <trkpt lat="43.60143" lon="1.32088">
        <ele>185</ele>
        <time>2021-09-19T10:45:00Z</time>
      </trkpt>
      <trkpt lat="43.60146" lon="1.32084">
        <ele>185</ele>
        <time>2021-09-19T10:45:01Z</time>
      </trkpt>
      <trkpt lat="43.60148" lon="1.32081">
        <ele>185</ele>
        <time>2021-09-19T10:45:02Z</time>
      </trkpt>
      <trkpt lat="43.60151" lon="1.32077">
        <ele>185</ele>
        <time>2021-09-19T10:45:03Z</time>
      </trkpt>
      <trkpt lat="43.60153" lon="1.32073">
        <ele>185</ele>
        <time>2021-09-19T10:45:04Z</time>
      </trkpt>
      <trkpt lat="43.60155" lon="1.32069">
        <ele>185</ele>
        <time>2021-09-19T10:45:05Z</time>
      </trkpt>
      <trkpt lat="43.60157" lon="1.32065">
        <ele>185</ele>
        <time>2021-09-19T10:45:06Z</time>
      </trkpt>
      <trkpt lat="43.60159" lon="1.32061">
        <ele>185</ele>
        <time>2021-09-19T10:45:07Z</time>
      </trkpt>
      <trkpt lat="43.60162" lon="1.32057">
        <ele>185</ele>
        <time>2021-09-19T10:45:08Z</time>
      </trkpt>
      <trkpt lat="43.60164" lon="1.32054">
        <ele>185</ele>
        <time>2021-09-19T10:45:09Z</time>
      </trkpt>
      <trkpt lat="43.60167" lon="1.3205">
        <ele>185</ele>
        <time>2021-09-19T10:45:10Z</time>
      </trkpt>
      <trkpt lat="43.60169" lon="1.32047">
        <ele>185</ele>
        <time>2021-09-19T10:45:11Z</time>
      </trkpt>
      <trkpt lat="43.60172" lon="1.32043">
        <ele>185</ele>
        <time>2021-09-19T10:45:12Z</time>
      </trkpt>
      <trkpt lat="43.60174" lon="1.3204">
        <ele>185</ele>
        <time>2021-09-19T10:45:13Z</time>
      </trkpt>
      <trkpt lat="43.60177" lon="1.32036">
        <ele>185</ele>
        <time>2021-09-19T10:45:14Z</time>
      </trkpt>
      <trkpt lat="43.60179" lon="1.32033">
        <ele>185</ele>
        <time>2021-09-19T10:45:15Z</time>
      </trkpt>
      <trkpt lat="43.60182" lon="1.3203">
        <ele>185</ele>
        <time>2021-09-19T10:45:16Z</time>
      </trkpt>
      <trkpt lat="43.60184" lon="1.32027">
        <ele>185</ele>
        <time>2021-09-19T10:45:17Z</time>
      </trkpt>
      <trkpt lat="43.60188" lon="1.32024">
        <ele>185</ele>
        <time>2021-09-19T10:45:18Z</time>
      </trkpt>
      <trkpt lat="43.60191" lon="1.32021">
        <ele>185</ele>
        <time>2021-09-19T10:45:19Z</time>
      </trkpt>
      <trkpt lat="43.60194" lon="1.32017">
        <ele>185</ele>
        <time>2021-09-19T10:45:20Z</time>
      </trkpt>
      <trkpt lat="43.60197" lon="1.32013">
        <ele>185</ele>
        <time>2021-09-19T10:45:21Z</time>
      </trkpt>
      <trkpt lat="43.602" lon="1.32009">
        <ele>185</ele>
        <time>2021-09-19T10:45:22Z</time>
      </trkpt>
      <trkpt lat="43.60203" lon="1.32004">
        <ele>185</ele>
        <time>2021-09-19T10:45:23Z</time>
      </trkpt>
      <trkpt lat="43.60205" lon="1.31999">
        <ele>185</ele>
        <time>2021-09-19T10:45:24Z</time>
      </trkpt>
      <trkpt lat="43.60207" lon="1.31994">
        <ele>185</ele>
        <time>2021-09-19T10:45:25Z</time>
      </trkpt>
      <trkpt lat="43.60209" lon="1.31989">
        <ele>185</ele>
        <time>2021-09-19T10:45:26Z</time>
      </trkpt>
      <trkpt lat="43.6021" lon="1.31984">
        <ele>185</ele>
        <time>2021-09-19T10:45:27Z</time>
      </trkpt>
      <trkpt lat="43.60211" lon="1.3198">
        <ele>185</ele>
        <time>2021-09-19T10:45:28Z</time>
      </trkpt>
      <trkpt lat="43.60213" lon="1.31975">
        <ele>185</ele>
        <time>2021-09-19T10:45:29Z</time>
      </trkpt>
      <trkpt lat="43.60214" lon="1.31971">
        <ele>185</ele>
        <time>2021-09-19T10:45:30Z</time>
      </trkpt>
      <trkpt lat="43.60215" lon="1.31967">
        <ele>185</ele>
        <time>2021-09-19T10:45:31Z</time>
      </trkpt>
      <trkpt lat="43.60216" lon="1.31962">
        <ele>185</ele>
        <time>2021-09-19T10:45:32Z</time>
      </trkpt>
      <trkpt lat="43.60217" lon="1.31957">
        <ele>185</ele>
        <time>2021-09-19T10:45:33Z</time>
      </trkpt>
      <trkpt lat="43.60217" lon="1.31953">
        <ele>185</ele>
        <time>2021-09-19T10:45:34Z</time>
      </trkpt>
      <trkpt lat="43.60218" lon="1.31949">
        <ele>185</ele>
        <time>2021-09-19T10:45:35Z</time>
      </trkpt>
      <trkpt lat="43.6022" lon="1.31945">
        <ele>185</ele>
        <time>2021-09-19T10:45:36Z</time>
      </trkpt>
      <trkpt lat="43.60221" lon="1.31941">
        <ele>185</ele>
        <time>2021-09-19T10:45:37Z</time>
      </trkpt>
      <trkpt lat="43.60223" lon="1.31937">
        <ele>185</ele>
        <time>2021-09-19T10:45:38Z</time>
      </trkpt>
      <trkpt lat="43.60225" lon="1.31933">
        <ele>185</ele>
        <time>2021-09-19T10:45:39Z</time>
      </trkpt>
      <trkpt lat="43.60228" lon="1.3193">
        <ele>186</ele>
        <time>2021-09-19T10:45:40Z</time>
      </trkpt>
      <trkpt lat="43.60229" lon="1.31926">
        <ele>186</ele>
        <time>2021-09-19T10:45:41Z</time>
      </trkpt>
      <trkpt lat="43.6023" lon="1.31922">
        <ele>186</ele>
        <time>2021-09-19T10:45:42Z</time>
      </trkpt>
      <trkpt lat="43.6023" lon="1.31917">
        <ele>185</ele>
        <time>2021-09-19T10:45:43Z</time>
      </trkpt>
      <trkpt lat="43.6023" lon="1.31913">
        <ele>185</ele>
        <time>2021-09-19T10:45:44Z</time>
      </trkpt>
      <trkpt lat="43.60231" lon="1.31908">
        <ele>185</ele>
        <time>2021-09-19T10:45:45Z</time>
      </trkpt>
      <trkpt lat="43.60232" lon="1.31904">
        <ele>185</ele>
        <time>2021-09-19T10:45:46Z</time>
      </trkpt>
      <trkpt lat="43.60233" lon="1.31899">
        <ele>185</ele>
        <time>2021-09-19T10:45:47Z</time>
      </trkpt>
      <trkpt lat="43.60235" lon="1.31895">
        <ele>185</ele>
        <time>2021-09-19T10:45:48Z</time>
      </trkpt>
      <trkpt lat="43.60237" lon="1.31891">
        <ele>185</ele>
        <time>2021-09-19T10:45:49Z</time>
      </trkpt>
      <trkpt lat="43.60238" lon="1.31888">
        <ele>185</ele>
        <time>2021-09-19T10:45:50Z</time>
      </trkpt>
      <trkpt lat="43.60239" lon="1.31884">
        <ele>185</ele>
        <time>2021-09-19T10:45:51Z</time>
      </trkpt>
      <trkpt lat="43.6024" lon="1.3188">
        <ele>185</ele>
        <time>2021-09-19T10:45:52Z</time>
      </trkpt>
      <trkpt lat="43.60242" lon="1.31877">
        <ele>185</ele>
        <time>2021-09-19T10:45:53Z</time>
      </trkpt>
      <trkpt lat="43.60245" lon="1.31875">
        <ele>185</ele>
        <time>2021-09-19T10:45:54Z</time>
      </trkpt>
      <trkpt lat="43.60248" lon="1.31873">
        <ele>185</ele>
        <time>2021-09-19T10:45:55Z</time>
      </trkpt>
      <trkpt lat="43.6025" lon="1.31873">
        <ele>185</ele>
        <time>2021-09-19T10:45:56Z</time>
      </trkpt>
      <trkpt lat="43.60253" lon="1.31874">
        <ele>185</ele>
        <time>2021-09-19T10:45:57Z</time>
      </trkpt>
      <trkpt lat="43.60255" lon="1.31876">
        <ele>185</ele>
        <time>2021-09-19T10:45:58Z</time>
      </trkpt>
      <trkpt lat="43.60258" lon="1.31878">
        <ele>185</ele>
        <time>2021-09-19T10:45:59Z</time>
      </trkpt>
      <trkpt lat="43.6026" lon="1.31879">
        <ele>185</ele>
        <time>2021-09-19T10:46:00Z</time>
      </trkpt>
      <trkpt lat="43.60264" lon="1.31879">
        <ele>185</ele>
        <time>2021-09-19T10:46:01Z</time>
      </trkpt>
      <trkpt lat="43.60268" lon="1.31879">
        <ele>185</ele>
        <time>2021-09-19T10:46:02Z</time>
      </trkpt>
      <trkpt lat="43.60271" lon="1.31877">
        <ele>185</ele>
        <time>2021-09-19T10:46:03Z</time>
      </trkpt>
      <trkpt lat="43.60274" lon="1.31875">
        <ele>185</ele>
        <time>2021-09-19T10:46:04Z</time>
      </trkpt>
      <trkpt lat="43.60277" lon="1.31871">
        <ele>185</ele>
        <time>2021-09-19T10:46:05Z</time>
      </trkpt>
      <trkpt lat="43.60279" lon="1.31867">
        <ele>185</ele>
        <time>2021-09-19T10:46:06Z</time>
      </trkpt>
      <trkpt lat="43.60281" lon="1.31863">
        <ele>185</ele>
        <time>2021-09-19T10:46:07Z</time>
      </trkpt>
      <trkpt lat="43.60283" lon="1.3186">
        <ele>185</ele>
        <time>2021-09-19T10:46:08Z</time>
      </trkpt>
      <trkpt lat="43.60285" lon="1.31856">
        <ele>185</ele>
        <time>2021-09-19T10:46:09Z</time>
      </trkpt>
      <trkpt lat="43.60287" lon="1.31852">
        <ele>186</ele>
        <time>2021-09-19T10:46:10Z</time>
      </trkpt>
      <trkpt lat="43.60288" lon="1.31848">
        <ele>186</ele>
        <time>2021-09-19T10:46:11Z</time>
      </trkpt>
      <trkpt lat="43.6029" lon="1.31844">
        <ele>186</ele>
        <time>2021-09-19T10:46:12Z</time>
      </trkpt>
      <trkpt lat="43.60291" lon="1.3184">
        <ele>186</ele>
        <time>2021-09-19T10:46:13Z</time>
      </trkpt>
      <trkpt lat="43.60293" lon="1.31836">
        <ele>186</ele>
        <time>2021-09-19T10:46:14Z</time>
      </trkpt>
      <trkpt lat="43.60294" lon="1.31832">
        <ele>186</ele>
        <time>2021-09-19T10:46:15Z</time>
      </trkpt>
      <trkpt lat="43.60296" lon="1.31828">
        <ele>186</ele>
        <time>2021-09-19T10:46:16Z</time>
      </trkpt>
      <trkpt lat="43.60297" lon="1.31823">
        <ele>186</ele>
        <time>2021-09-19T10:46:17Z</time>
      </trkpt>
      <trkpt lat="43.60298" lon="1.31819">
        <ele>186</ele>
        <time>2021-09-19T10:46:18Z</time>
      </trkpt>
      <trkpt lat="43.603" lon="1.31814">
        <ele>186</ele>
        <time>2021-09-19T10:46:19Z</time>
      </trkpt>
      <trkpt lat="43.60301" lon="1.3181">
        <ele>187</ele>
        <time>2021-09-19T10:46:20Z</time>
      </trkpt>
      <trkpt lat="43.60303" lon="1.31806">
        <ele>187</ele>
        <time>2021-09-19T10:46:21Z</time>
      </trkpt>
      <trkpt lat="43.60305" lon="1.31802">
        <ele>187</ele>
        <time>2021-09-19T10:46:22Z</time>
      </trkpt>
      <trkpt lat="43.60306" lon="1.31798">
        <ele>186</ele>
        <time>2021-09-19T10:46:23Z</time>
      </trkpt>
      <trkpt lat="43.60307" lon="1.31794">
        <ele>186</ele>
        <time>2021-09-19T10:46:24Z</time>
      </trkpt>
      <trkpt lat="43.60309" lon="1.3179">
        <ele>186</ele>
        <time>2021-09-19T10:46:25Z</time>
      </trkpt>
      <trkpt lat="43.6031" lon="1.31786">
        <ele>185</ele>
        <time>2021-09-19T10:46:26Z</time>
      </trkpt>
      <trkpt lat="43.60311" lon="1.31782">
        <ele>185</ele>
        <time>2021-09-19T10:46:27Z</time>
      </trkpt>
      <trkpt lat="43.60313" lon="1.31778">
        <ele>185</ele>
        <time>2021-09-19T10:46:28Z</time>
      </trkpt>
      <trkpt lat="43.60315" lon="1.31774">
        <ele>185</ele>
        <time>2021-09-19T10:46:29Z</time>
      </trkpt>
      <trkpt lat="43.60316" lon="1.3177">
        <ele>185</ele>
        <time>2021-09-19T10:46:30Z</time>
      </trkpt>
      <trkpt lat="43.60318" lon="1.31766">
        <ele>185</ele>
        <time>2021-09-19T10:46:31Z</time>
      </trkpt>
      <trkpt lat="43.60319" lon="1.31762">
        <ele>185</ele>
        <time>2021-09-19T10:46:32Z</time>
      </trkpt>
      <trkpt lat="43.60321" lon="1.31758">
        <ele>185</ele>
        <time>2021-09-19T10:46:33Z</time>
      </trkpt>
      <trkpt lat="43.60322" lon="1.31753">
        <ele>186</ele>
        <time>2021-09-19T10:46:34Z</time>
      </trkpt>
      <trkpt lat="43.60324" lon="1.31749">
        <ele>186</ele>
        <time>2021-09-19T10:46:35Z</time>
      </trkpt>
      <trkpt lat="43.60325" lon="1.31745">
        <ele>186</ele>
        <time>2021-09-19T10:46:36Z</time>
      </trkpt>
      <trkpt lat="43.60327" lon="1.31741">
        <ele>186</ele>
        <time>2021-09-19T10:46:37Z</time>
      </trkpt>
      <trkpt lat="43.60329" lon="1.31737">
        <ele>186</ele>
        <time>2021-09-19T10:46:38Z</time>
      </trkpt>
      <trkpt lat="43.6033" lon="1.31732">
        <ele>186</ele>
        <time>2021-09-19T10:46:39Z</time>
      </trkpt>
      <trkpt lat="43.60332" lon="1.31728">
        <ele>185</ele>
        <time>2021-09-19T10:46:40Z</time>
      </trkpt>
      <trkpt lat="43.60333" lon="1.31724">
        <ele>185</ele>
        <time>2021-09-19T10:46:41Z</time>
      </trkpt>
      <trkpt lat="43.60335" lon="1.3172">
        <ele>185</ele>
        <time>2021-09-19T10:46:42Z</time>
      </trkpt>
      <trkpt lat="43.60336" lon="1.31716">
        <ele>185</ele>
        <time>2021-09-19T10:46:43Z</time>
      </trkpt>
      <trkpt lat="43.60338" lon="1.31712">
        <ele>185</ele>
        <time>2021-09-19T10:46:44Z</time>
      </trkpt>
      <trkpt lat="43.6034" lon="1.31708">
        <ele>185</ele>
        <time>2021-09-19T10:46:45Z</time>
      </trkpt>
      <trkpt lat="43.60341" lon="1.31703">
        <ele>185</ele>
        <time>2021-09-19T10:46:46Z</time>
      </trkpt>
      <trkpt lat="43.60343" lon="1.31699">
        <ele>185</ele>
        <time>2021-09-19T10:46:47Z</time>
      </trkpt>
      <trkpt lat="43.60344" lon="1.31695">
        <ele>185</ele>
        <time>2021-09-19T10:46:48Z</time>
      </trkpt>
      <trkpt lat="43.60346" lon="1.31691">
        <ele>185</ele>
        <time>2021-09-19T10:46:49Z</time>
      </trkpt>
      <trkpt lat="43.60348" lon="1.31686">
        <ele>185</ele>
        <time>2021-09-19T10:46:50Z</time>
      </trkpt>
      <trkpt lat="43.6035" lon="1.31682">
        <ele>185</ele>
        <time>2021-09-19T10:46:51Z</time>
      </trkpt>
      <trkpt lat="43.60352" lon="1.31679">
        <ele>185</ele>
        <time>2021-09-19T10:46:52Z</time>
      </trkpt>
      <trkpt lat="43.60354" lon="1.31674">
        <ele>185</ele>
        <time>2021-09-19T10:46:53Z</time>
      </trkpt>
      <trkpt lat="43.60356" lon="1.3167">
        <ele>185</ele>
        <time>2021-09-19T10:46:54Z</time>
      </trkpt>
      <trkpt lat="43.60358" lon="1.31665">
        <ele>185</ele>
        <time>2021-09-19T10:46:55Z</time>
      </trkpt>
      <trkpt lat="43.60359" lon="1.31661">
        <ele>185</ele>
        <time>2021-09-19T10:46:56Z</time>
      </trkpt>
      <trkpt lat="43.6036" lon="1.31656">
        <ele>186</ele>
        <time>2021-09-19T10:46:57Z</time>
      </trkpt>
      <trkpt lat="43.60362" lon="1.31651">
        <ele>186</ele>
        <time>2021-09-19T10:46:58Z</time>
      </trkpt>
      <trkpt lat="43.60363" lon="1.31646">
        <ele>186</ele>
        <time>2021-09-19T10:46:59Z</time>
      </trkpt>
      <trkpt lat="43.60365" lon="1.31642">
        <ele>185</ele>
        <time>2021-09-19T10:47:00Z</time>
      </trkpt>
      <trkpt lat="43.60368" lon="1.31638">
        <ele>185</ele>
        <time>2021-09-19T10:47:01Z</time>
      </trkpt>
      <trkpt lat="43.6037" lon="1.31634">
        <ele>185</ele>
        <time>2021-09-19T10:47:02Z</time>
      </trkpt>
      <trkpt lat="43.60372" lon="1.31631">
        <ele>185</ele>
        <time>2021-09-19T10:47:03Z</time>
      </trkpt>
      <trkpt lat="43.60375" lon="1.31628">
        <ele>185</ele>
        <time>2021-09-19T10:47:04Z</time>
      </trkpt>
      <trkpt lat="43.60377" lon="1.31624">
        <ele>185</ele>
        <time>2021-09-19T10:47:05Z</time>
      </trkpt>
      <trkpt lat="43.6038" lon="1.31621">
        <ele>185</ele>
        <time>2021-09-19T10:47:06Z</time>
      </trkpt>
      <trkpt lat="43.60382" lon="1.31618">
        <ele>185</ele>
        <time>2021-09-19T10:47:07Z</time>
      </trkpt>
      <trkpt lat="43.60384" lon="1.31616">
        <ele>185</ele>
        <time>2021-09-19T10:47:08Z</time>
      </trkpt>
      <trkpt lat="43.60386" lon="1.31614">
        <ele>185</ele>
        <time>2021-09-19T10:47:09Z</time>
      </trkpt>
      <trkpt lat="43.60389" lon="1.31613">
        <ele>185</ele>
        <time>2021-09-19T10:47:10Z</time>
      </trkpt>
      <trkpt lat="43.60392" lon="1.31613">
        <ele>185</ele>
        <time>2021-09-19T10:47:11Z</time>
      </trkpt>
      <trkpt lat="43.60395" lon="1.31614">
        <ele>185</ele>
        <time>2021-09-19T10:47:12Z</time>
      </trkpt>
      <trkpt lat="43.60398" lon="1.31615">
        <ele>185</ele>
        <time>2021-09-19T10:47:13Z</time>
      </trkpt>
      <trkpt lat="43.60401" lon="1.31616">
        <ele>185</ele>
        <time>2021-09-19T10:47:14Z</time>
      </trkpt>
      <trkpt lat="43.60404" lon="1.31614">
        <ele>185</ele>
        <time>2021-09-19T10:47:15Z</time>
      </trkpt>
      <trkpt lat="43.60406" lon="1.31612">
        <ele>185</ele>
        <time>2021-09-19T10:47:16Z</time>
      </trkpt>
      <trkpt lat="43.6041" lon="1.3161">
        <ele>185</ele>
        <time>2021-09-19T10:47:17Z</time>
      </trkpt>
      <trkpt lat="43.60413" lon="1.31609">
        <ele>185</ele>
        <time>2021-09-19T10:47:18Z</time>
      </trkpt>
      <trkpt lat="43.60417" lon="1.31608">
        <ele>185</ele>
        <time>2021-09-19T10:47:19Z</time>
      </trkpt>
      <trkpt lat="43.6042" lon="1.31606">
        <ele>185</ele>
        <time>2021-09-19T10:47:20Z</time>
      </trkpt>
      <trkpt lat="43.60424" lon="1.31604">
        <ele>185</ele>
        <time>2021-09-19T10:47:21Z</time>
      </trkpt>
      <trkpt lat="43.60428" lon="1.31603">
        <ele>185</ele>
        <time>2021-09-19T10:47:22Z</time>
      </trkpt>
      <trkpt lat="43.60431" lon="1.31604">
        <ele>185</ele>
        <time>2021-09-19T10:47:23Z</time>
      </trkpt>
      <trkpt lat="43.60435" lon="1.31607">
        <ele>185</ele>
        <time>2021-09-19T10:47:24Z</time>
      </trkpt>
      <trkpt lat="43.60438" lon="1.31609">
        <ele>185</ele>
        <time>2021-09-19T10:47:25Z</time>
      </trkpt>
      <trkpt lat="43.60442" lon="1.31611">
        <ele>185</ele>
        <time>2021-09-19T10:47:26Z</time>
      </trkpt>
      <trkpt lat="43.60445" lon="1.31611">
        <ele>184</ele>
        <time>2021-09-19T10:47:27Z</time>
      </trkpt>
      <trkpt lat="43.60449" lon="1.31611">
        <ele>184</ele>
        <time>2021-09-19T10:47:28Z</time>
      </trkpt>
      <trkpt lat="43.60452" lon="1.3161">
        <ele>184</ele>
        <time>2021-09-19T10:47:29Z</time>
      </trkpt>
      <trkpt lat="43.60455" lon="1.31609">
        <ele>184</ele>
        <time>2021-09-19T10:47:30Z</time>
      </trkpt>
      <trkpt lat="43.60458" lon="1.31608">
        <ele>184</ele>
        <time>2021-09-19T10:47:31Z</time>
      </trkpt>
      <trkpt lat="43.60461" lon="1.31606">
        <ele>184</ele>
        <time>2021-09-19T10:47:32Z</time>
      </trkpt>
      <trkpt lat="43.60462" lon="1.31604">
        <ele>184</ele>
        <time>2021-09-19T10:47:33Z</time>
      </trkpt>
      <trkpt lat="43.60463" lon="1.31601">
        <ele>184</ele>
        <time>2021-09-19T10:47:34Z</time>
      </trkpt>
      <trkpt lat="43.60462" lon="1.31597">
        <ele>184</ele>
        <time>2021-09-19T10:47:35Z</time>
      </trkpt>
      <trkpt lat="43.60462" lon="1.31592">
        <ele>185</ele>
        <time>2021-09-19T10:47:36Z</time>
      </trkpt>
      <trkpt lat="43.60461" lon="1.31587">
        <ele>185</ele>
        <time>2021-09-19T10:47:37Z</time>
      </trkpt>
      <trkpt lat="43.60461" lon="1.31582">
        <ele>185</ele>
        <time>2021-09-19T10:47:38Z</time>
      </trkpt>
      <trkpt lat="43.6046" lon="1.31576">
        <ele>186</ele>
        <time>2021-09-19T10:47:39Z</time>
      </trkpt>
      <trkpt lat="43.6046" lon="1.31571">
        <ele>186</ele>
        <time>2021-09-19T10:47:40Z</time>
      </trkpt>
      <trkpt lat="43.6046" lon="1.31565">
        <ele>186</ele>
        <time>2021-09-19T10:47:41Z</time>
      </trkpt>
      <trkpt lat="43.6046" lon="1.3156">
        <ele>186</ele>
        <time>2021-09-19T10:47:42Z</time>
      </trkpt>
      <trkpt lat="43.60459" lon="1.31554">
        <ele>186</ele>
        <time>2021-09-19T10:47:43Z</time>
      </trkpt>
      <trkpt lat="43.60459" lon="1.31549">
        <ele>185</ele>
        <time>2021-09-19T10:47:44Z</time>
      </trkpt>
      <trkpt lat="43.60459" lon="1.31544">
        <ele>185</ele>
        <time>2021-09-19T10:47:45Z</time>
      </trkpt>
      <trkpt lat="43.60458" lon="1.31538">
        <ele>185</ele>
        <time>2021-09-19T10:47:46Z</time>
      </trkpt>
      <trkpt lat="43.60458" lon="1.31533">
        <ele>186</ele>
        <time>2021-09-19T10:47:47Z</time>
      </trkpt>
      <trkpt lat="43.60457" lon="1.31528">
        <ele>186</ele>
        <time>2021-09-19T10:47:48Z</time>
      </trkpt>
      <trkpt lat="43.60456" lon="1.31522">
        <ele>186</ele>
        <time>2021-09-19T10:47:49Z</time>
      </trkpt>
      <trkpt lat="43.60456" lon="1.31516">
        <ele>186</ele>
        <time>2021-09-19T10:47:50Z</time>
      </trkpt>
      <trkpt lat="43.60455" lon="1.31511">
        <ele>186</ele>
        <time>2021-09-19T10:47:51Z</time>
      </trkpt>
      <trkpt lat="43.60455" lon="1.31506">
        <ele>186</ele>
        <time>2021-09-19T10:47:52Z</time>
      </trkpt>
      <trkpt lat="43.60454" lon="1.315">
        <ele>186</ele>
        <time>2021-09-19T10:47:53Z</time>
      </trkpt>
      <trkpt lat="43.60453" lon="1.31495">
        <ele>186</ele>
        <time>2021-09-19T10:47:54Z</time>
      </trkpt>
      <trkpt lat="43.60453" lon="1.3149">
        <ele>186</ele>
        <time>2021-09-19T10:47:55Z</time>
      </trkpt>
      <trkpt lat="43.60452" lon="1.31485">
        <ele>186</ele>
        <time>2021-09-19T10:47:56Z</time>
      </trkpt>
      <trkpt lat="43.60452" lon="1.3148">
        <ele>186</ele>
        <time>2021-09-19T10:47:57Z</time>
      </trkpt>
      <trkpt lat="43.60451" lon="1.31475">
        <ele>186</ele>
        <time>2021-09-19T10:47:58Z</time>
      </trkpt>
      <trkpt lat="43.60451" lon="1.3147">
        <ele>186</ele>
        <time>2021-09-19T10:47:59Z</time>
      </trkpt>
      <trkpt lat="43.60451" lon="1.31465">
        <ele>186</ele>
        <time>2021-09-19T10:48:00Z</time>
      </trkpt>
      <trkpt lat="43.6045" lon="1.31459">
        <ele>186</ele>
        <time>2021-09-19T10:48:01Z</time>
      </trkpt>
      <trkpt lat="43.6045" lon="1.31454">
        <ele>186</ele>
        <time>2021-09-19T10:48:02Z</time>
      </trkpt>
      <trkpt lat="43.60449" lon="1.31449">
        <ele>186</ele>
        <time>2021-09-19T10:48:03Z</time>
      </trkpt>
      <trkpt lat="43.60449" lon="1.31443">
        <ele>186</ele>
        <time>2021-09-19T10:48:04Z</time>
      </trkpt>
      <trkpt lat="43.60448" lon="1.31438">
        <ele>186</ele>
        <time>2021-09-19T10:48:05Z</time>
      </trkpt>
      <trkpt lat="43.60448" lon="1.31432">
        <ele>186</ele>
        <time>2021-09-19T10:48:06Z</time>
      </trkpt>
      <trkpt lat="43.60447" lon="1.31427">
        <ele>186</ele>
        <time>2021-09-19T10:48:07Z</time>
      </trkpt>
      <trkpt lat="43.60447" lon="1.31421">
        <ele>186</ele>
        <time>2021-09-19T10:48:08Z</time>
      </trkpt>
      <trkpt lat="43.60446" lon="1.31415">
        <ele>186</ele>
        <time>2021-09-19T10:48:09Z</time>
      </trkpt>
      <trkpt lat="43.60446" lon="1.3141">
        <ele>186</ele>
        <time>2021-09-19T10:48:10Z</time>
      </trkpt>
      <trkpt lat="43.60445" lon="1.31404">
        <ele>186</ele>
        <time>2021-09-19T10:48:11Z</time>
      </trkpt>
      <trkpt lat="43.60445" lon="1.31399">
        <ele>186</ele>
        <time>2021-09-19T10:48:12Z</time>
      </trkpt>
      <trkpt lat="43.60444" lon="1.31393">
        <ele>186</ele>
        <time>2021-09-19T10:48:13Z</time>
      </trkpt>
      <trkpt lat="43.60444" lon="1.31388">
        <ele>186</ele>
        <time>2021-09-19T10:48:14Z</time>
      </trkpt>
      <trkpt lat="43.60443" lon="1.31382">
        <ele>186</ele>
        <time>2021-09-19T10:48:15Z</time>
      </trkpt>
      <trkpt lat="43.60443" lon="1.31376">
        <ele>186</ele>
        <time>2021-09-19T10:48:16Z</time>
      </trkpt>
      <trkpt lat="43.60442" lon="1.3137">
        <ele>186</ele>
        <time>2021-09-19T10:48:17Z</time>
      </trkpt>
      <trkpt lat="43.60442" lon="1.31365">
        <ele>186</ele>
        <time>2021-09-19T10:48:18Z</time>
      </trkpt>
      <trkpt lat="43.60441" lon="1.3136">
        <ele>186</ele>
        <time>2021-09-19T10:48:19Z</time>
      </trkpt>
      <trkpt lat="43.60441" lon="1.31354">
        <ele>186</ele>
        <time>2021-09-19T10:48:20Z</time>
      </trkpt>
      <trkpt lat="43.60441" lon="1.31349">
        <ele>186</ele>
        <time>2021-09-19T10:48:21Z</time>
      </trkpt>
      <trkpt lat="43.60442" lon="1.31344">
        <ele>186</ele>
        <time>2021-09-19T10:48:22Z</time>
      </trkpt>
      <trkpt lat="43.60443" lon="1.31339">
        <ele>186</ele>
        <time>2021-09-19T10:48:23Z</time>
      </trkpt>
      <trkpt lat="43.60446" lon="1.31334">
        <ele>186</ele>
        <time>2021-09-19T10:48:24Z</time>
      </trkpt>
      <trkpt lat="43.60449" lon="1.3133">
        <ele>186</ele>
        <time>2021-09-19T10:48:25Z</time>
      </trkpt>
      <trkpt lat="43.60452" lon="1.31326">
        <ele>186</ele>
        <time>2021-09-19T10:48:26Z</time>
      </trkpt>
      <trkpt lat="43.60456" lon="1.31322">
        <ele>186</ele>
        <time>2021-09-19T10:48:27Z</time>
      </trkpt>
      <trkpt lat="43.60459" lon="1.31318">
        <ele>186</ele>
        <time>2021-09-19T10:48:28Z</time>
      </trkpt>
      <trkpt lat="43.60462" lon="1.31314">
        <ele>185</ele>
        <time>2021-09-19T10:48:29Z</time>
      </trkpt>
      <trkpt lat="43.60465" lon="1.3131">
        <ele>185</ele>
        <time>2021-09-19T10:48:30Z</time>
      </trkpt>
      <trkpt lat="43.60468" lon="1.31306">
        <ele>185</ele>
        <time>2021-09-19T10:48:31Z</time>
      </trkpt>
      <trkpt lat="43.60471" lon="1.31302">
        <ele>185</ele>
        <time>2021-09-19T10:48:32Z</time>
      </trkpt>
      <trkpt lat="43.60474" lon="1.31298">
        <ele>185</ele>
        <time>2021-09-19T10:48:33Z</time>
      </trkpt>
      <trkpt lat="43.60476" lon="1.31295">
        <ele>185</ele>
        <time>2021-09-19T10:48:34Z</time>
      </trkpt>
      <trkpt lat="43.60479" lon="1.31291">
        <ele>185</ele>
        <time>2021-09-19T10:48:35Z</time>
      </trkpt>
      <trkpt lat="43.60482" lon="1.31287">
        <ele>185</ele>
        <time>2021-09-19T10:48:36Z</time>
      </trkpt>
      <trkpt lat="43.60485" lon="1.31284">
        <ele>185</ele>
        <time>2021-09-19T10:48:37Z</time>
      </trkpt>
      <trkpt lat="43.60488" lon="1.3128">
        <ele>185</ele>
        <time>2021-09-19T10:48:38Z</time>
      </trkpt>
      <trkpt lat="43.60491" lon="1.31276">
        <ele>185</ele>
        <time>2021-09-19T10:48:39Z</time>
      </trkpt>
      <trkpt lat="43.60494" lon="1.31273">
        <ele>185</ele>
        <time>2021-09-19T10:48:40Z</time>
      </trkpt>
      <trkpt lat="43.60496" lon="1.31269">
        <ele>185</ele>
        <time>2021-09-19T10:48:41Z</time>
      </trkpt>
      <trkpt lat="43.605" lon="1.31266">
        <ele>185</ele>
        <time>2021-09-19T10:48:42Z</time>
      </trkpt>
      <trkpt lat="43.60503" lon="1.31264">
        <ele>185</ele>
        <time>2021-09-19T10:48:43Z</time>
      </trkpt>
      <trkpt lat="43.60506" lon="1.31262">
        <ele>185</ele>
        <time>2021-09-19T10:48:44Z</time>
      </trkpt>
      <trkpt lat="43.6051" lon="1.31261">
        <ele>184</ele>
        <time>2021-09-19T10:48:45Z</time>
      </trkpt>
      <trkpt lat="43.60514" lon="1.31261">
        <ele>184</ele>
        <time>2021-09-19T10:48:46Z</time>
      </trkpt>
      <trkpt lat="43.60518" lon="1.31262">
        <ele>184</ele>
        <time>2021-09-19T10:48:47Z</time>
      </trkpt>
      <trkpt lat="43.60522" lon="1.31265">
        <ele>184</ele>
        <time>2021-09-19T10:48:48Z</time>
      </trkpt>
      <trkpt lat="43.60525" lon="1.31267">
        <ele>184</ele>
        <time>2021-09-19T10:48:49Z</time>
      </trkpt>
      <trkpt lat="43.60528" lon="1.31271">
        <ele>184</ele>
        <time>2021-09-19T10:48:50Z</time>
      </trkpt>
      <trkpt lat="43.60531" lon="1.31273">
        <ele>184</ele>
        <time>2021-09-19T10:48:51Z</time>
      </trkpt>
      <trkpt lat="43.60534" lon="1.31274">
        <ele>184</ele>
        <time>2021-09-19T10:48:52Z</time>
      </trkpt>
      <trkpt lat="43.60536" lon="1.31273">
        <ele>184</ele>
        <time>2021-09-19T10:48:53Z</time>
      </trkpt>
      <trkpt lat="43.60539" lon="1.31269">
        <ele>184</ele>
        <time>2021-09-19T10:48:54Z</time>
      </trkpt>
      <trkpt lat="43.60541" lon="1.31265">
        <ele>185</ele>
        <time>2021-09-19T10:48:55Z</time>
      </trkpt>
      <trkpt lat="43.60542" lon="1.31261">
        <ele>185</ele>
        <time>2021-09-19T10:48:56Z</time>
      </trkpt>
      <trkpt lat="43.60543" lon="1.31255">
        <ele>185</ele>
        <time>2021-09-19T10:48:57Z</time>
      </trkpt>
      <trkpt lat="43.60543" lon="1.3125">
        <ele>185</ele>
        <time>2021-09-19T10:48:58Z</time>
      </trkpt>
      <trkpt lat="43.60543" lon="1.31244">
        <ele>185</ele>
        <time>2021-09-19T10:48:59Z</time>
      </trkpt>
      <trkpt lat="43.60542" lon="1.31238">
        <ele>186</ele>
        <time>2021-09-19T10:49:00Z</time>
      </trkpt>
      <trkpt lat="43.60541" lon="1.31232">
        <ele>186</ele>
        <time>2021-09-19T10:49:01Z</time>
      </trkpt>
      <trkpt lat="43.60541" lon="1.31226">
        <ele>186</ele>
        <time>2021-09-19T10:49:02Z</time>
      </trkpt>
      <trkpt lat="43.6054" lon="1.3122">
        <ele>186</ele>
        <time>2021-09-19T10:49:03Z</time>
      </trkpt>
      <trkpt lat="43.6054" lon="1.31215">
        <ele>186</ele>
        <time>2021-09-19T10:49:04Z</time>
      </trkpt>
      <trkpt lat="43.6054" lon="1.31209">
        <ele>186</ele>
        <time>2021-09-19T10:49:05Z</time>
      </trkpt>
      <trkpt lat="43.6054" lon="1.31203">
        <ele>186</ele>
        <time>2021-09-19T10:49:06Z</time>
      </trkpt>
      <trkpt lat="43.6054" lon="1.31198">
        <ele>186</ele>
        <time>2021-09-19T10:49:07Z</time>
      </trkpt>
      <trkpt lat="43.6054" lon="1.31193">
        <ele>186</ele>
        <time>2021-09-19T10:49:08Z</time>
      </trkpt>
      <trkpt lat="43.60541" lon="1.31187">
        <ele>186</ele>
        <time>2021-09-19T10:49:09Z</time>
      </trkpt>
      <trkpt lat="43.60541" lon="1.31182">
        <ele>186</ele>
        <time>2021-09-19T10:49:10Z</time>
      </trkpt>
      <trkpt lat="43.60542" lon="1.31177">
        <ele>186</ele>
        <time>2021-09-19T10:49:11Z</time>
      </trkpt>
      <trkpt lat="43.60542" lon="1.31171">
        <ele>186</ele>
        <time>2021-09-19T10:49:12Z</time>
      </trkpt>
      <trkpt lat="43.60542" lon="1.31166">
        <ele>186</ele>
        <time>2021-09-19T10:49:13Z</time>
      </trkpt>
      <trkpt lat="43.60542" lon="1.3116">
        <ele>186</ele>
        <time>2021-09-19T10:49:14Z</time>
      </trkpt>
      <trkpt lat="43.60542" lon="1.31155">
        <ele>186</ele>
        <time>2021-09-19T10:49:15Z</time>
      </trkpt>
      <trkpt lat="43.60541" lon="1.3115">
        <ele>186</ele>
        <time>2021-09-19T10:49:16Z</time>
      </trkpt>
      <trkpt lat="43.60541" lon="1.31145">
        <ele>186</ele>
        <time>2021-09-19T10:49:17Z</time>
      </trkpt>
      <trkpt lat="43.6054" lon="1.3114">
        <ele>186</ele>
        <time>2021-09-19T10:49:18Z</time>
      </trkpt>
      <trkpt lat="43.6054" lon="1.31135">
        <ele>186</ele>
        <time>2021-09-19T10:49:19Z</time>
      </trkpt>
      <trkpt lat="43.60539" lon="1.3113">
        <ele>186</ele>
        <time>2021-09-19T10:49:20Z</time>
      </trkpt>
      <trkpt lat="43.60538" lon="1.31124">
        <ele>186</ele>
        <time>2021-09-19T10:49:21Z</time>
      </trkpt>
      <trkpt lat="43.60537" lon="1.31119">
        <ele>186</ele>
        <time>2021-09-19T10:49:22Z</time>
      </trkpt>
      <trkpt lat="43.60536" lon="1.31114">
        <ele>186</ele>
        <time>2021-09-19T10:49:23Z</time>
      </trkpt>
      <trkpt lat="43.60535" lon="1.31109">
        <ele>186</ele>
        <time>2021-09-19T10:49:24Z</time>
      </trkpt>
      <trkpt lat="43.60534" lon="1.31104">
        <ele>186</ele>
        <time>2021-09-19T10:49:25Z</time>
      </trkpt>
      <trkpt lat="43.60532" lon="1.31099">
        <ele>186</ele>
        <time>2021-09-19T10:49:26Z</time>
      </trkpt>
      <trkpt lat="43.6053" lon="1.31094">
        <ele>186</ele>
        <time>2021-09-19T10:49:27Z</time>
      </trkpt>
      <trkpt lat="43.60528" lon="1.31089">
        <ele>186</ele>
        <time>2021-09-19T10:49:28Z</time>
      </trkpt>
      <trkpt lat="43.60527" lon="1.31084">
        <ele>186</ele>
        <time>2021-09-19T10:49:29Z</time>
      </trkpt>
      <trkpt lat="43.60525" lon="1.3108">
        <ele>186</ele>
        <time>2021-09-19T10:49:30Z</time>
      </trkpt>
      <trkpt lat="43.60522" lon="1.31075">
        <ele>186</ele>
        <time>2021-09-19T10:49:31Z</time>
      </trkpt>
      <trkpt lat="43.6052" lon="1.3107">
        <ele>186</ele>
        <time>2021-09-19T10:49:32Z</time>
      </trkpt>
      <trkpt lat="43.60518" lon="1.31066">
        <ele>186</ele>
        <time>2021-09-19T10:49:33Z</time>
      </trkpt>
      <trkpt lat="43.60515" lon="1.31061">
        <ele>186</ele>
        <time>2021-09-19T10:49:34Z</time>
      </trkpt>
      <trkpt lat="43.60513" lon="1.31056">
        <ele>186</ele>
        <time>2021-09-19T10:49:35Z</time>
      </trkpt>
      <trkpt lat="43.60511" lon="1.31051">
        <ele>186</ele>
        <time>2021-09-19T10:49:36Z</time>
      </trkpt>
      <trkpt lat="43.60508" lon="1.31046">
        <ele>185</ele>
        <time>2021-09-19T10:49:37Z</time>
      </trkpt>
      <trkpt lat="43.60506" lon="1.31041">
        <ele>186</ele>
        <time>2021-09-19T10:49:38Z</time>
      </trkpt>
      <trkpt lat="43.60504" lon="1.31036">
        <ele>186</ele>
        <time>2021-09-19T10:49:39Z</time>
      </trkpt>
      <trkpt lat="43.60502" lon="1.31031">
        <ele>186</ele>
        <time>2021-09-19T10:49:40Z</time>
      </trkpt>
      <trkpt lat="43.605" lon="1.31026">
        <ele>186</ele>
        <time>2021-09-19T10:49:41Z</time>
      </trkpt>
      <trkpt lat="43.60498" lon="1.31021">
        <ele>186</ele>
        <time>2021-09-19T10:49:42Z</time>
      </trkpt>
      <trkpt lat="43.60496" lon="1.31016">
        <ele>186</ele>
        <time>2021-09-19T10:49:43Z</time>
      </trkpt>
      <trkpt lat="43.60494" lon="1.31011">
        <ele>186</ele>
        <time>2021-09-19T10:49:44Z</time>
      </trkpt>
      <trkpt lat="43.60492" lon="1.31006">
        <ele>186</ele>
        <time>2021-09-19T10:49:45Z</time>
      </trkpt>
      <trkpt lat="43.6049" lon="1.31001">
        <ele>186</ele>
        <time>2021-09-19T10:49:46Z</time>
      </trkpt>
      <trkpt lat="43.60488" lon="1.30996">
        <ele>186</ele>
        <time>2021-09-19T10:49:47Z</time>
      </trkpt>
      <trkpt lat="43.60486" lon="1.30991">
        <ele>186</ele>
        <time>2021-09-19T10:49:48Z</time>
      </trkpt>
      <trkpt lat="43.60484" lon="1.30986">
        <ele>186</ele>
        <time>2021-09-19T10:49:49Z</time>
      </trkpt>
      <trkpt lat="43.60482" lon="1.30982">
        <ele>186</ele>
        <time>2021-09-19T10:49:50Z</time>
      </trkpt>
      <trkpt lat="43.6048" lon="1.30977">
        <ele>186</ele>
        <time>2021-09-19T10:49:51Z</time>
      </trkpt>
      <trkpt lat="43.60478" lon="1.30972">
        <ele>185</ele>
        <time>2021-09-19T10:49:52Z</time>
      </trkpt>
      <trkpt lat="43.60476" lon="1.30967">
        <ele>185</ele>
        <time>2021-09-19T10:49:53Z</time>
      </trkpt>
      <trkpt lat="43.60474" lon="1.30961">
        <ele>185</ele>
        <time>2021-09-19T10:49:54Z</time>
      </trkpt>
      <trkpt lat="43.60472" lon="1.30956">
        <ele>185</ele>
        <time>2021-09-19T10:49:55Z</time>
      </trkpt>
      <trkpt lat="43.6047" lon="1.30951">
        <ele>185</ele>
        <time>2021-09-19T10:49:56Z</time>
      </trkpt>
      <trkpt lat="43.60468" lon="1.30946">
        <ele>186</ele>
        <time>2021-09-19T10:49:57Z</time>
      </trkpt>
      <trkpt lat="43.60466" lon="1.30941">
        <ele>186</ele>
        <time>2021-09-19T10:49:58Z</time>
      </trkpt>
      <trkpt lat="43.60464" lon="1.30936">
        <ele>186</ele>
        <time>2021-09-19T10:49:59Z</time>
      </trkpt>
      <trkpt lat="43.60462" lon="1.30931">
        <ele>185</ele>
        <time>2021-09-19T10:50:00Z</time>
      </trkpt>
      <trkpt lat="43.60461" lon="1.30926">
        <ele>185</ele>
        <time>2021-09-19T10:50:01Z</time>
      </trkpt>
      <trkpt lat="43.60459" lon="1.30921">
        <ele>185</ele>
        <time>2021-09-19T10:50:02Z</time>
      </trkpt>
      <trkpt lat="43.60457" lon="1.30916">
        <ele>185</ele>
        <time>2021-09-19T10:50:03Z</time>
      </trkpt>
      <trkpt lat="43.60456" lon="1.3091">
        <ele>185</ele>
        <time>2021-09-19T10:50:04Z</time>
      </trkpt>
      <trkpt lat="43.60454" lon="1.30904">
        <ele>185</ele>
        <time>2021-09-19T10:50:05Z</time>
      </trkpt>
      <trkpt lat="43.60452" lon="1.30899">
        <ele>185</ele>
        <time>2021-09-19T10:50:06Z</time>
      </trkpt>
      <trkpt lat="43.60451" lon="1.30893">
        <ele>185</ele>
        <time>2021-09-19T10:50:07Z</time>
      </trkpt>
      <trkpt lat="43.6045" lon="1.30888">
        <ele>185</ele>
        <time>2021-09-19T10:50:08Z</time>
      </trkpt>
      <trkpt lat="43.60448" lon="1.30883">
        <ele>186</ele>
        <time>2021-09-19T10:50:09Z</time>
      </trkpt>
      <trkpt lat="43.60447" lon="1.30878">
        <ele>186</ele>
        <time>2021-09-19T10:50:10Z</time>
      </trkpt>
      <trkpt lat="43.60446" lon="1.30873">
        <ele>186</ele>
        <time>2021-09-19T10:50:11Z</time>
      </trkpt>
      <trkpt lat="43.60443" lon="1.30862">
        <ele>186</ele>
        <time>2021-09-19T10:50:13Z</time>
      </trkpt>
      <trkpt lat="43.60442" lon="1.30857">
        <ele>186</ele>
        <time>2021-09-19T10:50:14Z</time>
      </trkpt>
      <trkpt lat="43.60442" lon="1.30851">
        <ele>186</ele>
        <time>2021-09-19T10:50:15Z</time>
      </trkpt>
      <trkpt lat="43.60443" lon="1.30846">
        <ele>187</ele>
        <time>2021-09-19T10:50:16Z</time>
      </trkpt>
      <trkpt lat="43.60443" lon="1.30841">
        <ele>187</ele>
        <time>2021-09-19T10:50:17Z</time>
      </trkpt>
      <trkpt lat="43.60444" lon="1.30836">
        <ele>186</ele>
        <time>2021-09-19T10:50:18Z</time>
      </trkpt>
      <trkpt lat="43.60445" lon="1.30831">
        <ele>186</ele>
        <time>2021-09-19T10:50:19Z</time>
      </trkpt>
      <trkpt lat="43.60446" lon="1.30827">
        <ele>186</ele>
        <time>2021-09-19T10:50:20Z</time>
      </trkpt>
      <trkpt lat="43.60446" lon="1.30822">
        <ele>186</ele>
        <time>2021-09-19T10:50:21Z</time>
      </trkpt>
      <trkpt lat="43.60445" lon="1.30818">
        <ele>186</ele>
        <time>2021-09-19T10:50:22Z</time>
      </trkpt>
      <trkpt lat="43.60444" lon="1.30814">
        <ele>186</ele>
        <time>2021-09-19T10:50:23Z</time>
      </trkpt>
      <trkpt lat="43.60442" lon="1.30811">
        <ele>186</ele>
        <time>2021-09-19T10:50:24Z</time>
      </trkpt>
      <trkpt lat="43.60439" lon="1.30809">
        <ele>186</ele>
        <time>2021-09-19T10:50:25Z</time>
      </trkpt>
      <trkpt lat="43.60436" lon="1.30806">
        <ele>186</ele>
        <time>2021-09-19T10:50:26Z</time>
      </trkpt>
      <trkpt lat="43.60433" lon="1.30803">
        <ele>186</ele>
        <time>2021-09-19T10:50:27Z</time>
      </trkpt>
      <trkpt lat="43.60431" lon="1.308">
        <ele>186</ele>
        <time>2021-09-19T10:50:28Z</time>
      </trkpt>
      <trkpt lat="43.60429" lon="1.30796">
        <ele>186</ele>
        <time>2021-09-19T10:50:29Z</time>
      </trkpt>
      <trkpt lat="43.60427" lon="1.30791">
        <ele>186</ele>
        <time>2021-09-19T10:50:30Z</time>
      </trkpt>
      <trkpt lat="43.60425" lon="1.30787">
        <ele>186</ele>
        <time>2021-09-19T10:50:31Z</time>
      </trkpt>
      <trkpt lat="43.60424" lon="1.30782">
        <ele>186</ele>
        <time>2021-09-19T10:50:32Z</time>
      </trkpt>
      <trkpt lat="43.60423" lon="1.30777">
        <ele>186</ele>
        <time>2021-09-19T10:50:33Z</time>
      </trkpt>
      <trkpt lat="43.60422" lon="1.30772">
        <ele>186</ele>
        <time>2021-09-19T10:50:34Z</time>
      </trkpt>
      <trkpt lat="43.60421" lon="1.30768">
        <ele>186</ele>
        <time>2021-09-19T10:50:35Z</time>
      </trkpt>
      <trkpt lat="43.6042" lon="1.30763">
        <ele>186</ele>
        <time>2021-09-19T10:50:36Z</time>
      </trkpt>
      <trkpt lat="43.60419" lon="1.30759">
        <ele>186</ele>
        <time>2021-09-19T10:50:37Z</time>
      </trkpt>
      <trkpt lat="43.60418" lon="1.30754">
        <ele>186</ele>
        <time>2021-09-19T10:50:38Z</time>
      </trkpt>
      <trkpt lat="43.60417" lon="1.3075">
        <ele>186</ele>
        <time>2021-09-19T10:50:39Z</time>
      </trkpt>
      <trkpt lat="43.60416" lon="1.30746">
        <ele>186</ele>
        <time>2021-09-19T10:50:40Z</time>
      </trkpt>
      <trkpt lat="43.60414" lon="1.30742">
        <ele>186</ele>
        <time>2021-09-19T10:50:41Z</time>
      </trkpt>
      <trkpt lat="43.60413" lon="1.30738">
        <ele>186</ele>
        <time>2021-09-19T10:50:42Z</time>
      </trkpt>
      <trkpt lat="43.60412" lon="1.30734">
        <ele>186</ele>
        <time>2021-09-19T10:50:43Z</time>
      </trkpt>
      <trkpt lat="43.60411" lon="1.3073">
        <ele>186</ele>
        <time>2021-09-19T10:50:44Z</time>
      </trkpt>
      <trkpt lat="43.6041" lon="1.30726">
        <ele>186</ele>
        <time>2021-09-19T10:50:45Z</time>
      </trkpt>
      <trkpt lat="43.60409" lon="1.30722">
        <ele>186</ele>
        <time>2021-09-19T10:50:46Z</time>
      </trkpt>
      <trkpt lat="43.60408" lon="1.30718">
        <ele>186</ele>
        <time>2021-09-19T10:50:47Z</time>
      </trkpt>
      <trkpt lat="43.60406" lon="1.30714">
        <ele>186</ele>
        <time>2021-09-19T10:50:48Z</time>
      </trkpt>
      <trkpt lat="43.60404" lon="1.3071">
        <ele>186</ele>
        <time>2021-09-19T10:50:49Z</time>
      </trkpt>
      <trkpt lat="43.60402" lon="1.30707">
        <ele>186</ele>
        <time>2021-09-19T10:50:50Z</time>
      </trkpt>
      <trkpt lat="43.604" lon="1.30704">
        <ele>186</ele>
        <time>2021-09-19T10:50:51Z</time>
      </trkpt>
      <trkpt lat="43.60398" lon="1.307">
        <ele>186</ele>
        <time>2021-09-19T10:50:52Z</time>
      </trkpt>
      <trkpt lat="43.60396" lon="1.30696">
        <ele>186</ele>
        <time>2021-09-19T10:50:53Z</time>
      </trkpt>
      <trkpt lat="43.60395" lon="1.30693">
        <ele>186</ele>
        <time>2021-09-19T10:50:54Z</time>
      </trkpt>
      <trkpt lat="43.60394" lon="1.3069">
        <ele>187</ele>
        <time>2021-09-19T10:50:55Z</time>
      </trkpt>
      <trkpt lat="43.60393" lon="1.30686">
        <ele>187</ele>
        <time>2021-09-19T10:50:57Z</time>
      </trkpt>
      <trkpt lat="43.60392" lon="1.30683">
        <ele>187</ele>
        <time>2021-09-19T10:50:59Z</time>
      </trkpt>
      <trkpt lat="43.60393" lon="1.30681">
        <ele>187</ele>
        <time>2021-09-19T10:51:01Z</time>
      </trkpt>
      <trkpt lat="43.60395" lon="1.30683">
        <ele>186</ele>
        <time>2021-09-19T10:51:04Z</time>
      </trkpt>
      <trkpt lat="43.60396" lon="1.30686">
        <ele>186</ele>
        <time>2021-09-19T10:51:08Z</time>
      </trkpt>
      <trkpt lat="43.60398" lon="1.30688">
        <ele>186</ele>
        <time>2021-09-19T10:51:10Z</time>
      </trkpt>
      <trkpt lat="43.604" lon="1.30688">
        <ele>186</ele>
        <time>2021-09-19T10:51:14Z</time>
      </trkpt>
      <trkpt lat="43.60402" lon="1.30688">
        <ele>186</ele>
        <time>2021-09-19T10:51:20Z</time>
      </trkpt>
      <trkpt lat="43.60406" lon="1.30687">
        <ele>186</ele>
        <time>2021-09-19T10:51:22Z</time>
      </trkpt>
      <trkpt lat="43.60407" lon="1.30688">
        <ele>186</ele>
        <time>2021-09-19T10:51:23Z</time>
      </trkpt>
      <trkpt lat="43.60409" lon="1.3069">
        <ele>186</ele>
        <time>2021-09-19T10:51:24Z</time>
      </trkpt>
      <trkpt lat="43.60411" lon="1.30693">
        <ele>186</ele>
        <time>2021-09-19T10:51:25Z</time>
      </trkpt>
      <trkpt lat="43.60414" lon="1.30696">
        <ele>187</ele>
        <time>2021-09-19T10:51:26Z</time>
      </trkpt>
      <trkpt lat="43.60417" lon="1.30698">
        <ele>187</ele>
        <time>2021-09-19T10:51:27Z</time>
      </trkpt>
      <trkpt lat="43.6042" lon="1.307">
        <ele>187</ele>
        <time>2021-09-19T10:51:28Z</time>
      </trkpt>
      <trkpt lat="43.60424" lon="1.30702">
        <ele>187</ele>
        <time>2021-09-19T10:51:29Z</time>
      </trkpt>
      <trkpt lat="43.60427" lon="1.30703">
        <ele>187</ele>
        <time>2021-09-19T10:51:30Z</time>
      </trkpt>
      <trkpt lat="43.60431" lon="1.30704">
        <ele>187</ele>
        <time>2021-09-19T10:51:31Z</time>
      </trkpt>
      <trkpt lat="43.60434" lon="1.30704">
        <ele>187</ele>
        <time>2021-09-19T10:51:32Z</time>
      </trkpt>
      <trkpt lat="43.60438" lon="1.30705">
        <ele>187</ele>
        <time>2021-09-19T10:51:33Z</time>
      </trkpt>
      <trkpt lat="43.60442" lon="1.30705">
        <ele>187</ele>
        <time>2021-09-19T10:51:34Z</time>
      </trkpt>
      <trkpt lat="43.60445" lon="1.30705">
        <ele>187</ele>
        <time>2021-09-19T10:51:35Z</time>
      </trkpt>
      <trkpt lat="43.60449" lon="1.30705">
        <ele>187</ele>
        <time>2021-09-19T10:51:36Z</time>
      </trkpt>
      <trkpt lat="43.60452" lon="1.30705">
        <ele>187</ele>
        <time>2021-09-19T10:51:37Z</time>
      </trkpt>
      <trkpt lat="43.60456" lon="1.30704">
        <ele>187</ele>
        <time>2021-09-19T10:51:38Z</time>
      </trkpt>
      <trkpt lat="43.60459" lon="1.30703">
        <ele>186</ele>
        <time>2021-09-19T10:51:39Z</time>
      </trkpt>
      <trkpt lat="43.60462" lon="1.30703">
        <ele>187</ele>
        <time>2021-09-19T10:51:40Z</time>
      </trkpt>
      <trkpt lat="43.60466" lon="1.30701">
        <ele>187</ele>
        <time>2021-09-19T10:51:41Z</time>
      </trkpt>
      <trkpt lat="43.60468" lon="1.30699">
        <ele>187</ele>
        <time>2021-09-19T10:51:42Z</time>
      </trkpt>
      <trkpt lat="43.60471" lon="1.30697">
        <ele>188</ele>
        <time>2021-09-19T10:51:43Z</time>
      </trkpt>
      <trkpt lat="43.60474" lon="1.30694">
        <ele>189</ele>
        <time>2021-09-19T10:51:44Z</time>
      </trkpt>
      <trkpt lat="43.60476" lon="1.30691">
        <ele>189</ele>
        <time>2021-09-19T10:51:45Z</time>
      </trkpt>
      <trkpt lat="43.60479" lon="1.30689">
        <ele>189</ele>
        <time>2021-09-19T10:51:46Z</time>
      </trkpt>
      <trkpt lat="43.60482" lon="1.30687">
        <ele>189</ele>
        <time>2021-09-19T10:51:47Z</time>
      </trkpt>
      <trkpt lat="43.60485" lon="1.30685">
        <ele>189</ele>
        <time>2021-09-19T10:51:48Z</time>
      </trkpt>
      <trkpt lat="43.60488" lon="1.30685">
        <ele>189</ele>
        <time>2021-09-19T10:51:49Z</time>
      </trkpt>
      <trkpt lat="43.60492" lon="1.30684">
        <ele>189</ele>
        <time>2021-09-19T10:51:50Z</time>
      </trkpt>
      <trkpt lat="43.60495" lon="1.30682">
        <ele>189</ele>
        <time>2021-09-19T10:51:51Z</time>
      </trkpt>
      <trkpt lat="43.60498" lon="1.3068">
        <ele>189</ele>
        <time>2021-09-19T10:51:52Z</time>
      </trkpt>
      <trkpt lat="43.60501" lon="1.30678">
        <ele>189</ele>
        <time>2021-09-19T10:51:53Z</time>
      </trkpt>
      <trkpt lat="43.60503" lon="1.30675">
        <ele>189</ele>
        <time>2021-09-19T10:51:54Z</time>
      </trkpt>
      <trkpt lat="43.60506" lon="1.30671">
        <ele>188</ele>
        <time>2021-09-19T10:51:55Z</time>
      </trkpt>
      <trkpt lat="43.60508" lon="1.30668">
        <ele>189</ele>
        <time>2021-09-19T10:51:56Z</time>
      </trkpt>
      <trkpt lat="43.6051" lon="1.30664">
        <ele>190</ele>
        <time>2021-09-19T10:51:57Z</time>
      </trkpt>
      <trkpt lat="43.60512" lon="1.3066">
        <ele>190</ele>
        <time>2021-09-19T10:51:58Z</time>
      </trkpt>
      <trkpt lat="43.60514" lon="1.30657">
        <ele>190</ele>
        <time>2021-09-19T10:51:59Z</time>
      </trkpt>
      <trkpt lat="43.60515" lon="1.30654">
        <ele>191</ele>
        <time>2021-09-19T10:52:00Z</time>
      </trkpt>
      <trkpt lat="43.60516" lon="1.3065">
        <ele>191</ele>
        <time>2021-09-19T10:52:01Z</time>
      </trkpt>
      <trkpt lat="43.60518" lon="1.30647">
        <ele>191</ele>
        <time>2021-09-19T10:52:02Z</time>
      </trkpt>
      <trkpt lat="43.6052" lon="1.30644">
        <ele>191</ele>
        <time>2021-09-19T10:52:03Z</time>
      </trkpt>
      <trkpt lat="43.60522" lon="1.30642">
        <ele>191</ele>
        <time>2021-09-19T10:52:04Z</time>
      </trkpt>
      <trkpt lat="43.60524" lon="1.30638">
        <ele>191</ele>
        <time>2021-09-19T10:52:05Z</time>
      </trkpt>
      <trkpt lat="43.60527" lon="1.30635">
        <ele>191</ele>
        <time>2021-09-19T10:52:06Z</time>
      </trkpt>
      <trkpt lat="43.60529" lon="1.30631">
        <ele>192</ele>
        <time>2021-09-19T10:52:07Z</time>
      </trkpt>
      <trkpt lat="43.60531" lon="1.30628">
        <ele>192</ele>
        <time>2021-09-19T10:52:08Z</time>
      </trkpt>
      <trkpt lat="43.60533" lon="1.30625">
        <ele>191</ele>
        <time>2021-09-19T10:52:09Z</time>
      </trkpt>
      <trkpt lat="43.60536" lon="1.30622">
        <ele>191</ele>
        <time>2021-09-19T10:52:10Z</time>
      </trkpt>
      <trkpt lat="43.60538" lon="1.30619">
        <ele>191</ele>
        <time>2021-09-19T10:52:11Z</time>
      </trkpt>
      <trkpt lat="43.6054" lon="1.30616">
        <ele>191</ele>
        <time>2021-09-19T10:52:12Z</time>
      </trkpt>
      <trkpt lat="43.60543" lon="1.30613">
        <ele>191</ele>
        <time>2021-09-19T10:52:13Z</time>
      </trkpt>
      <trkpt lat="43.60545" lon="1.3061">
        <ele>191</ele>
        <time>2021-09-19T10:52:14Z</time>
      </trkpt>
      <trkpt lat="43.60548" lon="1.30608">
        <ele>192</ele>
        <time>2021-09-19T10:52:15Z</time>
      </trkpt>
      <trkpt lat="43.6055" lon="1.30605">
        <ele>192</ele>
        <time>2021-09-19T10:52:16Z</time>
      </trkpt>
      <trkpt lat="43.60553" lon="1.30603">
        <ele>192</ele>
        <time>2021-09-19T10:52:17Z</time>
      </trkpt>
      <trkpt lat="43.60555" lon="1.30601">
        <ele>192</ele>
        <time>2021-09-19T10:52:18Z</time>
      </trkpt>
      <trkpt lat="43.60558" lon="1.30599">
        <ele>192</ele>
        <time>2021-09-19T10:52:19Z</time>
      </trkpt>
      <trkpt lat="43.60561" lon="1.30597">
        <ele>192</ele>
        <time>2021-09-19T10:52:20Z</time>
      </trkpt>
      <trkpt lat="43.60563" lon="1.30595">
        <ele>192</ele>
        <time>2021-09-19T10:52:21Z</time>
      </trkpt>
      <trkpt lat="43.60566" lon="1.30593">
        <ele>192</ele>
        <time>2021-09-19T10:52:22Z</time>
      </trkpt>
      <trkpt lat="43.60569" lon="1.30592">
        <ele>192</ele>
        <time>2021-09-19T10:52:23Z</time>
      </trkpt>
      <trkpt lat="43.60572" lon="1.3059">
        <ele>192</ele>
        <time>2021-09-19T10:52:24Z</time>
      </trkpt>
      <trkpt lat="43.60575" lon="1.30589">
        <ele>192</ele>
        <time>2021-09-19T10:52:25Z</time>
      </trkpt>
      <trkpt lat="43.60578" lon="1.30588">
        <ele>192</ele>
        <time>2021-09-19T10:52:26Z</time>
      </trkpt>
      <trkpt lat="43.6058" lon="1.30587">
        <ele>192</ele>
        <time>2021-09-19T10:52:27Z</time>
      </trkpt>
      <trkpt lat="43.60582" lon="1.30586">
        <ele>192</ele>
        <time>2021-09-19T10:52:28Z</time>
      </trkpt>
      <trkpt lat="43.60584" lon="1.30585">
        <ele>192</ele>
        <time>2021-09-19T10:52:29Z</time>
      </trkpt>
      <trkpt lat="43.60586" lon="1.30585">
        <ele>192</ele>
        <time>2021-09-19T10:52:30Z</time>
      </trkpt>
      <trkpt lat="43.60589" lon="1.30584">
        <ele>192</ele>
        <time>2021-09-19T10:52:31Z</time>
      </trkpt>
      <trkpt lat="43.60592" lon="1.30584">
        <ele>192</ele>
        <time>2021-09-19T10:52:32Z</time>
      </trkpt>
      <trkpt lat="43.60595" lon="1.30583">
        <ele>192</ele>
        <time>2021-09-19T10:52:33Z</time>
      </trkpt>
      <trkpt lat="43.60599" lon="1.30583">
        <ele>192</ele>
        <time>2021-09-19T10:52:34Z</time>
      </trkpt>
      <trkpt lat="43.60602" lon="1.30583">
        <ele>192</ele>
        <time>2021-09-19T10:52:35Z</time>
      </trkpt>
      <trkpt lat="43.60605" lon="1.30582">
        <ele>192</ele>
        <time>2021-09-19T10:52:36Z</time>
      </trkpt>
      <trkpt lat="43.60609" lon="1.30582">
        <ele>192</ele>
        <time>2021-09-19T10:52:37Z</time>
      </trkpt>
      <trkpt lat="43.60612" lon="1.30582">
        <ele>192</ele>
        <time>2021-09-19T10:52:38Z</time>
      </trkpt>
      <trkpt lat="43.60616" lon="1.30583">
        <ele>192</ele>
        <time>2021-09-19T10:52:39Z</time>
      </trkpt>
      <trkpt lat="43.60619" lon="1.30583">
        <ele>192</ele>
        <time>2021-09-19T10:52:40Z</time>
      </trkpt>
      <trkpt lat="43.60622" lon="1.30583">
        <ele>192</ele>
        <time>2021-09-19T10:52:41Z</time>
      </trkpt>
      <trkpt lat="43.60626" lon="1.30584">
        <ele>192</ele>
        <time>2021-09-19T10:52:42Z</time>
      </trkpt>
      <trkpt lat="43.60629" lon="1.30585">
        <ele>192</ele>
        <time>2021-09-19T10:52:43Z</time>
      </trkpt>
      <trkpt lat="43.60633" lon="1.30586">
        <ele>192</ele>
        <time>2021-09-19T10:52:44Z</time>
      </trkpt>
      <trkpt lat="43.60636" lon="1.30587">
        <ele>192</ele>
        <time>2021-09-19T10:52:45Z</time>
      </trkpt>
      <trkpt lat="43.6064" lon="1.30588">
        <ele>193</ele>
        <time>2021-09-19T10:52:46Z</time>
      </trkpt>
      <trkpt lat="43.60643" lon="1.3059">
        <ele>193</ele>
        <time>2021-09-19T10:52:47Z</time>
      </trkpt>
      <trkpt lat="43.60646" lon="1.30591">
        <ele>193</ele>
        <time>2021-09-19T10:52:48Z</time>
      </trkpt>
      <trkpt lat="43.6065" lon="1.30593">
        <ele>193</ele>
        <time>2021-09-19T10:52:49Z</time>
      </trkpt>
      <trkpt lat="43.60654" lon="1.30595">
        <ele>193</ele>
        <time>2021-09-19T10:52:50Z</time>
      </trkpt>
      <trkpt lat="43.60658" lon="1.30597">
        <ele>192</ele>
        <time>2021-09-19T10:52:51Z</time>
      </trkpt>
      <trkpt lat="43.60662" lon="1.306">
        <ele>192</ele>
        <time>2021-09-19T10:52:52Z</time>
      </trkpt>
      <trkpt lat="43.60665" lon="1.30603">
        <ele>192</ele>
        <time>2021-09-19T10:52:53Z</time>
      </trkpt>
      <trkpt lat="43.60669" lon="1.30605">
        <ele>192</ele>
        <time>2021-09-19T10:52:54Z</time>
      </trkpt>
      <trkpt lat="43.60673" lon="1.30608">
        <ele>192</ele>
        <time>2021-09-19T10:52:55Z</time>
      </trkpt>
      <trkpt lat="43.60677" lon="1.30612">
        <ele>192</ele>
        <time>2021-09-19T10:52:56Z</time>
      </trkpt>
      <trkpt lat="43.60681" lon="1.30615">
        <ele>192</ele>
        <time>2021-09-19T10:52:57Z</time>
      </trkpt>
      <trkpt lat="43.60684" lon="1.30619">
        <ele>191</ele>
        <time>2021-09-19T10:52:58Z</time>
      </trkpt>
      <trkpt lat="43.60688" lon="1.30623">
        <ele>191</ele>
        <time>2021-09-19T10:52:59Z</time>
      </trkpt>
      <trkpt lat="43.60692" lon="1.30626">
        <ele>192</ele>
        <time>2021-09-19T10:53:00Z</time>
      </trkpt>
      <trkpt lat="43.60695" lon="1.3063">
        <ele>192</ele>
        <time>2021-09-19T10:53:01Z</time>
      </trkpt>
      <trkpt lat="43.60699" lon="1.30633">
        <ele>192</ele>
        <time>2021-09-19T10:53:02Z</time>
      </trkpt>
      <trkpt lat="43.60703" lon="1.30636">
        <ele>192</ele>
        <time>2021-09-19T10:53:03Z</time>
      </trkpt>
      <trkpt lat="43.60708" lon="1.30638">
        <ele>192</ele>
        <time>2021-09-19T10:53:04Z</time>
      </trkpt>
      <trkpt lat="43.60712" lon="1.3064">
        <ele>192</ele>
        <time>2021-09-19T10:53:05Z</time>
      </trkpt>
      <trkpt lat="43.60716" lon="1.30642">
        <ele>192</ele>
        <time>2021-09-19T10:53:06Z</time>
      </trkpt>
      <trkpt lat="43.6072" lon="1.30644">
        <ele>192</ele>
        <time>2021-09-19T10:53:07Z</time>
      </trkpt>
      <trkpt lat="43.60724" lon="1.30644">
        <ele>191</ele>
        <time>2021-09-19T10:53:08Z</time>
      </trkpt>
      <trkpt lat="43.60727" lon="1.30643">
        <ele>191</ele>
        <time>2021-09-19T10:53:09Z</time>
      </trkpt>
      <trkpt lat="43.60731" lon="1.30642">
        <ele>190</ele>
        <time>2021-09-19T10:53:10Z</time>
      </trkpt>
      <trkpt lat="43.60734" lon="1.30642">
        <ele>190</ele>
        <time>2021-09-19T10:53:11Z</time>
      </trkpt>
      <trkpt lat="43.60737" lon="1.30643">
        <ele>190</ele>
        <time>2021-09-19T10:53:12Z</time>
      </trkpt>
      <trkpt lat="43.6074" lon="1.30644">
        <ele>189</ele>
        <time>2021-09-19T10:53:13Z</time>
      </trkpt>
      <trkpt lat="43.60744" lon="1.30645">
        <ele>187</ele>
        <time>2021-09-19T10:53:14Z</time>
      </trkpt>
      <trkpt lat="43.60747" lon="1.30646">
        <ele>186</ele>
        <time>2021-09-19T10:53:15Z</time>
      </trkpt>
      <trkpt lat="43.6075" lon="1.30649">
        <ele>186</ele>
        <time>2021-09-19T10:53:16Z</time>
      </trkpt>
      <trkpt lat="43.60752" lon="1.30653">
        <ele>187</ele>
        <time>2021-09-19T10:53:17Z</time>
      </trkpt>
      <trkpt lat="43.60755" lon="1.30657">
        <ele>187</ele>
        <time>2021-09-19T10:53:18Z</time>
      </trkpt>
      <trkpt lat="43.60757" lon="1.30661">
        <ele>188</ele>
        <time>2021-09-19T10:53:19Z</time>
      </trkpt>
      <trkpt lat="43.60759" lon="1.30664">
        <ele>188</ele>
        <time>2021-09-19T10:53:20Z</time>
      </trkpt>
      <trkpt lat="43.60762" lon="1.30667">
        <ele>188</ele>
        <time>2021-09-19T10:53:21Z</time>
      </trkpt>
      <trkpt lat="43.60766" lon="1.30669">
        <ele>188</ele>
        <time>2021-09-19T10:53:22Z</time>
      </trkpt>
      <trkpt lat="43.6077" lon="1.3067">
        <ele>187</ele>
        <time>2021-09-19T10:53:23Z</time>
      </trkpt>
      <trkpt lat="43.60773" lon="1.30672">
        <ele>186</ele>
        <time>2021-09-19T10:53:24Z</time>
      </trkpt>
      <trkpt lat="43.60777" lon="1.30673">
        <ele>187</ele>
        <time>2021-09-19T10:53:25Z</time>
      </trkpt>
      <trkpt lat="43.60781" lon="1.30675">
        <ele>187</ele>
        <time>2021-09-19T10:53:26Z</time>
      </trkpt>
      <trkpt lat="43.60785" lon="1.30677">
        <ele>187</ele>
        <time>2021-09-19T10:53:27Z</time>
      </trkpt>
      <trkpt lat="43.60789" lon="1.30679">
        <ele>187</ele>
        <time>2021-09-19T10:53:28Z</time>
      </trkpt>
      <trkpt lat="43.60794" lon="1.30681">
        <ele>187</ele>
        <time>2021-09-19T10:53:29Z</time>
      </trkpt>
      <trkpt lat="43.60798" lon="1.30683">
        <ele>187</ele>
        <time>2021-09-19T10:53:30Z</time>
      </trkpt>
      <trkpt lat="43.60803" lon="1.30685">
        <ele>187</ele>
        <time>2021-09-19T10:53:31Z</time>
      </trkpt>
      <trkpt lat="43.60807" lon="1.30688">
        <ele>186</ele>
        <time>2021-09-19T10:53:32Z</time>
      </trkpt>
      <trkpt lat="43.60812" lon="1.30691">
        <ele>186</ele>
        <time>2021-09-19T10:53:33Z</time>
      </trkpt>
      <trkpt lat="43.60816" lon="1.30694">
        <ele>186</ele>
        <time>2021-09-19T10:53:34Z</time>
      </trkpt>
      <trkpt lat="43.60821" lon="1.30696">
        <ele>186</ele>
        <time>2021-09-19T10:53:35Z</time>
      </trkpt>
      <trkpt lat="43.60825" lon="1.30699">
        <ele>186</ele>
        <time>2021-09-19T10:53:36Z</time>
      </trkpt>
      <trkpt lat="43.60828" lon="1.30702">
        <ele>186</ele>
        <time>2021-09-19T10:53:37Z</time>
      </trkpt>
      <trkpt lat="43.60832" lon="1.30705">
        <ele>186</ele>
        <time>2021-09-19T10:53:38Z</time>
      </trkpt>
      <trkpt lat="43.60836" lon="1.30707">
        <ele>186</ele>
        <time>2021-09-19T10:53:39Z</time>
      </trkpt>
      <trkpt lat="43.6084" lon="1.3071">
        <ele>186</ele>
        <time>2021-09-19T10:53:40Z</time>
      </trkpt>
      <trkpt lat="43.60844" lon="1.30713">
        <ele>186</ele>
        <time>2021-09-19T10:53:41Z</time>
      </trkpt>
      <trkpt lat="43.60847" lon="1.30715">
        <ele>186</ele>
        <time>2021-09-19T10:53:42Z</time>
      </trkpt>
      <trkpt lat="43.60851" lon="1.30718">
        <ele>186</ele>
        <time>2021-09-19T10:53:43Z</time>
      </trkpt>
      <trkpt lat="43.60855" lon="1.3072">
        <ele>186</ele>
        <time>2021-09-19T10:53:44Z</time>
      </trkpt>
      <trkpt lat="43.60859" lon="1.30723">
        <ele>186</ele>
        <time>2021-09-19T10:53:45Z</time>
      </trkpt>
      <trkpt lat="43.60862" lon="1.30725">
        <ele>186</ele>
        <time>2021-09-19T10:53:46Z</time>
      </trkpt>
      <trkpt lat="43.60866" lon="1.30729">
        <ele>186</ele>
        <time>2021-09-19T10:53:47Z</time>
      </trkpt>
      <trkpt lat="43.60869" lon="1.30732">
        <ele>186</ele>
        <time>2021-09-19T10:53:48Z</time>
      </trkpt>
      <trkpt lat="43.60873" lon="1.30736">
        <ele>186</ele>
        <time>2021-09-19T10:53:49Z</time>
      </trkpt>
      <trkpt lat="43.60876" lon="1.30739">
        <ele>186</ele>
        <time>2021-09-19T10:53:50Z</time>
      </trkpt>
      <trkpt lat="43.6088" lon="1.30741">
        <ele>186</ele>
        <time>2021-09-19T10:53:51Z</time>
      </trkpt>
      <trkpt lat="43.60884" lon="1.30744">
        <ele>186</ele>
        <time>2021-09-19T10:53:52Z</time>
      </trkpt>
      <trkpt lat="43.60888" lon="1.30747">
        <ele>186</ele>
        <time>2021-09-19T10:53:53Z</time>
      </trkpt>
      <trkpt lat="43.60891" lon="1.30749">
        <ele>186</ele>
        <time>2021-09-19T10:53:54Z</time>
      </trkpt>
      <trkpt lat="43.60895" lon="1.30752">
        <ele>186</ele>
        <time>2021-09-19T10:53:55Z</time>
      </trkpt>
      <trkpt lat="43.60899" lon="1.30754">
        <ele>186</ele>
        <time>2021-09-19T10:53:56Z</time>
      </trkpt>
      <trkpt lat="43.60902" lon="1.30757">
        <ele>186</ele>
        <time>2021-09-19T10:53:57Z</time>
      </trkpt>
      <trkpt lat="43.60906" lon="1.30759">
        <ele>186</ele>
        <time>2021-09-19T10:53:58Z</time>
      </trkpt>
      <trkpt lat="43.60909" lon="1.30761">
        <ele>186</ele>
        <time>2021-09-19T10:53:59Z</time>
      </trkpt>
      <trkpt lat="43.60913" lon="1.30763">
        <ele>186</ele>
        <time>2021-09-19T10:54:00Z</time>
      </trkpt>
      <trkpt lat="43.60917" lon="1.30766">
        <ele>186</ele>
        <time>2021-09-19T10:54:01Z</time>
      </trkpt>
      <trkpt lat="43.6092" lon="1.30769">
        <ele>186</ele>
        <time>2021-09-19T10:54:02Z</time>
      </trkpt>
      <trkpt lat="43.60924" lon="1.30771">
        <ele>186</ele>
        <time>2021-09-19T10:54:03Z</time>
      </trkpt>
      <trkpt lat="43.60927" lon="1.30774">
        <ele>186</ele>
        <time>2021-09-19T10:54:04Z</time>
      </trkpt>
      <trkpt lat="43.60931" lon="1.30776">
        <ele>186</ele>
        <time>2021-09-19T10:54:05Z</time>
      </trkpt>
      <trkpt lat="43.60935" lon="1.30778">
        <ele>186</ele>
        <time>2021-09-19T10:54:06Z</time>
      </trkpt>
      <trkpt lat="43.60938" lon="1.30779">
        <ele>186</ele>
        <time>2021-09-19T10:54:07Z</time>
      </trkpt>
      <trkpt lat="43.60942" lon="1.3078">
        <ele>186</ele>
        <time>2021-09-19T10:54:08Z</time>
      </trkpt>
      <trkpt lat="43.60946" lon="1.3078">
        <ele>186</ele>
        <time>2021-09-19T10:54:09Z</time>
      </trkpt>
      <trkpt lat="43.6095" lon="1.3078">
        <ele>186</ele>
        <time>2021-09-19T10:54:10Z</time>
      </trkpt>
      <trkpt lat="43.60953" lon="1.30778">
        <ele>186</ele>
        <time>2021-09-19T10:54:11Z</time>
      </trkpt>
      <trkpt lat="43.60956" lon="1.30775">
        <ele>186</ele>
        <time>2021-09-19T10:54:12Z</time>
      </trkpt>
      <trkpt lat="43.60958" lon="1.30771">
        <ele>186</ele>
        <time>2021-09-19T10:54:13Z</time>
      </trkpt>
      <trkpt lat="43.6096" lon="1.30767">
        <ele>186</ele>
        <time>2021-09-19T10:54:14Z</time>
      </trkpt>
      <trkpt lat="43.60961" lon="1.30762">
        <ele>186</ele>
        <time>2021-09-19T10:54:15Z</time>
      </trkpt>
      <trkpt lat="43.60961" lon="1.30758">
        <ele>186</ele>
        <time>2021-09-19T10:54:16Z</time>
      </trkpt>
      <trkpt lat="43.60961" lon="1.30753">
        <ele>186</ele>
        <time>2021-09-19T10:54:17Z</time>
      </trkpt>
      <trkpt lat="43.60959" lon="1.30748">
        <ele>186</ele>
        <time>2021-09-19T10:54:18Z</time>
      </trkpt>
      <trkpt lat="43.60958" lon="1.30743">
        <ele>186</ele>
        <time>2021-09-19T10:54:19Z</time>
      </trkpt>
      <trkpt lat="43.60957" lon="1.30738">
        <ele>186</ele>
        <time>2021-09-19T10:54:20Z</time>
      </trkpt>
      <trkpt lat="43.60955" lon="1.30734">
        <ele>186</ele>
        <time>2021-09-19T10:54:21Z</time>
      </trkpt>
      <trkpt lat="43.60954" lon="1.30729">
        <ele>186</ele>
        <time>2021-09-19T10:54:22Z</time>
      </trkpt>
      <trkpt lat="43.60953" lon="1.30724">
        <ele>186</ele>
        <time>2021-09-19T10:54:23Z</time>
      </trkpt>
      <trkpt lat="43.60951" lon="1.3072">
        <ele>186</ele>
        <time>2021-09-19T10:54:24Z</time>
      </trkpt>
      <trkpt lat="43.60949" lon="1.30715">
        <ele>186</ele>
        <time>2021-09-19T10:54:25Z</time>
      </trkpt>
      <trkpt lat="43.60948" lon="1.30711">
        <ele>186</ele>
        <time>2021-09-19T10:54:26Z</time>
      </trkpt>
      <trkpt lat="43.60947" lon="1.30707">
        <ele>187</ele>
        <time>2021-09-19T10:54:27Z</time>
      </trkpt>
      <trkpt lat="43.60946" lon="1.30702">
        <ele>187</ele>
        <time>2021-09-19T10:54:28Z</time>
      </trkpt>
      <trkpt lat="43.60945" lon="1.30698">
        <ele>186</ele>
        <time>2021-09-19T10:54:29Z</time>
      </trkpt>
      <trkpt lat="43.60944" lon="1.30693">
        <ele>186</ele>
        <time>2021-09-19T10:54:30Z</time>
      </trkpt>
      <trkpt lat="43.60943" lon="1.30689">
        <ele>186</ele>
        <time>2021-09-19T10:54:31Z</time>
      </trkpt>
      <trkpt lat="43.60942" lon="1.30684">
        <ele>186</ele>
        <time>2021-09-19T10:54:32Z</time>
      </trkpt>
      <trkpt lat="43.60941" lon="1.3068">
        <ele>186</ele>
        <time>2021-09-19T10:54:33Z</time>
      </trkpt>
      <trkpt lat="43.6094" lon="1.30675">
        <ele>186</ele>
        <time>2021-09-19T10:54:34Z</time>
      </trkpt>
      <trkpt lat="43.60939" lon="1.30671">
        <ele>186</ele>
        <time>2021-09-19T10:54:35Z</time>
      </trkpt>
      <trkpt lat="43.60939" lon="1.30667">
        <ele>186</ele>
        <time>2021-09-19T10:54:36Z</time>
      </trkpt>
      <trkpt lat="43.60938" lon="1.30663">
        <ele>186</ele>
        <time>2021-09-19T10:54:37Z</time>
      </trkpt>
      <trkpt lat="43.60937" lon="1.30659">
        <ele>186</ele>
        <time>2021-09-19T10:54:38Z</time>
      </trkpt>
      <trkpt lat="43.60936" lon="1.30654">
        <ele>186</ele>
        <time>2021-09-19T10:54:39Z</time>
      </trkpt>
      <trkpt lat="43.60935" lon="1.30649">
        <ele>186</ele>
        <time>2021-09-19T10:54:40Z</time>
      </trkpt>
      <trkpt lat="43.60934" lon="1.30645">
        <ele>186</ele>
        <time>2021-09-19T10:54:41Z</time>
      </trkpt>
      <trkpt lat="43.60933" lon="1.3064">
        <ele>186</ele>
        <time>2021-09-19T10:54:42Z</time>
      </trkpt>
      <trkpt lat="43.60932" lon="1.30635">
        <ele>186</ele>
        <time>2021-09-19T10:54:43Z</time>
      </trkpt>
      <trkpt lat="43.60931" lon="1.30631">
        <ele>186</ele>
        <time>2021-09-19T10:54:44Z</time>
      </trkpt>
      <trkpt lat="43.6093" lon="1.30628">
        <ele>186</ele>
        <time>2021-09-19T10:54:45Z</time>
      </trkpt>
      <trkpt lat="43.60929" lon="1.30625">
        <ele>186</ele>
        <time>2021-09-19T10:54:46Z</time>
      </trkpt>
      <trkpt lat="43.60928" lon="1.30623">
        <ele>186</ele>
        <time>2021-09-19T10:54:47Z</time>
      </trkpt>
      <trkpt lat="43.60927" lon="1.30619">
        <ele>186</ele>
        <time>2021-09-19T10:54:48Z</time>
      </trkpt>
      <trkpt lat="43.60925" lon="1.30615">
        <ele>186</ele>
        <time>2021-09-19T10:54:49Z</time>
      </trkpt>
      <trkpt lat="43.60925" lon="1.30612">
        <ele>186</ele>
        <time>2021-09-19T10:54:50Z</time>
      </trkpt>
      <trkpt lat="43.60926" lon="1.30609">
        <ele>186</ele>
        <time>2021-09-19T10:54:51Z</time>
      </trkpt>
      <trkpt lat="43.60928" lon="1.30606">
        <ele>186</ele>
        <time>2021-09-19T10:54:53Z</time>
      </trkpt>
      <trkpt lat="43.6093" lon="1.30604">
        <ele>185</ele>
        <time>2021-09-19T10:54:54Z</time>
      </trkpt>
      <trkpt lat="43.60932" lon="1.30603">
        <ele>185</ele>
        <time>2021-09-19T10:54:55Z</time>
      </trkpt>
      <trkpt lat="43.60934" lon="1.30601">
        <ele>185</ele>
        <time>2021-09-19T10:54:56Z</time>
      </trkpt>
      <trkpt lat="43.60937" lon="1.30599">
        <ele>185</ele>
        <time>2021-09-19T10:54:57Z</time>
      </trkpt>
      <trkpt lat="43.6094" lon="1.30597">
        <ele>184</ele>
        <time>2021-09-19T10:54:58Z</time>
      </trkpt>
      <trkpt lat="43.60943" lon="1.30596">
        <ele>184</ele>
        <time>2021-09-19T10:54:59Z</time>
      </trkpt>
      <trkpt lat="43.60947" lon="1.30595">
        <ele>184</ele>
        <time>2021-09-19T10:55:00Z</time>
      </trkpt>
      <trkpt lat="43.60951" lon="1.30595">
        <ele>184</ele>
        <time>2021-09-19T10:55:01Z</time>
      </trkpt>
      <trkpt lat="43.60955" lon="1.30595">
        <ele>184</ele>
        <time>2021-09-19T10:55:02Z</time>
      </trkpt>
      <trkpt lat="43.60959" lon="1.30595">
        <ele>184</ele>
        <time>2021-09-19T10:55:03Z</time>
      </trkpt>
      <trkpt lat="43.60963" lon="1.30595">
        <ele>184</ele>
        <time>2021-09-19T10:55:04Z</time>
      </trkpt>
      <trkpt lat="43.60967" lon="1.30596">
        <ele>184</ele>
        <time>2021-09-19T10:55:05Z</time>
      </trkpt>
      <trkpt lat="43.6097" lon="1.30596">
        <ele>184</ele>
        <time>2021-09-19T10:55:06Z</time>
      </trkpt>
      <trkpt lat="43.60974" lon="1.30596">
        <ele>184</ele>
        <time>2021-09-19T10:55:07Z</time>
      </trkpt>
      <trkpt lat="43.60978" lon="1.30595">
        <ele>184</ele>
        <time>2021-09-19T10:55:08Z</time>
      </trkpt>
      <trkpt lat="43.60982" lon="1.30596">
        <ele>185</ele>
        <time>2021-09-19T10:55:09Z</time>
      </trkpt>
      <trkpt lat="43.60986" lon="1.30596">
        <ele>186</ele>
        <time>2021-09-19T10:55:10Z</time>
      </trkpt>
      <trkpt lat="43.6099" lon="1.30596">
        <ele>186</ele>
        <time>2021-09-19T10:55:11Z</time>
      </trkpt>
      <trkpt lat="43.60994" lon="1.30596">
        <ele>185</ele>
        <time>2021-09-19T10:55:12Z</time>
      </trkpt>
      <trkpt lat="43.60998" lon="1.30595">
        <ele>185</ele>
        <time>2021-09-19T10:55:13Z</time>
      </trkpt>
      <trkpt lat="43.61002" lon="1.30595">
        <ele>185</ele>
        <time>2021-09-19T10:55:14Z</time>
      </trkpt>
      <trkpt lat="43.61006" lon="1.30595">
        <ele>185</ele>
        <time>2021-09-19T10:55:15Z</time>
      </trkpt>
      <trkpt lat="43.6101" lon="1.30595">
        <ele>185</ele>
        <time>2021-09-19T10:55:16Z</time>
      </trkpt>
      <trkpt lat="43.61014" lon="1.30595">
        <ele>185</ele>
        <time>2021-09-19T10:55:17Z</time>
      </trkpt>
      <trkpt lat="43.61018" lon="1.30595">
        <ele>185</ele>
        <time>2021-09-19T10:55:18Z</time>
      </trkpt>
      <trkpt lat="43.61022" lon="1.30596">
        <ele>185</ele>
        <time>2021-09-19T10:55:19Z</time>
      </trkpt>
      <trkpt lat="43.61026" lon="1.30596">
        <ele>185</ele>
        <time>2021-09-19T10:55:20Z</time>
      </trkpt>
      <trkpt lat="43.6103" lon="1.30595">
        <ele>185</ele>
        <time>2021-09-19T10:55:21Z</time>
      </trkpt>
      <trkpt lat="43.61033" lon="1.30595">
        <ele>185</ele>
        <time>2021-09-19T10:55:22Z</time>
      </trkpt>
      <trkpt lat="43.61037" lon="1.30595">
        <ele>185</ele>
        <time>2021-09-19T10:55:23Z</time>
      </trkpt>
      <trkpt lat="43.61041" lon="1.30595">
        <ele>185</ele>
        <time>2021-09-19T10:55:24Z</time>
      </trkpt>
      <trkpt lat="43.61045" lon="1.30595">
        <ele>185</ele>
        <time>2021-09-19T10:55:25Z</time>
      </trkpt>
      <trkpt lat="43.61049" lon="1.30595">
        <ele>185</ele>
        <time>2021-09-19T10:55:26Z</time>
      </trkpt>
      <trkpt lat="43.61052" lon="1.30595">
        <ele>185</ele>
        <time>2021-09-19T10:55:27Z</time>
      </trkpt>
      <trkpt lat="43.61056" lon="1.30595">
        <ele>184</ele>
        <time>2021-09-19T10:55:28Z</time>
      </trkpt>
      <trkpt lat="43.6106" lon="1.30595">
        <ele>184</ele>
        <time>2021-09-19T10:55:29Z</time>
      </trkpt>
      <trkpt lat="43.61064" lon="1.30595">
        <ele>184</ele>
        <time>2021-09-19T10:55:30Z</time>
      </trkpt>
      <trkpt lat="43.61068" lon="1.30594">
        <ele>184</ele>
        <time>2021-09-19T10:55:31Z</time>
      </trkpt>
      <trkpt lat="43.61072" lon="1.30594">
        <ele>184</ele>
        <time>2021-09-19T10:55:32Z</time>
      </trkpt>
      <trkpt lat="43.61077" lon="1.30594">
        <ele>184</ele>
        <time>2021-09-19T10:55:33Z</time>
      </trkpt>
      <trkpt lat="43.61081" lon="1.30594">
        <ele>184</ele>
        <time>2021-09-19T10:55:34Z</time>
      </trkpt>
      <trkpt lat="43.61085" lon="1.30594">
        <ele>184</ele>
        <time>2021-09-19T10:55:35Z</time>
      </trkpt>
      <trkpt lat="43.61089" lon="1.30593">
        <ele>184</ele>
        <time>2021-09-19T10:55:36Z</time>
      </trkpt>
      <trkpt lat="43.61093" lon="1.30593">
        <ele>185</ele>
        <time>2021-09-19T10:55:37Z</time>
      </trkpt>
      <trkpt lat="43.61097" lon="1.30593">
        <ele>185</ele>
        <time>2021-09-19T10:55:38Z</time>
      </trkpt>
      <trkpt lat="43.61101" lon="1.30593">
        <ele>185</ele>
        <time>2021-09-19T10:55:39Z</time>
      </trkpt>
      <trkpt lat="43.61105" lon="1.30593">
        <ele>185</ele>
        <time>2021-09-19T10:55:40Z</time>
      </trkpt>
      <trkpt lat="43.61109" lon="1.30593">
        <ele>185</ele>
        <time>2021-09-19T10:55:41Z</time>
      </trkpt>
      <trkpt lat="43.61113" lon="1.30593">
        <ele>185</ele>
        <time>2021-09-19T10:55:42Z</time>
      </trkpt>
      <trkpt lat="43.61117" lon="1.30592">
        <ele>185</ele>
        <time>2021-09-19T10:55:43Z</time>
      </trkpt>
      <trkpt lat="43.61121" lon="1.30592">
        <ele>185</ele>
        <time>2021-09-19T10:55:44Z</time>
      </trkpt>
      <trkpt lat="43.61125" lon="1.30592">
        <ele>185</ele>
        <time>2021-09-19T10:55:45Z</time>
      </trkpt>
      <trkpt lat="43.61129" lon="1.30592">
        <ele>185</ele>
        <time>2021-09-19T10:55:46Z</time>
      </trkpt>
      <trkpt lat="43.61133" lon="1.30592">
        <ele>185</ele>
        <time>2021-09-19T10:55:47Z</time>
      </trkpt>
      <trkpt lat="43.61136" lon="1.30592">
        <ele>184</ele>
        <time>2021-09-19T10:55:48Z</time>
      </trkpt>
      <trkpt lat="43.6114" lon="1.30592">
        <ele>184</ele>
        <time>2021-09-19T10:55:49Z</time>
      </trkpt>
      <trkpt lat="43.61143" lon="1.30592">
        <ele>184</ele>
        <time>2021-09-19T10:55:50Z</time>
      </trkpt>
      <trkpt lat="43.61147" lon="1.30592">
        <ele>184</ele>
        <time>2021-09-19T10:55:51Z</time>
      </trkpt>
      <trkpt lat="43.6115" lon="1.30592">
        <ele>185</ele>
        <time>2021-09-19T10:55:52Z</time>
      </trkpt>
      <trkpt lat="43.61154" lon="1.30593">
        <ele>185</ele>
        <time>2021-09-19T10:55:53Z</time>
      </trkpt>
      <trkpt lat="43.61157" lon="1.30594">
        <ele>185</ele>
        <time>2021-09-19T10:55:54Z</time>
      </trkpt>
      <trkpt lat="43.6116" lon="1.30595">
        <ele>185</ele>
        <time>2021-09-19T10:55:55Z</time>
      </trkpt>
      <trkpt lat="43.61164" lon="1.30597">
        <ele>184</ele>
        <time>2021-09-19T10:55:56Z</time>
      </trkpt>
      <trkpt lat="43.61167" lon="1.30598">
        <ele>184</ele>
        <time>2021-09-19T10:55:57Z</time>
      </trkpt>
      <trkpt lat="43.6117" lon="1.306">
        <ele>184</ele>
        <time>2021-09-19T10:55:58Z</time>
      </trkpt>
      <trkpt lat="43.61174" lon="1.30602">
        <ele>184</ele>
        <time>2021-09-19T10:55:59Z</time>
      </trkpt>
      <trkpt lat="43.61177" lon="1.30604">
        <ele>184</ele>
        <time>2021-09-19T10:56:00Z</time>
      </trkpt>
      <trkpt lat="43.61181" lon="1.30606">
        <ele>184</ele>
        <time>2021-09-19T10:56:01Z</time>
      </trkpt>
      <trkpt lat="43.61184" lon="1.30609">
        <ele>184</ele>
        <time>2021-09-19T10:56:02Z</time>
      </trkpt>
      <trkpt lat="43.61188" lon="1.30611">
        <ele>184</ele>
        <time>2021-09-19T10:56:03Z</time>
      </trkpt>
      <trkpt lat="43.61192" lon="1.30613">
        <ele>184</ele>
        <time>2021-09-19T10:56:04Z</time>
      </trkpt>
      <trkpt lat="43.61195" lon="1.30615">
        <ele>184</ele>
        <time>2021-09-19T10:56:05Z</time>
      </trkpt>
      <trkpt lat="43.61199" lon="1.30617">
        <ele>184</ele>
        <time>2021-09-19T10:56:06Z</time>
      </trkpt>
      <trkpt lat="43.61203" lon="1.3062">
        <ele>184</ele>
        <time>2021-09-19T10:56:07Z</time>
      </trkpt>
      <trkpt lat="43.61206" lon="1.30622">
        <ele>184</ele>
        <time>2021-09-19T10:56:08Z</time>
      </trkpt>
      <trkpt lat="43.6121" lon="1.30624">
        <ele>184</ele>
        <time>2021-09-19T10:56:09Z</time>
      </trkpt>
      <trkpt lat="43.61213" lon="1.30626">
        <ele>184</ele>
        <time>2021-09-19T10:56:10Z</time>
      </trkpt>
      <trkpt lat="43.61217" lon="1.30628">
        <ele>184</ele>
        <time>2021-09-19T10:56:11Z</time>
      </trkpt>
      <trkpt lat="43.6122" lon="1.3063">
        <ele>184</ele>
        <time>2021-09-19T10:56:12Z</time>
      </trkpt>
      <trkpt lat="43.61224" lon="1.30633">
        <ele>184</ele>
        <time>2021-09-19T10:56:13Z</time>
      </trkpt>
      <trkpt lat="43.61228" lon="1.30635">
        <ele>184</ele>
        <time>2021-09-19T10:56:14Z</time>
      </trkpt>
      <trkpt lat="43.61232" lon="1.30637">
        <ele>184</ele>
        <time>2021-09-19T10:56:15Z</time>
      </trkpt>
      <trkpt lat="43.61235" lon="1.30639">
        <ele>184</ele>
        <time>2021-09-19T10:56:16Z</time>
      </trkpt>
      <trkpt lat="43.61239" lon="1.30642">
        <ele>184</ele>
        <time>2021-09-19T10:56:17Z</time>
      </trkpt>
      <trkpt lat="43.61242" lon="1.30644">
        <ele>184</ele>
        <time>2021-09-19T10:56:18Z</time>
      </trkpt>
      <trkpt lat="43.61246" lon="1.30646">
        <ele>184</ele>
        <time>2021-09-19T10:56:19Z</time>
      </trkpt>
      <trkpt lat="43.6125" lon="1.30649">
        <ele>184</ele>
        <time>2021-09-19T10:56:20Z</time>
      </trkpt>
      <trkpt lat="43.61254" lon="1.30651">
        <ele>184</ele>
        <time>2021-09-19T10:56:21Z</time>
      </trkpt>
      <trkpt lat="43.61257" lon="1.30653">
        <ele>184</ele>
        <time>2021-09-19T10:56:22Z</time>
      </trkpt>
      <trkpt lat="43.61261" lon="1.30655">
        <ele>184</ele>
        <time>2021-09-19T10:56:23Z</time>
      </trkpt>
      <trkpt lat="43.61264" lon="1.30657">
        <ele>184</ele>
        <time>2021-09-19T10:56:24Z</time>
      </trkpt>
      <trkpt lat="43.61268" lon="1.30659">
        <ele>184</ele>
        <time>2021-09-19T10:56:25Z</time>
      </trkpt>
      <trkpt lat="43.61271" lon="1.30661">
        <ele>184</ele>
        <time>2021-09-19T10:56:26Z</time>
      </trkpt>
      <trkpt lat="43.61275" lon="1.30663">
        <ele>183</ele>
        <time>2021-09-19T10:56:27Z</time>
      </trkpt>
      <trkpt lat="43.61278" lon="1.30665">
        <ele>183</ele>
        <time>2021-09-19T10:56:28Z</time>
      </trkpt>
      <trkpt lat="43.61282" lon="1.30667">
        <ele>183</ele>
        <time>2021-09-19T10:56:29Z</time>
      </trkpt>
      <trkpt lat="43.61285" lon="1.3067">
        <ele>184</ele>
        <time>2021-09-19T10:56:30Z</time>
      </trkpt>
      <trkpt lat="43.61289" lon="1.30672">
        <ele>184</ele>
        <time>2021-09-19T10:56:31Z</time>
      </trkpt>
      <trkpt lat="43.61296" lon="1.30676">
        <ele>183</ele>
        <time>2021-09-19T10:56:33Z</time>
      </trkpt>
      <trkpt lat="43.613" lon="1.30678">
        <ele>183</ele>
        <time>2021-09-19T10:56:34Z</time>
      </trkpt>
      <trkpt lat="43.61304" lon="1.30681">
        <ele>183</ele>
        <time>2021-09-19T10:56:35Z</time>
      </trkpt>
      <trkpt lat="43.61307" lon="1.30683">
        <ele>183</ele>
        <time>2021-09-19T10:56:36Z</time>
      </trkpt>
      <trkpt lat="43.61311" lon="1.30685">
        <ele>184</ele>
        <time>2021-09-19T10:56:37Z</time>
      </trkpt>
      <trkpt lat="43.61314" lon="1.30687">
        <ele>184</ele>
        <time>2021-09-19T10:56:38Z</time>
      </trkpt>
      <trkpt lat="43.61317" lon="1.30689">
        <ele>184</ele>
        <time>2021-09-19T10:56:39Z</time>
      </trkpt>
      <trkpt lat="43.61321" lon="1.3069">
        <ele>184</ele>
        <time>2021-09-19T10:56:40Z</time>
      </trkpt>
      <trkpt lat="43.61323" lon="1.30692">
        <ele>184</ele>
        <time>2021-09-19T10:56:41Z</time>
      </trkpt>
      <trkpt lat="43.61325" lon="1.30694">
        <ele>184</ele>
        <time>2021-09-19T10:56:42Z</time>
      </trkpt>
      <trkpt lat="43.61327" lon="1.30695">
        <ele>184</ele>
        <time>2021-09-19T10:56:43Z</time>
      </trkpt>
      <trkpt lat="43.61329" lon="1.30694">
        <ele>184</ele>
        <time>2021-09-19T10:56:44Z</time>
      </trkpt>
      <trkpt lat="43.61331" lon="1.30691">
        <ele>185</ele>
        <time>2021-09-19T10:56:45Z</time>
      </trkpt>
      <trkpt lat="43.61333" lon="1.30687">
        <ele>185</ele>
        <time>2021-09-19T10:56:46Z</time>
      </trkpt>
      <trkpt lat="43.61335" lon="1.30684">
        <ele>185</ele>
        <time>2021-09-19T10:56:47Z</time>
      </trkpt>
      <trkpt lat="43.61338" lon="1.3068">
        <ele>185</ele>
        <time>2021-09-19T10:56:48Z</time>
      </trkpt>
      <trkpt lat="43.61341" lon="1.30677">
        <ele>185</ele>
        <time>2021-09-19T10:56:49Z</time>
      </trkpt>
      <trkpt lat="43.61344" lon="1.30675">
        <ele>185</ele>
        <time>2021-09-19T10:56:50Z</time>
      </trkpt>
      <trkpt lat="43.61346" lon="1.30675">
        <ele>185</ele>
        <time>2021-09-19T10:56:51Z</time>
      </trkpt>
      <trkpt lat="43.61349" lon="1.30676">
        <ele>184</ele>
        <time>2021-09-19T10:56:52Z</time>
      </trkpt>
      <trkpt lat="43.61351" lon="1.30679">
        <ele>183</ele>
        <time>2021-09-19T10:56:53Z</time>
      </trkpt>
      <trkpt lat="43.61354" lon="1.3068">
        <ele>183</ele>
        <time>2021-09-19T10:56:54Z</time>
      </trkpt>
      <trkpt lat="43.61357" lon="1.30682">
        <ele>183</ele>
        <time>2021-09-19T10:56:55Z</time>
      </trkpt>
      <trkpt lat="43.6136" lon="1.30685">
        <ele>183</ele>
        <time>2021-09-19T10:56:56Z</time>
      </trkpt>
      <trkpt lat="43.61362" lon="1.30688">
        <ele>183</ele>
        <time>2021-09-19T10:56:57Z</time>
      </trkpt>
      <trkpt lat="43.61363" lon="1.30693">
        <ele>183</ele>
        <time>2021-09-19T10:56:58Z</time>
      </trkpt>
      <trkpt lat="43.61364" lon="1.30697">
        <ele>184</ele>
        <time>2021-09-19T10:56:59Z</time>
      </trkpt>
      <trkpt lat="43.61366" lon="1.30702">
        <ele>184</ele>
        <time>2021-09-19T10:57:00Z</time>
      </trkpt>
      <trkpt lat="43.61368" lon="1.30706">
        <ele>184</ele>
        <time>2021-09-19T10:57:01Z</time>
      </trkpt>
      <trkpt lat="43.61371" lon="1.30711">
        <ele>184</ele>
        <time>2021-09-19T10:57:02Z</time>
      </trkpt>
      <trkpt lat="43.61374" lon="1.30715">
        <ele>184</ele>
        <time>2021-09-19T10:57:03Z</time>
      </trkpt>
      <trkpt lat="43.61378" lon="1.30718">
        <ele>184</ele>
        <time>2021-09-19T10:57:04Z</time>
      </trkpt>
      <trkpt lat="43.61381" lon="1.30722">
        <ele>184</ele>
        <time>2021-09-19T10:57:05Z</time>
      </trkpt>
      <trkpt lat="43.61384" lon="1.30726">
        <ele>184</ele>
        <time>2021-09-19T10:57:06Z</time>
      </trkpt>
      <trkpt lat="43.61387" lon="1.30729">
        <ele>185</ele>
        <time>2021-09-19T10:57:07Z</time>
      </trkpt>
      <trkpt lat="43.61391" lon="1.30732">
        <ele>185</ele>
        <time>2021-09-19T10:57:08Z</time>
      </trkpt>
      <trkpt lat="43.61394" lon="1.30735">
        <ele>185</ele>
        <time>2021-09-19T10:57:09Z</time>
      </trkpt>
      <trkpt lat="43.61397" lon="1.30738">
        <ele>185</ele>
        <time>2021-09-19T10:57:10Z</time>
      </trkpt>
      <trkpt lat="43.61401" lon="1.30741">
        <ele>185</ele>
        <time>2021-09-19T10:57:11Z</time>
      </trkpt>
      <trkpt lat="43.61404" lon="1.30743">
        <ele>185</ele>
        <time>2021-09-19T10:57:12Z</time>
      </trkpt>
      <trkpt lat="43.61407" lon="1.30745">
        <ele>185</ele>
        <time>2021-09-19T10:57:13Z</time>
      </trkpt>
      <trkpt lat="43.61409" lon="1.30746">
        <ele>185</ele>
        <time>2021-09-19T10:57:14Z</time>
      </trkpt>
      <trkpt lat="43.61411" lon="1.30748">
        <ele>185</ele>
        <time>2021-09-19T10:57:15Z</time>
      </trkpt>
      <trkpt lat="43.61413" lon="1.30749">
        <ele>185</ele>
        <time>2021-09-19T10:57:16Z</time>
      </trkpt>
      <trkpt lat="43.61415" lon="1.30751">
        <ele>186</ele>
        <time>2021-09-19T10:57:17Z</time>
      </trkpt>
      <trkpt lat="43.61417" lon="1.30753">
        <ele>186</ele>
        <time>2021-09-19T10:57:18Z</time>
      </trkpt>
      <trkpt lat="43.6142" lon="1.30755">
        <ele>186</ele>
        <time>2021-09-19T10:57:19Z</time>
      </trkpt>
      <trkpt lat="43.61423" lon="1.30757">
        <ele>186</ele>
        <time>2021-09-19T10:57:20Z</time>
      </trkpt>
      <trkpt lat="43.61426" lon="1.30759">
        <ele>185</ele>
        <time>2021-09-19T10:57:21Z</time>
      </trkpt>
      <trkpt lat="43.6143" lon="1.30761">
        <ele>184</ele>
        <time>2021-09-19T10:57:22Z</time>
      </trkpt>
      <trkpt lat="43.61433" lon="1.30763">
        <ele>183</ele>
        <time>2021-09-19T10:57:23Z</time>
      </trkpt>
      <trkpt lat="43.61436" lon="1.30766">
        <ele>183</ele>
        <time>2021-09-19T10:57:24Z</time>
      </trkpt>
      <trkpt lat="43.6144" lon="1.30769">
        <ele>183</ele>
        <time>2021-09-19T10:57:25Z</time>
      </trkpt>
      <trkpt lat="43.61444" lon="1.30772">
        <ele>184</ele>
        <time>2021-09-19T10:57:26Z</time>
      </trkpt>
      <trkpt lat="43.61447" lon="1.30775">
        <ele>184</ele>
        <time>2021-09-19T10:57:27Z</time>
      </trkpt>
      <trkpt lat="43.61451" lon="1.30778">
        <ele>184</ele>
        <time>2021-09-19T10:57:28Z</time>
      </trkpt>
      <trkpt lat="43.61458" lon="1.30784">
        <ele>185</ele>
        <time>2021-09-19T10:57:30Z</time>
      </trkpt>
      <trkpt lat="43.61461" lon="1.30787">
        <ele>184</ele>
        <time>2021-09-19T10:57:31Z</time>
      </trkpt>
      <trkpt lat="43.61465" lon="1.30789">
        <ele>184</ele>
        <time>2021-09-19T10:57:32Z</time>
      </trkpt>
      <trkpt lat="43.61468" lon="1.30792">
        <ele>184</ele>
        <time>2021-09-19T10:57:33Z</time>
      </trkpt>
      <trkpt lat="43.61471" lon="1.30795">
        <ele>184</ele>
        <time>2021-09-19T10:57:34Z</time>
      </trkpt>
      <trkpt lat="43.61474" lon="1.30798">
        <ele>184</ele>
        <time>2021-09-19T10:57:35Z</time>
      </trkpt>
      <trkpt lat="43.61477" lon="1.30799">
        <ele>184</ele>
        <time>2021-09-19T10:57:36Z</time>
      </trkpt>
      <trkpt lat="43.6148" lon="1.30799">
        <ele>184</ele>
        <time>2021-09-19T10:57:37Z</time>
      </trkpt>
      <trkpt lat="43.61483" lon="1.30797">
        <ele>184</ele>
        <time>2021-09-19T10:57:38Z</time>
      </trkpt>
      <trkpt lat="43.61484" lon="1.30793">
        <ele>184</ele>
        <time>2021-09-19T10:57:39Z</time>
      </trkpt>
      <trkpt lat="43.61485" lon="1.30789">
        <ele>184</ele>
        <time>2021-09-19T10:57:40Z</time>
      </trkpt>
      <trkpt lat="43.61485" lon="1.30784">
        <ele>184</ele>
        <time>2021-09-19T10:57:41Z</time>
      </trkpt>
      <trkpt lat="43.61486" lon="1.30779">
        <ele>185</ele>
        <time>2021-09-19T10:57:42Z</time>
      </trkpt>
      <trkpt lat="43.61486" lon="1.30774">
        <ele>185</ele>
        <time>2021-09-19T10:57:43Z</time>
      </trkpt>
      <trkpt lat="43.61487" lon="1.30769">
        <ele>185</ele>
        <time>2021-09-19T10:57:44Z</time>
      </trkpt>
      <trkpt lat="43.61487" lon="1.30763">
        <ele>185</ele>
        <time>2021-09-19T10:57:45Z</time>
      </trkpt>
      <trkpt lat="43.61488" lon="1.30758">
        <ele>185</ele>
        <time>2021-09-19T10:57:46Z</time>
      </trkpt>
      <trkpt lat="43.61488" lon="1.30753">
        <ele>185</ele>
        <time>2021-09-19T10:57:47Z</time>
      </trkpt>
      <trkpt lat="43.61489" lon="1.30749">
        <ele>185</ele>
        <time>2021-09-19T10:57:48Z</time>
      </trkpt>
      <trkpt lat="43.61489" lon="1.30744">
        <ele>185</ele>
        <time>2021-09-19T10:57:49Z</time>
      </trkpt>
      <trkpt lat="43.6149" lon="1.3074">
        <ele>185</ele>
        <time>2021-09-19T10:57:50Z</time>
      </trkpt>
      <trkpt lat="43.6149" lon="1.30736">
        <ele>185</ele>
        <time>2021-09-19T10:57:51Z</time>
      </trkpt>
      <trkpt lat="43.6149" lon="1.30732">
        <ele>185</ele>
        <time>2021-09-19T10:57:52Z</time>
      </trkpt>
      <trkpt lat="43.6149" lon="1.30728">
        <ele>185</ele>
        <time>2021-09-19T10:57:53Z</time>
      </trkpt>
      <trkpt lat="43.61491" lon="1.30725">
        <ele>185</ele>
        <time>2021-09-19T10:57:54Z</time>
      </trkpt>
      <trkpt lat="43.61492" lon="1.30722">
        <ele>186</ele>
        <time>2021-09-19T10:57:55Z</time>
      </trkpt>
      <trkpt lat="43.61493" lon="1.30718">
        <ele>187</ele>
        <time>2021-09-19T10:57:56Z</time>
      </trkpt>
      <trkpt lat="43.61495" lon="1.30715">
        <ele>187</ele>
        <time>2021-09-19T10:57:57Z</time>
      </trkpt>
      <trkpt lat="43.61498" lon="1.30712">
        <ele>187</ele>
        <time>2021-09-19T10:57:58Z</time>
      </trkpt>
      <trkpt lat="43.61501" lon="1.3071">
        <ele>186</ele>
        <time>2021-09-19T10:57:59Z</time>
      </trkpt>
      <trkpt lat="43.61504" lon="1.30706">
        <ele>185</ele>
        <time>2021-09-19T10:58:00Z</time>
      </trkpt>
      <trkpt lat="43.61507" lon="1.30702">
        <ele>185</ele>
        <time>2021-09-19T10:58:01Z</time>
      </trkpt>
      <trkpt lat="43.6151" lon="1.30698">
        <ele>185</ele>
        <time>2021-09-19T10:58:02Z</time>
      </trkpt>
      <trkpt lat="43.61513" lon="1.30693">
        <ele>186</ele>
        <time>2021-09-19T10:58:03Z</time>
      </trkpt>
      <trkpt lat="43.61515" lon="1.30688">
        <ele>186</ele>
        <time>2021-09-19T10:58:04Z</time>
      </trkpt>
      <trkpt lat="43.61516" lon="1.30683">
        <ele>186</ele>
        <time>2021-09-19T10:58:05Z</time>
      </trkpt>
      <trkpt lat="43.61517" lon="1.30678">
        <ele>186</ele>
        <time>2021-09-19T10:58:06Z</time>
      </trkpt>
      <trkpt lat="43.61517" lon="1.30673">
        <ele>186</ele>
        <time>2021-09-19T10:58:07Z</time>
      </trkpt>
      <trkpt lat="43.61518" lon="1.30668">
        <ele>186</ele>
        <time>2021-09-19T10:58:08Z</time>
      </trkpt>
      <trkpt lat="43.61518" lon="1.30663">
        <ele>186</ele>
        <time>2021-09-19T10:58:09Z</time>
      </trkpt>
      <trkpt lat="43.61519" lon="1.30658">
        <ele>186</ele>
        <time>2021-09-19T10:58:10Z</time>
      </trkpt>
      <trkpt lat="43.61519" lon="1.30653">
        <ele>186</ele>
        <time>2021-09-19T10:58:11Z</time>
      </trkpt>
      <trkpt lat="43.6152" lon="1.30647">
        <ele>186</ele>
        <time>2021-09-19T10:58:12Z</time>
      </trkpt>
      <trkpt lat="43.61521" lon="1.30642">
        <ele>187</ele>
        <time>2021-09-19T10:58:13Z</time>
      </trkpt>
      <trkpt lat="43.61521" lon="1.30637">
        <ele>187</ele>
        <time>2021-09-19T10:58:14Z</time>
      </trkpt>
      <trkpt lat="43.61522" lon="1.30632">
        <ele>186</ele>
        <time>2021-09-19T10:58:15Z</time>
      </trkpt>
      <trkpt lat="43.61523" lon="1.30627">
        <ele>185</ele>
        <time>2021-09-19T10:58:16Z</time>
      </trkpt>
      <trkpt lat="43.61524" lon="1.30621">
        <ele>185</ele>
        <time>2021-09-19T10:58:17Z</time>
      </trkpt>
      <trkpt lat="43.61524" lon="1.30616">
        <ele>185</ele>
        <time>2021-09-19T10:58:18Z</time>
      </trkpt>
      <trkpt lat="43.61525" lon="1.3061">
        <ele>185</ele>
        <time>2021-09-19T10:58:19Z</time>
      </trkpt>
      <trkpt lat="43.61525" lon="1.30605">
        <ele>185</ele>
        <time>2021-09-19T10:58:20Z</time>
      </trkpt>
      <trkpt lat="43.61527" lon="1.306">
        <ele>185</ele>
        <time>2021-09-19T10:58:21Z</time>
      </trkpt>
      <trkpt lat="43.61529" lon="1.30595">
        <ele>185</ele>
        <time>2021-09-19T10:58:22Z</time>
      </trkpt>
      <trkpt lat="43.61532" lon="1.30591">
        <ele>185</ele>
        <time>2021-09-19T10:58:23Z</time>
      </trkpt>
      <trkpt lat="43.61534" lon="1.30587">
        <ele>186</ele>
        <time>2021-09-19T10:58:24Z</time>
      </trkpt>
      <trkpt lat="43.61537" lon="1.30583">
        <ele>186</ele>
        <time>2021-09-19T10:58:25Z</time>
      </trkpt>
      <trkpt lat="43.61541" lon="1.3058">
        <ele>186</ele>
        <time>2021-09-19T10:58:26Z</time>
      </trkpt>
      <trkpt lat="43.61545" lon="1.30578">
        <ele>186</ele>
        <time>2021-09-19T10:58:27Z</time>
      </trkpt>
      <trkpt lat="43.61549" lon="1.30578">
        <ele>185</ele>
        <time>2021-09-19T10:58:28Z</time>
      </trkpt>
      <trkpt lat="43.61553" lon="1.30579">
        <ele>185</ele>
        <time>2021-09-19T10:58:29Z</time>
      </trkpt>
      <trkpt lat="43.61557" lon="1.30581">
        <ele>185</ele>
        <time>2021-09-19T10:58:30Z</time>
      </trkpt>
      <trkpt lat="43.6156" lon="1.30583">
        <ele>185</ele>
        <time>2021-09-19T10:58:31Z</time>
      </trkpt>
      <trkpt lat="43.61564" lon="1.30585">
        <ele>184</ele>
        <time>2021-09-19T10:58:32Z</time>
      </trkpt>
      <trkpt lat="43.61567" lon="1.30587">
        <ele>184</ele>
        <time>2021-09-19T10:58:33Z</time>
      </trkpt>
      <trkpt lat="43.61571" lon="1.3059">
        <ele>185</ele>
        <time>2021-09-19T10:58:34Z</time>
      </trkpt>
      <trkpt lat="43.61575" lon="1.30592">
        <ele>185</ele>
        <time>2021-09-19T10:58:35Z</time>
      </trkpt>
      <trkpt lat="43.61579" lon="1.30594">
        <ele>185</ele>
        <time>2021-09-19T10:58:36Z</time>
      </trkpt>
      <trkpt lat="43.61582" lon="1.30596">
        <ele>185</ele>
        <time>2021-09-19T10:58:37Z</time>
      </trkpt>
      <trkpt lat="43.61587" lon="1.30597">
        <ele>185</ele>
        <time>2021-09-19T10:58:38Z</time>
      </trkpt>
      <trkpt lat="43.61591" lon="1.30597">
        <ele>185</ele>
        <time>2021-09-19T10:58:39Z</time>
      </trkpt>
      <trkpt lat="43.61595" lon="1.30596">
        <ele>185</ele>
        <time>2021-09-19T10:58:40Z</time>
      </trkpt>
      <trkpt lat="43.616" lon="1.30596">
        <ele>185</ele>
        <time>2021-09-19T10:58:41Z</time>
      </trkpt>
      <trkpt lat="43.61604" lon="1.30595">
        <ele>184</ele>
        <time>2021-09-19T10:58:42Z</time>
      </trkpt>
      <trkpt lat="43.61608" lon="1.30594">
        <ele>184</ele>
        <time>2021-09-19T10:58:43Z</time>
      </trkpt>
      <trkpt lat="43.61612" lon="1.30592">
        <ele>184</ele>
        <time>2021-09-19T10:58:44Z</time>
      </trkpt>
      <trkpt lat="43.61616" lon="1.30591">
        <ele>184</ele>
        <time>2021-09-19T10:58:45Z</time>
      </trkpt>
      <trkpt lat="43.6162" lon="1.3059">
        <ele>184</ele>
        <time>2021-09-19T10:58:46Z</time>
      </trkpt>
      <trkpt lat="43.61624" lon="1.30589">
        <ele>184</ele>
        <time>2021-09-19T10:58:47Z</time>
      </trkpt>
      <trkpt lat="43.61628" lon="1.30588">
        <ele>184</ele>
        <time>2021-09-19T10:58:48Z</time>
      </trkpt>
      <trkpt lat="43.61635" lon="1.30586">
        <ele>184</ele>
        <time>2021-09-19T10:58:50Z</time>
      </trkpt>
      <trkpt lat="43.61639" lon="1.30588">
        <ele>184</ele>
        <time>2021-09-19T10:58:51Z</time>
      </trkpt>
      <trkpt lat="43.61643" lon="1.3059">
        <ele>184</ele>
        <time>2021-09-19T10:58:52Z</time>
      </trkpt>
      <trkpt lat="43.61647" lon="1.30593">
        <ele>184</ele>
        <time>2021-09-19T10:58:53Z</time>
      </trkpt>
      <trkpt lat="43.6165" lon="1.30596">
        <ele>184</ele>
        <time>2021-09-19T10:58:54Z</time>
      </trkpt>
      <trkpt lat="43.61654" lon="1.30598">
        <ele>184</ele>
        <time>2021-09-19T10:58:55Z</time>
      </trkpt>
      <trkpt lat="43.61657" lon="1.30599">
        <ele>184</ele>
        <time>2021-09-19T10:58:56Z</time>
      </trkpt>
      <trkpt lat="43.61661" lon="1.30601">
        <ele>183</ele>
        <time>2021-09-19T10:58:57Z</time>
      </trkpt>
      <trkpt lat="43.61665" lon="1.30603">
        <ele>183</ele>
        <time>2021-09-19T10:58:58Z</time>
      </trkpt>
      <trkpt lat="43.61668" lon="1.30605">
        <ele>184</ele>
        <time>2021-09-19T10:58:59Z</time>
      </trkpt>
      <trkpt lat="43.61672" lon="1.30607">
        <ele>184</ele>
        <time>2021-09-19T10:59:00Z</time>
      </trkpt>
      <trkpt lat="43.61676" lon="1.30608">
        <ele>184</ele>
        <time>2021-09-19T10:59:01Z</time>
      </trkpt>
      <trkpt lat="43.61679" lon="1.30609">
        <ele>184</ele>
        <time>2021-09-19T10:59:02Z</time>
      </trkpt>
      <trkpt lat="43.61683" lon="1.3061">
        <ele>184</ele>
        <time>2021-09-19T10:59:03Z</time>
      </trkpt>
      <trkpt lat="43.61687" lon="1.30611">
        <ele>184</ele>
        <time>2021-09-19T10:59:04Z</time>
      </trkpt>
      <trkpt lat="43.6169" lon="1.30612">
        <ele>184</ele>
        <time>2021-09-19T10:59:05Z</time>
      </trkpt>
      <trkpt lat="43.61694" lon="1.30613">
        <ele>184</ele>
        <time>2021-09-19T10:59:06Z</time>
      </trkpt>
      <trkpt lat="43.61697" lon="1.30614">
        <ele>184</ele>
        <time>2021-09-19T10:59:07Z</time>
      </trkpt>
      <trkpt lat="43.61701" lon="1.30615">
        <ele>184</ele>
        <time>2021-09-19T10:59:08Z</time>
      </trkpt>
      <trkpt lat="43.61705" lon="1.30616">
        <ele>184</ele>
        <time>2021-09-19T10:59:09Z</time>
      </trkpt>
      <trkpt lat="43.61708" lon="1.30617">
        <ele>184</ele>
        <time>2021-09-19T10:59:10Z</time>
      </trkpt>
      <trkpt lat="43.61712" lon="1.30618">
        <ele>184</ele>
        <time>2021-09-19T10:59:11Z</time>
      </trkpt>
      <trkpt lat="43.61716" lon="1.30621">
        <ele>184</ele>
        <time>2021-09-19T10:59:12Z</time>
      </trkpt>
      <trkpt lat="43.61719" lon="1.30623">
        <ele>184</ele>
        <time>2021-09-19T10:59:13Z</time>
      </trkpt>
      <trkpt lat="43.61722" lon="1.30627">
        <ele>184</ele>
        <time>2021-09-19T10:59:14Z</time>
      </trkpt>
      <trkpt lat="43.61725" lon="1.3063">
        <ele>184</ele>
        <time>2021-09-19T10:59:15Z</time>
      </trkpt>
      <trkpt lat="43.61728" lon="1.30634">
        <ele>184</ele>
        <time>2021-09-19T10:59:16Z</time>
      </trkpt>
      <trkpt lat="43.61731" lon="1.30637">
        <ele>184</ele>
        <time>2021-09-19T10:59:17Z</time>
      </trkpt>
      <trkpt lat="43.61734" lon="1.3064">
        <ele>184</ele>
        <time>2021-09-19T10:59:18Z</time>
      </trkpt>
      <trkpt lat="43.61737" lon="1.30643">
        <ele>184</ele>
        <time>2021-09-19T10:59:19Z</time>
      </trkpt>
      <trkpt lat="43.6174" lon="1.30645">
        <ele>184</ele>
        <time>2021-09-19T10:59:20Z</time>
      </trkpt>
      <trkpt lat="43.61743" lon="1.30647">
        <ele>184</ele>
        <time>2021-09-19T10:59:21Z</time>
      </trkpt>
      <trkpt lat="43.61746" lon="1.30648">
        <ele>184</ele>
        <time>2021-09-19T10:59:22Z</time>
      </trkpt>
      <trkpt lat="43.61749" lon="1.30648">
        <ele>184</ele>
        <time>2021-09-19T10:59:23Z</time>
      </trkpt>
      <trkpt lat="43.61753" lon="1.30649">
        <ele>185</ele>
        <time>2021-09-19T10:59:24Z</time>
      </trkpt>
      <trkpt lat="43.61756" lon="1.30649">
        <ele>185</ele>
        <time>2021-09-19T10:59:25Z</time>
      </trkpt>
      <trkpt lat="43.61759" lon="1.3065">
        <ele>185</ele>
        <time>2021-09-19T10:59:26Z</time>
      </trkpt>
      <trkpt lat="43.61762" lon="1.30652">
        <ele>185</ele>
        <time>2021-09-19T10:59:27Z</time>
      </trkpt>
      <trkpt lat="43.61764" lon="1.30654">
        <ele>184</ele>
        <time>2021-09-19T10:59:28Z</time>
      </trkpt>
      <trkpt lat="43.61766" lon="1.30656">
        <ele>184</ele>
        <time>2021-09-19T10:59:29Z</time>
      </trkpt>
      <trkpt lat="43.61767" lon="1.30657">
        <ele>183</ele>
        <time>2021-09-19T10:59:30Z</time>
      </trkpt>
      <trkpt lat="43.6177" lon="1.30658">
        <ele>183</ele>
        <time>2021-09-19T10:59:32Z</time>
      </trkpt>
      <trkpt lat="43.61772" lon="1.30656">
        <ele>183</ele>
        <time>2021-09-19T10:59:33Z</time>
      </trkpt>
      <trkpt lat="43.61774" lon="1.30654">
        <ele>183</ele>
        <time>2021-09-19T10:59:34Z</time>
      </trkpt>
      <trkpt lat="43.61775" lon="1.3065">
        <ele>183</ele>
        <time>2021-09-19T10:59:35Z</time>
      </trkpt>
      <trkpt lat="43.61777" lon="1.30646">
        <ele>184</ele>
        <time>2021-09-19T10:59:36Z</time>
      </trkpt>
      <trkpt lat="43.61778" lon="1.30641">
        <ele>184</ele>
        <time>2021-09-19T10:59:37Z</time>
      </trkpt>
      <trkpt lat="43.6178" lon="1.30637">
        <ele>184</ele>
        <time>2021-09-19T10:59:38Z</time>
      </trkpt>
      <trkpt lat="43.61782" lon="1.30632">
        <ele>184</ele>
        <time>2021-09-19T10:59:39Z</time>
      </trkpt>
      <trkpt lat="43.61783" lon="1.30627">
        <ele>184</ele>
        <time>2021-09-19T10:59:40Z</time>
      </trkpt>
      <trkpt lat="43.61785" lon="1.30623">
        <ele>185</ele>
        <time>2021-09-19T10:59:41Z</time>
      </trkpt>
      <trkpt lat="43.61786" lon="1.30618">
        <ele>185</ele>
        <time>2021-09-19T10:59:42Z</time>
      </trkpt>
      <trkpt lat="43.61788" lon="1.30614">
        <ele>186</ele>
        <time>2021-09-19T10:59:43Z</time>
      </trkpt>
      <trkpt lat="43.61789" lon="1.30609">
        <ele>186</ele>
        <time>2021-09-19T10:59:44Z</time>
      </trkpt>
      <trkpt lat="43.61791" lon="1.30605">
        <ele>185</ele>
        <time>2021-09-19T10:59:45Z</time>
      </trkpt>
      <trkpt lat="43.61792" lon="1.30601">
        <ele>184</ele>
        <time>2021-09-19T10:59:46Z</time>
      </trkpt>
      <trkpt lat="43.61794" lon="1.30597">
        <ele>184</ele>
        <time>2021-09-19T10:59:47Z</time>
      </trkpt>
      <trkpt lat="43.61796" lon="1.30594">
        <ele>184</ele>
        <time>2021-09-19T10:59:48Z</time>
      </trkpt>
      <trkpt lat="43.61798" lon="1.30591">
        <ele>184</ele>
        <time>2021-09-19T10:59:49Z</time>
      </trkpt>
      <trkpt lat="43.61801" lon="1.30589">
        <ele>184</ele>
        <time>2021-09-19T10:59:50Z</time>
      </trkpt>
      <trkpt lat="43.61804" lon="1.30588">
        <ele>184</ele>
        <time>2021-09-19T10:59:51Z</time>
      </trkpt>
      <trkpt lat="43.61807" lon="1.30589">
        <ele>184</ele>
        <time>2021-09-19T10:59:52Z</time>
      </trkpt>
      <trkpt lat="43.6181" lon="1.3059">
        <ele>184</ele>
        <time>2021-09-19T10:59:53Z</time>
      </trkpt>
      <trkpt lat="43.61812" lon="1.30592">
        <ele>184</ele>
        <time>2021-09-19T10:59:54Z</time>
      </trkpt>
      <trkpt lat="43.61815" lon="1.30593">
        <ele>184</ele>
        <time>2021-09-19T10:59:55Z</time>
      </trkpt>
      <trkpt lat="43.61817" lon="1.30593">
        <ele>184</ele>
        <time>2021-09-19T10:59:56Z</time>
      </trkpt>
      <trkpt lat="43.6182" lon="1.30592">
        <ele>184</ele>
        <time>2021-09-19T10:59:57Z</time>
      </trkpt>
      <trkpt lat="43.61823" lon="1.30592">
        <ele>184</ele>
        <time>2021-09-19T10:59:58Z</time>
      </trkpt>
      <trkpt lat="43.61825" lon="1.3059">
        <ele>184</ele>
        <time>2021-09-19T10:59:59Z</time>
      </trkpt>
      <trkpt lat="43.61827" lon="1.30589">
        <ele>184</ele>
        <time>2021-09-19T11:00:00Z</time>
      </trkpt>
      <trkpt lat="43.61829" lon="1.30588">
        <ele>183</ele>
        <time>2021-09-19T11:00:01Z</time>
      </trkpt>
      <trkpt lat="43.61831" lon="1.30587">
        <ele>183</ele>
        <time>2021-09-19T11:00:02Z</time>
      </trkpt>
      <trkpt lat="43.61833" lon="1.30587">
        <ele>183</ele>
        <time>2021-09-19T11:00:03Z</time>
      </trkpt>
      <trkpt lat="43.61835" lon="1.30588">
        <ele>183</ele>
        <time>2021-09-19T11:00:04Z</time>
      </trkpt>
      <trkpt lat="43.61838" lon="1.30589">
        <ele>184</ele>
        <time>2021-09-19T11:00:06Z</time>
      </trkpt>
      <trkpt lat="43.6184" lon="1.30589">
        <ele>184</ele>
        <time>2021-09-19T11:00:18Z</time>
      </trkpt>
    </trkseg>
  </trk>
</gpx>